<?xml version='1.0' encoding='UTF-8'?><gpx version="1.1" creator="JPX - https://github.com/jenetics/jpx" xmlns="http://www.topografix.com/GPX/1/1"><trk><trkseg><trkpt lat="43.4520359" lon="11.8806516"><ele>254.0</ele><time>2026-04-19T07:21:51.289Z</time></trkpt><trkpt lat="43.4520926" lon="11.8806115"><ele>253.99999999999997</ele><time>2026-04-19T07:22:17.309Z</time></trkpt><trkpt lat="43.4520346" lon="11.8806477"><ele>253.99999999999997</ele><time>2026-04-19T07:24:12.406Z</time></trkpt><trkpt lat="43.4520682" lon="11.8808376"><ele>254.0</ele><time>2026-04-19T07:24:34.232Z</time></trkpt><trkpt lat="43.4520479" lon="11.8810332"><ele>254.0</ele><time>2026-04-19T07:24:35.235Z</time></trkpt><trkpt lat="43.4520554" lon="11.8811697"><ele>254.16666666666669</ele><time>2026-04-19T07:24:36.235Z</time></trkpt><trkpt lat="43.4520662" lon="11.8812862"><ele>254.33333333333334</ele><time>2026-04-19T07:24:37.235Z</time></trkpt><trkpt lat="43.4520794" lon="11.8814085"><ele>254.5</ele><time>2026-04-19T07:24:38.234Z</time></trkpt><trkpt lat="43.4520723" lon="11.88153"><ele>254.66666666666669</ele><time>2026-04-19T07:24:39.235Z</time></trkpt><trkpt lat="43.452068" lon="11.8816404"><ele>254.83333333333334</ele><time>2026-04-19T07:24:40.235Z</time></trkpt><trkpt lat="43.4520904" lon="11.8817295"><ele>255.0</ele><time>2026-04-19T07:24:41.235Z</time></trkpt><trkpt lat="43.4521301" lon="11.8818004"><ele>255.5</ele><time>2026-04-19T07:24:42.235Z</time></trkpt><trkpt lat="43.4521894" lon="11.8818502"><ele>256.0</ele><time>2026-04-19T07:24:43.235Z</time></trkpt><trkpt lat="43.4522622" lon="11.8818824"><ele>256.5</ele><time>2026-04-19T07:24:44.236Z</time></trkpt><trkpt lat="43.4523423" lon="11.8819111"><ele>257.0</ele><time>2026-04-19T07:24:45.235Z</time></trkpt><trkpt lat="43.452413" lon="11.8819673"><ele>257.5</ele><time>2026-04-19T07:24:46.235Z</time></trkpt><trkpt lat="43.4524735" lon="11.8820652"><ele>258.0</ele><time>2026-04-19T07:24:47.235Z</time></trkpt><trkpt lat="43.4525236" lon="11.8821942"><ele>258.0</ele><time>2026-04-19T07:24:48.235Z</time></trkpt><trkpt lat="43.4525746" lon="11.8823309"><ele>258.0</ele><time>2026-04-19T07:24:49.234Z</time></trkpt><trkpt lat="43.45263" lon="11.8824696"><ele>258.0</ele><time>2026-04-19T07:24:50.236Z</time></trkpt><trkpt lat="43.4526867" lon="11.882614"><ele>258.0</ele><time>2026-04-19T07:24:51.234Z</time></trkpt><trkpt lat="43.4527467" lon="11.8827665"><ele>258.0</ele><time>2026-04-19T07:24:52.234Z</time></trkpt><trkpt lat="43.4528112" lon="11.8829253"><ele>258.0</ele><time>2026-04-19T07:24:53.234Z</time></trkpt><trkpt lat="43.4528769" lon="11.8830906"><ele>258.0</ele><time>2026-04-19T07:24:54.234Z</time></trkpt><trkpt lat="43.4529448" lon="11.8832622"><ele>258.0</ele><time>2026-04-19T07:24:55.234Z</time></trkpt><trkpt lat="43.4530133" lon="11.8834387"><ele>258.75</ele><time>2026-04-19T07:24:56.234Z</time></trkpt><trkpt lat="43.453082" lon="11.8836162"><ele>259.5</ele><time>2026-04-19T07:24:57.233Z</time></trkpt><trkpt lat="43.4531506" lon="11.8837953"><ele>260.25</ele><time>2026-04-19T07:24:58.234Z</time></trkpt><trkpt lat="43.4532174" lon="11.8839773"><ele>261.0</ele><time>2026-04-19T07:24:59.237Z</time></trkpt><trkpt lat="43.453282" lon="11.8841623"><ele>260.5</ele><time>2026-04-19T07:25:00.235Z</time></trkpt><trkpt lat="43.4533453" lon="11.8843492"><ele>260.0</ele><time>2026-04-19T07:25:01.235Z</time></trkpt><trkpt lat="43.4534056" lon="11.8845363"><ele>259.5</ele><time>2026-04-19T07:25:02.234Z</time></trkpt><trkpt lat="43.4534622" lon="11.884727"><ele>259.0</ele><time>2026-04-19T07:25:03.234Z</time></trkpt><trkpt lat="43.4535101" lon="11.8849162"><ele>259.0</ele><time>2026-04-19T07:25:04.235Z</time></trkpt><trkpt lat="43.4535534" lon="11.8850991"><ele>259.0</ele><time>2026-04-19T07:25:05.234Z</time></trkpt><trkpt lat="43.4535921" lon="11.8852833"><ele>259.0</ele><time>2026-04-19T07:25:06.234Z</time></trkpt><trkpt lat="43.4536282" lon="11.8854774"><ele>259.0</ele><time>2026-04-19T07:25:07.234Z</time></trkpt><trkpt lat="43.4536644" lon="11.8856703"><ele>259.0</ele><time>2026-04-19T07:25:08.235Z</time></trkpt><trkpt lat="43.4537036" lon="11.8858624"><ele>259.0</ele><time>2026-04-19T07:25:09.235Z</time></trkpt><trkpt lat="43.4537413" lon="11.8860557"><ele>259.0</ele><time>2026-04-19T07:25:10.233Z</time></trkpt><trkpt lat="43.4537709" lon="11.8862469"><ele>259.0</ele><time>2026-04-19T07:25:11.234Z</time></trkpt><trkpt lat="43.4537942" lon="11.8864436"><ele>260.0</ele><time>2026-04-19T07:25:12.235Z</time></trkpt><trkpt lat="43.4538196" lon="11.8866435"><ele>261.0</ele><time>2026-04-19T07:25:13.232Z</time></trkpt><trkpt lat="43.4538448" lon="11.8868458"><ele>262.0</ele><time>2026-04-19T07:25:14.235Z</time></trkpt><trkpt lat="43.4538713" lon="11.8870506"><ele>263.0</ele><time>2026-04-19T07:25:15.233Z</time></trkpt><trkpt lat="43.4538979" lon="11.8872488"><ele>263.25</ele><time>2026-04-19T07:25:16.234Z</time></trkpt><trkpt lat="43.453924" lon="11.8874361"><ele>263.5</ele><time>2026-04-19T07:25:17.235Z</time></trkpt><trkpt lat="43.4539491" lon="11.8876211"><ele>263.75</ele><time>2026-04-19T07:25:18.234Z</time></trkpt><trkpt lat="43.4539713" lon="11.8878058"><ele>264.0</ele><time>2026-04-19T07:25:19.234Z</time></trkpt><trkpt lat="43.4539926" lon="11.8879926"><ele>264.0</ele><time>2026-04-19T07:25:20.237Z</time></trkpt><trkpt lat="43.454014" lon="11.888172"><ele>264.0</ele><time>2026-04-19T07:25:21.234Z</time></trkpt><trkpt lat="43.4540329" lon="11.8883479"><ele>264.0</ele><time>2026-04-19T07:25:22.232Z</time></trkpt><trkpt lat="43.4540493" lon="11.8885204"><ele>264.0</ele><time>2026-04-19T07:25:23.234Z</time></trkpt><trkpt lat="43.4540642" lon="11.8886856"><ele>263.59999999999997</ele><time>2026-04-19T07:25:24.234Z</time></trkpt><trkpt lat="43.4540772" lon="11.8888354"><ele>263.2</ele><time>2026-04-19T07:25:25.234Z</time></trkpt><trkpt lat="43.4540947" lon="11.8889749"><ele>262.79999999999995</ele><time>2026-04-19T07:25:26.234Z</time></trkpt><trkpt lat="43.4541133" lon="11.8891047"><ele>262.4</ele><time>2026-04-19T07:25:27.235Z</time></trkpt><trkpt lat="43.4541292" lon="11.8892316"><ele>262.0</ele><time>2026-04-19T07:25:28.235Z</time></trkpt><trkpt lat="43.4541369" lon="11.889365"><ele>261.8333333333333</ele><time>2026-04-19T07:25:29.234Z</time></trkpt><trkpt lat="43.4541233" lon="11.8895001"><ele>261.66666666666663</ele><time>2026-04-19T07:25:30.234Z</time></trkpt><trkpt lat="43.4541027" lon="11.8896312"><ele>261.5</ele><time>2026-04-19T07:25:31.234Z</time></trkpt><trkpt lat="43.4540935" lon="11.889753"><ele>261.3333333333333</ele><time>2026-04-19T07:25:32.234Z</time></trkpt><trkpt lat="43.4541192" lon="11.8898502"><ele>261.1666666666667</ele><time>2026-04-19T07:25:33.234Z</time></trkpt><trkpt lat="43.4541806" lon="11.8898985"><ele>261.0</ele><time>2026-04-19T07:25:34.233Z</time></trkpt><trkpt lat="43.4542741" lon="11.8898904"><ele>261.0</ele><time>2026-04-19T07:25:35.235Z</time></trkpt><trkpt lat="43.4543698" lon="11.8898478"><ele>261.0</ele><time>2026-04-19T07:25:36.234Z</time></trkpt><trkpt lat="43.4544627" lon="11.8897706"><ele>261.0</ele><time>2026-04-19T07:25:37.235Z</time></trkpt><trkpt lat="43.4545588" lon="11.8896881"><ele>261.0</ele><time>2026-04-19T07:25:38.235Z</time></trkpt><trkpt lat="43.4546697" lon="11.889635"><ele>261.0</ele><time>2026-04-19T07:25:39.234Z</time></trkpt><trkpt lat="43.4547916" lon="11.8895962"><ele>261.5</ele><time>2026-04-19T07:25:40.234Z</time></trkpt><trkpt lat="43.4549168" lon="11.8895638"><ele>262.0</ele><time>2026-04-19T07:25:41.234Z</time></trkpt><trkpt lat="43.4550433" lon="11.8895299"><ele>262.5</ele><time>2026-04-19T07:25:42.232Z</time></trkpt><trkpt lat="43.4551759" lon="11.889499"><ele>263.0</ele><time>2026-04-19T07:25:43.233Z</time></trkpt><trkpt lat="43.4553146" lon="11.8894667"><ele>263.25</ele><time>2026-04-19T07:25:44.233Z</time></trkpt><trkpt lat="43.4554545" lon="11.8894256"><ele>263.5</ele><time>2026-04-19T07:25:45.232Z</time></trkpt><trkpt lat="43.4555945" lon="11.8893864"><ele>263.75</ele><time>2026-04-19T07:25:46.232Z</time></trkpt><trkpt lat="43.4557341" lon="11.8893457"><ele>264.0</ele><time>2026-04-19T07:25:47.233Z</time></trkpt><trkpt lat="43.4558613" lon="11.8892996"><ele>264.0</ele><time>2026-04-19T07:25:48.233Z</time></trkpt><trkpt lat="43.455962" lon="11.8892596"><ele>264.0</ele><time>2026-04-19T07:25:49.234Z</time></trkpt><trkpt lat="43.456042" lon="11.8892216"><ele>264.0</ele><time>2026-04-19T07:25:50.234Z</time></trkpt><trkpt lat="43.4561098" lon="11.8891799"><ele>264.0</ele><time>2026-04-19T07:25:51.234Z</time></trkpt><trkpt lat="43.4562368" lon="11.8891897"><ele>264.0</ele><time>2026-04-19T07:25:53.235Z</time></trkpt><trkpt lat="43.4563056" lon="11.8892591"><ele>265.0</ele><time>2026-04-19T07:25:54.235Z</time></trkpt><trkpt lat="43.4563764" lon="11.8893416"><ele>266.0</ele><time>2026-04-19T07:25:55.235Z</time></trkpt><trkpt lat="43.456451" lon="11.8894415"><ele>267.0</ele><time>2026-04-19T07:25:56.234Z</time></trkpt><trkpt lat="43.4565264" lon="11.8895467"><ele>268.0</ele><time>2026-04-19T07:25:57.234Z</time></trkpt><trkpt lat="43.4566054" lon="11.8896466"><ele>269.0</ele><time>2026-04-19T07:25:58.235Z</time></trkpt><trkpt lat="43.4566907" lon="11.8897458"><ele>269.0</ele><time>2026-04-19T07:25:59.236Z</time></trkpt><trkpt lat="43.4567766" lon="11.889853"><ele>269.0</ele><time>2026-04-19T07:26:00.235Z</time></trkpt><trkpt lat="43.4568671" lon="11.8899612"><ele>269.0</ele><time>2026-04-19T07:26:01.233Z</time></trkpt><trkpt lat="43.4569595" lon="11.8900738"><ele>269.0</ele><time>2026-04-19T07:26:02.234Z</time></trkpt><trkpt lat="43.4570543" lon="11.8901849"><ele>267.5</ele><time>2026-04-19T07:26:03.234Z</time></trkpt><trkpt lat="43.4571481" lon="11.8902934"><ele>266.0</ele><time>2026-04-19T07:26:04.233Z</time></trkpt><trkpt lat="43.4572416" lon="11.8904"><ele>264.5</ele><time>2026-04-19T07:26:05.234Z</time></trkpt><trkpt lat="43.4573378" lon="11.8905036"><ele>263.0</ele><time>2026-04-19T07:26:06.234Z</time></trkpt><trkpt lat="43.4574305" lon="11.8906109"><ele>263.0</ele><time>2026-04-19T07:26:07.233Z</time></trkpt><trkpt lat="43.4575182" lon="11.8907231"><ele>263.0</ele><time>2026-04-19T07:26:08.235Z</time></trkpt><trkpt lat="43.4576046" lon="11.8908376"><ele>263.0</ele><time>2026-04-19T07:26:09.232Z</time></trkpt><trkpt lat="43.4576912" lon="11.8909507"><ele>263.0</ele><time>2026-04-19T07:26:10.232Z</time></trkpt><trkpt lat="43.4577783" lon="11.8910608"><ele>263.6</ele><time>2026-04-19T07:26:11.235Z</time></trkpt><trkpt lat="43.4578557" lon="11.8911572"><ele>264.20000000000005</ele><time>2026-04-19T07:26:12.233Z</time></trkpt><trkpt lat="43.4579241" lon="11.8912393"><ele>264.8</ele><time>2026-04-19T07:26:13.232Z</time></trkpt><trkpt lat="43.4579842" lon="11.8913136"><ele>265.40000000000003</ele><time>2026-04-19T07:26:14.234Z</time></trkpt><trkpt lat="43.4580379" lon="11.8913806"><ele>266.0</ele><time>2026-04-19T07:26:15.233Z</time></trkpt><trkpt lat="43.4581167" lon="11.8914777"><ele>266.1666666666667</ele><time>2026-04-19T07:26:17.234Z</time></trkpt><trkpt lat="43.4581729" lon="11.8915312"><ele>266.33333333333337</ele><time>2026-04-19T07:26:19.233Z</time></trkpt><trkpt lat="43.4582555" lon="11.8915366"><ele>266.5</ele><time>2026-04-19T07:26:21.232Z</time></trkpt><trkpt lat="43.4583423" lon="11.8914008"><ele>266.6666666666667</ele><time>2026-04-19T07:26:23.234Z</time></trkpt><trkpt lat="43.4583941" lon="11.8913244"><ele>266.8333333333333</ele><time>2026-04-19T07:26:24.235Z</time></trkpt><trkpt lat="43.4584546" lon="11.8912576"><ele>267.0</ele><time>2026-04-19T07:26:25.235Z</time></trkpt><trkpt lat="43.4585204" lon="11.8912027"><ele>267.0</ele><time>2026-04-19T07:26:26.235Z</time></trkpt><trkpt lat="43.4585926" lon="11.8911533"><ele>267.0</ele><time>2026-04-19T07:26:27.233Z</time></trkpt><trkpt lat="43.4586611" lon="11.8910884"><ele>267.0</ele><time>2026-04-19T07:26:28.236Z</time></trkpt><trkpt lat="43.4587274" lon="11.8910063"><ele>267.0</ele><time>2026-04-19T07:26:29.235Z</time></trkpt><trkpt lat="43.4587873" lon="11.8909131"><ele>267.0</ele><time>2026-04-19T07:26:30.234Z</time></trkpt><trkpt lat="43.4588424" lon="11.8908245"><ele>267.0</ele><time>2026-04-19T07:26:31.234Z</time></trkpt><trkpt lat="43.4588928" lon="11.8907384"><ele>266.8333333333333</ele><time>2026-04-19T07:26:32.235Z</time></trkpt><trkpt lat="43.4589409" lon="11.8906485"><ele>266.6666666666667</ele><time>2026-04-19T07:26:33.233Z</time></trkpt><trkpt lat="43.4589874" lon="11.8905566"><ele>266.5</ele><time>2026-04-19T07:26:34.233Z</time></trkpt><trkpt lat="43.4590241" lon="11.8904617"><ele>266.33333333333337</ele><time>2026-04-19T07:26:35.234Z</time></trkpt><trkpt lat="43.4590433" lon="11.8903556"><ele>266.1666666666667</ele><time>2026-04-19T07:26:36.234Z</time></trkpt><trkpt lat="43.4590476" lon="11.8902395"><ele>266.0</ele><time>2026-04-19T07:26:37.233Z</time></trkpt><trkpt lat="43.4590423" lon="11.890107"><ele>266.33333333333337</ele><time>2026-04-19T07:26:38.232Z</time></trkpt><trkpt lat="43.4590366" lon="11.8899694"><ele>266.6666666666667</ele><time>2026-04-19T07:26:39.232Z</time></trkpt><trkpt lat="43.4590366" lon="11.8898389"><ele>267.0</ele><time>2026-04-19T07:26:40.234Z</time></trkpt><trkpt lat="43.4590385" lon="11.889722"><ele>267.3333333333333</ele><time>2026-04-19T07:26:41.232Z</time></trkpt><trkpt lat="43.459046" lon="11.8896118"><ele>267.66666666666663</ele><time>2026-04-19T07:26:42.232Z</time></trkpt><trkpt lat="43.4590656" lon="11.8895132"><ele>268.0</ele><time>2026-04-19T07:26:43.232Z</time></trkpt><trkpt lat="43.4591029" lon="11.8894398"><ele>268.0</ele><time>2026-04-19T07:26:44.233Z</time></trkpt><trkpt lat="43.4591865" lon="11.889342"><ele>268.0</ele><time>2026-04-19T07:26:46.234Z</time></trkpt><trkpt lat="43.4592661" lon="11.8892279"><ele>268.0</ele><time>2026-04-19T07:26:48.235Z</time></trkpt><trkpt lat="43.4593388" lon="11.8891224"><ele>268.0</ele><time>2026-04-19T07:26:50.236Z</time></trkpt><trkpt lat="43.4594134" lon="11.8890216"><ele>268.0</ele><time>2026-04-19T07:26:52.234Z</time></trkpt><trkpt lat="43.459458" lon="11.8889539"><ele>267.8333333333333</ele><time>2026-04-19T07:26:53.241Z</time></trkpt><trkpt lat="43.4595087" lon="11.8888748"><ele>267.66666666666663</ele><time>2026-04-19T07:26:54.234Z</time></trkpt><trkpt lat="43.4595634" lon="11.8887852"><ele>267.5</ele><time>2026-04-19T07:26:55.235Z</time></trkpt><trkpt lat="43.4596216" lon="11.8886872"><ele>267.3333333333333</ele><time>2026-04-19T07:26:56.238Z</time></trkpt><trkpt lat="43.4596819" lon="11.888584"><ele>267.1666666666667</ele><time>2026-04-19T07:26:57.232Z</time></trkpt><trkpt lat="43.4597467" lon="11.888481"><ele>267.0</ele><time>2026-04-19T07:26:58.233Z</time></trkpt><trkpt lat="43.4598152" lon="11.8883847"><ele>266.3333333333333</ele><time>2026-04-19T07:26:59.234Z</time></trkpt><trkpt lat="43.4598909" lon="11.8883085"><ele>265.6666666666667</ele><time>2026-04-19T07:27:00.234Z</time></trkpt><trkpt lat="43.459968" lon="11.8882533"><ele>265.0</ele><time>2026-04-19T07:27:01.234Z</time></trkpt><trkpt lat="43.4600421" lon="11.8882061"><ele>264.33333333333337</ele><time>2026-04-19T07:27:02.234Z</time></trkpt><trkpt lat="43.4601102" lon="11.8881478"><ele>263.6666666666667</ele><time>2026-04-19T07:27:03.234Z</time></trkpt><trkpt lat="43.4601712" lon="11.888071"><ele>263.0</ele><time>2026-04-19T07:27:04.232Z</time></trkpt><trkpt lat="43.4602241" lon="11.8879819"><ele>263.0</ele><time>2026-04-19T07:27:05.241Z</time></trkpt><trkpt lat="43.4602656" lon="11.8878874"><ele>263.0</ele><time>2026-04-19T07:27:06.235Z</time></trkpt><trkpt lat="43.4602863" lon="11.8877796"><ele>263.0</ele><time>2026-04-19T07:27:07.232Z</time></trkpt><trkpt lat="43.4602932" lon="11.887657"><ele>263.0</ele><time>2026-04-19T07:27:08.233Z</time></trkpt><trkpt lat="43.4602955" lon="11.8875239"><ele>263.0</ele><time>2026-04-19T07:27:09.233Z</time></trkpt><trkpt lat="43.460297" lon="11.8873893"><ele>263.0</ele><time>2026-04-19T07:27:10.236Z</time></trkpt><trkpt lat="43.4602958" lon="11.8872677"><ele>263.0</ele><time>2026-04-19T07:27:11.236Z</time></trkpt><trkpt lat="43.4602931" lon="11.8871596"><ele>263.0</ele><time>2026-04-19T07:27:12.234Z</time></trkpt><trkpt lat="43.4602889" lon="11.8870612"><ele>263.0</ele><time>2026-04-19T07:27:13.233Z</time></trkpt><trkpt lat="43.4602899" lon="11.8869712"><ele>263.0</ele><time>2026-04-19T07:27:14.234Z</time></trkpt><trkpt lat="43.4603203" lon="11.8868401"><ele>263.0</ele><time>2026-04-19T07:27:16.235Z</time></trkpt><trkpt lat="43.460385" lon="11.8868571"><ele>263.0</ele><time>2026-04-19T07:27:17.236Z</time></trkpt><trkpt lat="43.4604679" lon="11.8868918"><ele>263.4</ele><time>2026-04-19T07:27:18.234Z</time></trkpt><trkpt lat="43.4605618" lon="11.8869387"><ele>263.8</ele><time>2026-04-19T07:27:19.234Z</time></trkpt><trkpt lat="43.4606602" lon="11.8869851"><ele>264.2</ele><time>2026-04-19T07:27:20.235Z</time></trkpt><trkpt lat="43.4607485" lon="11.8870316"><ele>264.6</ele><time>2026-04-19T07:27:21.234Z</time></trkpt><trkpt lat="43.4608309" lon="11.8870878"><ele>265.0</ele><time>2026-04-19T07:27:22.234Z</time></trkpt><trkpt lat="43.4609072" lon="11.8871672"><ele>265.0</ele><time>2026-04-19T07:27:23.233Z</time></trkpt><trkpt lat="43.4609724" lon="11.8872672"><ele>265.0</ele><time>2026-04-19T07:27:24.235Z</time></trkpt><trkpt lat="43.4610319" lon="11.8873854"><ele>265.0</ele><time>2026-04-19T07:27:25.235Z</time></trkpt><trkpt lat="43.4610841" lon="11.8875156"><ele>265.0</ele><time>2026-04-19T07:27:26.234Z</time></trkpt><trkpt lat="43.4611308" lon="11.8876573"><ele>265.0</ele><time>2026-04-19T07:27:27.233Z</time></trkpt><trkpt lat="43.4611726" lon="11.8878038"><ele>265.0</ele><time>2026-04-19T07:27:28.232Z</time></trkpt><trkpt lat="43.461207" lon="11.8879551"><ele>265.0</ele><time>2026-04-19T07:27:29.232Z</time></trkpt><trkpt lat="43.4612319" lon="11.8881055"><ele>265.0</ele><time>2026-04-19T07:27:30.233Z</time></trkpt><trkpt lat="43.4612552" lon="11.8882489"><ele>265.0</ele><time>2026-04-19T07:27:31.233Z</time></trkpt><trkpt lat="43.4612736" lon="11.8883808"><ele>265.0</ele><time>2026-04-19T07:27:32.233Z</time></trkpt><trkpt lat="43.4612841" lon="11.8884937"><ele>265.3333333333333</ele><time>2026-04-19T07:27:33.232Z</time></trkpt><trkpt lat="43.4612896" lon="11.8885958"><ele>265.66666666666663</ele><time>2026-04-19T07:27:34.232Z</time></trkpt><trkpt lat="43.4613007" lon="11.8886949"><ele>266.0</ele><time>2026-04-19T07:27:35.235Z</time></trkpt><trkpt lat="43.4613282" lon="11.8887815"><ele>266.3333333333333</ele><time>2026-04-19T07:27:36.233Z</time></trkpt><trkpt lat="43.4613742" lon="11.888859"><ele>266.6666666666667</ele><time>2026-04-19T07:27:37.234Z</time></trkpt><trkpt lat="43.4614443" lon="11.888915"><ele>267.0</ele><time>2026-04-19T07:27:38.233Z</time></trkpt><trkpt lat="43.4615194" lon="11.8889568"><ele>267.0</ele><time>2026-04-19T07:27:39.233Z</time></trkpt><trkpt lat="43.4615955" lon="11.8889809"><ele>267.0</ele><time>2026-04-19T07:27:40.233Z</time></trkpt><trkpt lat="43.4616828" lon="11.8889908"><ele>267.0</ele><time>2026-04-19T07:27:41.233Z</time></trkpt><trkpt lat="43.4617721" lon="11.888998"><ele>267.0</ele><time>2026-04-19T07:27:42.234Z</time></trkpt><trkpt lat="43.461876" lon="11.8889969"><ele>267.0</ele><time>2026-04-19T07:27:43.24Z</time></trkpt><trkpt lat="43.4619923" lon="11.8889908"><ele>267.0</ele><time>2026-04-19T07:27:44.235Z</time></trkpt><trkpt lat="43.4621059" lon="11.8889832"><ele>267.0</ele><time>2026-04-19T07:27:45.232Z</time></trkpt><trkpt lat="43.4621999" lon="11.8889736"><ele>267.0</ele><time>2026-04-19T07:27:46.233Z</time></trkpt><trkpt lat="43.4622746" lon="11.8889678"><ele>267.0</ele><time>2026-04-19T07:27:47.233Z</time></trkpt><trkpt lat="43.4623889" lon="11.8889741"><ele>267.0</ele><time>2026-04-19T07:27:49.239Z</time></trkpt><trkpt lat="43.4624965" lon="11.8890347"><ele>267.6666666666667</ele><time>2026-04-19T07:27:51.233Z</time></trkpt><trkpt lat="43.4625413" lon="11.8890957"><ele>268.3333333333333</ele><time>2026-04-19T07:27:52.232Z</time></trkpt><trkpt lat="43.4625855" lon="11.8891663"><ele>269.0</ele><time>2026-04-19T07:27:53.233Z</time></trkpt><trkpt lat="43.4626374" lon="11.8892506"><ele>269.66666666666663</ele><time>2026-04-19T07:27:54.233Z</time></trkpt><trkpt lat="43.4626929" lon="11.8893352"><ele>270.3333333333333</ele><time>2026-04-19T07:27:55.234Z</time></trkpt><trkpt lat="43.4627579" lon="11.8894058"><ele>271.0</ele><time>2026-04-19T07:27:56.232Z</time></trkpt><trkpt lat="43.4628291" lon="11.8894716"><ele>271.0</ele><time>2026-04-19T07:27:57.232Z</time></trkpt><trkpt lat="43.4629064" lon="11.8895264"><ele>271.0</ele><time>2026-04-19T07:27:58.232Z</time></trkpt><trkpt lat="43.4629868" lon="11.8895593"><ele>271.0</ele><time>2026-04-19T07:27:59.234Z</time></trkpt><trkpt lat="43.4630703" lon="11.889571"><ele>271.0</ele><time>2026-04-19T07:28:00.233Z</time></trkpt><trkpt lat="43.4631475" lon="11.8895666"><ele>271.0</ele><time>2026-04-19T07:28:01.233Z</time></trkpt><trkpt lat="43.463254" lon="11.8895295"><ele>271.0</ele><time>2026-04-19T07:28:03.232Z</time></trkpt><trkpt lat="43.4633175" lon="11.8895147"><ele>272.0</ele><time>2026-04-19T07:28:06.235Z</time></trkpt><trkpt lat="43.4633754" lon="11.8895589"><ele>273.0</ele><time>2026-04-19T07:28:10.279Z</time></trkpt><trkpt lat="43.4634252" lon="11.8896362"><ele>274.0</ele><time>2026-04-19T07:28:11.28Z</time></trkpt><trkpt lat="43.4634665" lon="11.8897411"><ele>275.0</ele><time>2026-04-19T07:28:13.276Z</time></trkpt><trkpt lat="43.4635011" lon="11.8898866"><ele>276.0</ele><time>2026-04-19T07:28:15.233Z</time></trkpt><trkpt lat="43.463528" lon="11.8899844"><ele>277.0</ele><time>2026-04-19T07:28:16.233Z</time></trkpt><trkpt lat="43.4635554" lon="11.8900909"><ele>276.4</ele><time>2026-04-19T07:28:17.235Z</time></trkpt><trkpt lat="43.4635833" lon="11.8902093"><ele>275.79999999999995</ele><time>2026-04-19T07:28:18.234Z</time></trkpt><trkpt lat="43.463609" lon="11.890339"><ele>275.2</ele><time>2026-04-19T07:28:19.234Z</time></trkpt><trkpt lat="43.4636371" lon="11.890478"><ele>274.59999999999997</ele><time>2026-04-19T07:28:20.235Z</time></trkpt><trkpt lat="43.4636679" lon="11.8906251"><ele>274.0</ele><time>2026-04-19T07:28:21.239Z</time></trkpt><trkpt lat="43.4636999" lon="11.8907768"><ele>274.0</ele><time>2026-04-19T07:28:22.233Z</time></trkpt><trkpt lat="43.4637331" lon="11.8909274"><ele>274.0</ele><time>2026-04-19T07:28:23.235Z</time></trkpt><trkpt lat="43.463768" lon="11.8910823"><ele>274.0</ele><time>2026-04-19T07:28:24.234Z</time></trkpt><trkpt lat="43.4638049" lon="11.8912419"><ele>274.0</ele><time>2026-04-19T07:28:25.24Z</time></trkpt><trkpt lat="43.4638418" lon="11.8914012"><ele>274.0</ele><time>2026-04-19T07:28:26.235Z</time></trkpt><trkpt lat="43.4638783" lon="11.8915531"><ele>274.0</ele><time>2026-04-19T07:28:27.233Z</time></trkpt><trkpt lat="43.4639147" lon="11.8916948"><ele>274.0</ele><time>2026-04-19T07:28:28.233Z</time></trkpt><trkpt lat="43.4639475" lon="11.8918358"><ele>274.0</ele><time>2026-04-19T07:28:29.234Z</time></trkpt><trkpt lat="43.4639777" lon="11.8919734"><ele>274.0</ele><time>2026-04-19T07:28:30.234Z</time></trkpt><trkpt lat="43.4640022" lon="11.8921108"><ele>273.4</ele><time>2026-04-19T07:28:31.234Z</time></trkpt><trkpt lat="43.4640191" lon="11.8922532"><ele>272.79999999999995</ele><time>2026-04-19T07:28:32.234Z</time></trkpt><trkpt lat="43.4640221" lon="11.8924018"><ele>272.20000000000005</ele><time>2026-04-19T07:28:33.232Z</time></trkpt><trkpt lat="43.4640054" lon="11.8925527"><ele>271.6</ele><time>2026-04-19T07:28:34.235Z</time></trkpt><trkpt lat="43.4639776" lon="11.8926909"><ele>271.0</ele><time>2026-04-19T07:28:35.234Z</time></trkpt><trkpt lat="43.4639461" lon="11.8928071"><ele>270.66666666666663</ele><time>2026-04-19T07:28:36.234Z</time></trkpt><trkpt lat="43.4639186" lon="11.892908"><ele>270.3333333333333</ele><time>2026-04-19T07:28:37.233Z</time></trkpt><trkpt lat="43.4638928" lon="11.8930031"><ele>270.0</ele><time>2026-04-19T07:28:38.234Z</time></trkpt><trkpt lat="43.4638653" lon="11.8930981"><ele>269.6666666666667</ele><time>2026-04-19T07:28:39.232Z</time></trkpt><trkpt lat="43.4638406" lon="11.8931981"><ele>269.33333333333337</ele><time>2026-04-19T07:28:40.236Z</time></trkpt><trkpt lat="43.4638113" lon="11.8933083"><ele>269.0</ele><time>2026-04-19T07:28:41.234Z</time></trkpt><trkpt lat="43.4637809" lon="11.8934267"><ele>268.59999999999997</ele><time>2026-04-19T07:28:42.234Z</time></trkpt><trkpt lat="43.4637556" lon="11.8935463"><ele>268.2</ele><time>2026-04-19T07:28:43.235Z</time></trkpt><trkpt lat="43.4637259" lon="11.8936627"><ele>267.79999999999995</ele><time>2026-04-19T07:28:44.235Z</time></trkpt><trkpt lat="43.4636887" lon="11.8937862"><ele>267.4</ele><time>2026-04-19T07:28:45.234Z</time></trkpt><trkpt lat="43.4636544" lon="11.8939124"><ele>267.0</ele><time>2026-04-19T07:28:46.232Z</time></trkpt><trkpt lat="43.463621" lon="11.8940363"><ele>267.0</ele><time>2026-04-19T07:28:47.233Z</time></trkpt><trkpt lat="43.4635916" lon="11.8941596"><ele>267.0</ele><time>2026-04-19T07:28:48.233Z</time></trkpt><trkpt lat="43.4635637" lon="11.8942794"><ele>267.0</ele><time>2026-04-19T07:28:49.234Z</time></trkpt><trkpt lat="43.463537" lon="11.8943902"><ele>267.0</ele><time>2026-04-19T07:28:50.233Z</time></trkpt><trkpt lat="43.4635137" lon="11.8944857"><ele>267.0</ele><time>2026-04-19T07:28:51.237Z</time></trkpt><trkpt lat="43.4634724" lon="11.8946315"><ele>266.8</ele><time>2026-04-19T07:28:53.235Z</time></trkpt><trkpt lat="43.463431" lon="11.8947735"><ele>266.6</ele><time>2026-04-19T07:28:55.234Z</time></trkpt><trkpt lat="43.4633997" lon="11.894922"><ele>266.40000000000003</ele><time>2026-04-19T07:28:57.232Z</time></trkpt><trkpt lat="43.4633877" lon="11.8950367"><ele>266.2</ele><time>2026-04-19T07:28:59.233Z</time></trkpt><trkpt lat="43.4634217" lon="11.8951151"><ele>266.0</ele><time>2026-04-19T07:29:01.233Z</time></trkpt><trkpt lat="43.4635509" lon="11.8951566"><ele>266.33333333333337</ele><time>2026-04-19T07:29:03.232Z</time></trkpt><trkpt lat="43.4636235" lon="11.8951809"><ele>266.6666666666667</ele><time>2026-04-19T07:29:04.232Z</time></trkpt><trkpt lat="43.4636952" lon="11.8952152"><ele>267.0</ele><time>2026-04-19T07:29:05.233Z</time></trkpt><trkpt lat="43.4637679" lon="11.8952536"><ele>267.3333333333333</ele><time>2026-04-19T07:29:06.233Z</time></trkpt><trkpt lat="43.4638417" lon="11.8952923"><ele>267.66666666666663</ele><time>2026-04-19T07:29:07.233Z</time></trkpt><trkpt lat="43.463917" lon="11.895328"><ele>268.0</ele><time>2026-04-19T07:29:08.234Z</time></trkpt><trkpt lat="43.4639894" lon="11.8953634"><ele>268.3333333333333</ele><time>2026-04-19T07:29:09.234Z</time></trkpt><trkpt lat="43.4640568" lon="11.8954028"><ele>268.66666666666663</ele><time>2026-04-19T07:29:10.233Z</time></trkpt><trkpt lat="43.464119" lon="11.8954501"><ele>269.0</ele><time>2026-04-19T07:29:11.234Z</time></trkpt><trkpt lat="43.4641817" lon="11.895507"><ele>269.3333333333333</ele><time>2026-04-19T07:29:12.234Z</time></trkpt><trkpt lat="43.4642478" lon="11.8955739"><ele>269.6666666666667</ele><time>2026-04-19T07:29:13.234Z</time></trkpt><trkpt lat="43.4643137" lon="11.8956454"><ele>270.0</ele><time>2026-04-19T07:29:14.234Z</time></trkpt><trkpt lat="43.4643694" lon="11.8957218"><ele>270.0</ele><time>2026-04-19T07:29:15.233Z</time></trkpt><trkpt lat="43.4644175" lon="11.895795"><ele>270.0</ele><time>2026-04-19T07:29:16.234Z</time></trkpt><trkpt lat="43.4644877" lon="11.895912"><ele>270.0</ele><time>2026-04-19T07:29:18.234Z</time></trkpt><trkpt lat="43.464527" lon="11.8959818"><ele>270.0</ele><time>2026-04-19T07:29:20.235Z</time></trkpt><trkpt lat="43.4645817" lon="11.8959367"><ele>270.0</ele><time>2026-04-19T07:29:33.233Z</time></trkpt><trkpt lat="43.4646067" lon="11.8958183"><ele>270.0</ele><time>2026-04-19T07:29:35.235Z</time></trkpt><trkpt lat="43.4646367" lon="11.8957083"><ele>269.6</ele><time>2026-04-19T07:29:37.235Z</time></trkpt><trkpt lat="43.4646717" lon="11.8955633"><ele>269.2</ele><time>2026-04-19T07:29:39.232Z</time></trkpt><trkpt lat="43.46471" lon="11.89541"><ele>268.8</ele><time>2026-04-19T07:29:41.234Z</time></trkpt><trkpt lat="43.4647483" lon="11.8952717"><ele>268.4</ele><time>2026-04-19T07:29:43.234Z</time></trkpt><trkpt lat="43.4647783" lon="11.8951533"><ele>268.0</ele><time>2026-04-19T07:29:45.233Z</time></trkpt><trkpt lat="43.464765" lon="11.8950183"><ele>268.0</ele><time>2026-04-19T07:29:53.234Z</time></trkpt><trkpt lat="43.46467" lon="11.8949567"><ele>268.0</ele><time>2026-04-19T07:29:55.232Z</time></trkpt><trkpt lat="43.4646033" lon="11.8949267"><ele>268.0</ele><time>2026-04-19T07:29:56.233Z</time></trkpt><trkpt lat="43.4645317" lon="11.8948967"><ele>268.0</ele><time>2026-04-19T07:29:57.232Z</time></trkpt><trkpt lat="43.46446" lon="11.8948667"><ele>268.0</ele><time>2026-04-19T07:29:58.234Z</time></trkpt><trkpt lat="43.464385" lon="11.8948333"><ele>268.0</ele><time>2026-04-19T07:29:59.233Z</time></trkpt><trkpt lat="43.4643067" lon="11.8948033"><ele>268.16666666666663</ele><time>2026-04-19T07:30:00.233Z</time></trkpt><trkpt lat="43.4642283" lon="11.894775"><ele>268.3333333333333</ele><time>2026-04-19T07:30:01.232Z</time></trkpt><trkpt lat="43.4641533" lon="11.89474"><ele>268.5</ele><time>2026-04-19T07:30:02.234Z</time></trkpt><trkpt lat="43.4640783" lon="11.8947033"><ele>268.6666666666667</ele><time>2026-04-19T07:30:03.232Z</time></trkpt><trkpt lat="43.4640067" lon="11.8946717"><ele>268.83333333333337</ele><time>2026-04-19T07:30:04.233Z</time></trkpt><trkpt lat="43.4639417" lon="11.8946383"><ele>269.0</ele><time>2026-04-19T07:30:05.234Z</time></trkpt><trkpt lat="43.46388" lon="11.894605"><ele>268.59999999999997</ele><time>2026-04-19T07:30:06.234Z</time></trkpt><trkpt lat="43.463765" lon="11.8945483"><ele>268.2</ele><time>2026-04-19T07:30:08.234Z</time></trkpt><trkpt lat="43.463665" lon="11.8944967"><ele>267.79999999999995</ele><time>2026-04-19T07:30:10.232Z</time></trkpt><trkpt lat="43.463585" lon="11.89445"><ele>267.4</ele><time>2026-04-19T07:30:12.233Z</time></trkpt><trkpt lat="43.4635617" lon="11.894305"><ele>267.0</ele><time>2026-04-19T07:30:15.233Z</time></trkpt><trkpt lat="43.4635917" lon="11.89421"><ele>267.0</ele><time>2026-04-19T07:30:16.232Z</time></trkpt><trkpt lat="43.4636167" lon="11.8941083"><ele>267.0</ele><time>2026-04-19T07:30:17.234Z</time></trkpt><trkpt lat="43.4636433" lon="11.894"><ele>267.0</ele><time>2026-04-19T07:30:18.232Z</time></trkpt><trkpt lat="43.4636783" lon="11.8938783"><ele>267.0</ele><time>2026-04-19T07:30:19.233Z</time></trkpt><trkpt lat="43.4637117" lon="11.8937383"><ele>267.0</ele><time>2026-04-19T07:30:20.233Z</time></trkpt><trkpt lat="43.4637517" lon="11.893595"><ele>267.25</ele><time>2026-04-19T07:30:21.234Z</time></trkpt><trkpt lat="43.4637883" lon="11.8934483"><ele>267.5</ele><time>2026-04-19T07:30:22.235Z</time></trkpt><trkpt lat="43.46383" lon="11.8932983"><ele>267.75</ele><time>2026-04-19T07:30:23.233Z</time></trkpt><trkpt lat="43.4638717" lon="11.89314"><ele>268.0</ele><time>2026-04-19T07:30:24.232Z</time></trkpt><trkpt lat="43.4639133" lon="11.892985"><ele>268.0</ele><time>2026-04-19T07:30:25.232Z</time></trkpt><trkpt lat="43.4639517" lon="11.89283"><ele>268.0</ele><time>2026-04-19T07:30:26.232Z</time></trkpt><trkpt lat="43.4639867" lon="11.8926817"><ele>268.0</ele><time>2026-04-19T07:30:27.232Z</time></trkpt><trkpt lat="43.464015" lon="11.8925417"><ele>268.0</ele><time>2026-04-19T07:30:28.232Z</time></trkpt><trkpt lat="43.4640283" lon="11.8924033"><ele>268.0</ele><time>2026-04-19T07:30:29.233Z</time></trkpt><trkpt lat="43.46403" lon="11.8922633"><ele>268.5</ele><time>2026-04-19T07:30:30.233Z</time></trkpt><trkpt lat="43.4640183" lon="11.89213"><ele>269.0</ele><time>2026-04-19T07:30:31.233Z</time></trkpt><trkpt lat="43.4639967" lon="11.892005"><ele>269.5</ele><time>2026-04-19T07:30:32.235Z</time></trkpt><trkpt lat="43.463975" lon="11.8918883"><ele>270.0</ele><time>2026-04-19T07:30:33.232Z</time></trkpt><trkpt lat="43.4639567" lon="11.8917833"><ele>270.5</ele><time>2026-04-19T07:30:34.232Z</time></trkpt><trkpt lat="43.46394" lon="11.891695"><ele>271.0</ele><time>2026-04-19T07:30:35.232Z</time></trkpt><trkpt lat="43.463925" lon="11.891605"><ele>270.75</ele><time>2026-04-19T07:30:37.232Z</time></trkpt><trkpt lat="43.4638867" lon="11.89144"><ele>270.5</ele><time>2026-04-19T07:31:07.233Z</time></trkpt><trkpt lat="43.4638333" lon="11.89121"><ele>270.25</ele><time>2026-04-19T07:31:10.232Z</time></trkpt><trkpt lat="43.4637867" lon="11.891035"><ele>270.0</ele><time>2026-04-19T07:31:12.234Z</time></trkpt><trkpt lat="43.4637633" lon="11.8909367"><ele>270.6666666666667</ele><time>2026-04-19T07:31:13.235Z</time></trkpt><trkpt lat="43.4637383" lon="11.890835"><ele>271.3333333333333</ele><time>2026-04-19T07:31:14.232Z</time></trkpt><trkpt lat="43.4637167" lon="11.8907267"><ele>272.0</ele><time>2026-04-19T07:31:15.233Z</time></trkpt><trkpt lat="43.4636933" lon="11.8906133"><ele>272.66666666666663</ele><time>2026-04-19T07:31:16.234Z</time></trkpt><trkpt lat="43.46367" lon="11.8904967"><ele>273.3333333333333</ele><time>2026-04-19T07:31:17.232Z</time></trkpt><trkpt lat="43.4636433" lon="11.89038"><ele>274.0</ele><time>2026-04-19T07:31:18.232Z</time></trkpt><trkpt lat="43.46362" lon="11.8902667"><ele>274.0</ele><time>2026-04-19T07:31:19.233Z</time></trkpt><trkpt lat="43.4635967" lon="11.8901633"><ele>274.0</ele><time>2026-04-19T07:31:20.234Z</time></trkpt><trkpt lat="43.4635767" lon="11.8900717"><ele>274.0</ele><time>2026-04-19T07:31:21.232Z</time></trkpt><trkpt lat="43.4635483" lon="11.8899167"><ele>274.0</ele><time>2026-04-19T07:31:23.232Z</time></trkpt><trkpt lat="43.46352" lon="11.8897917"><ele>274.0</ele><time>2026-04-19T07:31:25.233Z</time></trkpt><trkpt lat="43.4634967" lon="11.8896333"><ele>274.59999999999997</ele><time>2026-04-19T07:31:48.236Z</time></trkpt><trkpt lat="43.46348" lon="11.8895283"><ele>275.2</ele><time>2026-04-19T07:31:50.233Z</time></trkpt><trkpt lat="43.4635267" lon="11.88946"><ele>275.79999999999995</ele><time>2026-04-19T07:31:52.232Z</time></trkpt><trkpt lat="43.4636233" lon="11.8894833"><ele>276.4</ele><time>2026-04-19T07:31:53.232Z</time></trkpt><trkpt lat="43.4637133" lon="11.8895317"><ele>277.0</ele><time>2026-04-19T07:31:54.232Z</time></trkpt><trkpt lat="43.4638333" lon="11.8895933"><ele>280.0</ele><time>2026-04-19T07:31:55.233Z</time></trkpt><trkpt lat="43.46397" lon="11.88967"><ele>283.0</ele><time>2026-04-19T07:31:56.234Z</time></trkpt><trkpt lat="43.46412" lon="11.88975"><ele>286.0</ele><time>2026-04-19T07:31:57.232Z</time></trkpt><trkpt lat="43.4642633" lon="11.88983"><ele>286.0</ele><time>2026-04-19T07:31:58.233Z</time></trkpt><trkpt lat="43.4643917" lon="11.8899037"><ele>286.0</ele><time>2026-04-19T07:31:59.234Z</time></trkpt><trkpt lat="43.4645143" lon="11.88997"><ele>286.0</ele><time>2026-04-19T07:32:00.235Z</time></trkpt><trkpt lat="43.4646389" lon="11.8900405"><ele>286.0</ele><time>2026-04-19T07:32:01.234Z</time></trkpt><trkpt lat="43.4647542" lon="11.8901126"><ele>286.0</ele><time>2026-04-19T07:32:02.233Z</time></trkpt><trkpt lat="43.4648472" lon="11.8901977"><ele>286.0</ele><time>2026-04-19T07:32:03.232Z</time></trkpt><trkpt lat="43.4649339" lon="11.8902821"><ele>286.0</ele><time>2026-04-19T07:32:04.233Z</time></trkpt><trkpt lat="43.4650177" lon="11.8903618"><ele>286.0</ele><time>2026-04-19T07:32:05.233Z</time></trkpt><trkpt lat="43.4650964" lon="11.8904344"><ele>286.0</ele><time>2026-04-19T07:32:06.234Z</time></trkpt><trkpt lat="43.4651727" lon="11.8905043"><ele>286.0</ele><time>2026-04-19T07:32:07.233Z</time></trkpt><trkpt lat="43.4652447" lon="11.8905637"><ele>286.0</ele><time>2026-04-19T07:32:08.233Z</time></trkpt><trkpt lat="43.4653182" lon="11.8906191"><ele>286.0</ele><time>2026-04-19T07:32:09.233Z</time></trkpt><trkpt lat="43.4653904" lon="11.8906654"><ele>286.0</ele><time>2026-04-19T07:32:10.232Z</time></trkpt><trkpt lat="43.4654648" lon="11.8906974"><ele>286.0</ele><time>2026-04-19T07:32:11.232Z</time></trkpt><trkpt lat="43.4655408" lon="11.8907134"><ele>286.0</ele><time>2026-04-19T07:32:12.233Z</time></trkpt><trkpt lat="43.4656257" lon="11.8907243"><ele>285.40000000000003</ele><time>2026-04-19T07:32:13.232Z</time></trkpt><trkpt lat="43.4657157" lon="11.8907356"><ele>284.8</ele><time>2026-04-19T07:32:14.234Z</time></trkpt><trkpt lat="43.4658116" lon="11.8907457"><ele>284.20000000000005</ele><time>2026-04-19T07:32:15.233Z</time></trkpt><trkpt lat="43.4659162" lon="11.8907676"><ele>283.6</ele><time>2026-04-19T07:32:16.232Z</time></trkpt><trkpt lat="43.4660181" lon="11.8908016"><ele>283.0</ele><time>2026-04-19T07:32:17.234Z</time></trkpt><trkpt lat="43.4661107" lon="11.8908626"><ele>281.6</ele><time>2026-04-19T07:32:18.232Z</time></trkpt><trkpt lat="43.466195" lon="11.8909457"><ele>280.20000000000005</ele><time>2026-04-19T07:32:19.232Z</time></trkpt><trkpt lat="43.4662737" lon="11.8910438"><ele>278.8</ele><time>2026-04-19T07:32:20.238Z</time></trkpt><trkpt lat="43.4663497" lon="11.8911456"><ele>277.40000000000003</ele><time>2026-04-19T07:32:21.232Z</time></trkpt><trkpt lat="43.4664272" lon="11.891247"><ele>276.0</ele><time>2026-04-19T07:32:22.232Z</time></trkpt><trkpt lat="43.466508" lon="11.8913501"><ele>276.0</ele><time>2026-04-19T07:32:23.232Z</time></trkpt><trkpt lat="43.4665924" lon="11.8914595"><ele>276.0</ele><time>2026-04-19T07:32:24.233Z</time></trkpt><trkpt lat="43.4666782" lon="11.89158"><ele>276.0</ele><time>2026-04-19T07:32:25.232Z</time></trkpt><trkpt lat="43.4667666" lon="11.8917043"><ele>276.0</ele><time>2026-04-19T07:32:26.232Z</time></trkpt><trkpt lat="43.4668515" lon="11.8918305"><ele>275.40000000000003</ele><time>2026-04-19T07:32:27.233Z</time></trkpt><trkpt lat="43.4669331" lon="11.8919523"><ele>274.8</ele><time>2026-04-19T07:32:28.233Z</time></trkpt><trkpt lat="43.4670131" lon="11.8920637"><ele>274.20000000000005</ele><time>2026-04-19T07:32:29.242Z</time></trkpt><trkpt lat="43.4670913" lon="11.8921597"><ele>273.6</ele><time>2026-04-19T07:32:30.233Z</time></trkpt><trkpt lat="43.4671748" lon="11.892244"><ele>273.0</ele><time>2026-04-19T07:32:31.232Z</time></trkpt><trkpt lat="43.4672617" lon="11.8923155"><ele>273.0</ele><time>2026-04-19T07:32:32.233Z</time></trkpt><trkpt lat="43.467358" lon="11.8923645"><ele>273.0</ele><time>2026-04-19T07:32:33.233Z</time></trkpt><trkpt lat="43.4674635" lon="11.892386"><ele>273.0</ele><time>2026-04-19T07:32:34.234Z</time></trkpt><trkpt lat="43.4675697" lon="11.8923978"><ele>273.0</ele><time>2026-04-19T07:32:35.232Z</time></trkpt><trkpt lat="43.4676759" lon="11.8924033"><ele>273.0</ele><time>2026-04-19T07:32:36.233Z</time></trkpt><trkpt lat="43.4677812" lon="11.8924053"><ele>273.0</ele><time>2026-04-19T07:32:37.232Z</time></trkpt><trkpt lat="43.4678798" lon="11.8924073"><ele>273.0</ele><time>2026-04-19T07:32:38.234Z</time></trkpt><trkpt lat="43.4679707" lon="11.8924073"><ele>273.0</ele><time>2026-04-19T07:32:39.233Z</time></trkpt><trkpt lat="43.4680531" lon="11.892397"><ele>273.0</ele><time>2026-04-19T07:32:40.233Z</time></trkpt><trkpt lat="43.4681297" lon="11.892381"><ele>273.0</ele><time>2026-04-19T07:32:41.232Z</time></trkpt><trkpt lat="43.4682424" lon="11.8923946"><ele>272.2</ele><time>2026-04-19T07:32:43.232Z</time></trkpt><trkpt lat="43.4683171" lon="11.8925276"><ele>271.4</ele><time>2026-04-19T07:32:45.232Z</time></trkpt><trkpt lat="43.4683459" lon="11.8926251"><ele>270.59999999999997</ele><time>2026-04-19T07:32:46.232Z</time></trkpt><trkpt lat="43.468381" lon="11.8927313"><ele>269.8</ele><time>2026-04-19T07:32:47.232Z</time></trkpt><trkpt lat="43.4684233" lon="11.8928399"><ele>269.0</ele><time>2026-04-19T07:32:48.233Z</time></trkpt><trkpt lat="43.468469" lon="11.8929483"><ele>269.0</ele><time>2026-04-19T07:32:49.234Z</time></trkpt><trkpt lat="43.4685183" lon="11.8930596"><ele>269.0</ele><time>2026-04-19T07:32:50.232Z</time></trkpt><trkpt lat="43.4685685" lon="11.8931742"><ele>269.0</ele><time>2026-04-19T07:32:51.232Z</time></trkpt><trkpt lat="43.4686227" lon="11.8932918"><ele>269.0</ele><time>2026-04-19T07:32:52.239Z</time></trkpt><trkpt lat="43.4686791" lon="11.8934104"><ele>269.0</ele><time>2026-04-19T07:32:53.233Z</time></trkpt><trkpt lat="43.468735" lon="11.8935295"><ele>270.2</ele><time>2026-04-19T07:32:54.24Z</time></trkpt><trkpt lat="43.468793" lon="11.8936475"><ele>271.4</ele><time>2026-04-19T07:32:55.233Z</time></trkpt><trkpt lat="43.4688509" lon="11.8937633"><ele>272.6</ele><time>2026-04-19T07:32:56.232Z</time></trkpt><trkpt lat="43.4689106" lon="11.8938756"><ele>273.8</ele><time>2026-04-19T07:32:57.237Z</time></trkpt><trkpt lat="43.4689733" lon="11.8939813"><ele>275.0</ele><time>2026-04-19T07:32:58.232Z</time></trkpt><trkpt lat="43.469042" lon="11.8940858"><ele>275.0</ele><time>2026-04-19T07:32:59.233Z</time></trkpt><trkpt lat="43.4691162" lon="11.8941843"><ele>275.0</ele><time>2026-04-19T07:33:00.232Z</time></trkpt><trkpt lat="43.469192" lon="11.8942764"><ele>275.0</ele><time>2026-04-19T07:33:01.232Z</time></trkpt><trkpt lat="43.469265" lon="11.8943744"><ele>275.0</ele><time>2026-04-19T07:33:02.235Z</time></trkpt><trkpt lat="43.4693355" lon="11.8944781"><ele>275.0</ele><time>2026-04-19T07:33:03.233Z</time></trkpt><trkpt lat="43.4694058" lon="11.8945826"><ele>275.2</ele><time>2026-04-19T07:33:04.235Z</time></trkpt><trkpt lat="43.46947" lon="11.8946818"><ele>275.4</ele><time>2026-04-19T07:33:05.235Z</time></trkpt><trkpt lat="43.469529" lon="11.8947758"><ele>275.6</ele><time>2026-04-19T07:33:06.233Z</time></trkpt><trkpt lat="43.4695868" lon="11.8948638"><ele>275.8</ele><time>2026-04-19T07:33:07.235Z</time></trkpt><trkpt lat="43.4696421" lon="11.8949573"><ele>276.0</ele><time>2026-04-19T07:33:08.236Z</time></trkpt><trkpt lat="43.4696966" lon="11.8950606"><ele>278.8</ele><time>2026-04-19T07:33:09.234Z</time></trkpt><trkpt lat="43.4697513" lon="11.8951662"><ele>281.6</ele><time>2026-04-19T07:33:10.232Z</time></trkpt><trkpt lat="43.4698048" lon="11.8952744"><ele>284.4</ele><time>2026-04-19T07:33:11.232Z</time></trkpt><trkpt lat="43.4698615" lon="11.8953808"><ele>287.2</ele><time>2026-04-19T07:33:12.233Z</time></trkpt><trkpt lat="43.4699205" lon="11.8954851"><ele>290.0</ele><time>2026-04-19T07:33:13.234Z</time></trkpt><trkpt lat="43.4699779" lon="11.8955885"><ele>290.0</ele><time>2026-04-19T07:33:14.233Z</time></trkpt><trkpt lat="43.470031" lon="11.8956943"><ele>290.0</ele><time>2026-04-19T07:33:15.234Z</time></trkpt><trkpt lat="43.470083" lon="11.8957998"><ele>290.0</ele><time>2026-04-19T07:33:16.238Z</time></trkpt><trkpt lat="43.470141" lon="11.895905"><ele>290.0</ele><time>2026-04-19T07:33:17.233Z</time></trkpt><trkpt lat="43.4702047" lon="11.8960129"><ele>290.0</ele><time>2026-04-19T07:33:18.232Z</time></trkpt><trkpt lat="43.4702676" lon="11.8961212"><ele>290.4</ele><time>2026-04-19T07:33:19.233Z</time></trkpt><trkpt lat="43.4703302" lon="11.8962322"><ele>290.8</ele><time>2026-04-19T07:33:20.233Z</time></trkpt><trkpt lat="43.4703911" lon="11.8963495"><ele>291.2</ele><time>2026-04-19T07:33:21.232Z</time></trkpt><trkpt lat="43.4704492" lon="11.8964752"><ele>291.6</ele><time>2026-04-19T07:33:22.233Z</time></trkpt><trkpt lat="43.4705083" lon="11.8966095"><ele>292.0</ele><time>2026-04-19T07:33:23.233Z</time></trkpt><trkpt lat="43.4705736" lon="11.8967464"><ele>293.8</ele><time>2026-04-19T07:33:24.234Z</time></trkpt><trkpt lat="43.4706389" lon="11.8968784"><ele>295.6</ele><time>2026-04-19T07:33:25.238Z</time></trkpt><trkpt lat="43.4706982" lon="11.8970002"><ele>297.40000000000003</ele><time>2026-04-19T07:33:26.232Z</time></trkpt><trkpt lat="43.4707541" lon="11.8971178"><ele>299.2</ele><time>2026-04-19T07:33:27.233Z</time></trkpt><trkpt lat="43.4708107" lon="11.8972326"><ele>301.0</ele><time>2026-04-19T07:33:28.232Z</time></trkpt><trkpt lat="43.4708702" lon="11.8973461"><ele>301.0</ele><time>2026-04-19T07:33:29.233Z</time></trkpt><trkpt lat="43.4709292" lon="11.8974689"><ele>301.0</ele><time>2026-04-19T07:33:30.233Z</time></trkpt><trkpt lat="43.4709917" lon="11.897598"><ele>301.0</ele><time>2026-04-19T07:33:31.233Z</time></trkpt><trkpt lat="43.4710524" lon="11.8977293"><ele>301.0</ele><time>2026-04-19T07:33:32.233Z</time></trkpt><trkpt lat="43.4711126" lon="11.8978512"><ele>301.0</ele><time>2026-04-19T07:33:33.232Z</time></trkpt><trkpt lat="43.4711764" lon="11.8979654"><ele>300.6</ele><time>2026-04-19T07:33:34.232Z</time></trkpt><trkpt lat="43.4712483" lon="11.8980651"><ele>300.20000000000005</ele><time>2026-04-19T07:33:35.232Z</time></trkpt><trkpt lat="43.4713276" lon="11.8981571"><ele>299.79999999999995</ele><time>2026-04-19T07:33:36.232Z</time></trkpt><trkpt lat="43.4714096" lon="11.8982508"><ele>299.4</ele><time>2026-04-19T07:33:37.232Z</time></trkpt><trkpt lat="43.4714894" lon="11.8983506"><ele>299.0</ele><time>2026-04-19T07:33:38.234Z</time></trkpt><trkpt lat="43.4715696" lon="11.8984544"><ele>300.59999999999997</ele><time>2026-04-19T07:33:39.232Z</time></trkpt><trkpt lat="43.4716484" lon="11.898554"><ele>302.2</ele><time>2026-04-19T07:33:40.233Z</time></trkpt><trkpt lat="43.4717225" lon="11.8986451"><ele>303.79999999999995</ele><time>2026-04-19T07:33:41.232Z</time></trkpt><trkpt lat="43.4717903" lon="11.898735"><ele>305.4</ele><time>2026-04-19T07:33:42.233Z</time></trkpt><trkpt lat="43.4718542" lon="11.8988241"><ele>307.0</ele><time>2026-04-19T07:33:43.233Z</time></trkpt><trkpt lat="43.4719248" lon="11.8989103"><ele>307.0</ele><time>2026-04-19T07:33:44.232Z</time></trkpt><trkpt lat="43.4720025" lon="11.8990004"><ele>307.0</ele><time>2026-04-19T07:33:45.232Z</time></trkpt><trkpt lat="43.4720804" lon="11.8990975"><ele>307.0</ele><time>2026-04-19T07:33:46.232Z</time></trkpt><trkpt lat="43.4721563" lon="11.899203"><ele>307.0</ele><time>2026-04-19T07:33:47.234Z</time></trkpt><trkpt lat="43.4722307" lon="11.8993199"><ele>307.0</ele><time>2026-04-19T07:33:48.233Z</time></trkpt><trkpt lat="43.4723071" lon="11.8994363"><ele>307.5</ele><time>2026-04-19T07:33:49.232Z</time></trkpt><trkpt lat="43.4723926" lon="11.8995462"><ele>308.0</ele><time>2026-04-19T07:33:50.232Z</time></trkpt><trkpt lat="43.4724784" lon="11.8996512"><ele>308.5</ele><time>2026-04-19T07:33:51.232Z</time></trkpt><trkpt lat="43.4725602" lon="11.8997574"><ele>309.0</ele><time>2026-04-19T07:33:52.232Z</time></trkpt><trkpt lat="43.472638" lon="11.89986"><ele>309.0</ele><time>2026-04-19T07:33:53.233Z</time></trkpt><trkpt lat="43.4727128" lon="11.8999504"><ele>309.0</ele><time>2026-04-19T07:33:54.233Z</time></trkpt><trkpt lat="43.4727818" lon="11.9000246"><ele>309.0</ele><time>2026-04-19T07:33:55.232Z</time></trkpt><trkpt lat="43.4728306" lon="11.90009"><ele>309.0</ele><time>2026-04-19T07:33:56.232Z</time></trkpt><trkpt lat="43.4728793" lon="11.9002572"><ele>309.0</ele><time>2026-04-19T07:33:58.234Z</time></trkpt><trkpt lat="43.472884" lon="11.9003593"><ele>309.8</ele><time>2026-04-19T07:33:59.232Z</time></trkpt><trkpt lat="43.472885" lon="11.900471"><ele>310.59999999999997</ele><time>2026-04-19T07:34:00.233Z</time></trkpt><trkpt lat="43.4728941" lon="11.900593"><ele>311.4</ele><time>2026-04-19T07:34:01.233Z</time></trkpt><trkpt lat="43.4729124" lon="11.9007178"><ele>312.2</ele><time>2026-04-19T07:34:02.232Z</time></trkpt><trkpt lat="43.4729439" lon="11.9008389"><ele>313.0</ele><time>2026-04-19T07:34:03.235Z</time></trkpt><trkpt lat="43.4729827" lon="11.9009658"><ele>316.8</ele><time>2026-04-19T07:34:04.234Z</time></trkpt><trkpt lat="43.473027" lon="11.901097"><ele>320.6</ele><time>2026-04-19T07:34:05.233Z</time></trkpt><trkpt lat="43.4730751" lon="11.9012278"><ele>324.40000000000003</ele><time>2026-04-19T07:34:06.235Z</time></trkpt><trkpt lat="43.4731295" lon="11.9013552"><ele>328.20000000000005</ele><time>2026-04-19T07:34:07.234Z</time></trkpt><trkpt lat="43.4731906" lon="11.9014817"><ele>332.0</ele><time>2026-04-19T07:34:08.327Z</time></trkpt><trkpt lat="43.4732451" lon="11.9015985"><ele>332.0</ele><time>2026-04-19T07:34:09.233Z</time></trkpt><trkpt lat="43.4732937" lon="11.9017197"><ele>332.0</ele><time>2026-04-19T07:34:10.234Z</time></trkpt><trkpt lat="43.4733306" lon="11.9018392"><ele>332.0</ele><time>2026-04-19T07:34:11.234Z</time></trkpt><trkpt lat="43.473357" lon="11.901963"><ele>332.0</ele><time>2026-04-19T07:34:12.234Z</time></trkpt><trkpt lat="43.4733756" lon="11.9020883"><ele>332.0</ele><time>2026-04-19T07:34:13.235Z</time></trkpt><trkpt lat="43.4733935" lon="11.9022151"><ele>332.0</ele><time>2026-04-19T07:34:14.233Z</time></trkpt><trkpt lat="43.4734084" lon="11.9023432"><ele>332.0</ele><time>2026-04-19T07:34:15.233Z</time></trkpt><trkpt lat="43.47343" lon="11.9024704"><ele>332.0</ele><time>2026-04-19T07:34:16.235Z</time></trkpt><trkpt lat="43.4734538" lon="11.9025859"><ele>332.0</ele><time>2026-04-19T07:34:17.234Z</time></trkpt><trkpt lat="43.4734731" lon="11.9026933"><ele>332.0</ele><time>2026-04-19T07:34:18.239Z</time></trkpt><trkpt lat="43.4734849" lon="11.902796"><ele>332.0</ele><time>2026-04-19T07:34:19.235Z</time></trkpt><trkpt lat="43.4734991" lon="11.9028896"><ele>332.0</ele><time>2026-04-19T07:34:20.234Z</time></trkpt><trkpt lat="43.4735119" lon="11.9029879"><ele>332.0</ele><time>2026-04-19T07:34:21.233Z</time></trkpt><trkpt lat="43.4735265" lon="11.9030883"><ele>332.0</ele><time>2026-04-19T07:34:22.233Z</time></trkpt><trkpt lat="43.4735443" lon="11.9031903"><ele>332.0</ele><time>2026-04-19T07:34:23.235Z</time></trkpt><trkpt lat="43.4735633" lon="11.9032932"><ele>332.0</ele><time>2026-04-19T07:34:24.233Z</time></trkpt><trkpt lat="43.4735848" lon="11.9033989"><ele>332.0</ele><time>2026-04-19T07:34:25.234Z</time></trkpt><trkpt lat="43.4736055" lon="11.9035091"><ele>332.20000000000005</ele><time>2026-04-19T07:34:26.233Z</time></trkpt><trkpt lat="43.4736243" lon="11.9036262"><ele>332.4</ele><time>2026-04-19T07:34:27.233Z</time></trkpt><trkpt lat="43.4736426" lon="11.903744"><ele>332.6</ele><time>2026-04-19T07:34:28.232Z</time></trkpt><trkpt lat="43.4736621" lon="11.9038651"><ele>332.79999999999995</ele><time>2026-04-19T07:34:29.233Z</time></trkpt><trkpt lat="43.4736833" lon="11.9039938"><ele>333.0</ele><time>2026-04-19T07:34:30.232Z</time></trkpt><trkpt lat="43.4737055" lon="11.9041254"><ele>333.3333333333333</ele><time>2026-04-19T07:34:31.234Z</time></trkpt><trkpt lat="43.4737273" lon="11.9042533"><ele>333.6666666666667</ele><time>2026-04-19T07:34:32.234Z</time></trkpt><trkpt lat="43.4737476" lon="11.9043736"><ele>334.0</ele><time>2026-04-19T07:34:33.232Z</time></trkpt><trkpt lat="43.4737698" lon="11.9044781"><ele>334.33333333333337</ele><time>2026-04-19T07:34:34.233Z</time></trkpt><trkpt lat="43.4737919" lon="11.9045764"><ele>334.6666666666667</ele><time>2026-04-19T07:34:35.233Z</time></trkpt><trkpt lat="43.4738123" lon="11.9046601"><ele>335.0</ele><time>2026-04-19T07:34:36.232Z</time></trkpt><trkpt lat="43.4738404" lon="11.9047801"><ele>335.0</ele><time>2026-04-19T07:34:38.232Z</time></trkpt><trkpt lat="43.4738232" lon="11.9048757"><ele>335.0</ele><time>2026-04-19T07:34:40.233Z</time></trkpt><trkpt lat="43.4737675" lon="11.9049902"><ele>335.0</ele><time>2026-04-19T07:34:42.233Z</time></trkpt><trkpt lat="43.4737229" lon="11.9050894"><ele>335.0</ele><time>2026-04-19T07:34:44.233Z</time></trkpt><trkpt lat="43.4736827" lon="11.9051763"><ele>335.0</ele><time>2026-04-19T07:34:53.233Z</time></trkpt><trkpt lat="43.4736883" lon="11.90531"><ele>335.0</ele><time>2026-04-19T07:34:55.233Z</time></trkpt><trkpt lat="43.4737079" lon="11.9054829"><ele>336.1428571428571</ele><time>2026-04-19T07:34:57.232Z</time></trkpt><trkpt lat="43.4737199" lon="11.9055727"><ele>337.2857142857143</ele><time>2026-04-19T07:34:58.233Z</time></trkpt><trkpt lat="43.4737332" lon="11.9056627"><ele>338.42857142857144</ele><time>2026-04-19T07:34:59.232Z</time></trkpt><trkpt lat="43.4737456" lon="11.905756"><ele>339.57142857142856</ele><time>2026-04-19T07:35:00.232Z</time></trkpt><trkpt lat="43.4737532" lon="11.9058503"><ele>340.7142857142857</ele><time>2026-04-19T07:35:01.233Z</time></trkpt><trkpt lat="43.4737595" lon="11.9059469"><ele>341.85714285714283</ele><time>2026-04-19T07:35:02.234Z</time></trkpt><trkpt lat="43.4737659" lon="11.906045"><ele>343.0</ele><time>2026-04-19T07:35:03.234Z</time></trkpt><trkpt lat="43.4737653" lon="11.9061436"><ele>343.66666666666663</ele><time>2026-04-19T07:35:04.234Z</time></trkpt><trkpt lat="43.4737588" lon="11.9062398"><ele>344.3333333333333</ele><time>2026-04-19T07:35:05.234Z</time></trkpt><trkpt lat="43.4737477" lon="11.9063364"><ele>345.0</ele><time>2026-04-19T07:35:06.234Z</time></trkpt><trkpt lat="43.473732" lon="11.9064346"><ele>345.6666666666667</ele><time>2026-04-19T07:35:07.233Z</time></trkpt><trkpt lat="43.4737126" lon="11.9065349"><ele>346.33333333333337</ele><time>2026-04-19T07:35:08.234Z</time></trkpt><trkpt lat="43.4736901" lon="11.9066378"><ele>347.0</ele><time>2026-04-19T07:35:09.233Z</time></trkpt><trkpt lat="43.4736632" lon="11.9067462"><ele>348.1666666666667</ele><time>2026-04-19T07:35:10.232Z</time></trkpt><trkpt lat="43.473637" lon="11.9068526"><ele>349.33333333333337</ele><time>2026-04-19T07:35:11.235Z</time></trkpt><trkpt lat="43.4736122" lon="11.9069584"><ele>350.5</ele><time>2026-04-19T07:35:12.232Z</time></trkpt><trkpt lat="43.4735884" lon="11.9070624"><ele>351.6666666666667</ele><time>2026-04-19T07:35:13.232Z</time></trkpt><trkpt lat="43.4735647" lon="11.9071669"><ele>352.8333333333333</ele><time>2026-04-19T07:35:14.233Z</time></trkpt><trkpt lat="43.4735427" lon="11.9072702"><ele>354.0</ele><time>2026-04-19T07:35:15.232Z</time></trkpt><trkpt lat="43.4735196" lon="11.9073709"><ele>354.0</ele><time>2026-04-19T07:35:16.232Z</time></trkpt><trkpt lat="43.4734988" lon="11.907469"><ele>354.0</ele><time>2026-04-19T07:35:17.233Z</time></trkpt><trkpt lat="43.4734808" lon="11.9075588"><ele>354.0</ele><time>2026-04-19T07:35:18.235Z</time></trkpt><trkpt lat="43.4734465" lon="11.9077128"><ele>354.0</ele><time>2026-04-19T07:35:20.234Z</time></trkpt><trkpt lat="43.4734203" lon="11.9078171"><ele>354.0</ele><time>2026-04-19T07:35:22.232Z</time></trkpt><trkpt lat="43.4734015" lon="11.9079163"><ele>354.0</ele><time>2026-04-19T07:35:25.232Z</time></trkpt><trkpt lat="43.4733703" lon="11.9080272"><ele>356.0</ele><time>2026-04-19T07:35:28.234Z</time></trkpt><trkpt lat="43.4733259" lon="11.9080977"><ele>358.0</ele><time>2026-04-19T07:35:30.232Z</time></trkpt><trkpt lat="43.4732555" lon="11.9081084"><ele>360.0</ele><time>2026-04-19T07:35:32.239Z</time></trkpt><trkpt lat="43.4731668" lon="11.9080904"><ele>362.0</ele><time>2026-04-19T07:35:34.232Z</time></trkpt><trkpt lat="43.4730714" lon="11.9080712"><ele>364.0</ele><time>2026-04-19T07:35:36.232Z</time></trkpt><trkpt lat="43.4729392" lon="11.9080537"><ele>366.2</ele><time>2026-04-19T07:35:38.233Z</time></trkpt><trkpt lat="43.4728677" lon="11.908049"><ele>368.4</ele><time>2026-04-19T07:35:39.233Z</time></trkpt><trkpt lat="43.4728044" lon="11.9080466"><ele>370.6</ele><time>2026-04-19T07:35:40.233Z</time></trkpt><trkpt lat="43.4726825" lon="11.9080512"><ele>372.8</ele><time>2026-04-19T07:35:42.233Z</time></trkpt><trkpt lat="43.4725606" lon="11.9080808"><ele>375.0</ele><time>2026-04-19T07:35:44.234Z</time></trkpt><trkpt lat="43.4724924" lon="11.9081112"><ele>375.0</ele><time>2026-04-19T07:35:45.232Z</time></trkpt><trkpt lat="43.4724133" lon="11.9081439"><ele>375.0</ele><time>2026-04-19T07:35:46.232Z</time></trkpt><trkpt lat="43.472331" lon="11.9081759"><ele>375.0</ele><time>2026-04-19T07:35:47.234Z</time></trkpt><trkpt lat="43.4722394" lon="11.9082196"><ele>375.0</ele><time>2026-04-19T07:35:48.234Z</time></trkpt><trkpt lat="43.4721532" lon="11.9082608"><ele>375.0</ele><time>2026-04-19T07:35:49.232Z</time></trkpt><trkpt lat="43.4720735" lon="11.9082955"><ele>375.0</ele><time>2026-04-19T07:35:50.234Z</time></trkpt><trkpt lat="43.4719973" lon="11.9083301"><ele>375.8333333333333</ele><time>2026-04-19T07:35:51.232Z</time></trkpt><trkpt lat="43.4719216" lon="11.9083699"><ele>376.6666666666667</ele><time>2026-04-19T07:35:52.232Z</time></trkpt><trkpt lat="43.4718425" lon="11.908415"><ele>377.5</ele><time>2026-04-19T07:35:53.234Z</time></trkpt><trkpt lat="43.4717623" lon="11.9084651"><ele>378.33333333333337</ele><time>2026-04-19T07:35:54.234Z</time></trkpt><trkpt lat="43.4716813" lon="11.9085178"><ele>379.1666666666667</ele><time>2026-04-19T07:35:55.235Z</time></trkpt><trkpt lat="43.4716082" lon="11.9085629"><ele>380.0</ele><time>2026-04-19T07:35:56.234Z</time></trkpt><trkpt lat="43.4715449" lon="11.9086019"><ele>382.0</ele><time>2026-04-19T07:35:57.232Z</time></trkpt><trkpt lat="43.4714837" lon="11.9086286"><ele>384.0</ele><time>2026-04-19T07:35:58.233Z</time></trkpt><trkpt lat="43.4713653" lon="11.90865"><ele>386.0</ele><time>2026-04-19T07:36:00.234Z</time></trkpt><trkpt lat="43.4712683" lon="11.9087159"><ele>388.0</ele><time>2026-04-19T07:36:02.233Z</time></trkpt><trkpt lat="43.4711996" lon="11.9088353"><ele>390.0</ele><time>2026-04-19T07:36:04.238Z</time></trkpt><trkpt lat="43.471144" lon="11.9089681"><ele>390.0</ele><time>2026-04-19T07:36:06.232Z</time></trkpt><trkpt lat="43.4711103" lon="11.9090789"><ele>390.0</ele><time>2026-04-19T07:36:08.234Z</time></trkpt><trkpt lat="43.4710797" lon="11.9091881"><ele>390.0</ele><time>2026-04-19T07:36:11.232Z</time></trkpt><trkpt lat="43.4710551" lon="11.9092886"><ele>390.0</ele><time>2026-04-19T07:36:15.332Z</time></trkpt><trkpt lat="43.4712354" lon="11.9093954"><ele>390.0</ele><time>2026-04-19T07:36:33.232Z</time></trkpt><trkpt lat="43.4713038" lon="11.9094161"><ele>389.8</ele><time>2026-04-19T07:36:34.233Z</time></trkpt><trkpt lat="43.4713667" lon="11.9094367"><ele>389.6</ele><time>2026-04-19T07:36:35.234Z</time></trkpt><trkpt lat="43.4714633" lon="11.909475"><ele>389.4</ele><time>2026-04-19T07:36:37.235Z</time></trkpt><trkpt lat="43.471565" lon="11.9095033"><ele>389.2</ele><time>2026-04-19T07:36:39.233Z</time></trkpt><trkpt lat="43.4716767" lon="11.9095333"><ele>389.0</ele><time>2026-04-19T07:36:41.232Z</time></trkpt><trkpt lat="43.471795" lon="11.9095783"><ele>389.0</ele><time>2026-04-19T07:36:43.235Z</time></trkpt><trkpt lat="43.4718583" lon="11.9096017"><ele>389.0</ele><time>2026-04-19T07:36:44.235Z</time></trkpt><trkpt lat="43.47192" lon="11.9096233"><ele>389.0</ele><time>2026-04-19T07:36:45.232Z</time></trkpt><trkpt lat="43.4720317" lon="11.9096667"><ele>389.0</ele><time>2026-04-19T07:36:47.233Z</time></trkpt><trkpt lat="43.4721433" lon="11.9097033"><ele>389.0</ele><time>2026-04-19T07:36:49.233Z</time></trkpt><trkpt lat="43.4722517" lon="11.90975"><ele>388.99999999999994</ele><time>2026-04-19T07:36:51.233Z</time></trkpt><trkpt lat="43.4723533" lon="11.9098417"><ele>389.0</ele><time>2026-04-19T07:36:53.233Z</time></trkpt><trkpt lat="43.47241" lon="11.9098933"><ele>389.0</ele><time>2026-04-19T07:36:54.232Z</time></trkpt><trkpt lat="43.4724667" lon="11.9099417"><ele>389.0</ele><time>2026-04-19T07:36:55.237Z</time></trkpt><trkpt lat="43.4725283" lon="11.9099833"><ele>388.99999999999994</ele><time>2026-04-19T07:36:56.234Z</time></trkpt><trkpt lat="43.4726233" lon="11.910035"><ele>389.0</ele><time>2026-04-19T07:36:58.232Z</time></trkpt><trkpt lat="43.4726983" lon="11.910075"><ele>388.99999999999994</ele><time>2026-04-19T07:37:00.233Z</time></trkpt><trkpt lat="43.4727717" lon="11.9101233"><ele>389.0</ele><time>2026-04-19T07:37:02.233Z</time></trkpt><trkpt lat="43.4728183" lon="11.9102083"><ele>389.0</ele><time>2026-04-19T07:37:04.234Z</time></trkpt><trkpt lat="43.4728533" lon="11.9103467"><ele>389.0</ele><time>2026-04-19T07:37:06.232Z</time></trkpt><trkpt lat="43.4728667" lon="11.91044"><ele>388.99999999999994</ele><time>2026-04-19T07:37:07.238Z</time></trkpt><trkpt lat="43.472885" lon="11.910535"><ele>389.0</ele><time>2026-04-19T07:37:08.238Z</time></trkpt><trkpt lat="43.4729" lon="11.91063"><ele>389.0</ele><time>2026-04-19T07:37:09.234Z</time></trkpt><trkpt lat="43.4729135" lon="11.9107155"><ele>389.0</ele><time>2026-04-19T07:37:10.234Z</time></trkpt><trkpt lat="43.4729579" lon="11.9108738"><ele>389.0</ele><time>2026-04-19T07:37:12.233Z</time></trkpt><trkpt lat="43.4730491" lon="11.9109687"><ele>389.0</ele><time>2026-04-19T07:37:14.232Z</time></trkpt><trkpt lat="43.4731585" lon="11.911022"><ele>389.0</ele><time>2026-04-19T07:37:16.233Z</time></trkpt><trkpt lat="43.4732233" lon="11.9110336"><ele>387.49999999999994</ele><time>2026-04-19T07:37:17.234Z</time></trkpt><trkpt lat="43.4732921" lon="11.9110418"><ele>386.0</ele><time>2026-04-19T07:37:18.234Z</time></trkpt><trkpt lat="43.4733608" lon="11.9110488"><ele>384.5</ele><time>2026-04-19T07:37:19.235Z</time></trkpt><trkpt lat="43.4734303" lon="11.9110616"><ele>383.0</ele><time>2026-04-19T07:37:20.234Z</time></trkpt><trkpt lat="43.4735029" lon="11.9110912"><ele>381.5</ele><time>2026-04-19T07:37:21.232Z</time></trkpt><trkpt lat="43.4735777" lon="11.9111335"><ele>380.0</ele><time>2026-04-19T07:37:22.232Z</time></trkpt><trkpt lat="43.4736574" lon="11.9111832"><ele>380.0</ele><time>2026-04-19T07:37:23.234Z</time></trkpt><trkpt lat="43.4737384" lon="11.9112353"><ele>380.0</ele><time>2026-04-19T07:37:24.233Z</time></trkpt><trkpt lat="43.4738189" lon="11.9112888"><ele>380.0</ele><time>2026-04-19T07:37:25.233Z</time></trkpt><trkpt lat="43.4738995" lon="11.911343"><ele>380.0</ele><time>2026-04-19T07:37:26.234Z</time></trkpt><trkpt lat="43.4739798" lon="11.9113888"><ele>380.0</ele><time>2026-04-19T07:37:27.233Z</time></trkpt><trkpt lat="43.474063" lon="11.9114218"><ele>380.0</ele><time>2026-04-19T07:37:28.232Z</time></trkpt><trkpt lat="43.4741457" lon="11.9114611"><ele>379.5</ele><time>2026-04-19T07:37:29.233Z</time></trkpt><trkpt lat="43.4742235" lon="11.9115037"><ele>379.0</ele><time>2026-04-19T07:37:30.233Z</time></trkpt><trkpt lat="43.4742999" lon="11.9115437"><ele>378.5</ele><time>2026-04-19T07:37:31.233Z</time></trkpt><trkpt lat="43.4743686" lon="11.9115837"><ele>378.0</ele><time>2026-04-19T07:37:32.233Z</time></trkpt><trkpt lat="43.4744285" lon="11.9116311"><ele>377.5</ele><time>2026-04-19T07:37:33.232Z</time></trkpt><trkpt lat="43.474486" lon="11.9116777"><ele>377.0</ele><time>2026-04-19T07:37:34.233Z</time></trkpt><trkpt lat="43.4745972" lon="11.9117193"><ele>376.40000000000003</ele><time>2026-04-19T07:37:36.233Z</time></trkpt><trkpt lat="43.4746614" lon="11.9116757"><ele>375.8</ele><time>2026-04-19T07:37:39.233Z</time></trkpt><trkpt lat="43.47468" lon="11.9118"><ele>375.2</ele><time>2026-04-19T07:37:53.232Z</time></trkpt><trkpt lat="43.474715" lon="11.91194"><ele>374.6</ele><time>2026-04-19T07:37:55.233Z</time></trkpt><trkpt lat="43.4747667" lon="11.9120933"><ele>374.0</ele><time>2026-04-19T07:37:57.234Z</time></trkpt><trkpt lat="43.4747933" lon="11.9121817"><ele>374.0</ele><time>2026-04-19T07:37:58.233Z</time></trkpt><trkpt lat="43.4748167" lon="11.91227"><ele>374.0</ele><time>2026-04-19T07:37:59.232Z</time></trkpt><trkpt lat="43.4748417" lon="11.9123533"><ele>374.0</ele><time>2026-04-19T07:38:00.233Z</time></trkpt><trkpt lat="43.4748733" lon="11.9124317"><ele>374.0</ele><time>2026-04-19T07:38:01.233Z</time></trkpt><trkpt lat="43.4749117" lon="11.9125067"><ele>374.0</ele><time>2026-04-19T07:38:02.233Z</time></trkpt><trkpt lat="43.4749533" lon="11.9125767"><ele>374.0</ele><time>2026-04-19T07:38:03.233Z</time></trkpt><trkpt lat="43.4749983" lon="11.9126517"><ele>374.0</ele><time>2026-04-19T07:38:04.233Z</time></trkpt><trkpt lat="43.4750417" lon="11.9127283"><ele>373.2</ele><time>2026-04-19T07:38:05.234Z</time></trkpt><trkpt lat="43.4750867" lon="11.9128033"><ele>372.4</ele><time>2026-04-19T07:38:06.236Z</time></trkpt><trkpt lat="43.4751617" lon="11.9129317"><ele>371.6</ele><time>2026-04-19T07:38:08.232Z</time></trkpt><trkpt lat="43.4752283" lon="11.9130533"><ele>370.8</ele><time>2026-04-19T07:38:10.232Z</time></trkpt><trkpt lat="43.4752933" lon="11.9131633"><ele>370.0</ele><time>2026-04-19T07:38:12.233Z</time></trkpt><trkpt lat="43.4753517" lon="11.9132633"><ele>370.0</ele><time>2026-04-19T07:38:14.232Z</time></trkpt><trkpt lat="43.4754033" lon="11.9133583"><ele>370.0</ele><time>2026-04-19T07:38:16.234Z</time></trkpt><trkpt lat="43.47545" lon="11.91345"><ele>370.0</ele><time>2026-04-19T07:38:18.232Z</time></trkpt><trkpt lat="43.4755217" lon="11.9135233"><ele>370.0</ele><time>2026-04-19T07:38:20.232Z</time></trkpt><trkpt lat="43.475605" lon="11.9135733"><ele>370.0</ele><time>2026-04-19T07:38:22.232Z</time></trkpt><trkpt lat="43.4756917" lon="11.9136"><ele>370.0</ele><time>2026-04-19T07:38:24.234Z</time></trkpt><trkpt lat="43.4757717" lon="11.9136267"><ele>368.4</ele><time>2026-04-19T07:38:26.232Z</time></trkpt><trkpt lat="43.4758767" lon="11.91367"><ele>366.8</ele><time>2026-04-19T07:38:28.232Z</time></trkpt><trkpt lat="43.4759383" lon="11.913695"><ele>365.20000000000005</ele><time>2026-04-19T07:38:29.234Z</time></trkpt><trkpt lat="43.4760483" lon="11.913745"><ele>363.6</ele><time>2026-04-19T07:38:31.232Z</time></trkpt><trkpt lat="43.4761567" lon="11.9138117"><ele>362.0</ele><time>2026-04-19T07:38:33.232Z</time></trkpt><trkpt lat="43.4762467" lon="11.9139267"><ele>362.1666666666667</ele><time>2026-04-19T07:38:35.233Z</time></trkpt><trkpt lat="43.47629" lon="11.914"><ele>362.33333333333337</ele><time>2026-04-19T07:38:36.232Z</time></trkpt><trkpt lat="43.476335" lon="11.91408"><ele>362.5</ele><time>2026-04-19T07:38:37.233Z</time></trkpt><trkpt lat="43.4763717" lon="11.914155"><ele>362.6666666666667</ele><time>2026-04-19T07:38:38.235Z</time></trkpt><trkpt lat="43.4764233" lon="11.914305"><ele>362.8333333333333</ele><time>2026-04-19T07:38:40.234Z</time></trkpt><trkpt lat="43.47646" lon="11.9144417"><ele>363.0</ele><time>2026-04-19T07:38:42.233Z</time></trkpt><trkpt lat="43.476475" lon="11.9145783"><ele>363.0</ele><time>2026-04-19T07:38:44.233Z</time></trkpt><trkpt lat="43.47649" lon="11.9147067"><ele>363.0</ele><time>2026-04-19T07:38:46.233Z</time></trkpt><trkpt lat="43.4765283" lon="11.9148467"><ele>363.0</ele><time>2026-04-19T07:38:48.234Z</time></trkpt><trkpt lat="43.476545" lon="11.9149317"><ele>363.0</ele><time>2026-04-19T07:38:49.238Z</time></trkpt><trkpt lat="43.4765783" lon="11.9150767"><ele>363.0</ele><time>2026-04-19T07:38:51.233Z</time></trkpt><trkpt lat="43.476635" lon="11.9151817"><ele>362.5</ele><time>2026-04-19T07:38:53.233Z</time></trkpt><trkpt lat="43.4766867" lon="11.9153267"><ele>362.0</ele><time>2026-04-19T07:38:55.234Z</time></trkpt><trkpt lat="43.4757717" lon="11.9136267"><ele>362.0</ele><time>2026-04-19T07:38:26.232Z</time></trkpt><trkpt lat="43.4758767" lon="11.91367"><ele>362.0</ele><time>2026-04-19T07:38:28.232Z</time></trkpt><trkpt lat="43.4759383" lon="11.913695"><ele>362.0</ele><time>2026-04-19T07:38:29.234Z</time></trkpt><trkpt lat="43.4760483" lon="11.913745"><ele>362.0</ele><time>2026-04-19T07:38:31.232Z</time></trkpt><trkpt lat="43.4761567" lon="11.9138117"><ele>362.0</ele><time>2026-04-19T07:38:33.232Z</time></trkpt><trkpt lat="43.4762467" lon="11.9139267"><ele>362.1666666666667</ele><time>2026-04-19T07:38:35.233Z</time></trkpt><trkpt lat="43.47629" lon="11.914"><ele>362.33333333333337</ele><time>2026-04-19T07:38:36.232Z</time></trkpt><trkpt lat="43.476335" lon="11.91408"><ele>362.5</ele><time>2026-04-19T07:38:37.233Z</time></trkpt><trkpt lat="43.4763717" lon="11.914155"><ele>362.6666666666667</ele><time>2026-04-19T07:38:38.235Z</time></trkpt><trkpt lat="43.4764233" lon="11.914305"><ele>362.8333333333333</ele><time>2026-04-19T07:38:40.234Z</time></trkpt><trkpt lat="43.47646" lon="11.9144417"><ele>363.0</ele><time>2026-04-19T07:38:42.233Z</time></trkpt><trkpt lat="43.476475" lon="11.9145783"><ele>363.0</ele><time>2026-04-19T07:38:44.233Z</time></trkpt><trkpt lat="43.47649" lon="11.9147067"><ele>363.0</ele><time>2026-04-19T07:38:46.233Z</time></trkpt><trkpt lat="43.4765283" lon="11.9148467"><ele>363.0</ele><time>2026-04-19T07:38:48.234Z</time></trkpt><trkpt lat="43.476545" lon="11.9149317"><ele>363.0</ele><time>2026-04-19T07:38:49.238Z</time></trkpt><trkpt lat="43.4765783" lon="11.9150767"><ele>363.0</ele><time>2026-04-19T07:38:51.233Z</time></trkpt><trkpt lat="43.476635" lon="11.9151817"><ele>360.59999999999997</ele><time>2026-04-19T07:38:53.233Z</time></trkpt><trkpt lat="43.4766867" lon="11.9153267"><ele>358.2</ele><time>2026-04-19T07:38:55.234Z</time></trkpt><trkpt lat="43.4767583" lon="11.9154583"><ele>355.8</ele><time>2026-04-19T07:38:57.232Z</time></trkpt><trkpt lat="43.4768033" lon="11.91552"><ele>353.4</ele><time>2026-04-19T07:38:58.233Z</time></trkpt><trkpt lat="43.4768483" lon="11.9155817"><ele>351.0</ele><time>2026-04-19T07:38:59.234Z</time></trkpt><trkpt lat="43.47693" lon="11.9157167"><ele>351.0</ele><time>2026-04-19T07:39:01.232Z</time></trkpt><trkpt lat="43.4769783" lon="11.91578"><ele>351.0</ele><time>2026-04-19T07:39:02.232Z</time></trkpt><trkpt lat="43.4770267" lon="11.9158383"><ele>351.0</ele><time>2026-04-19T07:39:03.232Z</time></trkpt><trkpt lat="43.4770983" lon="11.91596"><ele>351.0</ele><time>2026-04-19T07:39:05.232Z</time></trkpt><trkpt lat="43.4771667" lon="11.9160667"><ele>351.0</ele><time>2026-04-19T07:39:07.234Z</time></trkpt><trkpt lat="43.4772417" lon="11.9161733"><ele>349.75</ele><time>2026-04-19T07:39:09.234Z</time></trkpt><trkpt lat="43.47732" lon="11.9162817"><ele>348.5</ele><time>2026-04-19T07:39:11.234Z</time></trkpt><trkpt lat="43.47741" lon="11.916395"><ele>347.25</ele><time>2026-04-19T07:39:13.232Z</time></trkpt><trkpt lat="43.4774917" lon="11.9164867"><ele>346.0</ele><time>2026-04-19T07:39:15.238Z</time></trkpt><trkpt lat="43.4775933" lon="11.9166"><ele>346.0</ele><time>2026-04-19T07:39:17.234Z</time></trkpt><trkpt lat="43.4776433" lon="11.9166567"><ele>346.0</ele><time>2026-04-19T07:39:18.233Z</time></trkpt><trkpt lat="43.47774" lon="11.9167683"><ele>346.0</ele><time>2026-04-19T07:39:20.234Z</time></trkpt><trkpt lat="43.47784" lon="11.9168817"><ele>346.0</ele><time>2026-04-19T07:39:22.232Z</time></trkpt><trkpt lat="43.4778867" lon="11.9169433"><ele>346.0</ele><time>2026-04-19T07:39:23.234Z</time></trkpt><trkpt lat="43.4779667" lon="11.91703"><ele>344.66666666666663</ele><time>2026-04-19T07:39:25.233Z</time></trkpt><trkpt lat="43.4780567" lon="11.9171117"><ele>343.3333333333333</ele><time>2026-04-19T07:39:27.235Z</time></trkpt><trkpt lat="43.4781117" lon="11.91717"><ele>342.0</ele><time>2026-04-19T07:39:28.234Z</time></trkpt><trkpt lat="43.4782233" lon="11.917255"><ele>340.6666666666667</ele><time>2026-04-19T07:39:30.232Z</time></trkpt><trkpt lat="43.4782817" lon="11.9172917"><ele>339.33333333333337</ele><time>2026-04-19T07:39:31.234Z</time></trkpt><trkpt lat="43.478345" lon="11.9173333"><ele>338.0</ele><time>2026-04-19T07:39:32.234Z</time></trkpt><trkpt lat="43.4784033" lon="11.9173717"><ele>338.0</ele><time>2026-04-19T07:39:33.232Z</time></trkpt><trkpt lat="43.47851" lon="11.91743"><ele>338.0</ele><time>2026-04-19T07:39:35.232Z</time></trkpt><trkpt lat="43.4785983" lon="11.9174783"><ele>338.0</ele><time>2026-04-19T07:39:37.233Z</time></trkpt><trkpt lat="43.478675" lon="11.917525"><ele>338.0</ele><time>2026-04-19T07:39:39.232Z</time></trkpt><trkpt lat="43.4787717" lon="11.917565"><ele>338.0</ele><time>2026-04-19T07:39:41.235Z</time></trkpt><trkpt lat="43.478835" lon="11.9175883"><ele>338.2857142857143</ele><time>2026-04-19T07:39:42.234Z</time></trkpt><trkpt lat="43.4788967" lon="11.91761"><ele>338.57142857142856</ele><time>2026-04-19T07:39:43.233Z</time></trkpt><trkpt lat="43.47897" lon="11.9176367"><ele>338.8571428571429</ele><time>2026-04-19T07:39:44.234Z</time></trkpt><trkpt lat="43.4790367" lon="11.91767"><ele>339.1428571428571</ele><time>2026-04-19T07:39:45.234Z</time></trkpt><trkpt lat="43.4790967" lon="11.9177033"><ele>339.4285714285714</ele><time>2026-04-19T07:39:46.234Z</time></trkpt><trkpt lat="43.47916" lon="11.9177317"><ele>339.7142857142857</ele><time>2026-04-19T07:39:47.232Z</time></trkpt><trkpt lat="43.4792567" lon="11.9177783"><ele>340.0</ele><time>2026-04-19T07:39:49.235Z</time></trkpt><trkpt lat="43.4793467" lon="11.9178017"><ele>340.0</ele><time>2026-04-19T07:39:51.233Z</time></trkpt><trkpt lat="43.479425" lon="11.9178"><ele>340.0</ele><time>2026-04-19T07:39:53.233Z</time></trkpt><trkpt lat="43.4795033" lon="11.9178"><ele>340.0</ele><time>2026-04-19T07:39:55.235Z</time></trkpt><trkpt lat="43.4795567" lon="11.9178883"><ele>340.0</ele><time>2026-04-19T07:39:58.235Z</time></trkpt><trkpt lat="43.479615" lon="11.9180117"><ele>340.0</ele><time>2026-04-19T07:40:00.235Z</time></trkpt><trkpt lat="43.4796917" lon="11.918085"><ele>340.0</ele><time>2026-04-19T07:40:02.233Z</time></trkpt><trkpt lat="43.4797518" lon="11.9181443"><ele>342.2</ele><time>2026-04-19T07:40:04.253Z</time></trkpt><trkpt lat="43.4798093" lon="11.9182309"><ele>344.4</ele><time>2026-04-19T07:40:06.255Z</time></trkpt><trkpt lat="43.4798873" lon="11.9183184"><ele>346.6</ele><time>2026-04-19T07:40:08.256Z</time></trkpt><trkpt lat="43.47997" lon="11.91841"><ele>348.8</ele><time>2026-04-19T07:40:10.233Z</time></trkpt><trkpt lat="43.4800617" lon="11.9185117"><ele>351.0</ele><time>2026-04-19T07:40:12.234Z</time></trkpt><trkpt lat="43.4801333" lon="11.91859"><ele>351.0</ele><time>2026-04-19T07:40:14.233Z</time></trkpt><trkpt lat="43.4801974" lon="11.9186435"><ele>351.0</ele><time>2026-04-19T07:40:15.336Z</time></trkpt><trkpt lat="43.4802593" lon="11.9187022"><ele>351.0</ele><time>2026-04-19T07:40:17.265Z</time></trkpt><trkpt lat="43.4802718" lon="11.9187918"><ele>351.0</ele><time>2026-04-19T07:40:20.25Z</time></trkpt><trkpt lat="43.4803506" lon="11.9188868"><ele>351.0</ele><time>2026-04-19T07:40:22.353Z</time></trkpt><trkpt lat="43.4804084" lon="11.9189655"><ele>351.0</ele><time>2026-04-19T07:40:24.294Z</time></trkpt><trkpt lat="43.4804521" lon="11.9190431"><ele>353.5</ele><time>2026-04-19T07:40:27.273Z</time></trkpt><trkpt lat="43.4805045" lon="11.9190942"><ele>356.0</ele><time>2026-04-19T07:40:29.275Z</time></trkpt><trkpt lat="43.4805627" lon="11.9191753"><ele>358.5</ele><time>2026-04-19T07:40:31.277Z</time></trkpt><trkpt lat="43.4806179" lon="11.9192751"><ele>361.0</ele><time>2026-04-19T07:40:33.279Z</time></trkpt><trkpt lat="43.4806687" lon="11.9193519"><ele>363.5</ele><time>2026-04-19T07:40:35.213Z</time></trkpt><trkpt lat="43.4806916" lon="11.9194581"><ele>366.0</ele><time>2026-04-19T07:40:37.234Z</time></trkpt><trkpt lat="43.4806522" lon="11.9195491"><ele>366.0</ele><time>2026-04-19T07:40:39.285Z</time></trkpt><trkpt lat="43.4807" lon="11.91963"><ele>366.0</ele><time>2026-04-19T07:40:45.232Z</time></trkpt><trkpt lat="43.480755" lon="11.9196917"><ele>366.0</ele><time>2026-04-19T07:40:47.233Z</time></trkpt><trkpt lat="43.4808033" lon="11.9197983"><ele>366.0</ele><time>2026-04-19T07:40:50.235Z</time></trkpt><trkpt lat="43.4808633" lon="11.9199083"><ele>366.0</ele><time>2026-04-19T07:40:52.232Z</time></trkpt><trkpt lat="43.480905" lon="11.9199783"><ele>366.0</ele><time>2026-04-19T07:40:53.233Z</time></trkpt><trkpt lat="43.480945" lon="11.9200533"><ele>366.1666666666667</ele><time>2026-04-19T07:40:54.235Z</time></trkpt><trkpt lat="43.4809833" lon="11.9201317"><ele>366.3333333333333</ele><time>2026-04-19T07:40:55.234Z</time></trkpt><trkpt lat="43.4810367" lon="11.9202683"><ele>366.5</ele><time>2026-04-19T07:40:57.234Z</time></trkpt><trkpt lat="43.4810783" lon="11.9204033"><ele>366.66666666666663</ele><time>2026-04-19T07:40:59.235Z</time></trkpt><trkpt lat="43.4811167" lon="11.92051"><ele>366.8333333333333</ele><time>2026-04-19T07:41:01.232Z</time></trkpt><trkpt lat="43.4811443" lon="11.9205903"><ele>367.0</ele><time>2026-04-19T07:41:03.233Z</time></trkpt><trkpt lat="43.4811833" lon="11.9206594"><ele>367.0</ele><time>2026-04-19T07:41:06.234Z</time></trkpt><trkpt lat="43.4812092" lon="11.9207746"><ele>367.0</ele><time>2026-04-19T07:41:10.352Z</time></trkpt><trkpt lat="43.4812221" lon="11.9208726"><ele>367.0</ele><time>2026-04-19T07:41:12.164Z</time></trkpt><trkpt lat="43.4812403" lon="11.9209639"><ele>367.0</ele><time>2026-04-19T07:41:14.255Z</time></trkpt><trkpt lat="43.4813026" lon="11.9210754"><ele>367.0</ele><time>2026-04-19T07:41:16.232Z</time></trkpt><trkpt lat="43.4813619" lon="11.9212084"><ele>367.0</ele><time>2026-04-19T07:41:18.233Z</time></trkpt><trkpt lat="43.4814048" lon="11.9212764"><ele>369.16666666666663</ele><time>2026-04-19T07:41:19.232Z</time></trkpt><trkpt lat="43.4814469" lon="11.9213413"><ele>371.3333333333333</ele><time>2026-04-19T07:41:20.233Z</time></trkpt><trkpt lat="43.481526" lon="11.9214531"><ele>373.5</ele><time>2026-04-19T07:41:22.233Z</time></trkpt><trkpt lat="43.4815891" lon="11.9215654"><ele>375.6666666666667</ele><time>2026-04-19T07:41:24.232Z</time></trkpt><trkpt lat="43.4816272" lon="11.9216632"><ele>377.83333333333337</ele><time>2026-04-19T07:41:26.234Z</time></trkpt><trkpt lat="43.481646" lon="11.9217624"><ele>380.0</ele><time>2026-04-19T07:41:28.232Z</time></trkpt><trkpt lat="43.4816974" lon="11.9218794"><ele>381.33333333333337</ele><time>2026-04-19T07:41:48.364Z</time></trkpt><trkpt lat="43.4817877" lon="11.9219856"><ele>382.6666666666667</ele><time>2026-04-19T07:41:51.199Z</time></trkpt><trkpt lat="43.4818551" lon="11.9220325"><ele>384.0</ele><time>2026-04-19T07:41:53.268Z</time></trkpt><trkpt lat="43.4819098" lon="11.9220766"><ele>385.33333333333337</ele><time>2026-04-19T07:41:55.269Z</time></trkpt><trkpt lat="43.4819555" lon="11.9221529"><ele>386.6666666666667</ele><time>2026-04-19T07:41:57.271Z</time></trkpt><trkpt lat="43.4820328" lon="11.922202"><ele>388.0</ele><time>2026-04-19T07:42:00.273Z</time></trkpt><trkpt lat="43.4820071" lon="11.9223037"><ele>388.0</ele><time>2026-04-19T07:42:02.276Z</time></trkpt><trkpt lat="43.4819758" lon="11.9223993"><ele>388.0</ele><time>2026-04-19T07:42:05.279Z</time></trkpt><trkpt lat="43.4820072" lon="11.9225594"><ele>388.0</ele><time>2026-04-19T07:42:14.283Z</time></trkpt><trkpt lat="43.482034" lon="11.9227584"><ele>388.0</ele><time>2026-04-19T07:42:19.291Z</time></trkpt><trkpt lat="43.4820029" lon="11.9228701"><ele>388.0</ele><time>2026-04-19T07:42:22.293Z</time></trkpt><trkpt lat="43.4820399" lon="11.9229876"><ele>389.83333333333337</ele><time>2026-04-19T07:42:24.295Z</time></trkpt><trkpt lat="43.4820307" lon="11.9231065"><ele>391.6666666666667</ele><time>2026-04-19T07:42:26.296Z</time></trkpt><trkpt lat="43.4819762" lon="11.92316"><ele>393.5</ele><time>2026-04-19T07:42:28.298Z</time></trkpt><trkpt lat="43.4819317" lon="11.9232307"><ele>395.33333333333337</ele><time>2026-04-19T07:42:30.3Z</time></trkpt><trkpt lat="43.4819352" lon="11.9233399"><ele>397.1666666666667</ele><time>2026-04-19T07:42:33.303Z</time></trkpt><trkpt lat="43.4819436" lon="11.9234264"><ele>399.0</ele><time>2026-04-19T07:42:35.304Z</time></trkpt><trkpt lat="43.4819475" lon="11.9235584"><ele>400.7142857142857</ele><time>2026-04-19T07:42:38.307Z</time></trkpt><trkpt lat="43.4819308" lon="11.9236505"><ele>402.42857142857144</ele><time>2026-04-19T07:42:40.309Z</time></trkpt><trkpt lat="43.4819188" lon="11.9237723"><ele>404.1428571428571</ele><time>2026-04-19T07:42:42.286Z</time></trkpt><trkpt lat="43.4819369" lon="11.9238648"><ele>405.8571428571429</ele><time>2026-04-19T07:42:44.312Z</time></trkpt><trkpt lat="43.4819741" lon="11.9239466"><ele>407.57142857142856</ele><time>2026-04-19T07:42:46.314Z</time></trkpt><trkpt lat="43.4820019" lon="11.9240392"><ele>409.2857142857143</ele><time>2026-04-19T07:42:48.316Z</time></trkpt><trkpt lat="43.4820057" lon="11.9241471"><ele>411.0</ele><time>2026-04-19T07:42:50.318Z</time></trkpt><trkpt lat="43.4820067" lon="11.9242436"><ele>412.1666666666667</ele><time>2026-04-19T07:42:52.261Z</time></trkpt><trkpt lat="43.4820354" lon="11.9243302"><ele>413.33333333333337</ele><time>2026-04-19T07:42:55.322Z</time></trkpt><trkpt lat="43.4820333" lon="11.9244317"><ele>414.5</ele><time>2026-04-19T07:43:12.233Z</time></trkpt><trkpt lat="43.4820583" lon="11.92455"><ele>415.6666666666667</ele><time>2026-04-19T07:43:15.233Z</time></trkpt><trkpt lat="43.482075" lon="11.9246383"><ele>416.83333333333337</ele><time>2026-04-19T07:43:17.233Z</time></trkpt><trkpt lat="43.4821067" lon="11.9247483"><ele>418.0</ele><time>2026-04-19T07:43:20.233Z</time></trkpt><trkpt lat="43.482095" lon="11.9248833"><ele>418.6666666666667</ele><time>2026-04-19T07:43:23.233Z</time></trkpt><trkpt lat="43.4820367" lon="11.92496"><ele>419.33333333333337</ele><time>2026-04-19T07:43:25.233Z</time></trkpt><trkpt lat="43.48201" lon="11.925045"><ele>420.0</ele><time>2026-04-19T07:43:27.234Z</time></trkpt><trkpt lat="43.48198" lon="11.92513"><ele>420.66666666666663</ele><time>2026-04-19T07:43:29.233Z</time></trkpt><trkpt lat="43.48194" lon="11.9252417"><ele>421.3333333333333</ele><time>2026-04-19T07:43:33.233Z</time></trkpt><trkpt lat="43.4818867" lon="11.9253083"><ele>422.0</ele><time>2026-04-19T07:43:35.235Z</time></trkpt><trkpt lat="43.481815" lon="11.9253867"><ele>424.49999999999994</ele><time>2026-04-19T07:43:38.234Z</time></trkpt><trkpt lat="43.481784" lon="11.9254654"><ele>427.0</ele><time>2026-04-19T07:43:40.387Z</time></trkpt><trkpt lat="43.481799" lon="11.9255554"><ele>429.5</ele><time>2026-04-19T07:43:43.046Z</time></trkpt><trkpt lat="43.4818655" lon="11.9256108"><ele>432.0</ele><time>2026-04-19T07:43:45.267Z</time></trkpt><trkpt lat="43.4819443" lon="11.9256587"><ele>434.49999999999994</ele><time>2026-04-19T07:43:47.301Z</time></trkpt><trkpt lat="43.4819568" lon="11.9257599"><ele>437.0</ele><time>2026-04-19T07:43:49.284Z</time></trkpt><trkpt lat="43.4819047" lon="11.9258473"><ele>439.57142857142856</ele><time>2026-04-19T07:43:51.346Z</time></trkpt><trkpt lat="43.4818835" lon="11.9259372"><ele>442.14285714285717</ele><time>2026-04-19T07:43:53.273Z</time></trkpt><trkpt lat="43.4818519" lon="11.9260404"><ele>444.7142857142857</ele><time>2026-04-19T07:43:55.276Z</time></trkpt><trkpt lat="43.4818105" lon="11.926122"><ele>447.2857142857143</ele><time>2026-04-19T07:43:57.276Z</time></trkpt><trkpt lat="43.4817425" lon="11.9261606"><ele>449.8571428571429</ele><time>2026-04-19T07:43:59.302Z</time></trkpt><trkpt lat="43.4817117" lon="11.9262367"><ele>452.42857142857144</ele><time>2026-04-19T07:44:01.232Z</time></trkpt><trkpt lat="43.4817317" lon="11.926345"><ele>455.0</ele><time>2026-04-19T07:44:04.24Z</time></trkpt><trkpt lat="43.4817533" lon="11.926465"><ele>454.99999999999994</ele><time>2026-04-19T07:44:07.234Z</time></trkpt><trkpt lat="43.481735" lon="11.9265633"><ele>455.0</ele><time>2026-04-19T07:44:09.233Z</time></trkpt><trkpt lat="43.4817083" lon="11.9266667"><ele>455.0</ele><time>2026-04-19T07:44:11.234Z</time></trkpt><trkpt lat="43.4816783" lon="11.9267883"><ele>455.0</ele><time>2026-04-19T07:44:14.235Z</time></trkpt><trkpt lat="43.481655" lon="11.9268817"><ele>454.99999999999994</ele><time>2026-04-19T07:44:16.233Z</time></trkpt><trkpt lat="43.4816467" lon="11.9269833"><ele>455.0</ele><time>2026-04-19T07:44:18.233Z</time></trkpt><trkpt lat="43.4816339" lon="11.9270754"><ele>458.16666666666663</ele><time>2026-04-19T07:44:20.298Z</time></trkpt><trkpt lat="43.4816888" lon="11.9271695"><ele>461.3333333333333</ele><time>2026-04-19T07:44:23.283Z</time></trkpt><trkpt lat="43.481707" lon="11.9272743"><ele>464.5</ele><time>2026-04-19T07:44:27.303Z</time></trkpt><trkpt lat="43.4816517" lon="11.9273333"><ele>467.66666666666663</ele><time>2026-04-19T07:45:41.233Z</time></trkpt><trkpt lat="43.481575" lon="11.9273367"><ele>470.8333333333333</ele><time>2026-04-19T07:45:44.233Z</time></trkpt><trkpt lat="43.4815083" lon="11.92732"><ele>474.0</ele><time>2026-04-19T07:45:46.232Z</time></trkpt><trkpt lat="43.48142" lon="11.9272933"><ele>474.0</ele><time>2026-04-19T07:45:48.233Z</time></trkpt><trkpt lat="43.4813573" lon="11.927281"><ele>474.0</ele><time>2026-04-19T07:45:50.278Z</time></trkpt><trkpt lat="43.4812585" lon="11.9272252"><ele>474.0</ele><time>2026-04-19T07:45:52.281Z</time></trkpt><trkpt lat="43.4811802" lon="11.9271647"><ele>474.0</ele><time>2026-04-19T07:45:54.282Z</time></trkpt><trkpt lat="43.4810984" lon="11.9271317"><ele>474.0</ele><time>2026-04-19T07:45:56.284Z</time></trkpt><trkpt lat="43.4810536" lon="11.9272087"><ele>474.0</ele><time>2026-04-19T07:45:59.286Z</time></trkpt><trkpt lat="43.4810963" lon="11.9273041"><ele>474.1666666666667</ele><time>2026-04-19T07:46:02.243Z</time></trkpt><trkpt lat="43.4811169" lon="11.9273966"><ele>474.33333333333337</ele><time>2026-04-19T07:46:04.292Z</time></trkpt><trkpt lat="43.4811001" lon="11.9274841"><ele>474.5</ele><time>2026-04-19T07:46:06.294Z</time></trkpt><trkpt lat="43.4811103" lon="11.9275874"><ele>474.6666666666667</ele><time>2026-04-19T07:46:09.295Z</time></trkpt><trkpt lat="43.4811725" lon="11.9276553"><ele>474.83333333333337</ele><time>2026-04-19T07:46:12.299Z</time></trkpt><trkpt lat="43.4811033" lon="11.9275533"><ele>475.0</ele><time>2026-04-19T07:46:43.233Z</time></trkpt><trkpt lat="43.4811133" lon="11.927455"><ele>474.83333333333337</ele><time>2026-04-19T07:46:48.234Z</time></trkpt><trkpt lat="43.4811033" lon="11.9273567"><ele>474.6666666666667</ele><time>2026-04-19T07:46:51.233Z</time></trkpt><trkpt lat="43.4810567" lon="11.9272717"><ele>474.5</ele><time>2026-04-19T07:46:54.235Z</time></trkpt><trkpt lat="43.4810933" lon="11.9271433"><ele>474.33333333333337</ele><time>2026-04-19T07:47:03.232Z</time></trkpt><trkpt lat="43.4811867" lon="11.9271683"><ele>474.1666666666667</ele><time>2026-04-19T07:47:05.232Z</time></trkpt><trkpt lat="43.4812883" lon="11.9271867"><ele>474.0</ele><time>2026-04-19T07:47:07.232Z</time></trkpt><trkpt lat="43.4813767" lon="11.9272367"><ele>474.0</ele><time>2026-04-19T07:47:09.234Z</time></trkpt><trkpt lat="43.4814565" lon="11.9272791"><ele>474.0</ele><time>2026-04-19T07:47:11.234Z</time></trkpt><trkpt lat="43.4815253" lon="11.9273212"><ele>474.0</ele><time>2026-04-19T07:47:13.233Z</time></trkpt><trkpt lat="43.4816062" lon="11.9273355"><ele>474.0</ele><time>2026-04-19T07:47:15.233Z</time></trkpt><trkpt lat="43.4816798" lon="11.9273299"><ele>474.0</ele><time>2026-04-19T07:47:17.234Z</time></trkpt><trkpt lat="43.4817505" lon="11.9272818"><ele>474.0</ele><time>2026-04-19T07:47:19.234Z</time></trkpt><trkpt lat="43.4818131" lon="11.927215"><ele>473.99999999999994</ele><time>2026-04-19T07:47:21.234Z</time></trkpt><trkpt lat="43.4818807" lon="11.9271842"><ele>474.0</ele><time>2026-04-19T07:47:23.232Z</time></trkpt><trkpt lat="43.4819523" lon="11.9271786"><ele>473.99999999999994</ele><time>2026-04-19T07:47:25.233Z</time></trkpt><trkpt lat="43.4820138" lon="11.9272129"><ele>473.99999999999994</ele><time>2026-04-19T07:47:27.232Z</time></trkpt><trkpt lat="43.482089" lon="11.9272566"><ele>474.0</ele><time>2026-04-19T07:47:30.233Z</time></trkpt><trkpt lat="43.4821412" lon="11.9273244"><ele>473.99999999999994</ele><time>2026-04-19T07:47:32.234Z</time></trkpt><trkpt lat="43.4822064" lon="11.9273852"><ele>473.99999999999994</ele><time>2026-04-19T07:47:35.233Z</time></trkpt><trkpt lat="43.4822688" lon="11.9274129"><ele>473.5</ele><time>2026-04-19T07:47:37.265Z</time></trkpt><trkpt lat="43.482327" lon="11.9274607"><ele>473.0</ele><time>2026-04-19T07:47:39.267Z</time></trkpt><trkpt lat="43.4823819" lon="11.9275442"><ele>472.5</ele><time>2026-04-19T07:47:41.269Z</time></trkpt><trkpt lat="43.4824449" lon="11.9276394"><ele>472.0</ele><time>2026-04-19T07:47:43.242Z</time></trkpt><trkpt lat="43.4824834" lon="11.9277534"><ele>471.5</ele><time>2026-04-19T07:47:45.273Z</time></trkpt><trkpt lat="43.4824495" lon="11.9278449"><ele>471.0</ele><time>2026-04-19T07:47:47.274Z</time></trkpt><trkpt lat="43.48239" lon="11.9279067"><ele>473.8333333333333</ele><time>2026-04-19T07:47:49.233Z</time></trkpt><trkpt lat="43.48234" lon="11.9279883"><ele>476.66666666666663</ele><time>2026-04-19T07:47:52.234Z</time></trkpt><trkpt lat="43.4822967" lon="11.928085"><ele>479.5</ele><time>2026-04-19T07:47:54.232Z</time></trkpt><trkpt lat="43.482255" lon="11.9282067"><ele>482.3333333333333</ele><time>2026-04-19T07:47:56.233Z</time></trkpt><trkpt lat="43.4822333" lon="11.9283367"><ele>485.16666666666663</ele><time>2026-04-19T07:47:59.234Z</time></trkpt><trkpt lat="43.4822517" lon="11.9284417"><ele>488.0</ele><time>2026-04-19T07:48:01.234Z</time></trkpt><trkpt lat="43.4822767" lon="11.9285333"><ele>490.3333333333333</ele><time>2026-04-19T07:48:03.232Z</time></trkpt><trkpt lat="43.4822967" lon="11.9286383"><ele>492.66666666666663</ele><time>2026-04-19T07:48:05.233Z</time></trkpt><trkpt lat="43.4823183" lon="11.928775"><ele>495.0</ele><time>2026-04-19T07:48:07.235Z</time></trkpt><trkpt lat="43.4823633" lon="11.9288783"><ele>497.33333333333337</ele><time>2026-04-19T07:48:09.233Z</time></trkpt><trkpt lat="43.4824117" lon="11.9289783"><ele>499.6666666666667</ele><time>2026-04-19T07:48:11.234Z</time></trkpt><trkpt lat="43.482485" lon="11.929045"><ele>502.0</ele><time>2026-04-19T07:48:13.235Z</time></trkpt><trkpt lat="43.4825567" lon="11.929095"><ele>502.00000000000006</ele><time>2026-04-19T07:48:15.233Z</time></trkpt><trkpt lat="43.482635" lon="11.9291117"><ele>502.0</ele><time>2026-04-19T07:48:18.234Z</time></trkpt><trkpt lat="43.4826783" lon="11.9290467"><ele>502.0</ele><time>2026-04-19T07:48:20.235Z</time></trkpt><trkpt lat="43.4827267" lon="11.92897"><ele>502.0</ele><time>2026-04-19T07:48:22.234Z</time></trkpt><trkpt lat="43.4827967" lon="11.9288617"><ele>502.00000000000006</ele><time>2026-04-19T07:48:24.235Z</time></trkpt><trkpt lat="43.48289" lon="11.9287583"><ele>502.0</ele><time>2026-04-19T07:48:26.233Z</time></trkpt><trkpt lat="43.4829683" lon="11.9287"><ele>503.20000000000005</ele><time>2026-04-19T07:48:28.234Z</time></trkpt><trkpt lat="43.4830583" lon="11.9286867"><ele>504.40000000000003</ele><time>2026-04-19T07:48:30.235Z</time></trkpt><trkpt lat="43.4831467" lon="11.9287133"><ele>505.59999999999997</ele><time>2026-04-19T07:48:32.232Z</time></trkpt><trkpt lat="43.48326" lon="11.928775"><ele>506.79999999999995</ele><time>2026-04-19T07:48:34.232Z</time></trkpt><trkpt lat="43.4833643" lon="11.9288418"><ele>508.0</ele><time>2026-04-19T07:48:36.232Z</time></trkpt><trkpt lat="43.4834399" lon="11.9289148"><ele>508.0</ele><time>2026-04-19T07:48:38.232Z</time></trkpt><trkpt lat="43.4835381" lon="11.9289857"><ele>507.99999999999994</ele><time>2026-04-19T07:48:40.233Z</time></trkpt><trkpt lat="43.4835924" lon="11.9290316"><ele>507.99999999999994</ele><time>2026-04-19T07:48:41.232Z</time></trkpt><trkpt lat="43.4836921" lon="11.9291218"><ele>508.0</ele><time>2026-04-19T07:48:43.233Z</time></trkpt><trkpt lat="43.4838012" lon="11.9292206"><ele>508.0</ele><time>2026-04-19T07:48:45.238Z</time></trkpt><trkpt lat="43.4838625" lon="11.9292752"><ele>510.2</ele><time>2026-04-19T07:48:46.233Z</time></trkpt><trkpt lat="43.4839182" lon="11.9293274"><ele>512.4</ele><time>2026-04-19T07:48:47.232Z</time></trkpt><trkpt lat="43.4840113" lon="11.9294207"><ele>514.5999999999999</ele><time>2026-04-19T07:48:49.233Z</time></trkpt><trkpt lat="43.4841189" lon="11.9295116"><ele>516.8</ele><time>2026-04-19T07:48:51.235Z</time></trkpt><trkpt lat="43.48418" lon="11.9295692"><ele>519.0</ele><time>2026-04-19T07:48:52.234Z</time></trkpt><trkpt lat="43.4842472" lon="11.9296266"><ele>519.0</ele><time>2026-04-19T07:48:53.234Z</time></trkpt><trkpt lat="43.4843003" lon="11.9296821"><ele>519.0</ele><time>2026-04-19T07:48:54.233Z</time></trkpt><trkpt lat="43.4843764" lon="11.9297554"><ele>519.0</ele><time>2026-04-19T07:48:56.234Z</time></trkpt><trkpt lat="43.4844237" lon="11.9298166"><ele>519.0</ele><time>2026-04-19T07:48:58.234Z</time></trkpt><trkpt lat="43.4844585" lon="11.9299039"><ele>519.0</ele><time>2026-04-19T07:49:00.234Z</time></trkpt><trkpt lat="43.4845398" lon="11.9300239"><ele>519.0</ele><time>2026-04-19T07:49:02.235Z</time></trkpt><trkpt lat="43.4845882" lon="11.9300837"><ele>519.6</ele><time>2026-04-19T07:49:03.233Z</time></trkpt><trkpt lat="43.4846625" lon="11.9301952"><ele>520.2</ele><time>2026-04-19T07:49:05.235Z</time></trkpt><trkpt lat="43.4847401" lon="11.9302978"><ele>520.8000000000001</ele><time>2026-04-19T07:49:07.234Z</time></trkpt><trkpt lat="43.4848126" lon="11.9303956"><ele>521.4</ele><time>2026-04-19T07:49:09.232Z</time></trkpt><trkpt lat="43.4848898" lon="11.9305011"><ele>522.0</ele><time>2026-04-19T07:49:11.234Z</time></trkpt><trkpt lat="43.4849416" lon="11.930594"><ele>522.0</ele><time>2026-04-19T07:49:13.232Z</time></trkpt><trkpt lat="43.4850107" lon="11.9306944"><ele>522.0</ele><time>2026-04-19T07:49:15.233Z</time></trkpt><trkpt lat="43.4850569" lon="11.9307648"><ele>522.0</ele><time>2026-04-19T07:49:17.234Z</time></trkpt><trkpt lat="43.4851102" lon="11.9308122"><ele>522.0</ele><time>2026-04-19T07:49:20.234Z</time></trkpt><trkpt lat="43.485179" lon="11.9308789"><ele>522.0</ele><time>2026-04-19T07:49:22.233Z</time></trkpt><trkpt lat="43.4852299" lon="11.9309766"><ele>522.0</ele><time>2026-04-19T07:49:24.232Z</time></trkpt><trkpt lat="43.4852749" lon="11.9310634"><ele>525.0</ele><time>2026-04-19T07:49:26.234Z</time></trkpt><trkpt lat="43.4853601" lon="11.9311171"><ele>528.0</ele><time>2026-04-19T07:49:28.233Z</time></trkpt><trkpt lat="43.4854737" lon="11.9311098"><ele>531.0</ele><time>2026-04-19T07:49:30.232Z</time></trkpt><trkpt lat="43.4855758" lon="11.931127"><ele>534.0</ele><time>2026-04-19T07:49:32.234Z</time></trkpt><trkpt lat="43.4856817" lon="11.9311824"><ele>537.0</ele><time>2026-04-19T07:49:34.233Z</time></trkpt><trkpt lat="43.4857559" lon="11.9312534"><ele>537.0</ele><time>2026-04-19T07:49:36.233Z</time></trkpt><trkpt lat="43.4858302" lon="11.9312518"><ele>537.0</ele><time>2026-04-19T07:49:39.232Z</time></trkpt><trkpt lat="43.4859142" lon="11.9311882"><ele>537.0</ele><time>2026-04-19T07:49:41.232Z</time></trkpt><trkpt lat="43.4860166" lon="11.9311224"><ele>537.0</ele><time>2026-04-19T07:49:43.233Z</time></trkpt><trkpt lat="43.4861323" lon="11.9310806"><ele>537.0</ele><time>2026-04-19T07:49:45.232Z</time></trkpt><trkpt lat="43.4862366" lon="11.9310727"><ele>536.5</ele><time>2026-04-19T07:49:47.233Z</time></trkpt><trkpt lat="43.4863184" lon="11.9311012"><ele>536.0</ele><time>2026-04-19T07:49:49.233Z</time></trkpt><trkpt lat="43.486385" lon="11.931155"><ele>535.5</ele><time>2026-04-19T07:50:05.232Z</time></trkpt><trkpt lat="43.4864517" lon="11.9311733"><ele>535.0</ele><time>2026-04-19T07:50:07.232Z</time></trkpt><trkpt lat="43.4865367" lon="11.931185"><ele>534.5</ele><time>2026-04-19T07:50:09.233Z</time></trkpt><trkpt lat="43.4866" lon="11.931195"><ele>534.0</ele><time>2026-04-19T07:50:11.233Z</time></trkpt><trkpt lat="43.4866917" lon="11.9312033"><ele>534.0</ele><time>2026-04-19T07:50:14.233Z</time></trkpt><trkpt lat="43.486755" lon="11.93123"><ele>534.0</ele><time>2026-04-19T07:50:16.232Z</time></trkpt><trkpt lat="43.486835" lon="11.9312517"><ele>534.0</ele><time>2026-04-19T07:50:19.233Z</time></trkpt><trkpt lat="43.48691" lon="11.9312917"><ele>534.0</ele><time>2026-04-19T07:50:22.235Z</time></trkpt><trkpt lat="43.4869867" lon="11.9313467"><ele>534.0</ele><time>2026-04-19T07:50:25.233Z</time></trkpt><trkpt lat="43.4870567" lon="11.9314067"><ele>534.0</ele><time>2026-04-19T07:50:28.235Z</time></trkpt><trkpt lat="43.4871133" lon="11.93146"><ele>534.0</ele><time>2026-04-19T07:50:30.233Z</time></trkpt><trkpt lat="43.4871967" lon="11.9314733"><ele>534.0</ele><time>2026-04-19T07:50:33.24Z</time></trkpt><trkpt lat="43.4872633" lon="11.9314317"><ele>534.0</ele><time>2026-04-19T07:50:36.232Z</time></trkpt><trkpt lat="43.487335" lon="11.9313383"><ele>534.0</ele><time>2026-04-19T07:50:38.232Z</time></trkpt><trkpt lat="43.4874" lon="11.9312283"><ele>534.0</ele><time>2026-04-19T07:50:40.233Z</time></trkpt><trkpt lat="43.4874167" lon="11.93113"><ele>534.0</ele><time>2026-04-19T07:50:42.233Z</time></trkpt><trkpt lat="43.48743" lon="11.9310383"><ele>534.0000000000001</ele><time>2026-04-19T07:50:44.233Z</time></trkpt><trkpt lat="43.4874517" lon="11.9309483"><ele>534.0</ele><time>2026-04-19T07:50:46.232Z</time></trkpt><trkpt lat="43.48747" lon="11.930855"><ele>534.0</ele><time>2026-04-19T07:50:48.234Z</time></trkpt><trkpt lat="43.4874967" lon="11.9307467"><ele>534.0</ele><time>2026-04-19T07:50:50.233Z</time></trkpt><trkpt lat="43.48753" lon="11.930645"><ele>534.0</ele><time>2026-04-19T07:50:52.233Z</time></trkpt><trkpt lat="43.4875533" lon="11.930555"><ele>534.0000000000001</ele><time>2026-04-19T07:50:54.234Z</time></trkpt><trkpt lat="43.4875683" lon="11.9304683"><ele>534.0</ele><time>2026-04-19T07:50:56.233Z</time></trkpt><trkpt lat="43.4875817" lon="11.930365"><ele>531.0</ele><time>2026-04-19T07:50:58.232Z</time></trkpt><trkpt lat="43.4876033" lon="11.930245"><ele>528.0</ele><time>2026-04-19T07:51:00.233Z</time></trkpt><trkpt lat="43.4876517" lon="11.9301117"><ele>525.0</ele><time>2026-04-19T07:51:02.233Z</time></trkpt><trkpt lat="43.4877467" lon="11.930045"><ele>522.0</ele><time>2026-04-19T07:51:04.233Z</time></trkpt><trkpt lat="43.48785" lon="11.9300133"><ele>519.0</ele><time>2026-04-19T07:51:06.233Z</time></trkpt><trkpt lat="43.4879717" lon="11.930055"><ele>520.5</ele><time>2026-04-19T07:51:08.232Z</time></trkpt><trkpt lat="43.4880333" lon="11.930095"><ele>522.0</ele><time>2026-04-19T07:51:09.233Z</time></trkpt><trkpt lat="43.4880883" lon="11.9301533"><ele>523.5</ele><time>2026-04-19T07:51:10.232Z</time></trkpt><trkpt lat="43.488145" lon="11.930205"><ele>525.0</ele><time>2026-04-19T07:51:11.233Z</time></trkpt><trkpt lat="43.4881967" lon="11.9302583"><ele>526.5</ele><time>2026-04-19T07:51:12.233Z</time></trkpt><trkpt lat="43.488245" lon="11.9303183"><ele>528.0</ele><time>2026-04-19T07:51:13.232Z</time></trkpt><trkpt lat="43.48832" lon="11.9304433"><ele>528.0</ele><time>2026-04-19T07:51:15.233Z</time></trkpt><trkpt lat="43.4884117" lon="11.930555"><ele>528.0</ele><time>2026-04-19T07:51:17.234Z</time></trkpt><trkpt lat="43.4884883" lon="11.9306517"><ele>528.0</ele><time>2026-04-19T07:51:19.233Z</time></trkpt><trkpt lat="43.4885433" lon="11.9307533"><ele>528.0</ele><time>2026-04-19T07:51:21.233Z</time></trkpt><trkpt lat="43.4886017" lon="11.9308617"><ele>528.0</ele><time>2026-04-19T07:51:23.234Z</time></trkpt><trkpt lat="43.4886667" lon="11.9310083"><ele>528.6666666666666</ele><time>2026-04-19T07:51:25.234Z</time></trkpt><trkpt lat="43.4887117" lon="11.9310983"><ele>529.3333333333334</ele><time>2026-04-19T07:51:26.235Z</time></trkpt><trkpt lat="43.4887583" lon="11.9311783"><ele>530.0</ele><time>2026-04-19T07:51:27.234Z</time></trkpt><trkpt lat="43.48883" lon="11.9312367"><ele>530.6666666666667</ele><time>2026-04-19T07:51:28.233Z</time></trkpt><trkpt lat="43.4888867" lon="11.931285"><ele>531.3333333333334</ele><time>2026-04-19T07:51:29.234Z</time></trkpt><trkpt lat="43.4889417" lon="11.9313417"><ele>532.0</ele><time>2026-04-19T07:51:30.234Z</time></trkpt><trkpt lat="43.489025" lon="11.9314667"><ele>532.0</ele><time>2026-04-19T07:51:32.235Z</time></trkpt><trkpt lat="43.4890883" lon="11.9316167"><ele>532.0</ele><time>2026-04-19T07:51:34.234Z</time></trkpt><trkpt lat="43.48914" lon="11.93176"><ele>532.0</ele><time>2026-04-19T07:51:36.233Z</time></trkpt><trkpt lat="43.4892233" lon="11.93186"><ele>532.0</ele><time>2026-04-19T07:51:38.233Z</time></trkpt><trkpt lat="43.4892783" lon="11.931905"><ele>532.0</ele><time>2026-04-19T07:51:39.234Z</time></trkpt><trkpt lat="43.48934" lon="11.9319483"><ele>533.1428571428571</ele><time>2026-04-19T07:51:40.233Z</time></trkpt><trkpt lat="43.4893933" lon="11.931995"><ele>534.2857142857142</ele><time>2026-04-19T07:51:41.234Z</time></trkpt><trkpt lat="43.4894533" lon="11.9320333"><ele>535.4285714285714</ele><time>2026-04-19T07:51:42.234Z</time></trkpt><trkpt lat="43.4895183" lon="11.9321033"><ele>536.5714285714286</ele><time>2026-04-19T07:51:43.233Z</time></trkpt><trkpt lat="43.48957" lon="11.9321667"><ele>537.7142857142857</ele><time>2026-04-19T07:51:44.234Z</time></trkpt><trkpt lat="43.4896183" lon="11.932225"><ele>538.8571428571429</ele><time>2026-04-19T07:51:45.234Z</time></trkpt><trkpt lat="43.48967" lon="11.9322817"><ele>540.0</ele><time>2026-04-19T07:51:46.233Z</time></trkpt><trkpt lat="43.4897533" lon="11.9323567"><ele>540.0</ele><time>2026-04-19T07:51:48.235Z</time></trkpt><trkpt lat="43.4898334" lon="11.9323867"><ele>540.0</ele><time>2026-04-19T07:51:50.235Z</time></trkpt><trkpt lat="43.4899158" lon="11.9324108"><ele>540.0</ele><time>2026-04-19T07:51:52.234Z</time></trkpt><trkpt lat="43.4900114" lon="11.9324542"><ele>540.0</ele><time>2026-04-19T07:51:54.236Z</time></trkpt><trkpt lat="43.490125" lon="11.932462"><ele>540.0</ele><time>2026-04-19T07:51:58.369Z</time></trkpt><trkpt lat="43.4902072" lon="11.9323077"><ele>540.0</ele><time>2026-04-19T07:51:59.929Z</time></trkpt><trkpt lat="43.4902357" lon="11.9322067"><ele>540.0</ele><time>2026-04-19T07:52:01.259Z</time></trkpt><trkpt lat="43.4902971" lon="11.9320501"><ele>540.0</ele><time>2026-04-19T07:52:03.292Z</time></trkpt><trkpt lat="43.4903855" lon="11.9319413"><ele>540.0</ele><time>2026-04-19T07:52:05.217Z</time></trkpt><trkpt lat="43.4904763" lon="11.9318917"><ele>540.0</ele><time>2026-04-19T07:52:07.263Z</time></trkpt><trkpt lat="43.4905591" lon="11.9318472"><ele>539.8</ele><time>2026-04-19T07:52:09.233Z</time></trkpt><trkpt lat="43.4906204" lon="11.9317865"><ele>539.6</ele><time>2026-04-19T07:52:11.235Z</time></trkpt><trkpt lat="43.4906994" lon="11.9316545"><ele>539.4</ele><time>2026-04-19T07:52:13.232Z</time></trkpt><trkpt lat="43.4907443" lon="11.9315376"><ele>539.2</ele><time>2026-04-19T07:52:15.232Z</time></trkpt><trkpt lat="43.4906779" lon="11.9314366"><ele>539.0</ele><time>2026-04-19T07:52:17.234Z</time></trkpt><trkpt lat="43.4906247" lon="11.93138"><ele>538.3333333333333</ele><time>2026-04-19T07:52:18.232Z</time></trkpt><trkpt lat="43.4905716" lon="11.9313219"><ele>537.6666666666666</ele><time>2026-04-19T07:52:19.232Z</time></trkpt><trkpt lat="43.490516" lon="11.9312606"><ele>537.0</ele><time>2026-04-19T07:52:20.239Z</time></trkpt><trkpt lat="43.4904682" lon="11.931199"><ele>536.3333333333334</ele><time>2026-04-19T07:52:21.233Z</time></trkpt><trkpt lat="43.4904199" lon="11.9310963"><ele>535.6666666666667</ele><time>2026-04-19T07:52:23.235Z</time></trkpt><trkpt lat="43.4904299" lon="11.9309844"><ele>535.0</ele><time>2026-04-19T07:52:26.235Z</time></trkpt><trkpt lat="43.490489" lon="11.9309115"><ele>534.8333333333334</ele><time>2026-04-19T07:52:29.233Z</time></trkpt><trkpt lat="43.4905526" lon="11.930801"><ele>534.6666666666667</ele><time>2026-04-19T07:52:32.233Z</time></trkpt><trkpt lat="43.4905757" lon="11.9307022"><ele>534.5</ele><time>2026-04-19T07:52:33.233Z</time></trkpt><trkpt lat="43.4905931" lon="11.9306014"><ele>534.3333333333334</ele><time>2026-04-19T07:52:34.233Z</time></trkpt><trkpt lat="43.4906049" lon="11.9304999"><ele>534.1666666666666</ele><time>2026-04-19T07:52:35.234Z</time></trkpt><trkpt lat="43.4906177" lon="11.9304027"><ele>534.0</ele><time>2026-04-19T07:52:36.233Z</time></trkpt><trkpt lat="43.4906351" lon="11.9303099"><ele>534.0</ele><time>2026-04-19T07:52:37.232Z</time></trkpt><trkpt lat="43.4906618" lon="11.9302156"><ele>534.0</ele><time>2026-04-19T07:52:38.233Z</time></trkpt><trkpt lat="43.4906995" lon="11.9301261"><ele>534.0</ele><time>2026-04-19T07:52:39.233Z</time></trkpt><trkpt lat="43.4907444" lon="11.9300448"><ele>534.0</ele><time>2026-04-19T07:52:40.234Z</time></trkpt><trkpt lat="43.4907857" lon="11.9299757"><ele>534.0</ele><time>2026-04-19T07:52:41.234Z</time></trkpt><trkpt lat="43.4908582" lon="11.9298753"><ele>534.0</ele><time>2026-04-19T07:52:43.232Z</time></trkpt><trkpt lat="43.4909412" lon="11.9297837"><ele>533.2</ele><time>2026-04-19T07:52:45.232Z</time></trkpt><trkpt lat="43.4910403" lon="11.9296709"><ele>532.4</ele><time>2026-04-19T07:52:47.233Z</time></trkpt><trkpt lat="43.4910962" lon="11.9296212"><ele>531.6</ele><time>2026-04-19T07:52:48.233Z</time></trkpt><trkpt lat="43.4911543" lon="11.9295829"><ele>530.8</ele><time>2026-04-19T07:52:49.235Z</time></trkpt><trkpt lat="43.4912801" lon="11.9295522"><ele>530.0</ele><time>2026-04-19T07:52:51.237Z</time></trkpt><trkpt lat="43.4913515" lon="11.929548"><ele>532.1666666666666</ele><time>2026-04-19T07:52:52.233Z</time></trkpt><trkpt lat="43.4914295" lon="11.9295827"><ele>534.3333333333333</ele><time>2026-04-19T07:52:53.233Z</time></trkpt><trkpt lat="43.4915079" lon="11.929624"><ele>536.5</ele><time>2026-04-19T07:52:54.234Z</time></trkpt><trkpt lat="43.4915744" lon="11.9296925"><ele>538.6666666666666</ele><time>2026-04-19T07:52:55.234Z</time></trkpt><trkpt lat="43.4916403" lon="11.9297664"><ele>540.8333333333334</ele><time>2026-04-19T07:52:56.235Z</time></trkpt><trkpt lat="43.4917061" lon="11.9298321"><ele>543.0</ele><time>2026-04-19T07:52:57.235Z</time></trkpt><trkpt lat="43.4917732" lon="11.929895"><ele>543.0</ele><time>2026-04-19T07:52:58.235Z</time></trkpt><trkpt lat="43.4918436" lon="11.9299568"><ele>543.0</ele><time>2026-04-19T07:52:59.233Z</time></trkpt><trkpt lat="43.4919167" lon="11.9300159"><ele>543.0</ele><time>2026-04-19T07:53:00.233Z</time></trkpt><trkpt lat="43.4919888" lon="11.9300725"><ele>543.0</ele><time>2026-04-19T07:53:01.235Z</time></trkpt><trkpt lat="43.4920594" lon="11.9301274"><ele>543.0</ele><time>2026-04-19T07:53:02.234Z</time></trkpt><trkpt lat="43.4921269" lon="11.9301877"><ele>543.0</ele><time>2026-04-19T07:53:03.234Z</time></trkpt><trkpt lat="43.492191" lon="11.9302573"><ele>545.3333333333334</ele><time>2026-04-19T07:53:04.235Z</time></trkpt><trkpt lat="43.4922552" lon="11.9303214"><ele>547.6666666666666</ele><time>2026-04-19T07:53:05.234Z</time></trkpt><trkpt lat="43.4923242" lon="11.9303877"><ele>550.0</ele><time>2026-04-19T07:53:06.233Z</time></trkpt><trkpt lat="43.4923894" lon="11.930461"><ele>552.3333333333333</ele><time>2026-04-19T07:53:07.236Z</time></trkpt><trkpt lat="43.4924547" lon="11.9305352"><ele>554.6666666666666</ele><time>2026-04-19T07:53:08.234Z</time></trkpt><trkpt lat="43.4925212" lon="11.9306117"><ele>557.0</ele><time>2026-04-19T07:53:09.233Z</time></trkpt><trkpt lat="43.4925854" lon="11.930683"><ele>557.0</ele><time>2026-04-19T07:53:10.235Z</time></trkpt><trkpt lat="43.4926489" lon="11.9307547"><ele>557.0</ele><time>2026-04-19T07:53:11.234Z</time></trkpt><trkpt lat="43.4927099" lon="11.930829"><ele>557.0</ele><time>2026-04-19T07:53:12.235Z</time></trkpt><trkpt lat="43.4927664" lon="11.9309003"><ele>557.0</ele><time>2026-04-19T07:53:13.233Z</time></trkpt><trkpt lat="43.4928095" lon="11.9309713"><ele>557.0</ele><time>2026-04-19T07:53:14.233Z</time></trkpt><trkpt lat="43.4928456" lon="11.9311249"><ele>557.0</ele><time>2026-04-19T07:53:16.234Z</time></trkpt><trkpt lat="43.492831" lon="11.9312098"><ele>558.6666666666666</ele><time>2026-04-19T07:53:17.233Z</time></trkpt><trkpt lat="43.4927948" lon="11.9312873"><ele>560.3333333333333</ele><time>2026-04-19T07:53:18.234Z</time></trkpt><trkpt lat="43.4927386" lon="11.9313513"><ele>562.0</ele><time>2026-04-19T07:53:19.234Z</time></trkpt><trkpt lat="43.4926688" lon="11.9314148"><ele>563.6666666666666</ele><time>2026-04-19T07:53:20.235Z</time></trkpt><trkpt lat="43.4925969" lon="11.9314849"><ele>565.3333333333334</ele><time>2026-04-19T07:53:21.234Z</time></trkpt><trkpt lat="43.4925277" lon="11.931553"><ele>567.0</ele><time>2026-04-19T07:53:22.235Z</time></trkpt><trkpt lat="43.492468" lon="11.9316235"><ele>567.0</ele><time>2026-04-19T07:53:23.235Z</time></trkpt><trkpt lat="43.4924095" lon="11.9316904"><ele>567.0</ele><time>2026-04-19T07:53:24.235Z</time></trkpt><trkpt lat="43.4923554" lon="11.9317661"><ele>567.0</ele><time>2026-04-19T07:53:25.234Z</time></trkpt><trkpt lat="43.4923099" lon="11.9318397"><ele>567.0</ele><time>2026-04-19T07:53:26.233Z</time></trkpt><trkpt lat="43.4922718" lon="11.9319909"><ele>567.0</ele><time>2026-04-19T07:53:28.233Z</time></trkpt><trkpt lat="43.4923028" lon="11.932152"><ele>568.0</ele><time>2026-04-19T07:53:30.234Z</time></trkpt><trkpt lat="43.4923587" lon="11.9322737"><ele>569.0</ele><time>2026-04-19T07:53:32.234Z</time></trkpt><trkpt lat="43.4924095" lon="11.9323681"><ele>570.0</ele><time>2026-04-19T07:53:35.233Z</time></trkpt><trkpt lat="43.4925038" lon="11.932374"><ele>571.0</ele><time>2026-04-19T07:53:38.235Z</time></trkpt><trkpt lat="43.4925845" lon="11.9323123"><ele>572.0</ele><time>2026-04-19T07:53:40.235Z</time></trkpt><trkpt lat="43.4926727" lon="11.9322835"><ele>572.0</ele><time>2026-04-19T07:53:42.232Z</time></trkpt><trkpt lat="43.4927582" lon="11.932328"><ele>572.0</ele><time>2026-04-19T07:53:44.235Z</time></trkpt><trkpt lat="43.4928613" lon="11.9324418"><ele>572.0</ele><time>2026-04-19T07:53:46.233Z</time></trkpt><trkpt lat="43.4929075" lon="11.9325283"><ele>572.0</ele><time>2026-04-19T07:53:47.234Z</time></trkpt><trkpt lat="43.4929483" lon="11.9326308"><ele>572.0</ele><time>2026-04-19T07:53:48.234Z</time></trkpt><trkpt lat="43.4929856" lon="11.9327399"><ele>575.3333333333333</ele><time>2026-04-19T07:53:49.233Z</time></trkpt><trkpt lat="43.493024" lon="11.9328404"><ele>578.6666666666666</ele><time>2026-04-19T07:53:50.235Z</time></trkpt><trkpt lat="43.4930593" lon="11.9329337"><ele>582.0</ele><time>2026-04-19T07:53:51.234Z</time></trkpt><trkpt lat="43.4930915" lon="11.9330323"><ele>585.3333333333334</ele><time>2026-04-19T07:53:52.235Z</time></trkpt><trkpt lat="43.4931306" lon="11.9331375"><ele>588.6666666666667</ele><time>2026-04-19T07:53:53.233Z</time></trkpt><trkpt lat="43.4931669" lon="11.9332342"><ele>592.0</ele><time>2026-04-19T07:53:54.234Z</time></trkpt><trkpt lat="43.4931998" lon="11.93332"><ele>592.8000000000001</ele><time>2026-04-19T07:53:55.234Z</time></trkpt><trkpt lat="43.4932978" lon="11.9334031"><ele>593.6</ele><time>2026-04-19T07:53:57.233Z</time></trkpt><trkpt lat="43.4934172" lon="11.9334544"><ele>594.4000000000001</ele><time>2026-04-19T07:53:59.233Z</time></trkpt><trkpt lat="43.4934827" lon="11.9334933"><ele>595.2</ele><time>2026-04-19T07:54:00.234Z</time></trkpt><trkpt lat="43.4935458" lon="11.9335415"><ele>596.0</ele><time>2026-04-19T07:54:01.234Z</time></trkpt><trkpt lat="43.4935987" lon="11.9336031"><ele>596.0</ele><time>2026-04-19T07:54:02.234Z</time></trkpt><trkpt lat="43.4936424" lon="11.9336917"><ele>596.0</ele><time>2026-04-19T07:54:03.234Z</time></trkpt><trkpt lat="43.4936773" lon="11.9338005"><ele>596.0</ele><time>2026-04-19T07:54:04.233Z</time></trkpt><trkpt lat="43.4937048" lon="11.9339138"><ele>596.0</ele><time>2026-04-19T07:54:05.233Z</time></trkpt><trkpt lat="43.4937306" lon="11.9340191"><ele>596.0</ele><time>2026-04-19T07:54:06.233Z</time></trkpt><trkpt lat="43.4937677" lon="11.9341045"><ele>596.0</ele><time>2026-04-19T07:54:07.233Z</time></trkpt><trkpt lat="43.4938269" lon="11.9341431"><ele>598.4</ele><time>2026-04-19T07:54:08.233Z</time></trkpt><trkpt lat="43.4939452" lon="11.9341119"><ele>600.8</ele><time>2026-04-19T07:54:10.233Z</time></trkpt><trkpt lat="43.4940399" lon="11.9341223"><ele>603.1999999999999</ele><time>2026-04-19T07:54:12.233Z</time></trkpt><trkpt lat="43.4941026" lon="11.9342612"><ele>605.6</ele><time>2026-04-19T07:54:14.233Z</time></trkpt><trkpt lat="43.4941339" lon="11.9343505"><ele>608.0</ele><time>2026-04-19T07:54:15.233Z</time></trkpt><trkpt lat="43.4941765" lon="11.9344319"><ele>609.5</ele><time>2026-04-19T07:54:16.233Z</time></trkpt><trkpt lat="43.4942427" lon="11.9345036"><ele>611.0</ele><time>2026-04-19T07:54:17.234Z</time></trkpt><trkpt lat="43.494317" lon="11.9345613"><ele>612.5</ele><time>2026-04-19T07:54:18.234Z</time></trkpt><trkpt lat="43.4943944" lon="11.9346167"><ele>614.0</ele><time>2026-04-19T07:54:19.234Z</time></trkpt><trkpt lat="43.4944661" lon="11.9346785"><ele>615.5</ele><time>2026-04-19T07:54:20.238Z</time></trkpt><trkpt lat="43.4945353" lon="11.9347599"><ele>617.0</ele><time>2026-04-19T07:54:21.233Z</time></trkpt><trkpt lat="43.4946027" lon="11.9348383"><ele>619.1666666666666</ele><time>2026-04-19T07:54:22.234Z</time></trkpt><trkpt lat="43.4946693" lon="11.9348962"><ele>621.3333333333333</ele><time>2026-04-19T07:54:23.235Z</time></trkpt><trkpt lat="43.4947346" lon="11.934947"><ele>623.5</ele><time>2026-04-19T07:54:24.234Z</time></trkpt><trkpt lat="43.4948023" lon="11.9349684"><ele>625.6666666666666</ele><time>2026-04-19T07:54:25.233Z</time></trkpt><trkpt lat="43.4948758" lon="11.9349901"><ele>627.8333333333334</ele><time>2026-04-19T07:54:26.235Z</time></trkpt><trkpt lat="43.4949501" lon="11.9350182"><ele>630.0</ele><time>2026-04-19T07:54:27.234Z</time></trkpt><trkpt lat="43.4950193" lon="11.9350552"><ele>630.0</ele><time>2026-04-19T07:54:28.234Z</time></trkpt><trkpt lat="43.4951043" lon="11.9350633"><ele>630.0</ele><time>2026-04-19T07:54:29.233Z</time></trkpt><trkpt lat="43.4951957" lon="11.935034"><ele>630.0</ele><time>2026-04-19T07:54:30.233Z</time></trkpt><trkpt lat="43.4952543" lon="11.9349503"><ele>630.0</ele><time>2026-04-19T07:54:31.232Z</time></trkpt><trkpt lat="43.4953062" lon="11.9348656"><ele>630.0</ele><time>2026-04-19T07:54:32.233Z</time></trkpt><trkpt lat="43.4953583" lon="11.9348013"><ele>630.0</ele><time>2026-04-19T07:54:33.234Z</time></trkpt><trkpt lat="43.4954092" lon="11.9347493"><ele>631.4</ele><time>2026-04-19T07:54:34.234Z</time></trkpt><trkpt lat="43.4955384" lon="11.9347145"><ele>632.8</ele><time>2026-04-19T07:54:36.233Z</time></trkpt><trkpt lat="43.4956165" lon="11.9347304"><ele>634.2</ele><time>2026-04-19T07:54:37.233Z</time></trkpt><trkpt lat="43.495705" lon="11.934766"><ele>635.6</ele><time>2026-04-19T07:54:38.233Z</time></trkpt><trkpt lat="43.4957976" lon="11.9348267"><ele>637.0</ele><time>2026-04-19T07:54:39.234Z</time></trkpt><trkpt lat="43.495877" lon="11.9349091"><ele>637.0</ele><time>2026-04-19T07:54:40.233Z</time></trkpt><trkpt lat="43.4959527" lon="11.9349858"><ele>637.0</ele><time>2026-04-19T07:54:41.234Z</time></trkpt><trkpt lat="43.4960145" lon="11.9350427"><ele>637.0</ele><time>2026-04-19T07:54:42.234Z</time></trkpt><trkpt lat="43.4960981" lon="11.9350851"><ele>637.0</ele><time>2026-04-19T07:54:44.24Z</time></trkpt><trkpt lat="43.4961681" lon="11.9351158"><ele>637.0</ele><time>2026-04-19T07:54:46.233Z</time></trkpt><trkpt lat="43.4962663" lon="11.9352166"><ele>638.0</ele><time>2026-04-19T07:54:48.233Z</time></trkpt><trkpt lat="43.4963303" lon="11.9352714"><ele>639.0</ele><time>2026-04-19T07:54:49.234Z</time></trkpt><trkpt lat="43.4963962" lon="11.9353198"><ele>640.0</ele><time>2026-04-19T07:54:50.233Z</time></trkpt><trkpt lat="43.4964594" lon="11.9353718"><ele>641.0</ele><time>2026-04-19T07:54:51.234Z</time></trkpt><trkpt lat="43.4965228" lon="11.935427"><ele>642.0</ele><time>2026-04-19T07:54:52.233Z</time></trkpt><trkpt lat="43.496589" lon="11.9354925"><ele>643.0</ele><time>2026-04-19T07:54:53.234Z</time></trkpt><trkpt lat="43.4966547" lon="11.9355668"><ele>643.0</ele><time>2026-04-19T07:54:54.234Z</time></trkpt><trkpt lat="43.4967226" lon="11.935654"><ele>643.0</ele><time>2026-04-19T07:54:55.233Z</time></trkpt><trkpt lat="43.4967909" lon="11.9357471"><ele>643.0</ele><time>2026-04-19T07:54:56.235Z</time></trkpt><trkpt lat="43.4968614" lon="11.9358225"><ele>643.0</ele><time>2026-04-19T07:54:57.233Z</time></trkpt><trkpt lat="43.4969265" lon="11.9358828"><ele>643.0</ele><time>2026-04-19T07:54:58.235Z</time></trkpt><trkpt lat="43.4970194" lon="11.9359657"><ele>642.0</ele><time>2026-04-19T07:55:00.233Z</time></trkpt><trkpt lat="43.4970657" lon="11.9360435"><ele>641.0</ele><time>2026-04-19T07:55:02.234Z</time></trkpt><trkpt lat="43.4970936" lon="11.9361335"><ele>640.0</ele><time>2026-04-19T07:55:04.233Z</time></trkpt><trkpt lat="43.4971343" lon="11.9362941"><ele>639.0</ele><time>2026-04-19T07:55:06.233Z</time></trkpt><trkpt lat="43.4971502" lon="11.9363828"><ele>638.0</ele><time>2026-04-19T07:55:07.233Z</time></trkpt><trkpt lat="43.4971673" lon="11.9364716"><ele>637.0</ele><time>2026-04-19T07:55:08.233Z</time></trkpt><trkpt lat="43.4971866" lon="11.9365601"><ele>637.0</ele><time>2026-04-19T07:55:09.234Z</time></trkpt><trkpt lat="43.497212" lon="11.9366399"><ele>637.0</ele><time>2026-04-19T07:55:10.233Z</time></trkpt><trkpt lat="43.497266" lon="11.9367787"><ele>637.0</ele><time>2026-04-19T07:55:12.233Z</time></trkpt><trkpt lat="43.4972946" lon="11.9369066"><ele>637.0</ele><time>2026-04-19T07:55:14.235Z</time></trkpt><trkpt lat="43.4973118" lon="11.9369955"><ele>637.0</ele><time>2026-04-19T07:55:16.235Z</time></trkpt><trkpt lat="43.4973315" lon="11.9370797"><ele>637.0</ele><time>2026-04-19T07:55:19.234Z</time></trkpt><trkpt lat="43.4973878" lon="11.9371712"><ele>637.5</ele><time>2026-04-19T07:55:22.234Z</time></trkpt><trkpt lat="43.4974601" lon="11.9372383"><ele>638.0</ele><time>2026-04-19T07:55:25.256Z</time></trkpt><trkpt lat="43.4974846" lon="11.9373254"><ele>638.5</ele><time>2026-04-19T07:55:27.257Z</time></trkpt><trkpt lat="43.4975083" lon="11.9374414"><ele>639.0</ele><time>2026-04-19T07:55:29.282Z</time></trkpt><trkpt lat="43.4975363" lon="11.9375347"><ele>639.5</ele><time>2026-04-19T07:55:30.234Z</time></trkpt><trkpt lat="43.4975783" lon="11.9376409"><ele>640.0</ele><time>2026-04-19T07:55:31.233Z</time></trkpt><trkpt lat="43.4976266" lon="11.9377498"><ele>637.8333333333334</ele><time>2026-04-19T07:55:32.234Z</time></trkpt><trkpt lat="43.4976733" lon="11.9378652"><ele>635.6666666666667</ele><time>2026-04-19T07:55:33.234Z</time></trkpt><trkpt lat="43.4977157" lon="11.9379719"><ele>633.5</ele><time>2026-04-19T07:55:34.234Z</time></trkpt><trkpt lat="43.4977547" lon="11.9380701"><ele>631.3333333333334</ele><time>2026-04-19T07:55:35.234Z</time></trkpt><trkpt lat="43.4977907" lon="11.9381641"><ele>629.1666666666666</ele><time>2026-04-19T07:55:36.233Z</time></trkpt><trkpt lat="43.4978216" lon="11.9382674"><ele>627.0</ele><time>2026-04-19T07:55:37.237Z</time></trkpt><trkpt lat="43.4978524" lon="11.9383631"><ele>627.0</ele><time>2026-04-19T07:55:38.234Z</time></trkpt><trkpt lat="43.4978782" lon="11.9384428"><ele>627.0</ele><time>2026-04-19T07:55:39.233Z</time></trkpt><trkpt lat="43.4979374" lon="11.9385723"><ele>627.0</ele><time>2026-04-19T07:55:41.233Z</time></trkpt><trkpt lat="43.4980173" lon="11.9386833"><ele>627.0</ele><time>2026-04-19T07:55:43.233Z</time></trkpt><trkpt lat="43.4981212" lon="11.9387287"><ele>627.0</ele><time>2026-04-19T07:55:45.234Z</time></trkpt><trkpt lat="43.4982037" lon="11.9388234"><ele>627.0</ele><time>2026-04-19T07:55:47.234Z</time></trkpt><trkpt lat="43.4982206" lon="11.9389996"><ele>627.0</ele><time>2026-04-19T07:55:49.233Z</time></trkpt><trkpt lat="43.4982227" lon="11.9391148"><ele>627.0</ele><time>2026-04-19T07:55:50.234Z</time></trkpt><trkpt lat="43.4982283" lon="11.9392327"><ele>627.0</ele><time>2026-04-19T07:55:51.234Z</time></trkpt><trkpt lat="43.4982339" lon="11.9393443"><ele>627.0</ele><time>2026-04-19T07:55:52.235Z</time></trkpt><trkpt lat="43.4982444" lon="11.9394335"><ele>627.0</ele><time>2026-04-19T07:55:53.232Z</time></trkpt><trkpt lat="43.4982684" lon="11.9395581"><ele>624.3333333333334</ele><time>2026-04-19T07:55:55.233Z</time></trkpt><trkpt lat="43.4982776" lon="11.9396783"><ele>621.6666666666666</ele><time>2026-04-19T07:55:57.234Z</time></trkpt><trkpt lat="43.4982376" lon="11.939791"><ele>619.0</ele><time>2026-04-19T07:55:59.234Z</time></trkpt><trkpt lat="43.4981722" lon="11.9398856"><ele>616.3333333333333</ele><time>2026-04-19T07:56:01.233Z</time></trkpt><trkpt lat="43.4981502" lon="11.9399784"><ele>613.6666666666666</ele><time>2026-04-19T07:56:03.233Z</time></trkpt><trkpt lat="43.4981901" lon="11.9400587"><ele>611.0</ele><time>2026-04-19T07:56:05.233Z</time></trkpt><trkpt lat="43.4983037" lon="11.9400501"><ele>611.0</ele><time>2026-04-19T07:56:07.234Z</time></trkpt><trkpt lat="43.4984204" lon="11.9400029"><ele>611.0</ele><time>2026-04-19T07:56:09.233Z</time></trkpt><trkpt lat="43.4984783" lon="11.9399644"><ele>611.0</ele><time>2026-04-19T07:56:10.234Z</time></trkpt><trkpt lat="43.4985518" lon="11.9399209"><ele>611.0</ele><time>2026-04-19T07:56:11.234Z</time></trkpt><trkpt lat="43.4986464" lon="11.939879"><ele>611.0</ele><time>2026-04-19T07:56:12.235Z</time></trkpt><trkpt lat="43.498748" lon="11.9398377"><ele>610.8333333333333</ele><time>2026-04-19T07:56:13.233Z</time></trkpt><trkpt lat="43.4988372" lon="11.9397979"><ele>610.6666666666666</ele><time>2026-04-19T07:56:14.233Z</time></trkpt><trkpt lat="43.4989142" lon="11.9397667"><ele>610.5</ele><time>2026-04-19T07:56:15.235Z</time></trkpt><trkpt lat="43.4989759" lon="11.9397446"><ele>610.3333333333334</ele><time>2026-04-19T07:56:16.234Z</time></trkpt><trkpt lat="43.49906" lon="11.93977"><ele>610.1666666666667</ele><time>2026-04-19T07:56:19.235Z</time></trkpt><trkpt lat="43.4991083" lon="11.9398533"><ele>610.0</ele><time>2026-04-19T07:56:22.234Z</time></trkpt><trkpt lat="43.49916" lon="11.94"><ele>608.2</ele><time>2026-04-19T07:56:24.232Z</time></trkpt><trkpt lat="43.499215" lon="11.9401217"><ele>606.4</ele><time>2026-04-19T07:56:25.234Z</time></trkpt><trkpt lat="43.49927" lon="11.9402517"><ele>604.6</ele><time>2026-04-19T07:56:26.233Z</time></trkpt><trkpt lat="43.499325" lon="11.9403767"><ele>602.8</ele><time>2026-04-19T07:56:27.234Z</time></trkpt><trkpt lat="43.4993826" lon="11.9404545"><ele>601.0</ele><time>2026-04-19T07:56:28.232Z</time></trkpt><trkpt lat="43.4994175" lon="11.9405776"><ele>601.0</ele><time>2026-04-19T07:56:29.233Z</time></trkpt><trkpt lat="43.4994554" lon="11.9406802"><ele>601.0</ele><time>2026-04-19T07:56:30.234Z</time></trkpt><trkpt lat="43.499478" lon="11.9407695"><ele>601.0</ele><time>2026-04-19T07:56:31.233Z</time></trkpt><trkpt lat="43.4994945" lon="11.940923"><ele>601.0</ele><time>2026-04-19T07:56:33.233Z</time></trkpt><trkpt lat="43.4994963" lon="11.9410583"><ele>601.0</ele><time>2026-04-19T07:56:35.233Z</time></trkpt><trkpt lat="43.4994845" lon="11.9411753"><ele>601.0</ele><time>2026-04-19T07:56:37.232Z</time></trkpt><trkpt lat="43.4994408" lon="11.9412858"><ele>599.4</ele><time>2026-04-19T07:56:39.235Z</time></trkpt><trkpt lat="43.4993993" lon="11.9414321"><ele>597.8</ele><time>2026-04-19T07:56:41.234Z</time></trkpt><trkpt lat="43.4993921" lon="11.9415617"><ele>596.1999999999999</ele><time>2026-04-19T07:56:43.232Z</time></trkpt><trkpt lat="43.4994273" lon="11.9416352"><ele>594.6</ele><time>2026-04-19T07:56:45.234Z</time></trkpt><trkpt lat="43.4994862" lon="11.9417297"><ele>593.0</ele><time>2026-04-19T07:56:53.233Z</time></trkpt><trkpt lat="43.4995383" lon="11.9418264"><ele>596.6666666666666</ele><time>2026-04-19T07:56:55.235Z</time></trkpt><trkpt lat="43.4995892" lon="11.9419192"><ele>600.3333333333333</ele><time>2026-04-19T07:56:57.235Z</time></trkpt><trkpt lat="43.4996434" lon="11.9420151"><ele>604.0</ele><time>2026-04-19T07:56:59.286Z</time></trkpt><trkpt lat="43.4996946" lon="11.9420978"><ele>607.6666666666666</ele><time>2026-04-19T07:57:01.271Z</time></trkpt><trkpt lat="43.4997311" lon="11.942198"><ele>611.3333333333334</ele><time>2026-04-19T07:57:03.289Z</time></trkpt><trkpt lat="43.4997567" lon="11.9423179"><ele>615.0</ele><time>2026-04-19T07:57:05.32Z</time></trkpt><trkpt lat="43.4997687" lon="11.942446"><ele>614.5</ele><time>2026-04-19T07:57:07.233Z</time></trkpt><trkpt lat="43.4997361" lon="11.9425848"><ele>614.0</ele><time>2026-04-19T07:57:09.233Z</time></trkpt><trkpt lat="43.4996882" lon="11.942653"><ele>613.5</ele><time>2026-04-19T07:57:10.233Z</time></trkpt><trkpt lat="43.4996331" lon="11.9427175"><ele>613.0</ele><time>2026-04-19T07:57:11.234Z</time></trkpt><trkpt lat="43.4995848" lon="11.9427834"><ele>612.5</ele><time>2026-04-19T07:57:12.233Z</time></trkpt><trkpt lat="43.4995357" lon="11.9428556"><ele>612.0</ele><time>2026-04-19T07:57:13.234Z</time></trkpt><trkpt lat="43.4994908" lon="11.9429308"><ele>608.6666666666666</ele><time>2026-04-19T07:57:14.234Z</time></trkpt><trkpt lat="43.4994464" lon="11.9430063"><ele>605.3333333333334</ele><time>2026-04-19T07:57:15.233Z</time></trkpt><trkpt lat="43.4993975" lon="11.943074"><ele>602.0</ele><time>2026-04-19T07:57:16.233Z</time></trkpt><trkpt lat="43.4993464" lon="11.9431354"><ele>598.6666666666667</ele><time>2026-04-19T07:57:17.233Z</time></trkpt><trkpt lat="43.4992906" lon="11.9431912"><ele>595.3333333333334</ele><time>2026-04-19T07:57:18.233Z</time></trkpt><trkpt lat="43.4992414" lon="11.9432472"><ele>592.0</ele><time>2026-04-19T07:57:19.234Z</time></trkpt><trkpt lat="43.4991715" lon="11.9433662"><ele>590.75</ele><time>2026-04-19T07:57:21.233Z</time></trkpt><trkpt lat="43.4991453" lon="11.9434973"><ele>589.5</ele><time>2026-04-19T07:57:23.233Z</time></trkpt><trkpt lat="43.4991651" lon="11.9436528"><ele>588.25</ele><time>2026-04-19T07:57:25.235Z</time></trkpt><trkpt lat="43.4992051" lon="11.9437965"><ele>587.0</ele><time>2026-04-19T07:57:27.234Z</time></trkpt><trkpt lat="43.4992659" lon="11.9439504"><ele>587.0</ele><time>2026-04-19T07:57:29.234Z</time></trkpt><trkpt lat="43.499309" lon="11.9440407"><ele>587.0</ele><time>2026-04-19T07:57:30.233Z</time></trkpt><trkpt lat="43.4993586" lon="11.9441256"><ele>587.0</ele><time>2026-04-19T07:57:31.233Z</time></trkpt><trkpt lat="43.4994091" lon="11.9442147"><ele>587.0</ele><time>2026-04-19T07:57:32.234Z</time></trkpt><trkpt lat="43.4994599" lon="11.9442992"><ele>587.0</ele><time>2026-04-19T07:57:33.233Z</time></trkpt><trkpt lat="43.4995161" lon="11.9443719"><ele>587.0</ele><time>2026-04-19T07:57:34.235Z</time></trkpt><trkpt lat="43.4995774" lon="11.9444304"><ele>587.8333333333333</ele><time>2026-04-19T07:57:35.234Z</time></trkpt><trkpt lat="43.4996409" lon="11.9444722"><ele>588.6666666666666</ele><time>2026-04-19T07:57:36.234Z</time></trkpt><trkpt lat="43.4997009" lon="11.9445004"><ele>589.5</ele><time>2026-04-19T07:57:37.235Z</time></trkpt><trkpt lat="43.4997944" lon="11.94456"><ele>590.3333333333334</ele><time>2026-04-19T07:57:39.236Z</time></trkpt><trkpt lat="43.4998907" lon="11.9446816"><ele>591.1666666666667</ele><time>2026-04-19T07:57:41.234Z</time></trkpt><trkpt lat="43.4999314" lon="11.9447582"><ele>592.0</ele><time>2026-04-19T07:57:42.234Z</time></trkpt><trkpt lat="43.4999686" lon="11.9448301"><ele>592.0</ele><time>2026-04-19T07:57:43.233Z</time></trkpt><trkpt lat="43.5000253" lon="11.9449245"><ele>592.0</ele><time>2026-04-19T07:57:45.234Z</time></trkpt><trkpt lat="43.5000727" lon="11.9449888"><ele>592.0</ele><time>2026-04-19T07:57:47.234Z</time></trkpt><trkpt lat="43.5001286" lon="11.945074"><ele>592.0</ele><time>2026-04-19T07:57:49.234Z</time></trkpt><trkpt lat="43.5002029" lon="11.945173"><ele>592.0</ele><time>2026-04-19T07:57:51.233Z</time></trkpt><trkpt lat="43.5002476" lon="11.9452347"><ele>592.0</ele><time>2026-04-19T07:57:52.232Z</time></trkpt><trkpt lat="43.5002983" lon="11.9453123"><ele>591.5</ele><time>2026-04-19T07:57:53.234Z</time></trkpt><trkpt lat="43.5003532" lon="11.9453923"><ele>591.0</ele><time>2026-04-19T07:57:54.233Z</time></trkpt><trkpt lat="43.50041" lon="11.9454689"><ele>590.5</ele><time>2026-04-19T07:57:55.234Z</time></trkpt><trkpt lat="43.5004634" lon="11.9455346"><ele>590.0</ele><time>2026-04-19T07:57:56.234Z</time></trkpt><trkpt lat="43.5005145" lon="11.9455894"><ele>589.5</ele><time>2026-04-19T07:57:57.234Z</time></trkpt><trkpt lat="43.5005995" lon="11.9455856"><ele>589.0</ele><time>2026-04-19T07:57:59.233Z</time></trkpt><trkpt lat="43.5006854" lon="11.9455147"><ele>589.0</ele><time>2026-04-19T07:58:01.234Z</time></trkpt><trkpt lat="43.5007652" lon="11.9454425"><ele>589.0</ele><time>2026-04-19T07:58:03.233Z</time></trkpt><trkpt lat="43.5008385" lon="11.9454276"><ele>589.0</ele><time>2026-04-19T07:58:05.234Z</time></trkpt><trkpt lat="43.5009" lon="11.9454708"><ele>589.0</ele><time>2026-04-19T07:58:07.234Z</time></trkpt><trkpt lat="43.5009138" lon="11.9456044"><ele>589.0</ele><time>2026-04-19T07:58:10.235Z</time></trkpt><trkpt lat="43.5009129" lon="11.945742"><ele>589.0</ele><time>2026-04-19T07:58:12.234Z</time></trkpt><trkpt lat="43.5009551" lon="11.9458691"><ele>584.6</ele><time>2026-04-19T07:58:14.234Z</time></trkpt><trkpt lat="43.5010115" lon="11.9459921"><ele>580.2</ele><time>2026-04-19T07:58:16.235Z</time></trkpt><trkpt lat="43.50107" lon="11.946135"><ele>575.8000000000001</ele><time>2026-04-19T07:58:18.234Z</time></trkpt><trkpt lat="43.5011417" lon="11.9462483"><ele>571.4</ele><time>2026-04-19T07:58:20.234Z</time></trkpt><trkpt lat="43.5011933" lon="11.9463633"><ele>567.0</ele><time>2026-04-19T07:58:22.233Z</time></trkpt><trkpt lat="43.5012183" lon="11.946465"><ele>567.0</ele><time>2026-04-19T07:58:24.234Z</time></trkpt><trkpt lat="43.50121" lon="11.9465767"><ele>567.0</ele><time>2026-04-19T07:58:26.233Z</time></trkpt><trkpt lat="43.501195" lon="11.9467017"><ele>567.0</ele><time>2026-04-19T07:58:28.234Z</time></trkpt><trkpt lat="43.501195" lon="11.9468133"><ele>567.0</ele><time>2026-04-19T07:58:30.234Z</time></trkpt><trkpt lat="43.5012217" lon="11.9469383"><ele>567.0</ele><time>2026-04-19T07:58:32.233Z</time></trkpt><trkpt lat="43.5012817" lon="11.947045"><ele>567.0</ele><time>2026-04-19T07:58:34.233Z</time></trkpt><trkpt lat="43.5013333" lon="11.9471"><ele>565.6</ele><time>2026-04-19T07:58:35.234Z</time></trkpt><trkpt lat="43.5013933" lon="11.94715"><ele>564.2</ele><time>2026-04-19T07:58:36.235Z</time></trkpt><trkpt lat="43.5014767" lon="11.94724"><ele>562.8</ele><time>2026-04-19T07:58:38.235Z</time></trkpt><trkpt lat="43.50155" lon="11.947315"><ele>561.4</ele><time>2026-04-19T07:58:40.234Z</time></trkpt><trkpt lat="43.5016433" lon="11.947425"><ele>560.0</ele><time>2026-04-19T07:58:42.234Z</time></trkpt><trkpt lat="43.5017117" lon="11.94757"><ele>556.4</ele><time>2026-04-19T07:58:44.234Z</time></trkpt><trkpt lat="43.5017333" lon="11.94773"><ele>552.8</ele><time>2026-04-19T07:58:46.235Z</time></trkpt><trkpt lat="43.501765" lon="11.947875"><ele>549.2</ele><time>2026-04-19T07:58:48.233Z</time></trkpt><trkpt lat="43.501795" lon="11.9479567"><ele>545.6</ele><time>2026-04-19T07:58:49.234Z</time></trkpt><trkpt lat="43.501885" lon="11.94806"><ele>542.0</ele><time>2026-04-19T07:58:51.235Z</time></trkpt><trkpt lat="43.5019633" lon="11.9481583"><ele>542.0</ele><time>2026-04-19T07:58:53.234Z</time></trkpt><trkpt lat="43.5020667" lon="11.9482267"><ele>542.0</ele><time>2026-04-19T07:58:55.235Z</time></trkpt><trkpt lat="43.5021367" lon="11.9482983"><ele>542.0</ele><time>2026-04-19T07:58:57.235Z</time></trkpt><trkpt lat="43.5022333" lon="11.9483433"><ele>542.0</ele><time>2026-04-19T07:58:59.234Z</time></trkpt><trkpt lat="43.5023" lon="11.9483883"><ele>542.0</ele><time>2026-04-19T07:59:01.234Z</time></trkpt><trkpt lat="43.5023667" lon="11.94847"><ele>539.3333333333333</ele><time>2026-04-19T07:59:03.234Z</time></trkpt><trkpt lat="43.5024317" lon="11.9486167"><ele>536.6666666666666</ele><time>2026-04-19T07:59:05.234Z</time></trkpt><trkpt lat="43.5024833" lon="11.9486867"><ele>534.0</ele><time>2026-04-19T07:59:06.235Z</time></trkpt><trkpt lat="43.50254" lon="11.948745"><ele>531.3333333333334</ele><time>2026-04-19T07:59:07.235Z</time></trkpt><trkpt lat="43.5025867" lon="11.9488167"><ele>528.6666666666667</ele><time>2026-04-19T07:59:08.234Z</time></trkpt><trkpt lat="43.5026333" lon="11.9488933"><ele>526.0</ele><time>2026-04-19T07:59:09.235Z</time></trkpt><trkpt lat="43.502675" lon="11.9489617"><ele>526.0</ele><time>2026-04-19T07:59:10.235Z</time></trkpt><trkpt lat="43.5027617" lon="11.9490633"><ele>526.0</ele><time>2026-04-19T07:59:12.235Z</time></trkpt><trkpt lat="43.5028183" lon="11.94917"><ele>526.0</ele><time>2026-04-19T07:59:14.236Z</time></trkpt><trkpt lat="43.502895" lon="11.9492883"><ele>526.0</ele><time>2026-04-19T07:59:16.235Z</time></trkpt><trkpt lat="43.5029817" lon="11.9494167"><ele>524.8333333333334</ele><time>2026-04-19T07:59:18.235Z</time></trkpt><trkpt lat="43.5030233" lon="11.9494883"><ele>523.6666666666667</ele><time>2026-04-19T07:59:19.234Z</time></trkpt><trkpt lat="43.5030867" lon="11.9496033"><ele>522.5</ele><time>2026-04-19T07:59:21.234Z</time></trkpt><trkpt lat="43.5031283" lon="11.9497217"><ele>521.3333333333334</ele><time>2026-04-19T07:59:23.235Z</time></trkpt><trkpt lat="43.5031667" lon="11.9498583"><ele>520.1666666666666</ele><time>2026-04-19T07:59:25.235Z</time></trkpt><trkpt lat="43.50319" lon="11.949945"><ele>519.0</ele><time>2026-04-19T07:59:26.236Z</time></trkpt><trkpt lat="43.5032183" lon="11.9500383"><ele>518.1666666666666</ele><time>2026-04-19T07:59:27.235Z</time></trkpt><trkpt lat="43.50324" lon="11.9501317"><ele>517.3333333333334</ele><time>2026-04-19T07:59:28.236Z</time></trkpt><trkpt lat="43.5032583" lon="11.950255"><ele>516.5</ele><time>2026-04-19T07:59:29.235Z</time></trkpt><trkpt lat="43.503275" lon="11.9503783"><ele>515.6666666666667</ele><time>2026-04-19T07:59:30.234Z</time></trkpt><trkpt lat="43.5033" lon="11.95047"><ele>514.8333333333334</ele><time>2026-04-19T07:59:31.235Z</time></trkpt><trkpt lat="43.5033233" lon="11.95059"><ele>514.0</ele><time>2026-04-19T07:59:32.235Z</time></trkpt><trkpt lat="43.5033533" lon="11.9506733"><ele>514.0</ele><time>2026-04-19T07:59:33.234Z</time></trkpt><trkpt lat="43.5033733" lon="11.9507867"><ele>514.0</ele><time>2026-04-19T07:59:34.234Z</time></trkpt><trkpt lat="43.5034383" lon="11.950915"><ele>514.0</ele><time>2026-04-19T07:59:36.234Z</time></trkpt><trkpt lat="43.5034767" lon="11.951"><ele>514.0</ele><time>2026-04-19T07:59:37.233Z</time></trkpt><trkpt lat="43.5035167" lon="11.951075"><ele>514.0</ele><time>2026-04-19T07:59:38.234Z</time></trkpt><trkpt lat="43.5035833" lon="11.951195"><ele>514.0</ele><time>2026-04-19T07:59:40.234Z</time></trkpt><trkpt lat="43.5036383" lon="11.9513217"><ele>510.79999999999995</ele><time>2026-04-19T07:59:42.234Z</time></trkpt><trkpt lat="43.50366" lon="11.9514083"><ele>507.59999999999997</ele><time>2026-04-19T07:59:43.234Z</time></trkpt><trkpt lat="43.503755" lon="11.9514383"><ele>504.4</ele><time>2026-04-19T07:59:45.234Z</time></trkpt><trkpt lat="43.5038367" lon="11.9515267"><ele>501.2</ele><time>2026-04-19T07:59:47.233Z</time></trkpt><trkpt lat="43.5039117" lon="11.9515967"><ele>498.0</ele><time>2026-04-19T07:59:49.234Z</time></trkpt><trkpt lat="43.50397" lon="11.9517033"><ele>497.59999999999997</ele><time>2026-04-19T07:59:51.233Z</time></trkpt><trkpt lat="43.5040317" lon="11.9518283"><ele>497.19999999999993</ele><time>2026-04-19T07:59:53.234Z</time></trkpt><trkpt lat="43.504075" lon="11.95194"><ele>496.8</ele><time>2026-04-19T07:59:55.233Z</time></trkpt><trkpt lat="43.5040983" lon="11.95205"><ele>496.4</ele><time>2026-04-19T07:59:57.233Z</time></trkpt><trkpt lat="43.5041217" lon="11.9521667"><ele>496.0</ele><time>2026-04-19T07:59:59.233Z</time></trkpt><trkpt lat="43.5041333" lon="11.9522917"><ele>496.0</ele><time>2026-04-19T08:00:01.235Z</time></trkpt><trkpt lat="43.50414" lon="11.95243"><ele>496.0</ele><time>2026-04-19T08:00:13.232Z</time></trkpt><trkpt lat="43.5041" lon="11.9525583"><ele>496.0</ele><time>2026-04-19T08:00:15.234Z</time></trkpt><trkpt lat="43.5040467" lon="11.9527033"><ele>496.0</ele><time>2026-04-19T08:00:17.234Z</time></trkpt><trkpt lat="43.5040033" lon="11.95282"><ele>496.0</ele><time>2026-04-19T08:00:19.24Z</time></trkpt><trkpt lat="43.50398" lon="11.9529167"><ele>495.00000000000006</ele><time>2026-04-19T08:00:21.234Z</time></trkpt><trkpt lat="43.503955" lon="11.953015"><ele>494.0</ele><time>2026-04-19T08:00:23.233Z</time></trkpt><trkpt lat="43.503925" lon="11.9531283"><ele>493.0</ele><time>2026-04-19T08:00:25.233Z</time></trkpt><trkpt lat="43.503905" lon="11.9532267"><ele>492.0</ele><time>2026-04-19T08:00:28.233Z</time></trkpt><trkpt lat="43.5038283" lon="11.953215"><ele>491.00000000000006</ele><time>2026-04-19T08:00:36.234Z</time></trkpt><trkpt lat="43.5037717" lon="11.9531733"><ele>490.0</ele><time>2026-04-19T08:00:38.235Z</time></trkpt><trkpt lat="43.50368" lon="11.9531117"><ele>485.2</ele><time>2026-04-19T08:00:40.235Z</time></trkpt><trkpt lat="43.5035933" lon="11.9529967"><ele>480.4</ele><time>2026-04-19T08:00:42.233Z</time></trkpt><trkpt lat="43.5035283" lon="11.9528933"><ele>475.6</ele><time>2026-04-19T08:00:44.234Z</time></trkpt><trkpt lat="43.5034667" lon="11.9528133"><ele>470.8</ele><time>2026-04-19T08:00:46.233Z</time></trkpt><trkpt lat="43.5034133" lon="11.9527483"><ele>466.0</ele><time>2026-04-19T08:00:48.234Z</time></trkpt><trkpt lat="43.50332" lon="11.9526917"><ele>466.0</ele><time>2026-04-19T08:00:51.234Z</time></trkpt><trkpt lat="43.5032117" lon="11.9526767"><ele>466.0</ele><time>2026-04-19T08:00:53.234Z</time></trkpt><trkpt lat="43.5031267" lon="11.9525783"><ele>466.0</ele><time>2026-04-19T08:00:55.233Z</time></trkpt><trkpt lat="43.5030633" lon="11.9524283"><ele>466.0</ele><time>2026-04-19T08:00:57.234Z</time></trkpt><trkpt lat="43.5030183" lon="11.952295"><ele>465.4</ele><time>2026-04-19T08:00:59.233Z</time></trkpt><trkpt lat="43.502965" lon="11.9522183"><ele>464.8</ele><time>2026-04-19T08:01:01.235Z</time></trkpt><trkpt lat="43.5029" lon="11.95216"><ele>464.19999999999993</ele><time>2026-04-19T08:01:03.233Z</time></trkpt><trkpt lat="43.5028233" lon="11.9521217"><ele>463.59999999999997</ele><time>2026-04-19T08:01:06.234Z</time></trkpt><trkpt lat="43.502765" lon="11.9522367"><ele>463.0</ele><time>2026-04-19T08:01:09.235Z</time></trkpt><trkpt lat="43.5027067" lon="11.9523867"><ele>462.83333333333337</ele><time>2026-04-19T08:01:11.233Z</time></trkpt><trkpt lat="43.5026933" lon="11.9525633"><ele>462.6666666666667</ele><time>2026-04-19T08:01:13.235Z</time></trkpt><trkpt lat="43.5026933" lon="11.95267"><ele>462.5</ele><time>2026-04-19T08:01:14.235Z</time></trkpt><trkpt lat="43.5027067" lon="11.9527783"><ele>462.33333333333337</ele><time>2026-04-19T08:01:15.234Z</time></trkpt><trkpt lat="43.50271" lon="11.9528717"><ele>462.1666666666667</ele><time>2026-04-19T08:01:16.235Z</time></trkpt><trkpt lat="43.5027133" lon="11.9529967"><ele>462.0</ele><time>2026-04-19T08:01:18.236Z</time></trkpt><trkpt lat="43.5027383" lon="11.9530783"><ele>462.0</ele><time>2026-04-19T08:01:22.235Z</time></trkpt><trkpt lat="43.502795" lon="11.9531383"><ele>462.0</ele><time>2026-04-19T08:01:25.234Z</time></trkpt><trkpt lat="43.5028533" lon="11.953175"><ele>462.0</ele><time>2026-04-19T08:01:27.233Z</time></trkpt><trkpt lat="43.5029433" lon="11.95324"><ele>462.0</ele><time>2026-04-19T08:01:29.234Z</time></trkpt><trkpt lat="43.50302" lon="11.9533267"><ele>462.0</ele><time>2026-04-19T08:01:31.233Z</time></trkpt><trkpt lat="43.5031017" lon="11.9534133"><ele>462.0</ele><time>2026-04-19T08:01:33.232Z</time></trkpt><trkpt lat="43.5031617" lon="11.953455"><ele>460.40000000000003</ele><time>2026-04-19T08:01:34.233Z</time></trkpt><trkpt lat="43.5032317" lon="11.9534967"><ele>458.80000000000007</ele><time>2026-04-19T08:01:35.233Z</time></trkpt><trkpt lat="43.5033033" lon="11.9535333"><ele>457.2</ele><time>2026-04-19T08:01:36.233Z</time></trkpt><trkpt lat="43.5033717" lon="11.9535683"><ele>455.6</ele><time>2026-04-19T08:01:37.234Z</time></trkpt><trkpt lat="43.5034833" lon="11.9536317"><ele>454.0</ele><time>2026-04-19T08:01:39.233Z</time></trkpt><trkpt lat="43.503595" lon="11.9537083"><ele>454.00000000000006</ele><time>2026-04-19T08:01:41.233Z</time></trkpt><trkpt lat="43.5036833" lon="11.953815"><ele>454.0</ele><time>2026-04-19T08:01:43.232Z</time></trkpt><trkpt lat="43.5037383" lon="11.9538633"><ele>454.0</ele><time>2026-04-19T08:01:44.234Z</time></trkpt><trkpt lat="43.5037983" lon="11.9539183"><ele>454.0</ele><time>2026-04-19T08:01:45.233Z</time></trkpt><trkpt lat="43.503855" lon="11.9539667"><ele>454.00000000000006</ele><time>2026-04-19T08:01:46.233Z</time></trkpt><trkpt lat="43.5039" lon="11.9540367"><ele>454.0</ele><time>2026-04-19T08:01:47.233Z</time></trkpt><trkpt lat="43.50393" lon="11.9541233"><ele>453.7142857142857</ele><time>2026-04-19T08:01:48.235Z</time></trkpt><trkpt lat="43.5039717" lon="11.95419"><ele>453.42857142857144</ele><time>2026-04-19T08:01:49.232Z</time></trkpt><trkpt lat="43.50403" lon="11.954255"><ele>453.14285714285717</ele><time>2026-04-19T08:01:50.233Z</time></trkpt><trkpt lat="43.5040817" lon="11.95431"><ele>452.8571428571429</ele><time>2026-04-19T08:01:51.233Z</time></trkpt><trkpt lat="43.50415" lon="11.954385"><ele>452.57142857142856</ele><time>2026-04-19T08:01:53.233Z</time></trkpt><trkpt lat="43.5041417" lon="11.9544767"><ele>452.28571428571433</ele><time>2026-04-19T08:02:00.233Z</time></trkpt><trkpt lat="43.5041317" lon="11.95458"><ele>452.0</ele><time>2026-04-19T08:02:04.233Z</time></trkpt><trkpt lat="43.504155" lon="11.954705"><ele>451.99999999999994</ele><time>2026-04-19T08:02:07.236Z</time></trkpt><trkpt lat="43.5041617" lon="11.9548"><ele>452.0</ele><time>2026-04-19T08:02:09.234Z</time></trkpt><trkpt lat="43.5041217" lon="11.9549017"><ele>452.0</ele><time>2026-04-19T08:02:12.234Z</time></trkpt><trkpt lat="43.5040683" lon="11.9549867"><ele>452.0</ele><time>2026-04-19T08:02:15.233Z</time></trkpt><trkpt lat="43.5040433" lon="11.9551087"><ele>451.99999999999994</ele><time>2026-04-19T08:02:18.183Z</time></trkpt><trkpt lat="43.5040491" lon="11.9552248"><ele>452.0</ele><time>2026-04-19T08:02:20.342Z</time></trkpt><trkpt lat="43.5040087" lon="11.9553273"><ele>450.66666666666663</ele><time>2026-04-19T08:02:22.244Z</time></trkpt><trkpt lat="43.5039923" lon="11.9554276"><ele>449.3333333333333</ele><time>2026-04-19T08:02:25.248Z</time></trkpt><trkpt lat="43.5040196" lon="11.9555585"><ele>448.0</ele><time>2026-04-19T08:02:28.302Z</time></trkpt><trkpt lat="43.5040506" lon="11.9556448"><ele>446.66666666666663</ele><time>2026-04-19T08:02:30.252Z</time></trkpt><trkpt lat="43.5040267" lon="11.9557758"><ele>445.3333333333333</ele><time>2026-04-19T08:02:32.253Z</time></trkpt><trkpt lat="43.5039878" lon="11.9558984"><ele>444.0</ele><time>2026-04-19T08:02:34.234Z</time></trkpt><trkpt lat="43.5039692" lon="11.9560328"><ele>443.0</ele><time>2026-04-19T08:02:36.233Z</time></trkpt><trkpt lat="43.5039578" lon="11.9561809"><ele>442.0</ele><time>2026-04-19T08:02:38.234Z</time></trkpt><trkpt lat="43.5039925" lon="11.9562928"><ele>441.0</ele><time>2026-04-19T08:02:40.233Z</time></trkpt><trkpt lat="43.504035" lon="11.9563812"><ele>440.0</ele><time>2026-04-19T08:02:42.234Z</time></trkpt><trkpt lat="43.5040721" lon="11.9564635"><ele>439.0</ele><time>2026-04-19T08:02:44.233Z</time></trkpt><trkpt lat="43.504104" lon="11.9565403"><ele>438.0</ele><time>2026-04-19T08:02:46.233Z</time></trkpt><trkpt lat="43.5041398" lon="11.9566136"><ele>438.0</ele><time>2026-04-19T08:02:48.235Z</time></trkpt><trkpt lat="43.5041442" lon="11.9567009"><ele>438.0</ele><time>2026-04-19T08:02:50.234Z</time></trkpt><trkpt lat="43.5041253" lon="11.9568005"><ele>438.0</ele><time>2026-04-19T08:02:52.234Z</time></trkpt><trkpt lat="43.5041387" lon="11.9569172"><ele>438.0</ele><time>2026-04-19T08:02:54.235Z</time></trkpt><trkpt lat="43.5042093" lon="11.9569616"><ele>438.0</ele><time>2026-04-19T08:02:56.235Z</time></trkpt><trkpt lat="43.5042857" lon="11.9570039"><ele>438.0</ele><time>2026-04-19T08:02:59.235Z</time></trkpt><trkpt lat="43.5043733" lon="11.95706"><ele>437.3333333333333</ele><time>2026-04-19T08:03:08.234Z</time></trkpt><trkpt lat="43.5043917" lon="11.957165"><ele>436.66666666666663</ele><time>2026-04-19T08:03:12.236Z</time></trkpt><trkpt lat="43.5044483" lon="11.9572133"><ele>436.0</ele><time>2026-04-19T08:03:15.234Z</time></trkpt><trkpt lat="43.5045217" lon="11.957195"><ele>435.3333333333333</ele><time>2026-04-19T08:03:17.234Z</time></trkpt><trkpt lat="43.5046133" lon="11.9571517"><ele>434.66666666666663</ele><time>2026-04-19T08:03:20.234Z</time></trkpt><trkpt lat="43.5046867" lon="11.957125"><ele>434.0</ele><time>2026-04-19T08:03:22.235Z</time></trkpt><trkpt lat="43.50476" lon="11.9570817"><ele>433.49999999999994</ele><time>2026-04-19T08:03:24.235Z</time></trkpt><trkpt lat="43.5048433" lon="11.9570583"><ele>433.0</ele><time>2026-04-19T08:03:26.234Z</time></trkpt><trkpt lat="43.5049467" lon="11.957045"><ele>432.5</ele><time>2026-04-19T08:03:28.234Z</time></trkpt><trkpt lat="43.50501" lon="11.9570533"><ele>432.0</ele><time>2026-04-19T08:03:29.234Z</time></trkpt><trkpt lat="43.5051067" lon="11.9570717"><ele>431.49999999999994</ele><time>2026-04-19T08:03:31.239Z</time></trkpt><trkpt lat="43.50517" lon="11.9571033"><ele>431.0</ele><time>2026-04-19T08:03:33.236Z</time></trkpt><trkpt lat="43.505245" lon="11.9571483"><ele>430.99999999999994</ele><time>2026-04-19T08:03:36.235Z</time></trkpt><trkpt lat="43.5053017" lon="11.9572017"><ele>431.0</ele><time>2026-04-19T08:03:40.234Z</time></trkpt><trkpt lat="43.5053583" lon="11.9572533"><ele>431.0</ele><time>2026-04-19T08:03:43.235Z</time></trkpt><trkpt lat="43.5054583" lon="11.95727"><ele>431.0</ele><time>2026-04-19T08:03:46.235Z</time></trkpt><trkpt lat="43.5055283" lon="11.95728"><ele>430.99999999999994</ele><time>2026-04-19T08:03:48.234Z</time></trkpt><trkpt lat="43.5056245" lon="11.9572996"><ele>431.0</ele><time>2026-04-19T08:03:51.235Z</time></trkpt><trkpt lat="43.5057123" lon="11.9572666"><ele>430.5714285714286</ele><time>2026-04-19T08:03:53.235Z</time></trkpt><trkpt lat="43.5057843" lon="11.9572358"><ele>430.1428571428571</ele><time>2026-04-19T08:03:55.235Z</time></trkpt><trkpt lat="43.5058515" lon="11.9571846"><ele>429.7142857142857</ele><time>2026-04-19T08:03:58.261Z</time></trkpt><trkpt lat="43.5059248" lon="11.9571547"><ele>429.28571428571433</ele><time>2026-04-19T08:04:00.263Z</time></trkpt><trkpt lat="43.505992" lon="11.9571874"><ele>428.8571428571429</ele><time>2026-04-19T08:04:03.266Z</time></trkpt><trkpt lat="43.5060496" lon="11.957247"><ele>428.42857142857144</ele><time>2026-04-19T08:04:06.268Z</time></trkpt><trkpt lat="43.5061217" lon="11.95728"><ele>428.0</ele><time>2026-04-19T08:04:18.236Z</time></trkpt><trkpt lat="43.5062062" lon="11.9573099"><ele>428.49999999999994</ele><time>2026-04-19T08:04:23.283Z</time></trkpt><trkpt lat="43.5062592" lon="11.9572517"><ele>429.0</ele><time>2026-04-19T08:04:25.285Z</time></trkpt><trkpt lat="43.5063106" lon="11.9571679"><ele>429.5</ele><time>2026-04-19T08:04:28.369Z</time></trkpt><trkpt lat="43.50638" lon="11.9571018"><ele>430.0</ele><time>2026-04-19T08:04:32.291Z</time></trkpt><trkpt lat="43.5064364" lon="11.9570292"><ele>430.49999999999994</ele><time>2026-04-19T08:04:35.295Z</time></trkpt><trkpt lat="43.5064759" lon="11.9569349"><ele>431.0</ele><time>2026-04-19T08:04:38.297Z</time></trkpt><trkpt lat="43.5065326" lon="11.9568612"><ele>431.0</ele><time>2026-04-19T08:04:40.298Z</time></trkpt><trkpt lat="43.506606" lon="11.9567724"><ele>431.0</ele><time>2026-04-19T08:04:42.3Z</time></trkpt><trkpt lat="43.5066906" lon="11.9566697"><ele>431.0</ele><time>2026-04-19T08:04:44.305Z</time></trkpt><trkpt lat="43.50675" lon="11.9566179"><ele>431.0</ele><time>2026-04-19T08:04:47.233Z</time></trkpt><trkpt lat="43.5067701" lon="11.9565341"><ele>431.0</ele><time>2026-04-19T08:04:52.233Z</time></trkpt><trkpt lat="43.5068368" lon="11.9564185"><ele>430.49999999999994</ele><time>2026-04-19T08:05:03.279Z</time></trkpt><trkpt lat="43.5068458" lon="11.956315"><ele>430.0</ele><time>2026-04-19T08:05:06.281Z</time></trkpt><trkpt lat="43.5069197" lon="11.9562948"><ele>429.5</ele><time>2026-04-19T08:05:08.283Z</time></trkpt><trkpt lat="43.5069873" lon="11.9562867"><ele>429.0</ele><time>2026-04-19T08:05:10.285Z</time></trkpt><trkpt lat="43.5070531" lon="11.9562412"><ele>428.49999999999994</ele><time>2026-04-19T08:11:33.247Z</time></trkpt><trkpt lat="43.5071317" lon="11.9562094"><ele>428.0</ele><time>2026-04-19T08:11:36.201Z</time></trkpt><trkpt lat="43.5072145" lon="11.9561847"><ele>428.0</ele><time>2026-04-19T08:11:39.224Z</time></trkpt><trkpt lat="43.5073186" lon="11.9562111"><ele>427.99999999999994</ele><time>2026-04-19T08:11:40.253Z</time></trkpt><trkpt lat="43.5073854" lon="11.9562316"><ele>427.99999999999994</ele><time>2026-04-19T08:11:41.255Z</time></trkpt><trkpt lat="43.5075129" lon="11.9563188"><ele>428.0</ele><time>2026-04-19T08:11:43.256Z</time></trkpt><trkpt lat="43.5075738" lon="11.9563769"><ele>428.0</ele><time>2026-04-19T08:11:44.257Z</time></trkpt><trkpt lat="43.5076633" lon="11.9564304"><ele>428.0</ele><time>2026-04-19T08:11:46.261Z</time></trkpt><trkpt lat="43.5077341" lon="11.956477"><ele>427.99999999999994</ele><time>2026-04-19T08:11:48.263Z</time></trkpt><trkpt lat="43.5078111" lon="11.9565143"><ele>427.99999999999994</ele><time>2026-04-19T08:11:50.262Z</time></trkpt><trkpt lat="43.5079126" lon="11.9565178"><ele>428.0</ele><time>2026-04-19T08:11:52.328Z</time></trkpt><trkpt lat="43.5080157" lon="11.956483"><ele>428.0</ele><time>2026-04-19T08:11:54.267Z</time></trkpt><trkpt lat="43.5081294" lon="11.9564459"><ele>428.2</ele><time>2026-04-19T08:11:56.269Z</time></trkpt><trkpt lat="43.5082285" lon="11.9563878"><ele>428.4</ele><time>2026-04-19T08:11:58.27Z</time></trkpt><trkpt lat="43.5083513" lon="11.9563143"><ele>428.59999999999997</ele><time>2026-04-19T08:12:00.272Z</time></trkpt><trkpt lat="43.5084227" lon="11.9562245"><ele>428.79999999999995</ele><time>2026-04-19T08:12:01.274Z</time></trkpt><trkpt lat="43.5084651" lon="11.9561589"><ele>429.0</ele><time>2026-04-19T08:12:02.274Z</time></trkpt><trkpt lat="43.5085396" lon="11.9560618"><ele>429.0</ele><time>2026-04-19T08:12:04.276Z</time></trkpt><trkpt lat="43.508616" lon="11.956034"><ele>429.0</ele><time>2026-04-19T08:12:06.277Z</time></trkpt><trkpt lat="43.508687" lon="11.9560814"><ele>429.0</ele><time>2026-04-19T08:12:08.279Z</time></trkpt><trkpt lat="43.5087792" lon="11.956111"><ele>429.0</ele><time>2026-04-19T08:12:10.281Z</time></trkpt><trkpt lat="43.5088366" lon="11.9561777"><ele>429.0</ele><time>2026-04-19T08:12:12.283Z</time></trkpt><trkpt lat="43.5088834" lon="11.9562719"><ele>429.0</ele><time>2026-04-19T08:12:14.234Z</time></trkpt><trkpt lat="43.508984" lon="11.9563883"><ele>428.1666666666667</ele><time>2026-04-19T08:12:16.233Z</time></trkpt><trkpt lat="43.5090373" lon="11.9564381"><ele>427.33333333333337</ele><time>2026-04-19T08:12:17.233Z</time></trkpt><trkpt lat="43.5091249" lon="11.9565169"><ele>426.5</ele><time>2026-04-19T08:12:19.233Z</time></trkpt><trkpt lat="43.5091917" lon="11.9565755"><ele>425.6666666666667</ele><time>2026-04-19T08:12:22.234Z</time></trkpt><trkpt lat="43.5092483" lon="11.9566381"><ele>424.83333333333337</ele><time>2026-04-19T08:12:25.234Z</time></trkpt><trkpt lat="43.5093253" lon="11.9566527"><ele>424.0</ele><time>2026-04-19T08:12:29.233Z</time></trkpt><trkpt lat="43.509401" lon="11.9566126"><ele>424.0</ele><time>2026-04-19T08:12:32.234Z</time></trkpt><trkpt lat="43.5094737" lon="11.9565327"><ele>424.0</ele><time>2026-04-19T08:12:34.234Z</time></trkpt><trkpt lat="43.5095505" lon="11.9564606"><ele>424.0</ele><time>2026-04-19T08:12:36.234Z</time></trkpt><trkpt lat="43.509645" lon="11.9563817"><ele>424.0</ele><time>2026-04-19T08:12:53.233Z</time></trkpt><trkpt lat="43.50972" lon="11.956335"><ele>424.0</ele><time>2026-04-19T08:12:56.232Z</time></trkpt><trkpt lat="43.5097883" lon="11.956265"><ele>422.83333333333337</ele><time>2026-04-19T08:12:58.234Z</time></trkpt><trkpt lat="43.5098933" lon="11.9561967"><ele>421.6666666666667</ele><time>2026-04-19T08:13:00.233Z</time></trkpt><trkpt lat="43.509965" lon="11.9561733"><ele>420.5</ele><time>2026-04-19T08:13:01.232Z</time></trkpt><trkpt lat="43.5100333" lon="11.9561483"><ele>419.33333333333337</ele><time>2026-04-19T08:13:02.238Z</time></trkpt><trkpt lat="43.5101033" lon="11.9561283"><ele>418.1666666666667</ele><time>2026-04-19T08:13:03.233Z</time></trkpt><trkpt lat="43.5102083" lon="11.9561"><ele>417.0</ele><time>2026-04-19T08:13:05.234Z</time></trkpt><trkpt lat="43.510315" lon="11.9560567"><ele>417.0</ele><time>2026-04-19T08:13:07.235Z</time></trkpt><trkpt lat="43.5103817" lon="11.9560383"><ele>417.0</ele><time>2026-04-19T08:13:08.235Z</time></trkpt><trkpt lat="43.5104617" lon="11.9560233"><ele>417.0</ele><time>2026-04-19T08:13:09.233Z</time></trkpt><trkpt lat="43.5105333" lon="11.95602"><ele>417.0</ele><time>2026-04-19T08:13:10.234Z</time></trkpt><trkpt lat="43.5106383" lon="11.95599"><ele>417.0</ele><time>2026-04-19T08:13:12.232Z</time></trkpt><trkpt lat="43.5107033" lon="11.95599"><ele>417.0</ele><time>2026-04-19T08:13:15.233Z</time></trkpt><trkpt lat="43.5107917" lon="11.9559867"><ele>416.8</ele><time>2026-04-19T08:13:18.234Z</time></trkpt><trkpt lat="43.5108817" lon="11.9559983"><ele>416.6</ele><time>2026-04-19T08:13:20.233Z</time></trkpt><trkpt lat="43.5109817" lon="11.956005"><ele>416.40000000000003</ele><time>2026-04-19T08:13:22.234Z</time></trkpt><trkpt lat="43.5110767" lon="11.956025"><ele>416.20000000000005</ele><time>2026-04-19T08:13:24.233Z</time></trkpt><trkpt lat="43.5111717" lon="11.9560783"><ele>416.0</ele><time>2026-04-19T08:13:26.233Z</time></trkpt><trkpt lat="43.5112617" lon="11.95612"><ele>417.16666666666663</ele><time>2026-04-19T08:13:28.233Z</time></trkpt><trkpt lat="43.5113317" lon="11.956155"><ele>418.3333333333333</ele><time>2026-04-19T08:13:30.232Z</time></trkpt><trkpt lat="43.51141" lon="11.9561933"><ele>419.5</ele><time>2026-04-19T08:13:32.233Z</time></trkpt><trkpt lat="43.5114933" lon="11.9562083"><ele>420.66666666666663</ele><time>2026-04-19T08:13:34.234Z</time></trkpt><trkpt lat="43.5115567" lon="11.9562067"><ele>421.8333333333333</ele><time>2026-04-19T08:13:36.232Z</time></trkpt><trkpt lat="43.5116383" lon="11.9562"><ele>423.0</ele><time>2026-04-19T08:13:39.233Z</time></trkpt><trkpt lat="43.511725" lon="11.9561867"><ele>423.0</ele><time>2026-04-19T08:13:42.233Z</time></trkpt><trkpt lat="43.5117983" lon="11.95621"><ele>423.0</ele><time>2026-04-19T08:13:44.233Z</time></trkpt><trkpt lat="43.511875" lon="11.9562517"><ele>423.0</ele><time>2026-04-19T08:13:46.234Z</time></trkpt><trkpt lat="43.5119617" lon="11.9562783"><ele>423.0</ele><time>2026-04-19T08:13:48.233Z</time></trkpt><trkpt lat="43.5120367" lon="11.9562817"><ele>423.0</ele><time>2026-04-19T08:13:51.233Z</time></trkpt><trkpt lat="43.5121067" lon="11.9562583"><ele>423.0</ele><time>2026-04-19T08:13:54.233Z</time></trkpt><trkpt lat="43.5121872" lon="11.9562005"><ele>424.75</ele><time>2026-04-19T08:13:59.25Z</time></trkpt><trkpt lat="43.5122195" lon="11.9561196"><ele>426.5</ele><time>2026-04-19T08:14:05.257Z</time></trkpt><trkpt lat="43.5123392" lon="11.9560446"><ele>428.25</ele><time>2026-04-19T08:14:18.267Z</time></trkpt><trkpt lat="43.512475" lon="11.95597"><ele>430.0</ele><time>2026-04-19T08:14:20.233Z</time></trkpt><trkpt lat="43.512585" lon="11.9559067"><ele>425.6</ele><time>2026-04-19T08:14:22.233Z</time></trkpt><trkpt lat="43.5127183" lon="11.95581"><ele>421.2</ele><time>2026-04-19T08:14:24.233Z</time></trkpt><trkpt lat="43.512785" lon="11.9557483"><ele>416.79999999999995</ele><time>2026-04-19T08:14:25.232Z</time></trkpt><trkpt lat="43.5128567" lon="11.9556833"><ele>412.4</ele><time>2026-04-19T08:14:26.233Z</time></trkpt><trkpt lat="43.512935" lon="11.955645"><ele>408.0</ele><time>2026-04-19T08:14:27.232Z</time></trkpt><trkpt lat="43.5130133" lon="11.9556033"><ele>407.5</ele><time>2026-04-19T08:14:28.233Z</time></trkpt><trkpt lat="43.5130783" lon="11.9555633"><ele>407.0</ele><time>2026-04-19T08:14:29.232Z</time></trkpt><trkpt lat="43.5131867" lon="11.955545"><ele>406.5</ele><time>2026-04-19T08:14:31.233Z</time></trkpt><trkpt lat="43.5132683" lon="11.9555333"><ele>406.0</ele><time>2026-04-19T08:14:33.233Z</time></trkpt><trkpt lat="43.5133383" lon="11.9555233"><ele>405.5</ele><time>2026-04-19T08:14:35.233Z</time></trkpt><trkpt lat="43.5134233" lon="11.95551"><ele>405.0</ele><time>2026-04-19T08:14:38.233Z</time></trkpt><trkpt lat="43.5135067" lon="11.9555383"><ele>405.0</ele><time>2026-04-19T08:14:40.232Z</time></trkpt><trkpt lat="43.513599" lon="11.9555223"><ele>405.0</ele><time>2026-04-19T08:14:43.27Z</time></trkpt><trkpt lat="43.5136441" lon="11.9554565"><ele>405.0</ele><time>2026-04-19T08:14:44.325Z</time></trkpt><trkpt lat="43.5137155" lon="11.955368"><ele>405.0</ele><time>2026-04-19T08:14:45.343Z</time></trkpt><trkpt lat="43.5138612" lon="11.9552327"><ele>405.0</ele><time>2026-04-19T08:14:47.233Z</time></trkpt><trkpt lat="43.513912" lon="11.9551579"><ele>405.8333333333333</ele><time>2026-04-19T08:14:48.234Z</time></trkpt><trkpt lat="43.5139513" lon="11.9550737"><ele>406.66666666666663</ele><time>2026-04-19T08:14:49.232Z</time></trkpt><trkpt lat="43.5139758" lon="11.9549811"><ele>407.5</ele><time>2026-04-19T08:14:50.233Z</time></trkpt><trkpt lat="43.5139959" lon="11.9548932"><ele>408.3333333333333</ele><time>2026-04-19T08:14:51.232Z</time></trkpt><trkpt lat="43.514041" lon="11.9547451"><ele>409.16666666666663</ele><time>2026-04-19T08:14:53.233Z</time></trkpt><trkpt lat="43.5141178" lon="11.9546615"><ele>410.0</ele><time>2026-04-19T08:14:55.233Z</time></trkpt><trkpt lat="43.514228" lon="11.9546775"><ele>407.99999999999994</ele><time>2026-04-19T08:14:57.234Z</time></trkpt><trkpt lat="43.5142942" lon="11.9547442"><ele>406.0</ele><time>2026-04-19T08:14:58.234Z</time></trkpt><trkpt lat="43.5143658" lon="11.9548004"><ele>404.0</ele><time>2026-04-19T08:14:59.233Z</time></trkpt><trkpt lat="43.5144414" lon="11.9548452"><ele>402.0</ele><time>2026-04-19T08:15:00.235Z</time></trkpt><trkpt lat="43.5145173" lon="11.9548727"><ele>399.99999999999994</ele><time>2026-04-19T08:15:01.233Z</time></trkpt><trkpt lat="43.5145894" lon="11.9548938"><ele>398.0</ele><time>2026-04-19T08:15:02.233Z</time></trkpt><trkpt lat="43.5146585" lon="11.9549096"><ele>397.99999999999994</ele><time>2026-04-19T08:15:03.234Z</time></trkpt><trkpt lat="43.5147322" lon="11.9549134"><ele>398.0</ele><time>2026-04-19T08:15:04.233Z</time></trkpt><trkpt lat="43.5148047" lon="11.9549161"><ele>398.0</ele><time>2026-04-19T08:15:05.233Z</time></trkpt><trkpt lat="43.5148752" lon="11.9549195"><ele>398.0</ele><time>2026-04-19T08:15:06.233Z</time></trkpt><trkpt lat="43.5149436" lon="11.9549177"><ele>398.0</ele><time>2026-04-19T08:15:07.233Z</time></trkpt><trkpt lat="43.515015" lon="11.9549118"><ele>397.99999999999994</ele><time>2026-04-19T08:15:08.233Z</time></trkpt><trkpt lat="43.5150804" lon="11.9549004"><ele>398.0</ele><time>2026-04-19T08:15:09.234Z</time></trkpt><trkpt lat="43.5151713" lon="11.9548311"><ele>398.0</ele><time>2026-04-19T08:15:11.233Z</time></trkpt><trkpt lat="43.5152262" lon="11.9547316"><ele>398.0</ele><time>2026-04-19T08:15:13.234Z</time></trkpt><trkpt lat="43.5152676" lon="11.9546477"><ele>398.0</ele><time>2026-04-19T08:15:15.234Z</time></trkpt><trkpt lat="43.5153428" lon="11.9546124"><ele>398.0</ele><time>2026-04-19T08:15:17.233Z</time></trkpt><trkpt lat="43.5154235" lon="11.9545409"><ele>398.0</ele><time>2026-04-19T08:15:19.234Z</time></trkpt><trkpt lat="43.5155205" lon="11.954443"><ele>397.2</ele><time>2026-04-19T08:15:21.233Z</time></trkpt><trkpt lat="43.5155688" lon="11.9543788"><ele>396.4</ele><time>2026-04-19T08:15:22.234Z</time></trkpt><trkpt lat="43.5156275" lon="11.9543063"><ele>395.59999999999997</ele><time>2026-04-19T08:15:23.233Z</time></trkpt><trkpt lat="43.5156981" lon="11.9542126"><ele>394.79999999999995</ele><time>2026-04-19T08:15:24.233Z</time></trkpt><trkpt lat="43.5157729" lon="11.9541047"><ele>394.0</ele><time>2026-04-19T08:15:25.233Z</time></trkpt><trkpt lat="43.5158551" lon="11.9539909"><ele>394.0</ele><time>2026-04-19T08:15:26.233Z</time></trkpt><trkpt lat="43.5159286" lon="11.9538754"><ele>394.0</ele><time>2026-04-19T08:15:27.233Z</time></trkpt><trkpt lat="43.5159868" lon="11.9537809"><ele>394.0</ele><time>2026-04-19T08:15:28.233Z</time></trkpt><trkpt lat="43.5160459" lon="11.9536979"><ele>394.0</ele><time>2026-04-19T08:15:29.233Z</time></trkpt><trkpt lat="43.5160991" lon="11.953627"><ele>394.0</ele><time>2026-04-19T08:15:30.234Z</time></trkpt><trkpt lat="43.5161657" lon="11.9535327"><ele>394.00000000000006</ele><time>2026-04-19T08:15:32.233Z</time></trkpt><trkpt lat="43.5161813" lon="11.9534428"><ele>394.0</ele><time>2026-04-19T08:15:36.233Z</time></trkpt><trkpt lat="43.5162485" lon="11.9533691"><ele>394.0</ele><time>2026-04-19T08:15:39.233Z</time></trkpt><trkpt lat="43.516308" lon="11.953281"><ele>394.0</ele><time>2026-04-19T08:15:41.234Z</time></trkpt><trkpt lat="43.5163634" lon="11.9531698"><ele>394.00000000000006</ele><time>2026-04-19T08:15:43.233Z</time></trkpt><trkpt lat="43.5164204" lon="11.9530881"><ele>394.0</ele><time>2026-04-19T08:15:45.233Z</time></trkpt><trkpt lat="43.5164954" lon="11.9529861"><ele>394.0</ele><time>2026-04-19T08:15:47.234Z</time></trkpt><trkpt lat="43.5165504" lon="11.9529264"><ele>394.0</ele><time>2026-04-19T08:15:48.234Z</time></trkpt><trkpt lat="43.5166554" lon="11.9528142"><ele>394.0</ele><time>2026-04-19T08:15:50.233Z</time></trkpt><trkpt lat="43.5167629" lon="11.95274"><ele>394.0</ele><time>2026-04-19T08:15:52.233Z</time></trkpt><trkpt lat="43.5168559" lon="11.9527086"><ele>394.0</ele><time>2026-04-19T08:15:54.233Z</time></trkpt><trkpt lat="43.516942" lon="11.9526825"><ele>394.00000000000006</ele><time>2026-04-19T08:15:56.234Z</time></trkpt><trkpt lat="43.5170146" lon="11.9526589"><ele>394.0</ele><time>2026-04-19T08:15:58.233Z</time></trkpt><trkpt lat="43.5170846" lon="11.9526369"><ele>394.0</ele><time>2026-04-19T08:16:00.234Z</time></trkpt><trkpt lat="43.517169" lon="11.9525728"><ele>394.0</ele><time>2026-04-19T08:16:03.234Z</time></trkpt><trkpt lat="43.5172523" lon="11.9525036"><ele>394.00000000000006</ele><time>2026-04-19T08:16:05.233Z</time></trkpt><trkpt lat="43.5173227" lon="11.9524509"><ele>394.0</ele><time>2026-04-19T08:16:06.233Z</time></trkpt><trkpt lat="43.5173932" lon="11.9524054"><ele>392.6666666666667</ele><time>2026-04-19T08:16:07.234Z</time></trkpt><trkpt lat="43.5174632" lon="11.9523534"><ele>391.33333333333337</ele><time>2026-04-19T08:16:08.234Z</time></trkpt><trkpt lat="43.517528" lon="11.9523006"><ele>390.0</ele><time>2026-04-19T08:16:09.233Z</time></trkpt><trkpt lat="43.517603" lon="11.952248"><ele>388.66666666666663</ele><time>2026-04-19T08:16:10.233Z</time></trkpt><trkpt lat="43.517682" lon="11.9521838"><ele>387.3333333333333</ele><time>2026-04-19T08:16:11.233Z</time></trkpt><trkpt lat="43.5177651" lon="11.952111"><ele>386.0</ele><time>2026-04-19T08:16:12.233Z</time></trkpt><trkpt lat="43.5178491" lon="11.9520377"><ele>385.8333333333333</ele><time>2026-04-19T08:16:13.232Z</time></trkpt><trkpt lat="43.5179278" lon="11.9519686"><ele>385.66666666666663</ele><time>2026-04-19T08:16:14.234Z</time></trkpt><trkpt lat="43.5180051" lon="11.9518993"><ele>385.5</ele><time>2026-04-19T08:16:15.234Z</time></trkpt><trkpt lat="43.5180885" lon="11.9518364"><ele>385.33333333333337</ele><time>2026-04-19T08:16:16.232Z</time></trkpt><trkpt lat="43.5181699" lon="11.9517847"><ele>385.1666666666667</ele><time>2026-04-19T08:16:17.232Z</time></trkpt><trkpt lat="43.5182455" lon="11.9517539"><ele>385.0</ele><time>2026-04-19T08:16:18.233Z</time></trkpt><trkpt lat="43.5183165" lon="11.9517291"><ele>386.14285714285717</ele><time>2026-04-19T08:16:19.233Z</time></trkpt><trkpt lat="43.5183849" lon="11.9516972"><ele>387.2857142857143</ele><time>2026-04-19T08:16:20.233Z</time></trkpt><trkpt lat="43.5184458" lon="11.9516559"><ele>388.42857142857144</ele><time>2026-04-19T08:16:21.234Z</time></trkpt><trkpt lat="43.5185052" lon="11.951607"><ele>389.57142857142856</ele><time>2026-04-19T08:16:22.234Z</time></trkpt><trkpt lat="43.5185699" lon="11.9515468"><ele>390.7142857142857</ele><time>2026-04-19T08:16:23.233Z</time></trkpt><trkpt lat="43.5186364" lon="11.9514841"><ele>391.8571428571429</ele><time>2026-04-19T08:16:24.233Z</time></trkpt><trkpt lat="43.518702" lon="11.9514181"><ele>393.0</ele><time>2026-04-19T08:16:25.234Z</time></trkpt><trkpt lat="43.5187725" lon="11.9513363"><ele>393.00000000000006</ele><time>2026-04-19T08:16:26.233Z</time></trkpt><trkpt lat="43.5188283" lon="11.9512546"><ele>393.0</ele><time>2026-04-19T08:16:27.234Z</time></trkpt><trkpt lat="43.5188815" lon="11.9511844"><ele>393.0</ele><time>2026-04-19T08:16:28.234Z</time></trkpt><trkpt lat="43.5189344" lon="11.9511347"><ele>393.0</ele><time>2026-04-19T08:16:29.233Z</time></trkpt><trkpt lat="43.5189914" lon="11.9510916"><ele>393.0</ele><time>2026-04-19T08:16:30.233Z</time></trkpt><trkpt lat="43.5190483" lon="11.9510478"><ele>393.00000000000006</ele><time>2026-04-19T08:16:31.233Z</time></trkpt><trkpt lat="43.5191051" lon="11.9509931"><ele>393.0</ele><time>2026-04-19T08:16:32.234Z</time></trkpt><trkpt lat="43.5191671" lon="11.9509224"><ele>396.2</ele><time>2026-04-19T08:16:33.233Z</time></trkpt><trkpt lat="43.5192426" lon="11.9508384"><ele>399.4</ele><time>2026-04-19T08:16:34.234Z</time></trkpt><trkpt lat="43.5193278" lon="11.9507603"><ele>402.59999999999997</ele><time>2026-04-19T08:16:35.234Z</time></trkpt><trkpt lat="43.5194171" lon="11.9506948"><ele>405.79999999999995</ele><time>2026-04-19T08:16:36.232Z</time></trkpt><trkpt lat="43.5195041" lon="11.9506382"><ele>409.0</ele><time>2026-04-19T08:16:37.232Z</time></trkpt><trkpt lat="43.5195792" lon="11.9506023"><ele>409.00000000000006</ele><time>2026-04-19T08:16:38.233Z</time></trkpt><trkpt lat="43.5196729" lon="11.9505544"><ele>409.0</ele><time>2026-04-19T08:16:40.233Z</time></trkpt><trkpt lat="43.5197334" lon="11.9505159"><ele>409.0</ele><time>2026-04-19T08:16:42.232Z</time></trkpt><trkpt lat="43.5198076" lon="11.9504772"><ele>409.0</ele><time>2026-04-19T08:16:44.234Z</time></trkpt><trkpt lat="43.5199051" lon="11.9504572"><ele>409.00000000000006</ele><time>2026-04-19T08:16:46.232Z</time></trkpt><trkpt lat="43.5199823" lon="11.9504617"><ele>409.0</ele><time>2026-04-19T08:16:49.234Z</time></trkpt><trkpt lat="43.520045" lon="11.9504933"><ele>409.0</ele><time>2026-04-19T08:17:11.232Z</time></trkpt><trkpt lat="43.5201267" lon="11.95055"><ele>409.0</ele><time>2026-04-19T08:17:13.233Z</time></trkpt><trkpt lat="43.52021" lon="11.950615"><ele>409.0</ele><time>2026-04-19T08:17:15.233Z</time></trkpt><trkpt lat="43.520285" lon="11.9506633"><ele>409.0</ele><time>2026-04-19T08:17:17.233Z</time></trkpt><trkpt lat="43.5203683" lon="11.9506283"><ele>409.0</ele><time>2026-04-19T08:17:19.234Z</time></trkpt><trkpt lat="43.52048" lon="11.9505517"><ele>407.1428571428571</ele><time>2026-04-19T08:17:21.234Z</time></trkpt><trkpt lat="43.5205417" lon="11.950515"><ele>405.28571428571433</ele><time>2026-04-19T08:17:22.235Z</time></trkpt><trkpt lat="43.5206017" lon="11.9504817"><ele>403.42857142857144</ele><time>2026-04-19T08:17:23.235Z</time></trkpt><trkpt lat="43.5206617" lon="11.9504517"><ele>401.57142857142856</ele><time>2026-04-19T08:17:24.235Z</time></trkpt><trkpt lat="43.5207283" lon="11.9504283"><ele>399.71428571428567</ele><time>2026-04-19T08:17:25.236Z</time></trkpt><trkpt lat="43.5207983" lon="11.9504"><ele>397.8571428571429</ele><time>2026-04-19T08:17:26.236Z</time></trkpt><trkpt lat="43.52086" lon="11.9503767"><ele>396.0</ele><time>2026-04-19T08:17:27.235Z</time></trkpt><trkpt lat="43.5209283" lon="11.95035"><ele>396.0</ele><time>2026-04-19T08:17:28.235Z</time></trkpt><trkpt lat="43.5210017" lon="11.9503217"><ele>396.0</ele><time>2026-04-19T08:17:29.234Z</time></trkpt><trkpt lat="43.52107" lon="11.950295"><ele>396.0</ele><time>2026-04-19T08:17:30.235Z</time></trkpt><trkpt lat="43.52113" lon="11.95026"><ele>396.0</ele><time>2026-04-19T08:17:31.235Z</time></trkpt><trkpt lat="43.52124" lon="11.9501917"><ele>396.0</ele><time>2026-04-19T08:17:33.236Z</time></trkpt><trkpt lat="43.5213567" lon="11.9501667"><ele>392.8</ele><time>2026-04-19T08:17:35.233Z</time></trkpt><trkpt lat="43.521405" lon="11.95024"><ele>389.6</ele><time>2026-04-19T08:17:37.235Z</time></trkpt><trkpt lat="43.5214567" lon="11.9503567"><ele>386.4</ele><time>2026-04-19T08:17:39.235Z</time></trkpt><trkpt lat="43.5214617" lon="11.9505033"><ele>383.2</ele><time>2026-04-19T08:17:41.232Z</time></trkpt><trkpt lat="43.5214867" lon="11.9506617"><ele>380.0</ele><time>2026-04-19T08:17:43.233Z</time></trkpt><trkpt lat="43.5215" lon="11.9507467"><ele>380.0</ele><time>2026-04-19T08:17:44.234Z</time></trkpt><trkpt lat="43.521515" lon="11.9508333"><ele>380.0</ele><time>2026-04-19T08:17:45.233Z</time></trkpt><trkpt lat="43.52154" lon="11.9510133"><ele>380.0</ele><time>2026-04-19T08:17:47.234Z</time></trkpt><trkpt lat="43.5215533" lon="11.9511133"><ele>380.0</ele><time>2026-04-19T08:17:48.234Z</time></trkpt><trkpt lat="43.5215567" lon="11.9512217"><ele>380.0</ele><time>2026-04-19T08:17:49.235Z</time></trkpt><trkpt lat="43.5215683" lon="11.9513733"><ele>379.6666666666667</ele><time>2026-04-19T08:17:51.235Z</time></trkpt><trkpt lat="43.5215883" lon="11.95146"><ele>379.33333333333337</ele><time>2026-04-19T08:17:53.235Z</time></trkpt><trkpt lat="43.5216617" lon="11.95156"><ele>379.0</ele><time>2026-04-19T08:17:55.234Z</time></trkpt><trkpt lat="43.5217283" lon="11.9516533"><ele>378.6666666666667</ele><time>2026-04-19T08:17:57.232Z</time></trkpt><trkpt lat="43.5217917" lon="11.9517267"><ele>378.3333333333333</ele><time>2026-04-19T08:17:59.233Z</time></trkpt><trkpt lat="43.5218533" lon="11.9517567"><ele>378.0</ele><time>2026-04-19T08:18:02.233Z</time></trkpt><trkpt lat="43.5219267" lon="11.9517067"><ele>378.0</ele><time>2026-04-19T08:18:06.233Z</time></trkpt><trkpt lat="43.5219933" lon="11.9516483"><ele>378.0</ele><time>2026-04-19T08:18:09.233Z</time></trkpt><trkpt lat="43.52206" lon="11.9515717"><ele>378.0</ele><time>2026-04-19T08:18:12.237Z</time></trkpt><trkpt lat="43.5221067" lon="11.9514933"><ele>378.0</ele><time>2026-04-19T08:18:14.233Z</time></trkpt><trkpt lat="43.5221551" lon="11.9513937"><ele>378.0</ele><time>2026-04-19T08:18:17.232Z</time></trkpt><trkpt lat="43.522205" lon="11.9512983"><ele>378.0</ele><time>2026-04-19T08:18:20.235Z</time></trkpt><trkpt lat="43.5222667" lon="11.9512167"><ele>377.6666666666667</ele><time>2026-04-19T08:18:23.233Z</time></trkpt><trkpt lat="43.5223198" lon="11.9511495"><ele>377.3333333333333</ele><time>2026-04-19T08:18:26.247Z</time></trkpt><trkpt lat="43.5223739" lon="11.9510346"><ele>377.0</ele><time>2026-04-19T08:18:30.251Z</time></trkpt><trkpt lat="43.522416" lon="11.9509664"><ele>376.66666666666663</ele><time>2026-04-19T08:18:33.255Z</time></trkpt><trkpt lat="43.5224716" lon="11.9508774"><ele>376.3333333333333</ele><time>2026-04-19T08:18:36.79Z</time></trkpt><trkpt lat="43.5225185" lon="11.9507681"><ele>376.0</ele><time>2026-04-19T08:18:40.26Z</time></trkpt><trkpt lat="43.522555" lon="11.9506726"><ele>376.0</ele><time>2026-04-19T08:18:43.296Z</time></trkpt><trkpt lat="43.5226119" lon="11.9505912"><ele>376.0</ele><time>2026-04-19T08:18:46.265Z</time></trkpt><trkpt lat="43.5226681" lon="11.9505101"><ele>376.0</ele><time>2026-04-19T08:18:49.17Z</time></trkpt><trkpt lat="43.5227244" lon="11.9504389"><ele>376.0</ele><time>2026-04-19T08:18:51.334Z</time></trkpt><trkpt lat="43.5227826" lon="11.9503474"><ele>376.0</ele><time>2026-04-19T08:18:53.275Z</time></trkpt><trkpt lat="43.5228729" lon="11.9502424"><ele>376.0</ele><time>2026-04-19T08:18:55.274Z</time></trkpt><trkpt lat="43.522923" lon="11.9501662"><ele>376.0</ele><time>2026-04-19T08:18:56.274Z</time></trkpt><trkpt lat="43.5229713" lon="11.9500955"><ele>376.0</ele><time>2026-04-19T08:18:57.233Z</time></trkpt><trkpt lat="43.5230548" lon="11.950033"><ele>376.0</ele><time>2026-04-19T08:18:59.234Z</time></trkpt><trkpt lat="43.5231362" lon="11.9499885"><ele>376.0</ele><time>2026-04-19T08:19:02.234Z</time></trkpt><trkpt lat="43.523199" lon="11.949965"><ele>376.0</ele><time>2026-04-19T08:19:04.234Z</time></trkpt><trkpt lat="43.5232719" lon="11.9499285"><ele>376.0</ele><time>2026-04-19T08:19:06.234Z</time></trkpt><trkpt lat="43.5233367" lon="11.9498526"><ele>376.0</ele><time>2026-04-19T08:19:08.235Z</time></trkpt><trkpt lat="43.5234225" lon="11.9497826"><ele>376.0</ele><time>2026-04-19T08:19:10.234Z</time></trkpt><trkpt lat="43.5235222" lon="11.9497368"><ele>376.0</ele><time>2026-04-19T08:19:12.234Z</time></trkpt><trkpt lat="43.5236391" lon="11.9496717"><ele>376.0</ele><time>2026-04-19T08:19:14.235Z</time></trkpt><trkpt lat="43.523696" lon="11.9496292"><ele>376.0</ele><time>2026-04-19T08:19:15.237Z</time></trkpt><trkpt lat="43.5237982" lon="11.9495505"><ele>378.6</ele><time>2026-04-19T08:19:17.234Z</time></trkpt><trkpt lat="43.5239117" lon="11.94951"><ele>381.20000000000005</ele><time>2026-04-19T08:19:19.234Z</time></trkpt><trkpt lat="43.524005" lon="11.9495217"><ele>383.79999999999995</ele><time>2026-04-19T08:19:21.235Z</time></trkpt><trkpt lat="43.5240833" lon="11.9494967"><ele>386.4</ele><time>2026-04-19T08:19:23.234Z</time></trkpt><trkpt lat="43.5242" lon="11.949495"><ele>389.0</ele><time>2026-04-19T08:19:25.236Z</time></trkpt><trkpt lat="43.5242933" lon="11.9494983"><ele>388.99999999999994</ele><time>2026-04-19T08:19:27.234Z</time></trkpt><trkpt lat="43.52436" lon="11.949515"><ele>389.0</ele><time>2026-04-19T08:19:29.235Z</time></trkpt><trkpt lat="43.524425" lon="11.949525"><ele>389.0</ele><time>2026-04-19T08:19:32.234Z</time></trkpt><trkpt lat="43.5245083" lon="11.9494183"><ele>389.0</ele><time>2026-04-19T08:20:01.234Z</time></trkpt><trkpt lat="43.5245683" lon="11.9493733"><ele>388.99999999999994</ele><time>2026-04-19T08:20:03.232Z</time></trkpt><trkpt lat="43.5246267" lon="11.949325"><ele>389.0</ele><time>2026-04-19T08:20:05.233Z</time></trkpt><trkpt lat="43.5247069" lon="11.9492905"><ele>390.5714285714286</ele><time>2026-04-19T08:20:08.29Z</time></trkpt><trkpt lat="43.5247705" lon="11.9493033"><ele>392.1428571428571</ele><time>2026-04-19T08:20:10.292Z</time></trkpt><trkpt lat="43.5248549" lon="11.9493013"><ele>393.7142857142857</ele><time>2026-04-19T08:20:13.356Z</time></trkpt><trkpt lat="43.5249099" lon="11.9492381"><ele>395.28571428571433</ele><time>2026-04-19T08:20:16.358Z</time></trkpt><trkpt lat="43.5249428" lon="11.9491564"><ele>396.8571428571429</ele><time>2026-04-19T08:20:19.299Z</time></trkpt><trkpt lat="43.524976" lon="11.9490604"><ele>398.42857142857144</ele><time>2026-04-19T08:20:21.301Z</time></trkpt><trkpt lat="43.5249963" lon="11.9489688"><ele>400.0</ele><time>2026-04-19T08:20:23.304Z</time></trkpt><trkpt lat="43.5250508" lon="11.9489014"><ele>395.6</ele><time>2026-04-19T08:20:26.305Z</time></trkpt><trkpt lat="43.52512" lon="11.9488683"><ele>391.2</ele><time>2026-04-19T08:20:42.232Z</time></trkpt><trkpt lat="43.525195" lon="11.9488"><ele>386.79999999999995</ele><time>2026-04-19T08:20:43.234Z</time></trkpt><trkpt lat="43.5251617" lon="11.9486917"><ele>382.4</ele><time>2026-04-19T08:20:55.232Z</time></trkpt><trkpt lat="43.5252283" lon="11.9484983"><ele>378.0</ele><time>2026-04-19T08:21:23.233Z</time></trkpt><trkpt lat="43.5252567" lon="11.9483983"><ele>377.4</ele><time>2026-04-19T08:21:26.234Z</time></trkpt><trkpt lat="43.525305" lon="11.9483183"><ele>376.79999999999995</ele><time>2026-04-19T08:21:28.234Z</time></trkpt><trkpt lat="43.5253733" lon="11.948235"><ele>376.2</ele><time>2026-04-19T08:21:30.234Z</time></trkpt><trkpt lat="43.5254517" lon="11.9481717"><ele>375.6</ele><time>2026-04-19T08:21:32.234Z</time></trkpt><trkpt lat="43.52553" lon="11.9480683"><ele>375.0</ele><time>2026-04-19T08:21:34.233Z</time></trkpt><trkpt lat="43.5255967" lon="11.94796"><ele>375.0</ele><time>2026-04-19T08:21:36.233Z</time></trkpt><trkpt lat="43.5256483" lon="11.94788"><ele>375.0</ele><time>2026-04-19T08:21:38.233Z</time></trkpt><trkpt lat="43.525675" lon="11.947785"><ele>375.0</ele><time>2026-04-19T08:21:40.234Z</time></trkpt><trkpt lat="43.5257317" lon="11.9476833"><ele>375.0</ele><time>2026-04-19T08:21:43.233Z</time></trkpt><trkpt lat="43.5257883" lon="11.9476233"><ele>375.0</ele><time>2026-04-19T08:21:45.233Z</time></trkpt><trkpt lat="43.52586" lon="11.9475583"><ele>375.0</ele><time>2026-04-19T08:21:47.233Z</time></trkpt><trkpt lat="43.52593" lon="11.94751"><ele>374.5</ele><time>2026-04-19T08:21:49.234Z</time></trkpt><trkpt lat="43.526005" lon="11.9474417"><ele>374.0</ele><time>2026-04-19T08:21:52.234Z</time></trkpt><trkpt lat="43.5260717" lon="11.947375"><ele>373.5</ele><time>2026-04-19T08:21:55.235Z</time></trkpt><trkpt lat="43.526125" lon="11.9473083"><ele>373.0</ele><time>2026-04-19T08:21:57.233Z</time></trkpt><trkpt lat="43.5261967" lon="11.9472167"><ele>372.5</ele><time>2026-04-19T08:22:00.234Z</time></trkpt><trkpt lat="43.5262283" lon="11.947135"><ele>372.0</ele><time>2026-04-19T08:22:02.235Z</time></trkpt><trkpt lat="43.5262533" lon="11.9469967"><ele>372.3333333333333</ele><time>2026-04-19T08:22:04.234Z</time></trkpt><trkpt lat="43.5262533" lon="11.9468867"><ele>372.6666666666667</ele><time>2026-04-19T08:22:06.234Z</time></trkpt><trkpt lat="43.52629" lon="11.946805"><ele>373.0</ele><time>2026-04-19T08:22:08.235Z</time></trkpt><trkpt lat="43.526355" lon="11.94669"><ele>373.33333333333337</ele><time>2026-04-19T08:22:10.234Z</time></trkpt><trkpt lat="43.5264267" lon="11.9465933"><ele>373.6666666666667</ele><time>2026-04-19T08:22:12.235Z</time></trkpt><trkpt lat="43.5264633" lon="11.9465167"><ele>374.0</ele><time>2026-04-19T08:22:14.233Z</time></trkpt><trkpt lat="43.5264567" lon="11.9464283"><ele>374.0</ele><time>2026-04-19T08:22:16.233Z</time></trkpt><trkpt lat="43.5264233" lon="11.9463533"><ele>374.0</ele><time>2026-04-19T08:22:19.234Z</time></trkpt><trkpt lat="43.5263817" lon="11.946265"><ele>374.0</ele><time>2026-04-19T08:22:21.233Z</time></trkpt><trkpt lat="43.5263317" lon="11.9461517"><ele>374.0</ele><time>2026-04-19T08:22:23.234Z</time></trkpt><trkpt lat="43.5263166" lon="11.946046"><ele>374.0</ele><time>2026-04-19T08:22:26.234Z</time></trkpt><trkpt lat="43.5263238" lon="11.9459419"><ele>374.0</ele><time>2026-04-19T08:22:29.233Z</time></trkpt><trkpt lat="43.5263644" lon="11.9458659"><ele>372.83333333333337</ele><time>2026-04-19T08:22:33.262Z</time></trkpt><trkpt lat="43.5264328" lon="11.9457738"><ele>371.6666666666667</ele><time>2026-04-19T08:22:35.282Z</time></trkpt><trkpt lat="43.5264797" lon="11.9456835"><ele>370.5</ele><time>2026-04-19T08:22:37.283Z</time></trkpt><trkpt lat="43.5264997" lon="11.9455775"><ele>369.3333333333333</ele><time>2026-04-19T08:22:39.286Z</time></trkpt><trkpt lat="43.5264876" lon="11.9454483"><ele>368.16666666666663</ele><time>2026-04-19T08:22:41.286Z</time></trkpt><trkpt lat="43.5265312" lon="11.9453275"><ele>367.0</ele><time>2026-04-19T08:22:43.288Z</time></trkpt><trkpt lat="43.5266048" lon="11.9452324"><ele>367.0</ele><time>2026-04-19T08:22:45.29Z</time></trkpt><trkpt lat="43.5266267" lon="11.9451267"><ele>367.0</ele><time>2026-04-19T08:22:46.233Z</time></trkpt><trkpt lat="43.5266533" lon="11.9450183"><ele>367.0</ele><time>2026-04-19T08:22:48.233Z</time></trkpt><trkpt lat="43.5266617" lon="11.9449233"><ele>367.0</ele><time>2026-04-19T08:22:57.233Z</time></trkpt><trkpt lat="43.5266833" lon="11.94483"><ele>367.0</ele><time>2026-04-19T08:23:03.233Z</time></trkpt><trkpt lat="43.5267333" lon="11.9447417"><ele>367.0</ele><time>2026-04-19T08:23:07.233Z</time></trkpt><trkpt lat="43.5268017" lon="11.9446933"><ele>366.3333333333333</ele><time>2026-04-19T08:23:10.234Z</time></trkpt><trkpt lat="43.5268817" lon="11.9446933"><ele>365.66666666666663</ele><time>2026-04-19T08:23:13.233Z</time></trkpt><trkpt lat="43.5269467" lon="11.9446583"><ele>365.0</ele><time>2026-04-19T08:23:15.233Z</time></trkpt><trkpt lat="43.5270017" lon="11.9446117"><ele>364.3333333333333</ele><time>2026-04-19T08:23:17.233Z</time></trkpt><trkpt lat="43.5270667" lon="11.9445267"><ele>363.6666666666667</ele><time>2026-04-19T08:23:20.233Z</time></trkpt><trkpt lat="43.5271233" lon="11.944415"><ele>363.0</ele><time>2026-04-19T08:23:22.233Z</time></trkpt><trkpt lat="43.527175" lon="11.944315"><ele>362.1666666666667</ele><time>2026-04-19T08:23:24.233Z</time></trkpt><trkpt lat="43.5272833" lon="11.9441533"><ele>361.3333333333333</ele><time>2026-04-19T08:23:46.234Z</time></trkpt><trkpt lat="43.527295" lon="11.9440517"><ele>360.5</ele><time>2026-04-19T08:23:50.234Z</time></trkpt><trkpt lat="43.527315" lon="11.9439667"><ele>359.66666666666663</ele><time>2026-04-19T08:23:52.232Z</time></trkpt><trkpt lat="43.527355" lon="11.9438717"><ele>358.8333333333333</ele><time>2026-04-19T08:23:55.234Z</time></trkpt><trkpt lat="43.5274217" lon="11.94387"><ele>358.0</ele><time>2026-04-19T08:23:57.233Z</time></trkpt><trkpt lat="43.5274967" lon="11.9438967"><ele>358.0</ele><time>2026-04-19T08:23:59.233Z</time></trkpt><trkpt lat="43.5275817" lon="11.9439483"><ele>358.0</ele><time>2026-04-19T08:24:01.234Z</time></trkpt><trkpt lat="43.5276667" lon="11.9439683"><ele>358.0</ele><time>2026-04-19T08:24:03.232Z</time></trkpt><trkpt lat="43.5277383" lon="11.9439917"><ele>358.0</ele><time>2026-04-19T08:24:06.232Z</time></trkpt><trkpt lat="43.5278178" lon="11.9440123"><ele>358.0</ele><time>2026-04-19T08:24:13.319Z</time></trkpt><trkpt lat="43.5278623" lon="11.9440757"><ele>358.0</ele><time>2026-04-19T08:24:17.324Z</time></trkpt><trkpt lat="43.5279081" lon="11.9441558"><ele>358.16666666666663</ele><time>2026-04-19T08:24:20.326Z</time></trkpt><trkpt lat="43.5279707" lon="11.9442052"><ele>358.3333333333333</ele><time>2026-04-19T08:24:22.221Z</time></trkpt><trkpt lat="43.528038" lon="11.9442081"><ele>358.5</ele><time>2026-04-19T08:24:24.33Z</time></trkpt><trkpt lat="43.5281361" lon="11.944192"><ele>358.6666666666667</ele><time>2026-04-19T08:24:25.33Z</time></trkpt><trkpt lat="43.5282189" lon="11.9441991"><ele>358.83333333333337</ele><time>2026-04-19T08:24:26.305Z</time></trkpt><trkpt lat="43.5283044" lon="11.9442026"><ele>359.0</ele><time>2026-04-19T08:24:28.333Z</time></trkpt><trkpt lat="43.5284195" lon="11.9441614"><ele>359.0</ele><time>2026-04-19T08:24:29.233Z</time></trkpt><trkpt lat="43.5285021" lon="11.9440761"><ele>359.0</ele><time>2026-04-19T08:24:31.233Z</time></trkpt><trkpt lat="43.5285715" lon="11.9440209"><ele>359.0</ele><time>2026-04-19T08:24:33.233Z</time></trkpt><trkpt lat="43.5286327" lon="11.9439678"><ele>359.0</ele><time>2026-04-19T08:24:35.233Z</time></trkpt><trkpt lat="43.5286938" lon="11.9439358"><ele>359.0</ele><time>2026-04-19T08:24:37.234Z</time></trkpt><trkpt lat="43.528781" lon="11.9438847"><ele>359.0</ele><time>2026-04-19T08:24:39.233Z</time></trkpt><trkpt lat="43.5288857" lon="11.9438289"><ele>358.79999999999995</ele><time>2026-04-19T08:24:41.232Z</time></trkpt><trkpt lat="43.5289825" lon="11.9437565"><ele>358.59999999999997</ele><time>2026-04-19T08:24:43.233Z</time></trkpt><trkpt lat="43.5290175" lon="11.9436331"><ele>358.4</ele><time>2026-04-19T08:24:45.232Z</time></trkpt><trkpt lat="43.5290061" lon="11.9434631"><ele>358.2</ele><time>2026-04-19T08:24:47.234Z</time></trkpt><trkpt lat="43.5290317" lon="11.9433208"><ele>358.0</ele><time>2026-04-19T08:24:49.234Z</time></trkpt><trkpt lat="43.52909" lon="11.9432239"><ele>358.0</ele><time>2026-04-19T08:24:51.235Z</time></trkpt><trkpt lat="43.5291647" lon="11.9431623"><ele>358.0</ele><time>2026-04-19T08:24:53.235Z</time></trkpt><trkpt lat="43.529262" lon="11.9431015"><ele>358.0</ele><time>2026-04-19T08:24:55.234Z</time></trkpt><trkpt lat="43.5293633" lon="11.9431052"><ele>358.0</ele><time>2026-04-19T08:24:57.233Z</time></trkpt><trkpt lat="43.529466" lon="11.9431043"><ele>358.0</ele><time>2026-04-19T08:24:59.232Z</time></trkpt><trkpt lat="43.5295576" lon="11.9430859"><ele>357.66666666666663</ele><time>2026-04-19T08:25:01.232Z</time></trkpt><trkpt lat="43.5296239" lon="11.9430966"><ele>357.3333333333333</ele><time>2026-04-19T08:25:02.233Z</time></trkpt><trkpt lat="43.5297101" lon="11.9431177"><ele>357.0</ele><time>2026-04-19T08:25:03.233Z</time></trkpt><trkpt lat="43.5297965" lon="11.9431384"><ele>356.6666666666667</ele><time>2026-04-19T08:25:04.233Z</time></trkpt><trkpt lat="43.5298666" lon="11.9431453"><ele>356.33333333333337</ele><time>2026-04-19T08:25:05.234Z</time></trkpt><trkpt lat="43.529969" lon="11.9431458"><ele>356.0</ele><time>2026-04-19T08:25:07.233Z</time></trkpt><trkpt lat="43.5300333" lon="11.9431321"><ele>356.0</ele><time>2026-04-19T08:25:09.232Z</time></trkpt><trkpt lat="43.5301188" lon="11.943136"><ele>356.0</ele><time>2026-04-19T08:25:11.233Z</time></trkpt><trkpt lat="43.5302113" lon="11.9431476"><ele>356.0</ele><time>2026-04-19T08:25:13.232Z</time></trkpt><trkpt lat="43.5302839" lon="11.9431562"><ele>356.0</ele><time>2026-04-19T08:25:15.232Z</time></trkpt><trkpt lat="43.5303996" lon="11.9431557"><ele>356.0</ele><time>2026-04-19T08:25:17.233Z</time></trkpt><trkpt lat="43.5304773" lon="11.9431629"><ele>356.0</ele><time>2026-04-19T08:25:18.233Z</time></trkpt><trkpt lat="43.5305693" lon="11.9431664"><ele>355.6666666666667</ele><time>2026-04-19T08:25:19.232Z</time></trkpt><trkpt lat="43.5306612" lon="11.9431678"><ele>355.33333333333337</ele><time>2026-04-19T08:25:20.233Z</time></trkpt><trkpt lat="43.5307517" lon="11.9431676"><ele>355.0</ele><time>2026-04-19T08:25:21.233Z</time></trkpt><trkpt lat="43.530835" lon="11.9431687"><ele>354.6666666666667</ele><time>2026-04-19T08:25:22.232Z</time></trkpt><trkpt lat="43.530915" lon="11.94317"><ele>354.3333333333333</ele><time>2026-04-19T08:25:23.233Z</time></trkpt><trkpt lat="43.5309933" lon="11.9431733"><ele>354.0</ele><time>2026-04-19T08:25:24.233Z</time></trkpt><trkpt lat="43.5310683" lon="11.9431633"><ele>354.0</ele><time>2026-04-19T08:25:25.233Z</time></trkpt><trkpt lat="43.5311367" lon="11.9431517"><ele>354.0</ele><time>2026-04-19T08:25:26.233Z</time></trkpt><trkpt lat="43.5312083" lon="11.9431517"><ele>354.0</ele><time>2026-04-19T08:25:27.232Z</time></trkpt><trkpt lat="43.53132" lon="11.9431383"><ele>354.0</ele><time>2026-04-19T08:25:29.233Z</time></trkpt><trkpt lat="43.53142" lon="11.943065"><ele>354.0</ele><time>2026-04-19T08:25:31.233Z</time></trkpt><trkpt lat="43.53148" lon="11.9429583"><ele>355.5</ele><time>2026-04-19T08:25:32.233Z</time></trkpt><trkpt lat="43.5315433" lon="11.9428367"><ele>357.0</ele><time>2026-04-19T08:25:33.233Z</time></trkpt><trkpt lat="43.53161" lon="11.9426867"><ele>358.5</ele><time>2026-04-19T08:25:34.232Z</time></trkpt><trkpt lat="43.5316867" lon="11.9425083"><ele>360.0</ele><time>2026-04-19T08:25:35.232Z</time></trkpt><trkpt lat="43.5317633" lon="11.9423167"><ele>360.0</ele><time>2026-04-19T08:25:36.232Z</time></trkpt><trkpt lat="43.5318367" lon="11.9421383"><ele>360.0</ele><time>2026-04-19T08:25:37.232Z</time></trkpt><trkpt lat="43.5318967" lon="11.9419767"><ele>360.0</ele><time>2026-04-19T08:25:38.233Z</time></trkpt><trkpt lat="43.5319417" lon="11.94184"><ele>360.0</ele><time>2026-04-19T08:25:39.232Z</time></trkpt><trkpt lat="43.5319883" lon="11.9417233"><ele>361.3333333333333</ele><time>2026-04-19T08:25:40.233Z</time></trkpt><trkpt lat="43.5320383" lon="11.9416283"><ele>362.6666666666667</ele><time>2026-04-19T08:25:41.233Z</time></trkpt><trkpt lat="43.5320883" lon="11.9415367"><ele>364.0</ele><time>2026-04-19T08:25:42.233Z</time></trkpt><trkpt lat="43.532145" lon="11.9414517"><ele>365.33333333333337</ele><time>2026-04-19T08:25:43.232Z</time></trkpt><trkpt lat="43.5322183" lon="11.9413833"><ele>366.6666666666667</ele><time>2026-04-19T08:25:44.233Z</time></trkpt><trkpt lat="43.5323133" lon="11.9413283"><ele>368.0</ele><time>2026-04-19T08:25:45.232Z</time></trkpt><trkpt lat="43.532425" lon="11.9412833"><ele>368.0</ele><time>2026-04-19T08:25:46.232Z</time></trkpt><trkpt lat="43.5325333" lon="11.94124"><ele>368.0</ele><time>2026-04-19T08:25:47.233Z</time></trkpt><trkpt lat="43.53264" lon="11.9411883"><ele>368.0</ele><time>2026-04-19T08:25:48.232Z</time></trkpt><trkpt lat="43.5327417" lon="11.9411283"><ele>368.0</ele><time>2026-04-19T08:25:49.232Z</time></trkpt><trkpt lat="43.5328383" lon="11.94107"><ele>368.0</ele><time>2026-04-19T08:25:50.232Z</time></trkpt><trkpt lat="43.5329233" lon="11.941025"><ele>369.59999999999997</ele><time>2026-04-19T08:25:51.233Z</time></trkpt><trkpt lat="43.5330133" lon="11.9409983"><ele>371.2</ele><time>2026-04-19T08:25:52.232Z</time></trkpt><trkpt lat="43.53311" lon="11.94096"><ele>372.8</ele><time>2026-04-19T08:25:53.234Z</time></trkpt><trkpt lat="43.5332117" lon="11.94091"><ele>374.4</ele><time>2026-04-19T08:25:54.233Z</time></trkpt><trkpt lat="43.5333167" lon="11.940845"><ele>376.0</ele><time>2026-04-19T08:25:55.233Z</time></trkpt><trkpt lat="43.5334167" lon="11.9407883"><ele>374.0</ele><time>2026-04-19T08:25:56.233Z</time></trkpt><trkpt lat="43.533515" lon="11.9407467"><ele>372.0</ele><time>2026-04-19T08:25:57.232Z</time></trkpt><trkpt lat="43.5336083" lon="11.9407283"><ele>370.0</ele><time>2026-04-19T08:25:58.233Z</time></trkpt><trkpt lat="43.5336933" lon="11.94074"><ele>368.0</ele><time>2026-04-19T08:25:59.233Z</time></trkpt><trkpt lat="43.533765" lon="11.9407733"><ele>366.0</ele><time>2026-04-19T08:26:00.233Z</time></trkpt><trkpt lat="43.5338267" lon="11.9408167"><ele>364.0</ele><time>2026-04-19T08:26:01.233Z</time></trkpt><trkpt lat="43.5338967" lon="11.9408917"><ele>364.0</ele><time>2026-04-19T08:26:03.232Z</time></trkpt><trkpt lat="43.5338217" lon="11.9409333"><ele>364.0</ele><time>2026-04-19T08:26:08.232Z</time></trkpt><trkpt lat="43.533715" lon="11.9409533"><ele>364.0</ele><time>2026-04-19T08:26:10.233Z</time></trkpt><trkpt lat="43.5336067" lon="11.940955"><ele>364.0</ele><time>2026-04-19T08:26:12.233Z</time></trkpt><trkpt lat="43.53349" lon="11.9409917"><ele>364.0</ele><time>2026-04-19T08:26:14.233Z</time></trkpt><trkpt lat="43.5334167" lon="11.94106"><ele>364.0</ele><time>2026-04-19T08:26:16.232Z</time></trkpt><trkpt lat="43.5334491" lon="11.9411567"><ele>364.0</ele><time>2026-04-19T08:26:20.233Z</time></trkpt><trkpt lat="43.5335533" lon="11.9411717"><ele>364.0</ele><time>2026-04-19T08:26:22.232Z</time></trkpt><trkpt lat="43.53366" lon="11.9412017"><ele>364.0</ele><time>2026-04-19T08:26:24.234Z</time></trkpt><trkpt lat="43.5337133" lon="11.94128"><ele>364.0</ele><time>2026-04-19T08:26:26.232Z</time></trkpt><trkpt lat="43.5337383" lon="11.9413817"><ele>364.0</ele><time>2026-04-19T08:26:28.233Z</time></trkpt><trkpt lat="43.5337533" lon="11.9415083"><ele>364.0</ele><time>2026-04-19T08:26:30.234Z</time></trkpt><trkpt lat="43.53377" lon="11.941675"><ele>364.0</ele><time>2026-04-19T08:26:32.234Z</time></trkpt><trkpt lat="43.5337867" lon="11.94176"><ele>364.0</ele><time>2026-04-19T08:26:33.234Z</time></trkpt><trkpt lat="43.5337817" lon="11.9418567"><ele>364.0</ele><time>2026-04-19T08:26:34.232Z</time></trkpt><trkpt lat="43.5337883" lon="11.94196"><ele>364.0</ele><time>2026-04-19T08:26:35.233Z</time></trkpt><trkpt lat="43.5338067" lon="11.9420683"><ele>364.0</ele><time>2026-04-19T08:26:36.232Z</time></trkpt><trkpt lat="43.533815" lon="11.9421833"><ele>366.16666666666663</ele><time>2026-04-19T08:26:37.233Z</time></trkpt><trkpt lat="43.5338167" lon="11.9422983"><ele>368.3333333333333</ele><time>2026-04-19T08:26:38.234Z</time></trkpt><trkpt lat="43.5338217" lon="11.94241"><ele>370.5</ele><time>2026-04-19T08:26:39.232Z</time></trkpt><trkpt lat="43.5338317" lon="11.942505"><ele>372.6666666666667</ele><time>2026-04-19T08:26:40.232Z</time></trkpt><trkpt lat="43.5338483" lon="11.9426217"><ele>374.83333333333337</ele><time>2026-04-19T08:26:42.234Z</time></trkpt><trkpt lat="43.5338617" lon="11.9427317"><ele>377.0</ele><time>2026-04-19T08:26:44.232Z</time></trkpt><trkpt lat="43.53387" lon="11.9428467"><ele>379.0</ele><time>2026-04-19T08:26:46.233Z</time></trkpt><trkpt lat="43.5338267" lon="11.94292"><ele>381.0</ele><time>2026-04-19T08:26:49.233Z</time></trkpt><trkpt lat="43.533785" lon="11.94278"><ele>383.0</ele><time>2026-04-19T08:26:52.233Z</time></trkpt><trkpt lat="43.5337433" lon="11.9426033"><ele>385.0</ele><time>2026-04-19T08:26:54.232Z</time></trkpt><trkpt lat="43.53371" lon="11.942505"><ele>387.0</ele><time>2026-04-19T08:26:55.233Z</time></trkpt><trkpt lat="43.533675" lon="11.9424033"><ele>389.6666666666667</ele><time>2026-04-19T08:26:56.234Z</time></trkpt><trkpt lat="43.533645" lon="11.94231"><ele>392.33333333333337</ele><time>2026-04-19T08:26:57.233Z</time></trkpt><trkpt lat="43.5336133" lon="11.94222"><ele>395.0</ele><time>2026-04-19T08:26:58.233Z</time></trkpt><trkpt lat="43.533575" lon="11.9421317"><ele>397.6666666666667</ele><time>2026-04-19T08:26:59.232Z</time></trkpt><trkpt lat="43.5335467" lon="11.9420483"><ele>400.33333333333337</ele><time>2026-04-19T08:27:00.232Z</time></trkpt><trkpt lat="43.5334817" lon="11.9419083"><ele>403.0</ele><time>2026-04-19T08:27:02.233Z</time></trkpt><trkpt lat="43.53343" lon="11.9418533"><ele>403.00000000000006</ele><time>2026-04-19T08:27:03.233Z</time></trkpt><trkpt lat="43.5333683" lon="11.9418183"><ele>403.0</ele><time>2026-04-19T08:27:04.233Z</time></trkpt><trkpt lat="43.5332917" lon="11.941805"><ele>403.0</ele><time>2026-04-19T08:27:05.232Z</time></trkpt><trkpt lat="43.5332017" lon="11.9418183"><ele>403.0</ele><time>2026-04-19T08:27:06.233Z</time></trkpt><trkpt lat="43.5331067" lon="11.9418517"><ele>403.00000000000006</ele><time>2026-04-19T08:27:07.232Z</time></trkpt><trkpt lat="43.53301" lon="11.9419117"><ele>403.0</ele><time>2026-04-19T08:27:08.234Z</time></trkpt><trkpt lat="43.5329267" lon="11.9419667"><ele>401.33333333333337</ele><time>2026-04-19T08:27:09.233Z</time></trkpt><trkpt lat="43.532845" lon="11.9420083"><ele>399.6666666666667</ele><time>2026-04-19T08:27:10.234Z</time></trkpt><trkpt lat="43.5327717" lon="11.9420367"><ele>398.0</ele><time>2026-04-19T08:27:11.233Z</time></trkpt><trkpt lat="43.5327067" lon="11.9420783"><ele>396.33333333333337</ele><time>2026-04-19T08:27:12.232Z</time></trkpt><trkpt lat="43.5326417" lon="11.9421317"><ele>394.6666666666667</ele><time>2026-04-19T08:27:13.233Z</time></trkpt><trkpt lat="43.532565" lon="11.942195"><ele>393.0</ele><time>2026-04-19T08:27:14.233Z</time></trkpt><trkpt lat="43.5325" lon="11.9422733"><ele>393.0</ele><time>2026-04-19T08:27:15.233Z</time></trkpt><trkpt lat="43.53244" lon="11.9423567"><ele>393.0</ele><time>2026-04-19T08:27:16.234Z</time></trkpt><trkpt lat="43.5323933" lon="11.94245"><ele>393.0</ele><time>2026-04-19T08:27:17.233Z</time></trkpt><trkpt lat="43.5323583" lon="11.9425533"><ele>393.0</ele><time>2026-04-19T08:27:18.233Z</time></trkpt><trkpt lat="43.5323217" lon="11.9426667"><ele>393.0</ele><time>2026-04-19T08:27:19.234Z</time></trkpt><trkpt lat="43.5322917" lon="11.94279"><ele>393.0</ele><time>2026-04-19T08:27:20.234Z</time></trkpt><trkpt lat="43.532265" lon="11.9429283"><ele>395.2</ele><time>2026-04-19T08:27:21.235Z</time></trkpt><trkpt lat="43.5322267" lon="11.9430683"><ele>397.4</ele><time>2026-04-19T08:27:22.234Z</time></trkpt><trkpt lat="43.53217" lon="11.943195"><ele>399.59999999999997</ele><time>2026-04-19T08:27:23.234Z</time></trkpt><trkpt lat="43.532115" lon="11.9433017"><ele>401.79999999999995</ele><time>2026-04-19T08:27:24.234Z</time></trkpt><trkpt lat="43.53206" lon="11.94339"><ele>404.0</ele><time>2026-04-19T08:27:25.233Z</time></trkpt><trkpt lat="43.5320067" lon="11.9434667"><ele>404.0</ele><time>2026-04-19T08:27:26.234Z</time></trkpt><trkpt lat="43.5319533" lon="11.943545"><ele>404.0</ele><time>2026-04-19T08:27:27.233Z</time></trkpt><trkpt lat="43.5318883" lon="11.9436317"><ele>404.0</ele><time>2026-04-19T08:27:28.234Z</time></trkpt><trkpt lat="43.5318083" lon="11.9437367"><ele>404.0</ele><time>2026-04-19T08:27:29.236Z</time></trkpt><trkpt lat="43.5317417" lon="11.9438317"><ele>404.0</ele><time>2026-04-19T08:27:30.233Z</time></trkpt><trkpt lat="43.5316883" lon="11.943925"><ele>404.0</ele><time>2026-04-19T08:27:31.233Z</time></trkpt><trkpt lat="43.5316383" lon="11.9440033"><ele>404.0</ele><time>2026-04-19T08:27:32.233Z</time></trkpt><trkpt lat="43.5315917" lon="11.9440617"><ele>404.0</ele><time>2026-04-19T08:27:33.233Z</time></trkpt><trkpt lat="43.531495" lon="11.9441483"><ele>404.0</ele><time>2026-04-19T08:27:35.233Z</time></trkpt><trkpt lat="43.5313998" lon="11.9442318"><ele>404.0</ele><time>2026-04-19T08:27:37.233Z</time></trkpt><trkpt lat="43.5313467" lon="11.9443714"><ele>406.66666666666663</ele><time>2026-04-19T08:27:39.232Z</time></trkpt><trkpt lat="43.5313347" lon="11.9444822"><ele>409.3333333333333</ele><time>2026-04-19T08:27:40.233Z</time></trkpt><trkpt lat="43.5313409" lon="11.9446128"><ele>412.0</ele><time>2026-04-19T08:27:41.232Z</time></trkpt><trkpt lat="43.5313545" lon="11.94473"><ele>414.66666666666663</ele><time>2026-04-19T08:27:42.233Z</time></trkpt><trkpt lat="43.5313627" lon="11.9448445"><ele>417.3333333333333</ele><time>2026-04-19T08:27:43.233Z</time></trkpt><trkpt lat="43.531357" lon="11.9449522"><ele>420.0</ele><time>2026-04-19T08:27:44.234Z</time></trkpt><trkpt lat="43.5313398" lon="11.9450557"><ele>421.1666666666667</ele><time>2026-04-19T08:27:45.234Z</time></trkpt><trkpt lat="43.5313124" lon="11.9451683"><ele>422.33333333333337</ele><time>2026-04-19T08:27:46.234Z</time></trkpt><trkpt lat="43.5312794" lon="11.9452753"><ele>423.5</ele><time>2026-04-19T08:27:47.233Z</time></trkpt><trkpt lat="43.5312539" lon="11.945366"><ele>424.6666666666667</ele><time>2026-04-19T08:27:48.234Z</time></trkpt><trkpt lat="43.5312267" lon="11.9454464"><ele>425.83333333333337</ele><time>2026-04-19T08:27:49.233Z</time></trkpt><trkpt lat="43.5311661" lon="11.9455555"><ele>427.0</ele><time>2026-04-19T08:27:51.234Z</time></trkpt><trkpt lat="43.5310666" lon="11.9455555"><ele>427.0</ele><time>2026-04-19T08:27:53.235Z</time></trkpt><trkpt lat="43.5309661" lon="11.9455021"><ele>427.00000000000006</ele><time>2026-04-19T08:27:54.235Z</time></trkpt><trkpt lat="43.5308678" lon="11.9454634"><ele>427.00000000000006</ele><time>2026-04-19T08:27:55.235Z</time></trkpt><trkpt lat="43.5307697" lon="11.9454343"><ele>427.0</ele><time>2026-04-19T08:27:56.235Z</time></trkpt><trkpt lat="43.5306836" lon="11.9454032"><ele>427.0</ele><time>2026-04-19T08:27:57.234Z</time></trkpt><trkpt lat="43.5306123" lon="11.9453898"><ele>427.0</ele><time>2026-04-19T08:27:58.233Z</time></trkpt><trkpt lat="43.5305029" lon="11.9454195"><ele>427.00000000000006</ele><time>2026-04-19T08:28:00.233Z</time></trkpt><trkpt lat="43.5303949" lon="11.9454876"><ele>427.00000000000006</ele><time>2026-04-19T08:28:02.233Z</time></trkpt><trkpt lat="43.530271" lon="11.9455111"><ele>427.0</ele><time>2026-04-19T08:28:04.232Z</time></trkpt><trkpt lat="43.5301977" lon="11.9454786"><ele>427.0</ele><time>2026-04-19T08:28:05.232Z</time></trkpt><trkpt lat="43.5301258" lon="11.9454277"><ele>426.8</ele><time>2026-04-19T08:28:06.232Z</time></trkpt><trkpt lat="43.5300556" lon="11.9453609"><ele>426.6</ele><time>2026-04-19T08:28:07.233Z</time></trkpt><trkpt lat="43.5299636" lon="11.9452932"><ele>426.40000000000003</ele><time>2026-04-19T08:28:08.234Z</time></trkpt><trkpt lat="43.529875" lon="11.9452223"><ele>426.20000000000005</ele><time>2026-04-19T08:28:09.233Z</time></trkpt><trkpt lat="43.5297998" lon="11.9451515"><ele>426.0</ele><time>2026-04-19T08:28:10.238Z</time></trkpt><trkpt lat="43.5297329" lon="11.9450906"><ele>424.3333333333333</ele><time>2026-04-19T08:28:11.232Z</time></trkpt><trkpt lat="43.5296339" lon="11.9450264"><ele>422.66666666666663</ele><time>2026-04-19T08:28:13.233Z</time></trkpt><trkpt lat="43.5295501" lon="11.9450348"><ele>421.0</ele><time>2026-04-19T08:28:15.232Z</time></trkpt><trkpt lat="43.5294794" lon="11.9451422"><ele>419.3333333333333</ele><time>2026-04-19T08:28:17.234Z</time></trkpt><trkpt lat="43.5294347" lon="11.9452167"><ele>417.66666666666663</ele><time>2026-04-19T08:28:18.235Z</time></trkpt><trkpt lat="43.529382" lon="11.9452996"><ele>416.0</ele><time>2026-04-19T08:28:19.233Z</time></trkpt><trkpt lat="43.5293278" lon="11.9454064"><ele>415.99999999999994</ele><time>2026-04-19T08:28:20.234Z</time></trkpt><trkpt lat="43.5292774" lon="11.9455198"><ele>416.0</ele><time>2026-04-19T08:28:21.234Z</time></trkpt><trkpt lat="43.5292338" lon="11.9456236"><ele>416.0</ele><time>2026-04-19T08:28:22.233Z</time></trkpt><trkpt lat="43.5291936" lon="11.9457139"><ele>416.0</ele><time>2026-04-19T08:28:23.235Z</time></trkpt><trkpt lat="43.5291654" lon="11.9457978"><ele>415.99999999999994</ele><time>2026-04-19T08:28:24.235Z</time></trkpt><trkpt lat="43.5291544" lon="11.9458922"><ele>416.0</ele><time>2026-04-19T08:28:25.233Z</time></trkpt><trkpt lat="43.5291588" lon="11.9459857"><ele>417.66666666666663</ele><time>2026-04-19T08:28:26.234Z</time></trkpt><trkpt lat="43.5291673" lon="11.9460855"><ele>419.3333333333333</ele><time>2026-04-19T08:28:27.233Z</time></trkpt><trkpt lat="43.5291759" lon="11.946197"><ele>421.0</ele><time>2026-04-19T08:28:28.234Z</time></trkpt><trkpt lat="43.5291843" lon="11.9463144"><ele>422.66666666666663</ele><time>2026-04-19T08:28:29.232Z</time></trkpt><trkpt lat="43.5291976" lon="11.9464316"><ele>424.3333333333333</ele><time>2026-04-19T08:28:30.232Z</time></trkpt><trkpt lat="43.5292063" lon="11.9465502"><ele>426.0</ele><time>2026-04-19T08:28:31.234Z</time></trkpt><trkpt lat="43.5292079" lon="11.946663"><ele>425.8333333333333</ele><time>2026-04-19T08:28:32.232Z</time></trkpt><trkpt lat="43.5292032" lon="11.9467711"><ele>425.66666666666663</ele><time>2026-04-19T08:28:33.232Z</time></trkpt><trkpt lat="43.5291828" lon="11.9468635"><ele>425.5</ele><time>2026-04-19T08:28:34.234Z</time></trkpt><trkpt lat="43.5291583" lon="11.9469517"><ele>425.3333333333333</ele><time>2026-04-19T08:28:35.232Z</time></trkpt><trkpt lat="43.5291361" lon="11.9471205"><ele>425.16666666666663</ele><time>2026-04-19T08:28:37.232Z</time></trkpt><trkpt lat="43.5291655" lon="11.9472515"><ele>425.0</ele><time>2026-04-19T08:28:39.232Z</time></trkpt><trkpt lat="43.5292306" lon="11.9473715"><ele>424.99999999999994</ele><time>2026-04-19T08:28:41.233Z</time></trkpt><trkpt lat="43.5292839" lon="11.9474319"><ele>425.0</ele><time>2026-04-19T08:28:42.232Z</time></trkpt><trkpt lat="43.529342" lon="11.9474872"><ele>425.0</ele><time>2026-04-19T08:28:43.233Z</time></trkpt><trkpt lat="43.5294195" lon="11.9475525"><ele>425.0</ele><time>2026-04-19T08:28:45.232Z</time></trkpt><trkpt lat="43.5294897" lon="11.9476123"><ele>424.99999999999994</ele><time>2026-04-19T08:28:47.233Z</time></trkpt><trkpt lat="43.5295833" lon="11.94772"><ele>425.0</ele><time>2026-04-19T08:28:49.234Z</time></trkpt><trkpt lat="43.5296239" lon="11.9477913"><ele>427.8</ele><time>2026-04-19T08:28:50.235Z</time></trkpt><trkpt lat="43.5296768" lon="11.9479229"><ele>430.6</ele><time>2026-04-19T08:28:52.234Z</time></trkpt><trkpt lat="43.5296896" lon="11.9480603"><ele>433.4</ele><time>2026-04-19T08:28:54.235Z</time></trkpt><trkpt lat="43.5296389" lon="11.9481682"><ele>436.2</ele><time>2026-04-19T08:28:56.234Z</time></trkpt><trkpt lat="43.52952" lon="11.9482408"><ele>439.0</ele><time>2026-04-19T08:28:58.234Z</time></trkpt><trkpt lat="43.5294081" lon="11.9482181"><ele>439.0</ele><time>2026-04-19T08:28:59.235Z</time></trkpt><trkpt lat="43.5293085" lon="11.9481767"><ele>439.0</ele><time>2026-04-19T08:29:00.233Z</time></trkpt><trkpt lat="43.5292344" lon="11.9481269"><ele>439.0</ele><time>2026-04-19T08:29:01.232Z</time></trkpt><trkpt lat="43.5291709" lon="11.9480897"><ele>439.0</ele><time>2026-04-19T08:29:02.232Z</time></trkpt><trkpt lat="43.5290559" lon="11.9480594"><ele>439.0</ele><time>2026-04-19T08:29:04.233Z</time></trkpt><trkpt lat="43.528961" lon="11.9481224"><ele>439.0</ele><time>2026-04-19T08:29:06.232Z</time></trkpt><trkpt lat="43.528918" lon="11.9482399"><ele>439.0</ele><time>2026-04-19T08:29:08.232Z</time></trkpt><trkpt lat="43.528953" lon="11.9483626"><ele>439.0</ele><time>2026-04-19T08:29:10.233Z</time></trkpt><trkpt lat="43.5290468" lon="11.9484422"><ele>439.0</ele><time>2026-04-19T08:29:12.234Z</time></trkpt><trkpt lat="43.5291126" lon="11.9484699"><ele>439.0</ele><time>2026-04-19T08:29:13.233Z</time></trkpt><trkpt lat="43.5291943" lon="11.948501"><ele>444.2</ele><time>2026-04-19T08:29:14.233Z</time></trkpt><trkpt lat="43.5292777" lon="11.9485224"><ele>449.4</ele><time>2026-04-19T08:29:15.232Z</time></trkpt><trkpt lat="43.5293694" lon="11.9485314"><ele>454.6</ele><time>2026-04-19T08:29:16.232Z</time></trkpt><trkpt lat="43.5294623" lon="11.9485436"><ele>459.8</ele><time>2026-04-19T08:29:17.235Z</time></trkpt><trkpt lat="43.5295634" lon="11.9485716"><ele>465.0</ele><time>2026-04-19T08:29:18.234Z</time></trkpt><trkpt lat="43.5296597" lon="11.9486134"><ele>466.1666666666667</ele><time>2026-04-19T08:29:19.233Z</time></trkpt><trkpt lat="43.5297543" lon="11.9486636"><ele>467.33333333333337</ele><time>2026-04-19T08:29:20.234Z</time></trkpt><trkpt lat="43.5298373" lon="11.9487231"><ele>468.5</ele><time>2026-04-19T08:29:21.233Z</time></trkpt><trkpt lat="43.5299067" lon="11.9487793"><ele>469.6666666666667</ele><time>2026-04-19T08:29:22.233Z</time></trkpt><trkpt lat="43.5299593" lon="11.9488275"><ele>470.83333333333337</ele><time>2026-04-19T08:29:23.235Z</time></trkpt><trkpt lat="43.5300385" lon="11.9488777"><ele>472.0</ele><time>2026-04-19T08:29:25.232Z</time></trkpt><trkpt lat="43.5301099" lon="11.9488096"><ele>472.0</ele><time>2026-04-19T08:29:27.232Z</time></trkpt><trkpt lat="43.5301264" lon="11.9487255"><ele>472.00000000000006</ele><time>2026-04-19T08:29:28.233Z</time></trkpt><trkpt lat="43.5301234" lon="11.9486071"><ele>472.00000000000006</ele><time>2026-04-19T08:29:29.232Z</time></trkpt><trkpt lat="43.5301045" lon="11.9484696"><ele>472.0</ele><time>2026-04-19T08:29:30.233Z</time></trkpt><trkpt lat="43.5300695" lon="11.9483274"><ele>472.0</ele><time>2026-04-19T08:29:31.233Z</time></trkpt><trkpt lat="43.5300254" lon="11.9481868"><ele>468.6</ele><time>2026-04-19T08:29:32.233Z</time></trkpt><trkpt lat="43.5299772" lon="11.9480588"><ele>465.20000000000005</ele><time>2026-04-19T08:29:33.232Z</time></trkpt><trkpt lat="43.5299232" lon="11.9479253"><ele>461.8</ele><time>2026-04-19T08:29:34.233Z</time></trkpt><trkpt lat="43.5298681" lon="11.9477916"><ele>458.4</ele><time>2026-04-19T08:29:35.234Z</time></trkpt><trkpt lat="43.529813" lon="11.9476638"><ele>455.0</ele><time>2026-04-19T08:29:36.232Z</time></trkpt><trkpt lat="43.5297595" lon="11.9475475"><ele>454.99999999999994</ele><time>2026-04-19T08:29:37.233Z</time></trkpt><trkpt lat="43.529714" lon="11.94745"><ele>455.0</ele><time>2026-04-19T08:29:38.234Z</time></trkpt><trkpt lat="43.5296733" lon="11.9473576"><ele>455.0</ele><time>2026-04-19T08:29:39.234Z</time></trkpt><trkpt lat="43.5296418" lon="11.9472769"><ele>455.0</ele><time>2026-04-19T08:29:40.233Z</time></trkpt><trkpt lat="43.5295985" lon="11.9471373"><ele>454.99999999999994</ele><time>2026-04-19T08:29:42.232Z</time></trkpt><trkpt lat="43.529602" lon="11.9469898"><ele>455.0</ele><time>2026-04-19T08:29:44.234Z</time></trkpt><trkpt lat="43.5296727" lon="11.9468663"><ele>455.0</ele><time>2026-04-19T08:29:46.233Z</time></trkpt><trkpt lat="43.5297325" lon="11.9468385"><ele>455.0</ele><time>2026-04-19T08:29:47.233Z</time></trkpt><trkpt lat="43.5298076" lon="11.9468248"><ele>455.0</ele><time>2026-04-19T08:29:48.234Z</time></trkpt><trkpt lat="43.5298953" lon="11.9468394"><ele>455.0</ele><time>2026-04-19T08:29:49.234Z</time></trkpt><trkpt lat="43.5300029" lon="11.9468836"><ele>455.0</ele><time>2026-04-19T08:29:50.233Z</time></trkpt><trkpt lat="43.5301239" lon="11.9469538"><ele>454.99999999999994</ele><time>2026-04-19T08:29:51.234Z</time></trkpt><trkpt lat="43.5302287" lon="11.9470219"><ele>455.0</ele><time>2026-04-19T08:29:52.233Z</time></trkpt><trkpt lat="43.5303116" lon="11.9470797"><ele>455.0</ele><time>2026-04-19T08:29:53.235Z</time></trkpt><trkpt lat="43.5303716" lon="11.9471245"><ele>455.0</ele><time>2026-04-19T08:29:54.233Z</time></trkpt><trkpt lat="43.5304557" lon="11.9472067"><ele>454.99999999999994</ele><time>2026-04-19T08:29:56.234Z</time></trkpt><trkpt lat="43.5304475" lon="11.9472948"><ele>455.0</ele><time>2026-04-19T08:29:58.233Z</time></trkpt><trkpt lat="43.5303285" lon="11.9473279"><ele>454.99999999999994</ele><time>2026-04-19T08:30:00.232Z</time></trkpt><trkpt lat="43.530256" lon="11.9473204"><ele>455.0</ele><time>2026-04-19T08:30:01.232Z</time></trkpt><trkpt lat="43.5301901" lon="11.9473196"><ele>455.0</ele><time>2026-04-19T08:30:02.233Z</time></trkpt><trkpt lat="43.5300959" lon="11.9474001"><ele>455.0</ele><time>2026-04-19T08:30:04.235Z</time></trkpt><trkpt lat="43.5300755" lon="11.9475496"><ele>454.99999999999994</ele><time>2026-04-19T08:30:06.233Z</time></trkpt><trkpt lat="43.5301024" lon="11.9476469"><ele>455.0</ele><time>2026-04-19T08:30:07.235Z</time></trkpt><trkpt lat="43.5301479" lon="11.9477625"><ele>455.0</ele><time>2026-04-19T08:30:08.234Z</time></trkpt><trkpt lat="43.530207" lon="11.9479018"><ele>455.0</ele><time>2026-04-19T08:30:09.234Z</time></trkpt><trkpt lat="43.5302699" lon="11.9480332"><ele>455.0</ele><time>2026-04-19T08:30:10.234Z</time></trkpt><trkpt lat="43.5303287" lon="11.9481635"><ele>455.0</ele><time>2026-04-19T08:30:11.234Z</time></trkpt><trkpt lat="43.5303866" lon="11.9482983"><ele>463.2</ele><time>2026-04-19T08:30:12.232Z</time></trkpt><trkpt lat="43.530431" lon="11.9484345"><ele>471.4</ele><time>2026-04-19T08:30:13.232Z</time></trkpt><trkpt lat="43.5304658" lon="11.9485666"><ele>479.6</ele><time>2026-04-19T08:30:14.233Z</time></trkpt><trkpt lat="43.5304892" lon="11.9487034"><ele>487.8</ele><time>2026-04-19T08:30:15.234Z</time></trkpt><trkpt lat="43.5305059" lon="11.948831"><ele>496.0</ele><time>2026-04-19T08:30:16.233Z</time></trkpt><trkpt lat="43.5305186" lon="11.9489567"><ele>496.00000000000006</ele><time>2026-04-19T08:30:17.232Z</time></trkpt><trkpt lat="43.5305288" lon="11.9490744"><ele>496.0</ele><time>2026-04-19T08:30:18.234Z</time></trkpt><trkpt lat="43.5305418" lon="11.9491922"><ele>496.0</ele><time>2026-04-19T08:30:19.232Z</time></trkpt><trkpt lat="43.5305429" lon="11.9493091"><ele>496.0</ele><time>2026-04-19T08:30:20.234Z</time></trkpt><trkpt lat="43.5305369" lon="11.9494271"><ele>496.00000000000006</ele><time>2026-04-19T08:30:21.233Z</time></trkpt><trkpt lat="43.5305226" lon="11.9495488"><ele>496.0</ele><time>2026-04-19T08:30:22.233Z</time></trkpt><trkpt lat="43.5305043" lon="11.9496704"><ele>496.6666666666667</ele><time>2026-04-19T08:30:23.232Z</time></trkpt><trkpt lat="43.5304794" lon="11.9497884"><ele>497.33333333333337</ele><time>2026-04-19T08:30:24.234Z</time></trkpt><trkpt lat="43.5304593" lon="11.9498908"><ele>498.0</ele><time>2026-04-19T08:30:25.232Z</time></trkpt><trkpt lat="43.5304258" lon="11.9500471"><ele>498.66666666666663</ele><time>2026-04-19T08:30:27.232Z</time></trkpt><trkpt lat="43.5303716" lon="11.9500935"><ele>499.3333333333333</ele><time>2026-04-19T08:30:29.232Z</time></trkpt><trkpt lat="43.5303005" lon="11.9500585"><ele>500.0</ele><time>2026-04-19T08:30:31.234Z</time></trkpt><trkpt lat="43.5302172" lon="11.9499399"><ele>499.99999999999994</ele><time>2026-04-19T08:30:33.233Z</time></trkpt><trkpt lat="43.5301676" lon="11.9498431"><ele>500.0</ele><time>2026-04-19T08:30:34.233Z</time></trkpt><trkpt lat="43.5301207" lon="11.9497509"><ele>500.0</ele><time>2026-04-19T08:30:35.233Z</time></trkpt><trkpt lat="43.5300712" lon="11.9496677"><ele>500.0</ele><time>2026-04-19T08:30:36.232Z</time></trkpt><trkpt lat="43.5300209" lon="11.9495965"><ele>499.99999999999994</ele><time>2026-04-19T08:30:37.235Z</time></trkpt><trkpt lat="43.5299648" lon="11.9495343"><ele>500.0</ele><time>2026-04-19T08:30:38.235Z</time></trkpt><trkpt lat="43.529897" lon="11.9494801"><ele>499.99999999999994</ele><time>2026-04-19T08:30:39.233Z</time></trkpt><trkpt lat="43.5298248" lon="11.9494351"><ele>500.0</ele><time>2026-04-19T08:30:40.234Z</time></trkpt><trkpt lat="43.5297488" lon="11.9493908"><ele>500.0</ele><time>2026-04-19T08:30:41.233Z</time></trkpt><trkpt lat="43.5296699" lon="11.9493489"><ele>500.0</ele><time>2026-04-19T08:30:42.233Z</time></trkpt><trkpt lat="43.5295895" lon="11.9493107"><ele>499.99999999999994</ele><time>2026-04-19T08:30:43.233Z</time></trkpt><trkpt lat="43.5295117" lon="11.9492838"><ele>500.0</ele><time>2026-04-19T08:30:44.233Z</time></trkpt><trkpt lat="43.5294427" lon="11.9492745"><ele>497.8333333333333</ele><time>2026-04-19T08:30:45.233Z</time></trkpt><trkpt lat="43.5293407" lon="11.9493526"><ele>495.66666666666663</ele><time>2026-04-19T08:30:47.232Z</time></trkpt><trkpt lat="43.5293081" lon="11.9494296"><ele>493.5</ele><time>2026-04-19T08:30:48.234Z</time></trkpt><trkpt lat="43.5292839" lon="11.9495311"><ele>491.33333333333337</ele><time>2026-04-19T08:30:49.233Z</time></trkpt><trkpt lat="43.5292619" lon="11.9496414"><ele>489.1666666666667</ele><time>2026-04-19T08:30:50.233Z</time></trkpt><trkpt lat="43.5292407" lon="11.9497628"><ele>487.0</ele><time>2026-04-19T08:30:51.232Z</time></trkpt><trkpt lat="43.5292248" lon="11.9499097"><ele>492.40000000000003</ele><time>2026-04-19T08:30:52.233Z</time></trkpt><trkpt lat="43.529209" lon="11.9500574"><ele>497.80000000000007</ele><time>2026-04-19T08:30:53.232Z</time></trkpt><trkpt lat="43.5291916" lon="11.9501988"><ele>503.2</ele><time>2026-04-19T08:30:54.233Z</time></trkpt><trkpt lat="43.5291527" lon="11.9503275"><ele>508.6</ele><time>2026-04-19T08:30:55.233Z</time></trkpt><trkpt lat="43.5291066" lon="11.9504234"><ele>514.0</ele><time>2026-04-19T08:30:56.233Z</time></trkpt><trkpt lat="43.5290697" lon="11.9505066"><ele>514.0</ele><time>2026-04-19T08:30:57.232Z</time></trkpt><trkpt lat="43.5290362" lon="11.9506049"><ele>514.0</ele><time>2026-04-19T08:30:58.234Z</time></trkpt><trkpt lat="43.5290098" lon="11.9507095"><ele>514.0</ele><time>2026-04-19T08:30:59.232Z</time></trkpt><trkpt lat="43.5289858" lon="11.9508131"><ele>514.0</ele><time>2026-04-19T08:31:00.233Z</time></trkpt><trkpt lat="43.5289533" lon="11.9509034"><ele>514.0</ele><time>2026-04-19T08:31:01.234Z</time></trkpt><trkpt lat="43.5288562" lon="11.9509477"><ele>514.0</ele><time>2026-04-19T08:31:03.234Z</time></trkpt><trkpt lat="43.5288038" lon="11.9508968"><ele>514.0</ele><time>2026-04-19T08:31:04.233Z</time></trkpt><trkpt lat="43.5287405" lon="11.9508085"><ele>514.0</ele><time>2026-04-19T08:31:05.232Z</time></trkpt><trkpt lat="43.5286699" lon="11.9506891"><ele>514.0</ele><time>2026-04-19T08:31:06.235Z</time></trkpt><trkpt lat="43.528604" lon="11.9505697"><ele>514.0</ele><time>2026-04-19T08:31:07.234Z</time></trkpt><trkpt lat="43.5285438" lon="11.9504673"><ele>514.0</ele><time>2026-04-19T08:31:08.235Z</time></trkpt><trkpt lat="43.5284864" lon="11.950371"><ele>513.4</ele><time>2026-04-19T08:31:09.233Z</time></trkpt><trkpt lat="43.5284259" lon="11.9502715"><ele>512.8</ele><time>2026-04-19T08:31:10.234Z</time></trkpt><trkpt lat="43.5283563" lon="11.950184"><ele>512.2</ele><time>2026-04-19T08:31:11.234Z</time></trkpt><trkpt lat="43.5282845" lon="11.9501014"><ele>511.6</ele><time>2026-04-19T08:31:12.234Z</time></trkpt><trkpt lat="43.52822" lon="11.9500296"><ele>511.0</ele><time>2026-04-19T08:31:13.233Z</time></trkpt><trkpt lat="43.5281304" lon="11.9499817"><ele>511.00000000000006</ele><time>2026-04-19T08:31:15.233Z</time></trkpt><trkpt lat="43.52804" lon="11.9500209"><ele>511.0</ele><time>2026-04-19T08:31:17.233Z</time></trkpt><trkpt lat="43.5279719" lon="11.950128"><ele>511.0</ele><time>2026-04-19T08:31:19.233Z</time></trkpt><trkpt lat="43.5279456" lon="11.9502145"><ele>511.0</ele><time>2026-04-19T08:31:21.235Z</time></trkpt><trkpt lat="43.5279287" lon="11.9503319"><ele>511.00000000000006</ele><time>2026-04-19T08:31:24.233Z</time></trkpt><trkpt lat="43.5279001" lon="11.9504586"><ele>511.0</ele><time>2026-04-19T08:31:27.234Z</time></trkpt><trkpt lat="43.5278806" lon="11.9505686"><ele>513.5</ele><time>2026-04-19T08:31:29.232Z</time></trkpt><trkpt lat="43.5278479" lon="11.950678"><ele>516.0</ele><time>2026-04-19T08:31:31.234Z</time></trkpt><trkpt lat="43.5278083" lon="11.9507857"><ele>518.5</ele><time>2026-04-19T08:31:33.234Z</time></trkpt><trkpt lat="43.5277705" lon="11.950893"><ele>521.0</ele><time>2026-04-19T08:31:35.233Z</time></trkpt><trkpt lat="43.5277461" lon="11.9509766"><ele>523.5</ele><time>2026-04-19T08:31:37.234Z</time></trkpt><trkpt lat="43.5277047" lon="11.9510796"><ele>526.0</ele><time>2026-04-19T08:31:40.233Z</time></trkpt><trkpt lat="43.5276177" lon="11.9511089"><ele>526.0</ele><time>2026-04-19T08:31:42.236Z</time></trkpt><trkpt lat="43.5274963" lon="11.9510588"><ele>526.0</ele><time>2026-04-19T08:31:44.234Z</time></trkpt><trkpt lat="43.5274327" lon="11.9510117"><ele>526.0</ele><time>2026-04-19T08:31:45.233Z</time></trkpt><trkpt lat="43.5273644" lon="11.9509682"><ele>526.0</ele><time>2026-04-19T08:31:46.233Z</time></trkpt><trkpt lat="43.5272976" lon="11.9509339"><ele>526.0</ele><time>2026-04-19T08:31:47.234Z</time></trkpt><trkpt lat="43.5272301" lon="11.9509083"><ele>526.0</ele><time>2026-04-19T08:31:48.234Z</time></trkpt><trkpt lat="43.5271643" lon="11.9508876"><ele>520.4</ele><time>2026-04-19T08:31:49.232Z</time></trkpt><trkpt lat="43.527072" lon="11.9508469"><ele>514.8</ele><time>2026-04-19T08:31:51.232Z</time></trkpt><trkpt lat="43.5269909" lon="11.9508494"><ele>509.19999999999993</ele><time>2026-04-19T08:31:53.233Z</time></trkpt><trkpt lat="43.5269174" lon="11.9508896"><ele>503.59999999999997</ele><time>2026-04-19T08:31:55.232Z</time></trkpt><trkpt lat="43.5268516" lon="11.9510328"><ele>498.0</ele><time>2026-04-19T08:31:57.232Z</time></trkpt><trkpt lat="43.5268346" lon="11.9511393"><ele>498.0</ele><time>2026-04-19T08:31:58.232Z</time></trkpt><trkpt lat="43.5268217" lon="11.9512738"><ele>498.0</ele><time>2026-04-19T08:31:59.234Z</time></trkpt><trkpt lat="43.5268084" lon="11.9514099"><ele>498.0</ele><time>2026-04-19T08:32:00.234Z</time></trkpt><trkpt lat="43.5268" lon="11.9515298"><ele>498.0</ele><time>2026-04-19T08:32:01.232Z</time></trkpt><trkpt lat="43.5267936" lon="11.9516198"><ele>498.0</ele><time>2026-04-19T08:32:02.233Z</time></trkpt><trkpt lat="43.5267722" lon="11.9517291"><ele>498.0</ele><time>2026-04-19T08:32:04.232Z</time></trkpt><trkpt lat="43.5266985" lon="11.9518055"><ele>503.2</ele><time>2026-04-19T08:32:06.234Z</time></trkpt><trkpt lat="43.5265764" lon="11.9518775"><ele>508.4</ele><time>2026-04-19T08:32:08.233Z</time></trkpt><trkpt lat="43.5264928" lon="11.9519353"><ele>513.5999999999999</ele><time>2026-04-19T08:32:09.232Z</time></trkpt><trkpt lat="43.5264136" lon="11.9519979"><ele>518.8</ele><time>2026-04-19T08:32:10.233Z</time></trkpt><trkpt lat="43.5263363" lon="11.9520493"><ele>524.0</ele><time>2026-04-19T08:32:11.232Z</time></trkpt><trkpt lat="43.526252" lon="11.9520835"><ele>519.1666666666666</ele><time>2026-04-19T08:32:12.233Z</time></trkpt><trkpt lat="43.5261559" lon="11.9520977"><ele>514.3333333333333</ele><time>2026-04-19T08:32:13.233Z</time></trkpt><trkpt lat="43.5260674" lon="11.9520817"><ele>509.5</ele><time>2026-04-19T08:32:14.234Z</time></trkpt><trkpt lat="43.5259919" lon="11.9520575"><ele>504.66666666666663</ele><time>2026-04-19T08:32:15.232Z</time></trkpt><trkpt lat="43.5258847" lon="11.9520526"><ele>499.8333333333333</ele><time>2026-04-19T08:32:17.233Z</time></trkpt><trkpt lat="43.5258538" lon="11.9521438"><ele>495.0</ele><time>2026-04-19T08:32:19.233Z</time></trkpt><trkpt lat="43.5258668" lon="11.9522313"><ele>495.0</ele><time>2026-04-19T08:32:20.234Z</time></trkpt><trkpt lat="43.5259024" lon="11.9523432"><ele>495.0</ele><time>2026-04-19T08:32:21.233Z</time></trkpt><trkpt lat="43.5259385" lon="11.9524571"><ele>495.0</ele><time>2026-04-19T08:32:22.233Z</time></trkpt><trkpt lat="43.5259793" lon="11.9525851"><ele>495.0</ele><time>2026-04-19T08:32:23.234Z</time></trkpt><trkpt lat="43.5260084" lon="11.9527142"><ele>495.0</ele><time>2026-04-19T08:32:24.235Z</time></trkpt><trkpt lat="43.5260235" lon="11.9528465"><ele>494.6666666666667</ele><time>2026-04-19T08:32:25.233Z</time></trkpt><trkpt lat="43.5260297" lon="11.9529828"><ele>494.33333333333337</ele><time>2026-04-19T08:32:26.233Z</time></trkpt><trkpt lat="43.5260344" lon="11.9531046"><ele>494.0</ele><time>2026-04-19T08:32:27.233Z</time></trkpt><trkpt lat="43.5260393" lon="11.9532049"><ele>493.6666666666667</ele><time>2026-04-19T08:32:28.232Z</time></trkpt><trkpt lat="43.5260536" lon="11.9533293"><ele>493.33333333333337</ele><time>2026-04-19T08:32:30.234Z</time></trkpt><trkpt lat="43.52612" lon="11.9533383"><ele>493.0</ele><time>2026-04-19T08:32:55.234Z</time></trkpt><trkpt lat="43.5261567" lon="11.953235"><ele>493.0</ele><time>2026-04-19T08:32:58.233Z</time></trkpt><trkpt lat="43.5261667" lon="11.9531267"><ele>492.99999999999994</ele><time>2026-04-19T08:33:00.233Z</time></trkpt><trkpt lat="43.526185" lon="11.9530183"><ele>492.99999999999994</ele><time>2026-04-19T08:33:02.235Z</time></trkpt><trkpt lat="43.5262167" lon="11.9529033"><ele>493.0</ele><time>2026-04-19T08:33:04.233Z</time></trkpt><trkpt lat="43.526255" lon="11.9527667"><ele>493.0</ele><time>2026-04-19T08:33:06.233Z</time></trkpt><trkpt lat="43.5263083" lon="11.9526383"><ele>500.79999999999995</ele><time>2026-04-19T08:33:08.235Z</time></trkpt><trkpt lat="43.5263617" lon="11.9525783"><ele>508.59999999999997</ele><time>2026-04-19T08:33:10.232Z</time></trkpt><trkpt lat="43.5264322" lon="11.9526555"><ele>516.4000000000001</ele><time>2026-04-19T08:33:13.234Z</time></trkpt><trkpt lat="43.5264396" lon="11.9528341"><ele>524.2</ele><time>2026-04-19T08:33:15.233Z</time></trkpt><trkpt lat="43.5264438" lon="11.952936"><ele>532.0</ele><time>2026-04-19T08:33:16.233Z</time></trkpt><trkpt lat="43.5264634" lon="11.9530584"><ele>532.0</ele><time>2026-04-19T08:33:17.233Z</time></trkpt><trkpt lat="43.5264926" lon="11.9531798"><ele>532.0</ele><time>2026-04-19T08:33:18.234Z</time></trkpt><trkpt lat="43.5265384" lon="11.9532892"><ele>532.0</ele><time>2026-04-19T08:33:19.232Z</time></trkpt><trkpt lat="43.5265897" lon="11.9533732"><ele>532.0</ele><time>2026-04-19T08:33:20.232Z</time></trkpt><trkpt lat="43.5266472" lon="11.9534419"><ele>532.0</ele><time>2026-04-19T08:33:21.232Z</time></trkpt><trkpt lat="43.5267047" lon="11.9534965"><ele>532.0</ele><time>2026-04-19T08:33:22.232Z</time></trkpt><trkpt lat="43.5267919" lon="11.9535653"><ele>532.0</ele><time>2026-04-19T08:33:24.232Z</time></trkpt><trkpt lat="43.5268529" lon="11.9535249"><ele>532.0</ele><time>2026-04-19T08:33:27.234Z</time></trkpt><trkpt lat="43.5268528" lon="11.9534282"><ele>532.0</ele><time>2026-04-19T08:33:29.234Z</time></trkpt><trkpt lat="43.5268339" lon="11.9532848"><ele>532.0</ele><time>2026-04-19T08:33:31.232Z</time></trkpt><trkpt lat="43.5268424" lon="11.9531154"><ele>532.0</ele><time>2026-04-19T08:33:33.233Z</time></trkpt><trkpt lat="43.5268794" lon="11.9530154"><ele>532.0</ele><time>2026-04-19T08:33:35.232Z</time></trkpt><trkpt lat="43.526954" lon="11.9530392"><ele>532.0</ele><time>2026-04-19T08:33:37.233Z</time></trkpt><trkpt lat="43.5270089" lon="11.9531265"><ele>532.0</ele><time>2026-04-19T08:33:39.233Z</time></trkpt><trkpt lat="43.5270826" lon="11.9532583"><ele>532.0</ele><time>2026-04-19T08:33:41.232Z</time></trkpt><trkpt lat="43.5271314" lon="11.9533362"><ele>532.0</ele><time>2026-04-19T08:33:42.232Z</time></trkpt><trkpt lat="43.5271823" lon="11.9534147"><ele>532.0</ele><time>2026-04-19T08:33:43.232Z</time></trkpt><trkpt lat="43.5272471" lon="11.9534838"><ele>532.0</ele><time>2026-04-19T08:33:44.233Z</time></trkpt><trkpt lat="43.527316" lon="11.9535399"><ele>534.8571428571429</ele><time>2026-04-19T08:33:45.232Z</time></trkpt><trkpt lat="43.527388" lon="11.9535865"><ele>537.7142857142858</ele><time>2026-04-19T08:33:46.234Z</time></trkpt><trkpt lat="43.5274545" lon="11.9536307"><ele>540.5714285714286</ele><time>2026-04-19T08:33:47.233Z</time></trkpt><trkpt lat="43.5275221" lon="11.9536765"><ele>543.4285714285714</ele><time>2026-04-19T08:33:48.234Z</time></trkpt><trkpt lat="43.5275924" lon="11.9537108"><ele>546.2857142857143</ele><time>2026-04-19T08:33:49.234Z</time></trkpt><trkpt lat="43.5276584" lon="11.9537471"><ele>549.1428571428571</ele><time>2026-04-19T08:33:50.235Z</time></trkpt><trkpt lat="43.5277229" lon="11.9537675"><ele>552.0</ele><time>2026-04-19T08:33:51.234Z</time></trkpt><trkpt lat="43.5277891" lon="11.9537757"><ele>552.0</ele><time>2026-04-19T08:33:52.235Z</time></trkpt><trkpt lat="43.5278667" lon="11.9537801"><ele>552.0</ele><time>2026-04-19T08:33:53.234Z</time></trkpt><trkpt lat="43.5279524" lon="11.9537776"><ele>552.0</ele><time>2026-04-19T08:33:54.234Z</time></trkpt><trkpt lat="43.5280345" lon="11.9537741"><ele>552.0</ele><time>2026-04-19T08:33:55.233Z</time></trkpt><trkpt lat="43.5281076" lon="11.9537836"><ele>552.0</ele><time>2026-04-19T08:33:56.233Z</time></trkpt><trkpt lat="43.5281703" lon="11.9538037"><ele>552.0</ele><time>2026-04-19T08:33:57.234Z</time></trkpt><trkpt lat="43.5282755" lon="11.9539123"><ele>554.1666666666666</ele><time>2026-04-19T08:33:59.235Z</time></trkpt><trkpt lat="43.5283298" lon="11.9540035"><ele>556.3333333333334</ele><time>2026-04-19T08:34:00.233Z</time></trkpt><trkpt lat="43.5283912" lon="11.954082"><ele>558.5</ele><time>2026-04-19T08:34:01.234Z</time></trkpt><trkpt lat="43.5284561" lon="11.9541458"><ele>560.6666666666667</ele><time>2026-04-19T08:34:02.234Z</time></trkpt><trkpt lat="43.5285206" lon="11.9542014"><ele>562.8333333333334</ele><time>2026-04-19T08:34:03.233Z</time></trkpt><trkpt lat="43.5285847" lon="11.9542556"><ele>565.0</ele><time>2026-04-19T08:34:04.233Z</time></trkpt><trkpt lat="43.5286894" lon="11.9543566"><ele>571.1428571428571</ele><time>2026-04-19T08:34:06.234Z</time></trkpt><trkpt lat="43.5287415" lon="11.9544146"><ele>577.2857142857142</ele><time>2026-04-19T08:34:07.234Z</time></trkpt><trkpt lat="43.5287799" lon="11.9544883"><ele>583.4285714285713</ele><time>2026-04-19T08:34:08.234Z</time></trkpt><trkpt lat="43.5288305" lon="11.9545635"><ele>589.5714285714286</ele><time>2026-04-19T08:34:09.233Z</time></trkpt><trkpt lat="43.5288897" lon="11.9546229"><ele>595.7142857142858</ele><time>2026-04-19T08:34:10.234Z</time></trkpt><trkpt lat="43.5289511" lon="11.954676"><ele>601.8571428571428</ele><time>2026-04-19T08:34:11.233Z</time></trkpt><trkpt lat="43.5290053" lon="11.9547323"><ele>608.0</ele><time>2026-04-19T08:34:12.234Z</time></trkpt><trkpt lat="43.5290529" lon="11.9548019"><ele>608.0</ele><time>2026-04-19T08:34:13.233Z</time></trkpt><trkpt lat="43.529084" lon="11.954887"><ele>608.0</ele><time>2026-04-19T08:34:14.233Z</time></trkpt><trkpt lat="43.5291071" lon="11.9549756"><ele>608.0</ele><time>2026-04-19T08:34:15.233Z</time></trkpt><trkpt lat="43.5291263" lon="11.9550657"><ele>608.0</ele><time>2026-04-19T08:34:16.234Z</time></trkpt><trkpt lat="43.5291529" lon="11.955152"><ele>608.0</ele><time>2026-04-19T08:34:17.234Z</time></trkpt><trkpt lat="43.5291929" lon="11.9552405"><ele>608.0</ele><time>2026-04-19T08:34:18.235Z</time></trkpt><trkpt lat="43.5292237" lon="11.9553224"><ele>608.0</ele><time>2026-04-19T08:34:19.234Z</time></trkpt><trkpt lat="43.5292587" lon="11.9554201"><ele>607.8333333333333</ele><time>2026-04-19T08:34:21.232Z</time></trkpt><trkpt lat="43.5292033" lon="11.9555233"><ele>607.6666666666666</ele><time>2026-04-19T08:34:34.233Z</time></trkpt><trkpt lat="43.52916" lon="11.95564"><ele>607.5</ele><time>2026-04-19T08:34:36.234Z</time></trkpt><trkpt lat="43.5291217" lon="11.9557383"><ele>607.3333333333334</ele><time>2026-04-19T08:34:37.233Z</time></trkpt><trkpt lat="43.5290833" lon="11.9558533"><ele>607.1666666666667</ele><time>2026-04-19T08:34:38.233Z</time></trkpt><trkpt lat="43.5290533" lon="11.955965"><ele>607.0</ele><time>2026-04-19T08:34:39.233Z</time></trkpt><trkpt lat="43.5290333" lon="11.9560867"><ele>608.1666666666667</ele><time>2026-04-19T08:34:40.234Z</time></trkpt><trkpt lat="43.52902" lon="11.9561983"><ele>609.3333333333334</ele><time>2026-04-19T08:34:41.234Z</time></trkpt><trkpt lat="43.52902" lon="11.956305"><ele>610.5</ele><time>2026-04-19T08:34:42.232Z</time></trkpt><trkpt lat="43.5290617" lon="11.9564067"><ele>611.6666666666666</ele><time>2026-04-19T08:34:44.233Z</time></trkpt><trkpt lat="43.529125" lon="11.956305"><ele>612.8333333333333</ele><time>2026-04-19T08:34:55.233Z</time></trkpt><trkpt lat="43.529155" lon="11.9561733"><ele>614.0</ele><time>2026-04-19T08:34:57.234Z</time></trkpt><trkpt lat="43.5292167" lon="11.9560333"><ele>613.9999999999999</ele><time>2026-04-19T08:34:59.234Z</time></trkpt><trkpt lat="43.529255" lon="11.955955"><ele>614.0</ele><time>2026-04-19T08:35:00.233Z</time></trkpt><trkpt lat="43.5292933" lon="11.9558767"><ele>614.0</ele><time>2026-04-19T08:35:01.232Z</time></trkpt><trkpt lat="43.5293326" lon="11.9557992"><ele>614.0</ele><time>2026-04-19T08:35:02.234Z</time></trkpt><trkpt lat="43.5293852" lon="11.9557216"><ele>614.0</ele><time>2026-04-19T08:35:03.232Z</time></trkpt><trkpt lat="43.529444" lon="11.9556413"><ele>613.9999999999999</ele><time>2026-04-19T08:35:04.233Z</time></trkpt><trkpt lat="43.529498" lon="11.9555636"><ele>614.0</ele><time>2026-04-19T08:35:05.234Z</time></trkpt><trkpt lat="43.5295733" lon="11.9554734"><ele>614.0</ele><time>2026-04-19T08:35:07.233Z</time></trkpt><trkpt lat="43.5296212" lon="11.9555613"><ele>614.0</ele><time>2026-04-19T08:35:10.232Z</time></trkpt><trkpt lat="43.5295934" lon="11.9556403"><ele>614.0</ele><time>2026-04-19T08:35:11.235Z</time></trkpt><trkpt lat="43.5295423" lon="11.9557361"><ele>614.0</ele><time>2026-04-19T08:35:12.235Z</time></trkpt><trkpt lat="43.5294905" lon="11.9558296"><ele>614.0</ele><time>2026-04-19T08:35:13.234Z</time></trkpt><trkpt lat="43.5294507" lon="11.9559162"><ele>614.0</ele><time>2026-04-19T08:35:14.233Z</time></trkpt><trkpt lat="43.5294556" lon="11.9560138"><ele>613.9999999999999</ele><time>2026-04-19T08:35:15.232Z</time></trkpt><trkpt lat="43.5294697" lon="11.9561183"><ele>614.0</ele><time>2026-04-19T08:35:16.234Z</time></trkpt><trkpt lat="43.5294887" lon="11.9562155"><ele>614.0</ele><time>2026-04-19T08:35:17.234Z</time></trkpt><trkpt lat="43.5295111" lon="11.9563054"><ele>614.0</ele><time>2026-04-19T08:35:18.233Z</time></trkpt><trkpt lat="43.5295342" lon="11.9563987"><ele>614.0</ele><time>2026-04-19T08:35:19.234Z</time></trkpt><trkpt lat="43.529554" lon="11.9564948"><ele>613.9999999999999</ele><time>2026-04-19T08:35:20.234Z</time></trkpt><trkpt lat="43.5295738" lon="11.9565846"><ele>614.0</ele><time>2026-04-19T08:35:21.235Z</time></trkpt><trkpt lat="43.5295815" lon="11.956694"><ele>619.3333333333333</ele><time>2026-04-19T08:35:22.234Z</time></trkpt><trkpt lat="43.5295774" lon="11.956813"><ele>624.6666666666666</ele><time>2026-04-19T08:35:23.233Z</time></trkpt><trkpt lat="43.5295727" lon="11.956922"><ele>630.0</ele><time>2026-04-19T08:35:24.233Z</time></trkpt><trkpt lat="43.5295812" lon="11.9570219"><ele>635.3333333333334</ele><time>2026-04-19T08:35:25.233Z</time></trkpt><trkpt lat="43.5295949" lon="11.9571155"><ele>640.6666666666667</ele><time>2026-04-19T08:35:26.233Z</time></trkpt><trkpt lat="43.5296056" lon="11.9572134"><ele>646.0</ele><time>2026-04-19T08:35:27.232Z</time></trkpt><trkpt lat="43.529608" lon="11.9573306"><ele>646.0</ele><time>2026-04-19T08:35:28.233Z</time></trkpt><trkpt lat="43.5296044" lon="11.9574578"><ele>646.0</ele><time>2026-04-19T08:35:29.233Z</time></trkpt><trkpt lat="43.5296065" lon="11.9575822"><ele>646.0</ele><time>2026-04-19T08:35:30.234Z</time></trkpt><trkpt lat="43.5296168" lon="11.9577015"><ele>646.0</ele><time>2026-04-19T08:35:31.232Z</time></trkpt><trkpt lat="43.5296331" lon="11.9578078"><ele>646.0</ele><time>2026-04-19T08:35:32.234Z</time></trkpt><trkpt lat="43.5296656" lon="11.957901"><ele>646.0</ele><time>2026-04-19T08:35:33.232Z</time></trkpt><trkpt lat="43.5297141" lon="11.9579933"><ele>645.8</ele><time>2026-04-19T08:35:34.232Z</time></trkpt><trkpt lat="43.5297607" lon="11.9580863"><ele>645.5999999999999</ele><time>2026-04-19T08:35:35.233Z</time></trkpt><trkpt lat="43.5298098" lon="11.9581862"><ele>645.4</ele><time>2026-04-19T08:35:36.233Z</time></trkpt><trkpt lat="43.5298619" lon="11.9583077"><ele>645.2</ele><time>2026-04-19T08:35:37.232Z</time></trkpt><trkpt lat="43.5299262" lon="11.9584572"><ele>645.0</ele><time>2026-04-19T08:35:38.233Z</time></trkpt><trkpt lat="43.5299888" lon="11.9586148"><ele>645.0</ele><time>2026-04-19T08:35:39.233Z</time></trkpt><trkpt lat="43.5300291" lon="11.9587582"><ele>645.0</ele><time>2026-04-19T08:35:40.233Z</time></trkpt><trkpt lat="43.5300524" lon="11.9588801"><ele>645.0</ele><time>2026-04-19T08:35:41.232Z</time></trkpt><trkpt lat="43.5300616" lon="11.9589747"><ele>645.0</ele><time>2026-04-19T08:35:42.233Z</time></trkpt><trkpt lat="43.5300257" lon="11.9590861"><ele>645.0</ele><time>2026-04-19T08:35:49.233Z</time></trkpt><trkpt lat="43.5299677" lon="11.9591417"><ele>645.0</ele><time>2026-04-19T08:35:50.234Z</time></trkpt><trkpt lat="43.529888" lon="11.9592177"><ele>646.2</ele><time>2026-04-19T08:35:51.233Z</time></trkpt><trkpt lat="43.5298037" lon="11.959313"><ele>647.4</ele><time>2026-04-19T08:35:52.233Z</time></trkpt><trkpt lat="43.5297364" lon="11.9594107"><ele>648.5999999999999</ele><time>2026-04-19T08:35:53.233Z</time></trkpt><trkpt lat="43.5296924" lon="11.9595037"><ele>649.8</ele><time>2026-04-19T08:35:54.233Z</time></trkpt><trkpt lat="43.5296677" lon="11.9595862"><ele>651.0</ele><time>2026-04-19T08:35:55.234Z</time></trkpt><trkpt lat="43.5296562" lon="11.9597317"><ele>651.0</ele><time>2026-04-19T08:35:57.232Z</time></trkpt><trkpt lat="43.5296335" lon="11.9598924"><ele>651.0</ele><time>2026-04-19T08:35:59.232Z</time></trkpt><trkpt lat="43.5296117" lon="11.9599821"><ele>651.0</ele><time>2026-04-19T08:36:00.233Z</time></trkpt><trkpt lat="43.5295758" lon="11.9600781"><ele>651.0</ele><time>2026-04-19T08:36:01.235Z</time></trkpt><trkpt lat="43.5295315" lon="11.9601795"><ele>651.0</ele><time>2026-04-19T08:36:02.233Z</time></trkpt><trkpt lat="43.5294892" lon="11.9602849"><ele>651.0</ele><time>2026-04-19T08:36:03.233Z</time></trkpt><trkpt lat="43.5294519" lon="11.9603962"><ele>651.6666666666666</ele><time>2026-04-19T08:36:04.233Z</time></trkpt><trkpt lat="43.5294019" lon="11.9604933"><ele>652.3333333333334</ele><time>2026-04-19T08:36:05.233Z</time></trkpt><trkpt lat="43.5293447" lon="11.9605774"><ele>653.0</ele><time>2026-04-19T08:36:06.234Z</time></trkpt><trkpt lat="43.5292857" lon="11.9606458"><ele>653.6666666666667</ele><time>2026-04-19T08:36:07.235Z</time></trkpt><trkpt lat="43.5292291" lon="11.9607037"><ele>654.3333333333334</ele><time>2026-04-19T08:36:08.234Z</time></trkpt><trkpt lat="43.5291626" lon="11.960744"><ele>655.0</ele><time>2026-04-19T08:36:09.235Z</time></trkpt><trkpt lat="43.5290875" lon="11.9607629"><ele>655.0</ele><time>2026-04-19T08:36:10.234Z</time></trkpt><trkpt lat="43.5290098" lon="11.9607761"><ele>655.0</ele><time>2026-04-19T08:36:11.233Z</time></trkpt><trkpt lat="43.5289376" lon="11.9607896"><ele>655.0</ele><time>2026-04-19T08:36:12.233Z</time></trkpt><trkpt lat="43.5288519" lon="11.9608411"><ele>655.0</ele><time>2026-04-19T08:36:14.234Z</time></trkpt><trkpt lat="43.5287958" lon="11.9608905"><ele>655.0</ele><time>2026-04-19T08:36:16.233Z</time></trkpt><trkpt lat="43.5286867" lon="11.9609767"><ele>655.0</ele><time>2026-04-19T08:36:31.233Z</time></trkpt><trkpt lat="43.5286317" lon="11.9610267"><ele>655.25</ele><time>2026-04-19T08:36:32.234Z</time></trkpt><trkpt lat="43.52854" lon="11.9611283"><ele>655.5</ele><time>2026-04-19T08:36:33.233Z</time></trkpt><trkpt lat="43.5284617" lon="11.96126"><ele>655.75</ele><time>2026-04-19T08:36:34.233Z</time></trkpt><trkpt lat="43.5283983" lon="11.9614117"><ele>656.0</ele><time>2026-04-19T08:36:35.233Z</time></trkpt><trkpt lat="43.528345" lon="11.9615617"><ele>656.0</ele><time>2026-04-19T08:36:36.232Z</time></trkpt><trkpt lat="43.5283167" lon="11.9616867"><ele>656.0</ele><time>2026-04-19T08:36:37.234Z</time></trkpt><trkpt lat="43.5283167" lon="11.9617983"><ele>656.0</ele><time>2026-04-19T08:36:38.235Z</time></trkpt><trkpt lat="43.5283283" lon="11.961925"><ele>656.0</ele><time>2026-04-19T08:36:39.234Z</time></trkpt><trkpt lat="43.5283433" lon="11.9620383"><ele>656.0</ele><time>2026-04-19T08:36:40.233Z</time></trkpt><trkpt lat="43.5283533" lon="11.9621317"><ele>656.0</ele><time>2026-04-19T08:36:41.232Z</time></trkpt><trkpt lat="43.5283667" lon="11.9622867"><ele>655.8333333333333</ele><time>2026-04-19T08:36:43.232Z</time></trkpt><trkpt lat="43.528375" lon="11.9624133"><ele>655.6666666666666</ele><time>2026-04-19T08:36:45.233Z</time></trkpt><trkpt lat="43.5283967" lon="11.9625217"><ele>655.5</ele><time>2026-04-19T08:36:47.233Z</time></trkpt><trkpt lat="43.5284417" lon="11.9626067"><ele>655.3333333333334</ele><time>2026-04-19T08:36:51.234Z</time></trkpt><trkpt lat="43.5283783" lon="11.9626633"><ele>655.1666666666667</ele><time>2026-04-19T08:36:56.234Z</time></trkpt><trkpt lat="43.52829" lon="11.9626467"><ele>655.0</ele><time>2026-04-19T08:36:58.235Z</time></trkpt><trkpt lat="43.52817" lon="11.9626167"><ele>653.1666666666667</ele><time>2026-04-19T08:37:00.234Z</time></trkpt><trkpt lat="43.5280967" lon="11.9626133"><ele>651.3333333333334</ele><time>2026-04-19T08:37:01.235Z</time></trkpt><trkpt lat="43.5280233" lon="11.9626117"><ele>649.5</ele><time>2026-04-19T08:37:02.235Z</time></trkpt><trkpt lat="43.5279467" lon="11.9626117"><ele>647.6666666666666</ele><time>2026-04-19T08:37:03.235Z</time></trkpt><trkpt lat="43.5278717" lon="11.9626183"><ele>645.8333333333333</ele><time>2026-04-19T08:37:04.234Z</time></trkpt><trkpt lat="43.5277867" lon="11.9626267"><ele>644.0</ele><time>2026-04-19T08:37:05.236Z</time></trkpt><trkpt lat="43.5276983" lon="11.9626467"><ele>644.0</ele><time>2026-04-19T08:37:06.234Z</time></trkpt><trkpt lat="43.5276067" lon="11.9626733"><ele>644.0</ele><time>2026-04-19T08:37:07.234Z</time></trkpt><trkpt lat="43.52751" lon="11.9627033"><ele>644.0</ele><time>2026-04-19T08:37:08.235Z</time></trkpt><trkpt lat="43.5274133" lon="11.9627317"><ele>644.0</ele><time>2026-04-19T08:37:09.234Z</time></trkpt><trkpt lat="43.527315" lon="11.96276"><ele>644.0</ele><time>2026-04-19T08:37:10.234Z</time></trkpt><trkpt lat="43.5272167" lon="11.9627933"><ele>644.0</ele><time>2026-04-19T08:37:11.233Z</time></trkpt><trkpt lat="43.5271183" lon="11.96283"><ele>644.0</ele><time>2026-04-19T08:37:12.233Z</time></trkpt><trkpt lat="43.5270267" lon="11.9628733"><ele>644.0</ele><time>2026-04-19T08:37:13.234Z</time></trkpt><trkpt lat="43.5269383" lon="11.96293"><ele>644.0</ele><time>2026-04-19T08:37:14.233Z</time></trkpt><trkpt lat="43.5268533" lon="11.963005"><ele>644.0</ele><time>2026-04-19T08:37:15.232Z</time></trkpt><trkpt lat="43.526775" lon="11.9630917"><ele>645.6</ele><time>2026-04-19T08:37:16.232Z</time></trkpt><trkpt lat="43.5267" lon="11.9631817"><ele>647.2</ele><time>2026-04-19T08:37:17.236Z</time></trkpt><trkpt lat="43.5266339" lon="11.9632784"><ele>648.8000000000001</ele><time>2026-04-19T08:37:18.235Z</time></trkpt><trkpt lat="43.526571" lon="11.9633823"><ele>650.4000000000001</ele><time>2026-04-19T08:37:19.234Z</time></trkpt><trkpt lat="43.52651" lon="11.9634858"><ele>652.0</ele><time>2026-04-19T08:37:20.235Z</time></trkpt><trkpt lat="43.5264472" lon="11.9635829"><ele>652.0</ele><time>2026-04-19T08:37:21.234Z</time></trkpt><trkpt lat="43.5263769" lon="11.9636641"><ele>652.0</ele><time>2026-04-19T08:37:22.234Z</time></trkpt><trkpt lat="43.5262953" lon="11.9637237"><ele>652.0</ele><time>2026-04-19T08:37:23.234Z</time></trkpt><trkpt lat="43.5262052" lon="11.9637557"><ele>652.0</ele><time>2026-04-19T08:37:24.234Z</time></trkpt><trkpt lat="43.5261137" lon="11.9637557"><ele>652.0</ele><time>2026-04-19T08:37:25.235Z</time></trkpt><trkpt lat="43.5260265" lon="11.9637247"><ele>652.5</ele><time>2026-04-19T08:37:26.233Z</time></trkpt><trkpt lat="43.5259424" lon="11.9636695"><ele>653.0</ele><time>2026-04-19T08:37:27.237Z</time></trkpt><trkpt lat="43.5258659" lon="11.9636225"><ele>653.5</ele><time>2026-04-19T08:37:28.234Z</time></trkpt><trkpt lat="43.5257948" lon="11.9635986"><ele>654.0</ele><time>2026-04-19T08:37:29.234Z</time></trkpt><trkpt lat="43.525731" lon="11.9636013"><ele>654.5</ele><time>2026-04-19T08:37:30.234Z</time></trkpt><trkpt lat="43.525616" lon="11.9636705"><ele>655.0</ele><time>2026-04-19T08:37:32.233Z</time></trkpt><trkpt lat="43.525569" lon="11.963736"><ele>655.0</ele><time>2026-04-19T08:37:33.233Z</time></trkpt><trkpt lat="43.5255337" lon="11.9638172"><ele>655.0</ele><time>2026-04-19T08:37:34.232Z</time></trkpt><trkpt lat="43.5254955" lon="11.9639064"><ele>655.0</ele><time>2026-04-19T08:37:35.233Z</time></trkpt><trkpt lat="43.5254566" lon="11.9639966"><ele>655.0</ele><time>2026-04-19T08:37:36.233Z</time></trkpt><trkpt lat="43.5254154" lon="11.9640905"><ele>655.0</ele><time>2026-04-19T08:37:37.233Z</time></trkpt><trkpt lat="43.5253763" lon="11.9641827"><ele>655.0</ele><time>2026-04-19T08:37:38.233Z</time></trkpt><trkpt lat="43.5253371" lon="11.964268"><ele>655.0</ele><time>2026-04-19T08:37:39.232Z</time></trkpt><trkpt lat="43.5252903" lon="11.9643403"><ele>655.0</ele><time>2026-04-19T08:37:40.234Z</time></trkpt><trkpt lat="43.5252298" lon="11.9643958"><ele>655.0</ele><time>2026-04-19T08:37:41.234Z</time></trkpt><trkpt lat="43.5251613" lon="11.9644403"><ele>655.0</ele><time>2026-04-19T08:37:42.234Z</time></trkpt><trkpt lat="43.5250855" lon="11.9644777"><ele>655.0</ele><time>2026-04-19T08:37:43.234Z</time></trkpt><trkpt lat="43.5250017" lon="11.9645066"><ele>655.0</ele><time>2026-04-19T08:37:44.234Z</time></trkpt><trkpt lat="43.5249152" lon="11.9645311"><ele>655.0</ele><time>2026-04-19T08:37:45.233Z</time></trkpt><trkpt lat="43.5248186" lon="11.964551"><ele>655.0</ele><time>2026-04-19T08:37:46.234Z</time></trkpt><trkpt lat="43.5247154" lon="11.9645742"><ele>655.0</ele><time>2026-04-19T08:37:47.234Z</time></trkpt><trkpt lat="43.524615" lon="11.9646023"><ele>655.0</ele><time>2026-04-19T08:37:48.235Z</time></trkpt><trkpt lat="43.5245164" lon="11.9646314"><ele>655.0</ele><time>2026-04-19T08:37:49.234Z</time></trkpt><trkpt lat="43.5244159" lon="11.9646583"><ele>655.0</ele><time>2026-04-19T08:37:50.234Z</time></trkpt><trkpt lat="43.5243174" lon="11.9646817"><ele>655.0</ele><time>2026-04-19T08:37:51.233Z</time></trkpt><trkpt lat="43.524219" lon="11.9647063"><ele>655.0</ele><time>2026-04-19T08:37:52.233Z</time></trkpt><trkpt lat="43.5241277" lon="11.9647308"><ele>655.0</ele><time>2026-04-19T08:37:53.235Z</time></trkpt><trkpt lat="43.5240364" lon="11.9647506"><ele>655.0</ele><time>2026-04-19T08:37:54.234Z</time></trkpt><trkpt lat="43.5239413" lon="11.964766"><ele>655.0</ele><time>2026-04-19T08:37:55.234Z</time></trkpt><trkpt lat="43.5238426" lon="11.9647806"><ele>655.0</ele><time>2026-04-19T08:37:56.233Z</time></trkpt><trkpt lat="43.5237465" lon="11.9648006"><ele>655.0</ele><time>2026-04-19T08:37:57.233Z</time></trkpt><trkpt lat="43.5236518" lon="11.9648209"><ele>655.0</ele><time>2026-04-19T08:37:58.233Z</time></trkpt><trkpt lat="43.5235592" lon="11.9648459"><ele>655.0</ele><time>2026-04-19T08:37:59.235Z</time></trkpt><trkpt lat="43.5234662" lon="11.9648705"><ele>655.4</ele><time>2026-04-19T08:38:00.233Z</time></trkpt><trkpt lat="43.523376" lon="11.9648973"><ele>655.8</ele><time>2026-04-19T08:38:01.233Z</time></trkpt><trkpt lat="43.5232917" lon="11.9649298"><ele>656.2</ele><time>2026-04-19T08:38:02.233Z</time></trkpt><trkpt lat="43.5232035" lon="11.9649668"><ele>656.6</ele><time>2026-04-19T08:38:03.233Z</time></trkpt><trkpt lat="43.5231157" lon="11.9650026"><ele>657.0</ele><time>2026-04-19T08:38:04.233Z</time></trkpt><trkpt lat="43.5230256" lon="11.9650412"><ele>657.4000000000001</ele><time>2026-04-19T08:38:05.236Z</time></trkpt><trkpt lat="43.5229426" lon="11.9650909"><ele>657.8000000000001</ele><time>2026-04-19T08:38:06.234Z</time></trkpt><trkpt lat="43.5228585" lon="11.9651457"><ele>658.2</ele><time>2026-04-19T08:38:07.232Z</time></trkpt><trkpt lat="43.5227731" lon="11.9651994"><ele>658.6</ele><time>2026-04-19T08:38:08.233Z</time></trkpt><trkpt lat="43.5226859" lon="11.9652456"><ele>659.0</ele><time>2026-04-19T08:38:09.232Z</time></trkpt><trkpt lat="43.5225979" lon="11.9652899"><ele>659.0</ele><time>2026-04-19T08:38:10.233Z</time></trkpt><trkpt lat="43.5225084" lon="11.9653319"><ele>659.0</ele><time>2026-04-19T08:38:11.232Z</time></trkpt><trkpt lat="43.5224184" lon="11.9653788"><ele>659.0</ele><time>2026-04-19T08:38:12.233Z</time></trkpt><trkpt lat="43.5223299" lon="11.965426"><ele>659.0</ele><time>2026-04-19T08:38:13.234Z</time></trkpt><trkpt lat="43.5222416" lon="11.9654713"><ele>659.0</ele><time>2026-04-19T08:38:14.233Z</time></trkpt><trkpt lat="43.5221529" lon="11.9655152"><ele>661.4000000000001</ele><time>2026-04-19T08:38:15.233Z</time></trkpt><trkpt lat="43.5220629" lon="11.9655577"><ele>663.8</ele><time>2026-04-19T08:38:16.233Z</time></trkpt><trkpt lat="43.5219728" lon="11.9656064"><ele>666.2</ele><time>2026-04-19T08:38:17.232Z</time></trkpt><trkpt lat="43.5218853" lon="11.9656649"><ele>668.5999999999999</ele><time>2026-04-19T08:38:18.232Z</time></trkpt><trkpt lat="43.5218037" lon="11.9657298"><ele>671.0</ele><time>2026-04-19T08:38:19.233Z</time></trkpt><trkpt lat="43.5217304" lon="11.9658072"><ele>671.1999999999999</ele><time>2026-04-19T08:38:20.233Z</time></trkpt><trkpt lat="43.5216678" lon="11.9659037"><ele>671.4</ele><time>2026-04-19T08:38:21.233Z</time></trkpt><trkpt lat="43.5216123" lon="11.9660177"><ele>671.6</ele><time>2026-04-19T08:38:22.234Z</time></trkpt><trkpt lat="43.5215669" lon="11.9661516"><ele>671.8</ele><time>2026-04-19T08:38:23.233Z</time></trkpt><trkpt lat="43.5215338" lon="11.9662861"><ele>672.0</ele><time>2026-04-19T08:38:24.233Z</time></trkpt><trkpt lat="43.5215026" lon="11.9664263"><ele>672.0</ele><time>2026-04-19T08:38:25.233Z</time></trkpt><trkpt lat="43.5214717" lon="11.9665676"><ele>672.0</ele><time>2026-04-19T08:38:26.234Z</time></trkpt><trkpt lat="43.5214396" lon="11.9667121"><ele>672.0</ele><time>2026-04-19T08:38:27.232Z</time></trkpt><trkpt lat="43.5214068" lon="11.9668576"><ele>672.0</ele><time>2026-04-19T08:38:28.234Z</time></trkpt><trkpt lat="43.5213735" lon="11.967007"><ele>672.0</ele><time>2026-04-19T08:38:29.234Z</time></trkpt><trkpt lat="43.5213361" lon="11.9671574"><ele>671.0</ele><time>2026-04-19T08:38:30.232Z</time></trkpt><trkpt lat="43.5212965" lon="11.9673039"><ele>670.0</ele><time>2026-04-19T08:38:31.232Z</time></trkpt><trkpt lat="43.5212612" lon="11.9674441"><ele>669.0</ele><time>2026-04-19T08:38:32.233Z</time></trkpt><trkpt lat="43.5212263" lon="11.967578"><ele>668.0</ele><time>2026-04-19T08:38:33.232Z</time></trkpt><trkpt lat="43.5211861" lon="11.9677193"><ele>667.0</ele><time>2026-04-19T08:38:34.233Z</time></trkpt><trkpt lat="43.5211482" lon="11.9678559"><ele>667.5</ele><time>2026-04-19T08:38:35.234Z</time></trkpt><trkpt lat="43.5211164" lon="11.9679856"><ele>668.0</ele><time>2026-04-19T08:38:36.233Z</time></trkpt><trkpt lat="43.521087" lon="11.9681076"><ele>668.5</ele><time>2026-04-19T08:38:37.233Z</time></trkpt><trkpt lat="43.5210643" lon="11.9682171"><ele>669.0</ele><time>2026-04-19T08:38:38.233Z</time></trkpt><trkpt lat="43.5210309" lon="11.9683067"><ele>669.5</ele><time>2026-04-19T08:38:39.232Z</time></trkpt><trkpt lat="43.5209861" lon="11.9683788"><ele>670.0</ele><time>2026-04-19T08:38:40.233Z</time></trkpt><trkpt lat="43.5209308" lon="11.9684316"><ele>670.0</ele><time>2026-04-19T08:38:41.232Z</time></trkpt><trkpt lat="43.5208618" lon="11.9684596"><ele>670.0</ele><time>2026-04-19T08:38:42.232Z</time></trkpt><trkpt lat="43.520773" lon="11.9684654"><ele>670.0</ele><time>2026-04-19T08:38:43.232Z</time></trkpt><trkpt lat="43.5206682" lon="11.9684513"><ele>670.0</ele><time>2026-04-19T08:38:44.233Z</time></trkpt><trkpt lat="43.5205608" lon="11.9684365"><ele>670.0</ele><time>2026-04-19T08:38:45.233Z</time></trkpt><trkpt lat="43.5204546" lon="11.9684263"><ele>672.6</ele><time>2026-04-19T08:38:46.233Z</time></trkpt><trkpt lat="43.5203567" lon="11.9684341"><ele>675.2</ele><time>2026-04-19T08:38:47.232Z</time></trkpt><trkpt lat="43.5202697" lon="11.9684702"><ele>677.8</ele><time>2026-04-19T08:38:48.232Z</time></trkpt><trkpt lat="43.5201939" lon="11.9685344"><ele>680.4</ele><time>2026-04-19T08:38:49.232Z</time></trkpt><trkpt lat="43.5201296" lon="11.9686248"><ele>683.0</ele><time>2026-04-19T08:38:50.235Z</time></trkpt><trkpt lat="43.5200767" lon="11.9687364"><ele>683.0</ele><time>2026-04-19T08:38:51.234Z</time></trkpt><trkpt lat="43.5200342" lon="11.9688584"><ele>683.0</ele><time>2026-04-19T08:38:52.233Z</time></trkpt><trkpt lat="43.5199913" lon="11.9689883"><ele>683.0</ele><time>2026-04-19T08:38:53.232Z</time></trkpt><trkpt lat="43.5199487" lon="11.9691252"><ele>683.0</ele><time>2026-04-19T08:38:54.234Z</time></trkpt><trkpt lat="43.5199065" lon="11.9692621"><ele>683.0</ele><time>2026-04-19T08:38:55.233Z</time></trkpt><trkpt lat="43.5198593" lon="11.9694022"><ele>681.5</ele><time>2026-04-19T08:38:56.234Z</time></trkpt><trkpt lat="43.5198104" lon="11.9695434"><ele>680.0</ele><time>2026-04-19T08:38:57.232Z</time></trkpt><trkpt lat="43.5197568" lon="11.9696909"><ele>678.5</ele><time>2026-04-19T08:38:58.234Z</time></trkpt><trkpt lat="43.5196962" lon="11.9698394"><ele>677.0</ele><time>2026-04-19T08:38:59.232Z</time></trkpt><trkpt lat="43.5196369" lon="11.969987"><ele>677.0</ele><time>2026-04-19T08:39:00.232Z</time></trkpt><trkpt lat="43.5195797" lon="11.9701274"><ele>677.0</ele><time>2026-04-19T08:39:01.233Z</time></trkpt><trkpt lat="43.5195272" lon="11.9702677"><ele>677.0</ele><time>2026-04-19T08:39:02.234Z</time></trkpt><trkpt lat="43.5194821" lon="11.9703978"><ele>677.0</ele><time>2026-04-19T08:39:03.232Z</time></trkpt><trkpt lat="43.5194405" lon="11.9705162"><ele>677.0</ele><time>2026-04-19T08:39:04.233Z</time></trkpt><trkpt lat="43.5194026" lon="11.9706266"><ele>678.1666666666666</ele><time>2026-04-19T08:39:05.233Z</time></trkpt><trkpt lat="43.5193734" lon="11.9707383"><ele>679.3333333333333</ele><time>2026-04-19T08:39:06.232Z</time></trkpt><trkpt lat="43.519362" lon="11.9708368"><ele>680.5</ele><time>2026-04-19T08:39:07.234Z</time></trkpt><trkpt lat="43.5193693" lon="11.970982"><ele>681.6666666666666</ele><time>2026-04-19T08:39:09.234Z</time></trkpt><trkpt lat="43.5194008" lon="11.9710812"><ele>682.8333333333334</ele><time>2026-04-19T08:39:12.233Z</time></trkpt><trkpt lat="43.5193634" lon="11.9711594"><ele>684.0</ele><time>2026-04-19T08:39:15.232Z</time></trkpt><trkpt lat="43.5193024" lon="11.971197"><ele>686.6</ele><time>2026-04-19T08:39:17.233Z</time></trkpt><trkpt lat="43.5192223" lon="11.9712293"><ele>689.2</ele><time>2026-04-19T08:39:19.234Z</time></trkpt><trkpt lat="43.5191405" lon="11.9712908"><ele>691.8000000000001</ele><time>2026-04-19T08:39:21.234Z</time></trkpt><trkpt lat="43.5190507" lon="11.97135"><ele>694.4000000000001</ele><time>2026-04-19T08:39:23.235Z</time></trkpt><trkpt lat="43.5189455" lon="11.9713849"><ele>697.0</ele><time>2026-04-19T08:39:25.234Z</time></trkpt><trkpt lat="43.5188328" lon="11.9713876"><ele>700.0</ele><time>2026-04-19T08:39:27.234Z</time></trkpt><trkpt lat="43.5187188" lon="11.9713745"><ele>703.0</ele><time>2026-04-19T08:39:29.234Z</time></trkpt><trkpt lat="43.5186007" lon="11.9713584"><ele>706.0</ele><time>2026-04-19T08:39:31.233Z</time></trkpt><trkpt lat="43.5184874" lon="11.9713313"><ele>709.0</ele><time>2026-04-19T08:39:33.232Z</time></trkpt><trkpt lat="43.5183573" lon="11.9712942"><ele>709.0</ele><time>2026-04-19T08:39:35.232Z</time></trkpt><trkpt lat="43.5182406" lon="11.9712802"><ele>709.0</ele><time>2026-04-19T08:39:37.234Z</time></trkpt><trkpt lat="43.5181384" lon="11.9712852"><ele>709.0</ele><time>2026-04-19T08:39:39.232Z</time></trkpt><trkpt lat="43.5180314" lon="11.97127"><ele>709.0</ele><time>2026-04-19T08:39:41.234Z</time></trkpt><trkpt lat="43.5179332" lon="11.9712494"><ele>709.0</ele><time>2026-04-19T08:39:43.233Z</time></trkpt><trkpt lat="43.5178032" lon="11.9712454"><ele>709.7142857142858</ele><time>2026-04-19T08:39:45.232Z</time></trkpt><trkpt lat="43.5177241" lon="11.9712467"><ele>710.4285714285714</ele><time>2026-04-19T08:39:46.233Z</time></trkpt><trkpt lat="43.5176467" lon="11.9712672"><ele>711.1428571428571</ele><time>2026-04-19T08:39:47.232Z</time></trkpt><trkpt lat="43.5175861" lon="11.9712993"><ele>711.8571428571429</ele><time>2026-04-19T08:39:48.233Z</time></trkpt><trkpt lat="43.5175311" lon="11.9713485"><ele>712.5714285714286</ele><time>2026-04-19T08:39:49.234Z</time></trkpt><trkpt lat="43.5174853" lon="11.971418"><ele>713.2857142857143</ele><time>2026-04-19T08:39:50.235Z</time></trkpt><trkpt lat="43.5174488" lon="11.971491"><ele>714.0</ele><time>2026-04-19T08:39:51.234Z</time></trkpt><trkpt lat="43.5173804" lon="11.9716253"><ele>715.6</ele><time>2026-04-19T08:39:53.232Z</time></trkpt><trkpt lat="43.5173255" lon="11.9717441"><ele>717.2</ele><time>2026-04-19T08:39:55.234Z</time></trkpt><trkpt lat="43.5172826" lon="11.9718335"><ele>718.8000000000001</ele><time>2026-04-19T08:39:57.234Z</time></trkpt><trkpt lat="43.5171997" lon="11.9718923"><ele>720.4000000000001</ele><time>2026-04-19T08:40:00.233Z</time></trkpt><trkpt lat="43.5170867" lon="11.971847"><ele>722.0</ele><time>2026-04-19T08:40:02.233Z</time></trkpt><trkpt lat="43.5170295" lon="11.9718035"><ele>722.0</ele><time>2026-04-19T08:40:03.232Z</time></trkpt><trkpt lat="43.5169458" lon="11.9717415"><ele>722.0</ele><time>2026-04-19T08:40:05.232Z</time></trkpt><trkpt lat="43.5168499" lon="11.9716819"><ele>722.0</ele><time>2026-04-19T08:40:07.233Z</time></trkpt><trkpt lat="43.5167605" lon="11.9716223"><ele>722.0</ele><time>2026-04-19T08:40:09.234Z</time></trkpt><trkpt lat="43.5166965" lon="11.9715926"><ele>722.0</ele><time>2026-04-19T08:40:11.233Z</time></trkpt><trkpt lat="43.51664" lon="11.9715274"><ele>722.0</ele><time>2026-04-19T08:40:14.233Z</time></trkpt><trkpt lat="43.5165607" lon="11.971503"><ele>720.5</ele><time>2026-04-19T08:40:17.234Z</time></trkpt><trkpt lat="43.5164596" lon="11.9715017"><ele>719.0</ele><time>2026-04-19T08:40:19.235Z</time></trkpt><trkpt lat="43.5163967" lon="11.9715084"><ele>717.5</ele><time>2026-04-19T08:40:20.235Z</time></trkpt><trkpt lat="43.5163337" lon="11.97154"><ele>716.0</ele><time>2026-04-19T08:40:21.234Z</time></trkpt><trkpt lat="43.5162153" lon="11.9715995"><ele>714.5</ele><time>2026-04-19T08:40:23.234Z</time></trkpt><trkpt lat="43.5161663" lon="11.9716625"><ele>713.0</ele><time>2026-04-19T08:40:24.234Z</time></trkpt><trkpt lat="43.5161319" lon="11.9717458"><ele>712.8333333333333</ele><time>2026-04-19T08:40:25.234Z</time></trkpt><trkpt lat="43.5161039" lon="11.9718522"><ele>712.6666666666666</ele><time>2026-04-19T08:40:26.234Z</time></trkpt><trkpt lat="43.5160836" lon="11.9719537"><ele>712.5</ele><time>2026-04-19T08:40:27.234Z</time></trkpt><trkpt lat="43.516067" lon="11.9720615"><ele>712.3333333333334</ele><time>2026-04-19T08:40:28.233Z</time></trkpt><trkpt lat="43.5160399" lon="11.9721702"><ele>712.1666666666667</ele><time>2026-04-19T08:40:29.234Z</time></trkpt><trkpt lat="43.516021" lon="11.9722573"><ele>712.0</ele><time>2026-04-19T08:40:30.233Z</time></trkpt><trkpt lat="43.5160026" lon="11.9723527"><ele>712.0</ele><time>2026-04-19T08:40:31.232Z</time></trkpt><trkpt lat="43.5159934" lon="11.972439"><ele>712.0</ele><time>2026-04-19T08:40:32.232Z</time></trkpt><trkpt lat="43.5159858" lon="11.97259"><ele>712.0</ele><time>2026-04-19T08:40:34.232Z</time></trkpt><trkpt lat="43.5159774" lon="11.972693"><ele>712.0</ele><time>2026-04-19T08:40:36.233Z</time></trkpt><trkpt lat="43.5159947" lon="11.9727814"><ele>712.0</ele><time>2026-04-19T08:40:38.234Z</time></trkpt><trkpt lat="43.5160376" lon="11.9729079"><ele>712.0</ele><time>2026-04-19T08:40:40.232Z</time></trkpt><trkpt lat="43.5160384" lon="11.9730021"><ele>712.6666666666667</ele><time>2026-04-19T08:40:41.232Z</time></trkpt><trkpt lat="43.5160371" lon="11.9730975"><ele>713.3333333333334</ele><time>2026-04-19T08:40:42.234Z</time></trkpt><trkpt lat="43.516033" lon="11.9731881"><ele>714.0</ele><time>2026-04-19T08:40:43.232Z</time></trkpt><trkpt lat="43.5160752" lon="11.9733491"><ele>714.6666666666666</ele><time>2026-04-19T08:40:45.233Z</time></trkpt><trkpt lat="43.5161001" lon="11.9734444"><ele>715.3333333333333</ele><time>2026-04-19T08:40:46.232Z</time></trkpt><trkpt lat="43.5161172" lon="11.9735417"><ele>716.0</ele><time>2026-04-19T08:40:47.234Z</time></trkpt><trkpt lat="43.5161377" lon="11.9736866"><ele>716.0</ele><time>2026-04-19T08:40:49.235Z</time></trkpt><trkpt lat="43.516131" lon="11.9737787"><ele>716.0</ele><time>2026-04-19T08:40:52.233Z</time></trkpt><trkpt lat="43.5162017" lon="11.973735"><ele>716.0</ele><time>2026-04-19T08:41:07.232Z</time></trkpt><trkpt lat="43.5162483" lon="11.9736733"><ele>716.0</ele><time>2026-04-19T08:41:09.237Z</time></trkpt><trkpt lat="43.5163033" lon="11.97361"><ele>716.0</ele><time>2026-04-19T08:41:11.232Z</time></trkpt><trkpt lat="43.5163817" lon="11.9735217"><ele>716.0</ele><time>2026-04-19T08:41:14.236Z</time></trkpt><trkpt lat="43.5164467" lon="11.97344"><ele>715.4</ele><time>2026-04-19T08:41:16.232Z</time></trkpt><trkpt lat="43.5165283" lon="11.9733617"><ele>714.8</ele><time>2026-04-19T08:41:18.234Z</time></trkpt><trkpt lat="43.5166267" lon="11.9732933"><ele>714.1999999999999</ele><time>2026-04-19T08:41:20.236Z</time></trkpt><trkpt lat="43.51673" lon="11.97322"><ele>713.5999999999999</ele><time>2026-04-19T08:41:22.233Z</time></trkpt><trkpt lat="43.5168297" lon="11.9731453"><ele>713.0</ele><time>2026-04-19T08:41:24.234Z</time></trkpt><trkpt lat="43.5169288" lon="11.9730685"><ele>715.0</ele><time>2026-04-19T08:41:26.233Z</time></trkpt><trkpt lat="43.5170362" lon="11.9729978"><ele>717.0</ele><time>2026-04-19T08:41:28.233Z</time></trkpt><trkpt lat="43.517099" lon="11.9729669"><ele>719.0</ele><time>2026-04-19T08:41:29.234Z</time></trkpt><trkpt lat="43.5171628" lon="11.9729443"><ele>721.0</ele><time>2026-04-19T08:41:30.234Z</time></trkpt><trkpt lat="43.5172797" lon="11.9729241"><ele>723.0</ele><time>2026-04-19T08:41:32.234Z</time></trkpt><trkpt lat="43.5174003" lon="11.9729053"><ele>724.0</ele><time>2026-04-19T08:41:34.234Z</time></trkpt><trkpt lat="43.5175049" lon="11.9728891"><ele>725.0</ele><time>2026-04-19T08:41:36.232Z</time></trkpt><trkpt lat="43.5176177" lon="11.9728698"><ele>726.0</ele><time>2026-04-19T08:41:38.234Z</time></trkpt><trkpt lat="43.5177279" lon="11.9728442"><ele>727.0</ele><time>2026-04-19T08:41:40.233Z</time></trkpt><trkpt lat="43.5178214" lon="11.9728059"><ele>728.0</ele><time>2026-04-19T08:41:42.232Z</time></trkpt><trkpt lat="43.5179004" lon="11.9727841"><ele>728.0</ele><time>2026-04-19T08:41:44.234Z</time></trkpt><trkpt lat="43.5179786" lon="11.9728444"><ele>728.0</ele><time>2026-04-19T08:41:47.232Z</time></trkpt><trkpt lat="43.517972" lon="11.9729445"><ele>728.0</ele><time>2026-04-19T08:41:50.234Z</time></trkpt><trkpt lat="43.5179167" lon="11.973075"><ele>728.0</ele><time>2026-04-19T08:47:29.235Z</time></trkpt><trkpt lat="43.5179167" lon="11.97319"><ele>728.0</ele><time>2026-04-19T08:47:32.234Z</time></trkpt><trkpt lat="43.5179133" lon="11.9732817"><ele>728.0</ele><time>2026-04-19T08:47:34.235Z</time></trkpt><trkpt lat="43.51792" lon="11.97337"><ele>728.0</ele><time>2026-04-19T08:47:36.234Z</time></trkpt><trkpt lat="43.5179267" lon="11.97349"><ele>728.0</ele><time>2026-04-19T08:47:38.235Z</time></trkpt><trkpt lat="43.51792" lon="11.97362"><ele>728.0</ele><time>2026-04-19T08:47:40.234Z</time></trkpt><trkpt lat="43.5179117" lon="11.97371"><ele>728.0</ele><time>2026-04-19T08:47:41.235Z</time></trkpt><trkpt lat="43.517905" lon="11.9738633"><ele>728.0</ele><time>2026-04-19T08:47:43.234Z</time></trkpt><trkpt lat="43.5179083" lon="11.9739983"><ele>728.0</ele><time>2026-04-19T08:47:45.236Z</time></trkpt><trkpt lat="43.5179033" lon="11.9741367"><ele>728.0</ele><time>2026-04-19T08:47:47.234Z</time></trkpt><trkpt lat="43.5178817" lon="11.9742833"><ele>728.0</ele><time>2026-04-19T08:47:49.234Z</time></trkpt><trkpt lat="43.5178533" lon="11.97444"><ele>728.0</ele><time>2026-04-19T08:47:51.234Z</time></trkpt><trkpt lat="43.5178433" lon="11.97453"><ele>728.0</ele><time>2026-04-19T08:47:52.235Z</time></trkpt><trkpt lat="43.5178317" lon="11.9747033"><ele>722.5999999999999</ele><time>2026-04-19T08:47:54.235Z</time></trkpt><trkpt lat="43.5178333" lon="11.97487"><ele>717.1999999999999</ele><time>2026-04-19T08:47:56.235Z</time></trkpt><trkpt lat="43.5178433" lon="11.9750167"><ele>711.8</ele><time>2026-04-19T08:47:58.234Z</time></trkpt><trkpt lat="43.517865" lon="11.9751283"><ele>706.4</ele><time>2026-04-19T08:48:00.235Z</time></trkpt><trkpt lat="43.5178917" lon="11.9752117"><ele>701.0</ele><time>2026-04-19T08:48:02.235Z</time></trkpt><trkpt lat="43.5179183" lon="11.9753217"><ele>701.0</ele><time>2026-04-19T08:48:05.235Z</time></trkpt><trkpt lat="43.5179433" lon="11.9754033"><ele>701.0</ele><time>2026-04-19T08:48:07.235Z</time></trkpt><trkpt lat="43.5179667" lon="11.9755"><ele>701.0</ele><time>2026-04-19T08:48:10.234Z</time></trkpt><trkpt lat="43.5180167" lon="11.9755783"><ele>701.0</ele><time>2026-04-19T08:48:13.234Z</time></trkpt><trkpt lat="43.51806" lon="11.9756483"><ele>701.0</ele><time>2026-04-19T08:48:15.235Z</time></trkpt><trkpt lat="43.5181083" lon="11.9757267"><ele>701.0</ele><time>2026-04-19T08:48:17.235Z</time></trkpt><trkpt lat="43.518155" lon="11.9757983"><ele>701.0</ele><time>2026-04-19T08:48:19.235Z</time></trkpt><trkpt lat="43.5181983" lon="11.9758633"><ele>698.5</ele><time>2026-04-19T08:48:21.235Z</time></trkpt><trkpt lat="43.51824" lon="11.975955"><ele>696.0</ele><time>2026-04-19T08:48:23.236Z</time></trkpt><trkpt lat="43.5182793" lon="11.9760492"><ele>693.5</ele><time>2026-04-19T08:48:25.213Z</time></trkpt><trkpt lat="43.518324" lon="11.9761626"><ele>691.0</ele><time>2026-04-19T08:48:27.225Z</time></trkpt><trkpt lat="43.5183889" lon="11.9762664"><ele>688.5</ele><time>2026-04-19T08:48:29.274Z</time></trkpt><trkpt lat="43.5184467" lon="11.9763623"><ele>686.0</ele><time>2026-04-19T08:48:31.269Z</time></trkpt><trkpt lat="43.5185124" lon="11.9764582"><ele>686.0</ele><time>2026-04-19T08:48:33.252Z</time></trkpt><trkpt lat="43.518574" lon="11.9765641"><ele>686.0</ele><time>2026-04-19T08:48:35.236Z</time></trkpt><trkpt lat="43.5186372" lon="11.9766798"><ele>686.0</ele><time>2026-04-19T08:48:37.346Z</time></trkpt><trkpt lat="43.5186983" lon="11.9767701"><ele>686.0</ele><time>2026-04-19T08:48:39.247Z</time></trkpt><trkpt lat="43.5187579" lon="11.9768638"><ele>686.0</ele><time>2026-04-19T08:48:41.286Z</time></trkpt><trkpt lat="43.5188139" lon="11.9769485"><ele>686.0</ele><time>2026-04-19T08:48:43.235Z</time></trkpt><trkpt lat="43.5188634" lon="11.9770521"><ele>686.0</ele><time>2026-04-19T08:48:45.235Z</time></trkpt><trkpt lat="43.518913" lon="11.9771821"><ele>686.0</ele><time>2026-04-19T08:48:47.235Z</time></trkpt><trkpt lat="43.5189661" lon="11.9773026"><ele>686.0</ele><time>2026-04-19T08:48:49.235Z</time></trkpt><trkpt lat="43.5190154" lon="11.9774115"><ele>686.0</ele><time>2026-04-19T08:48:51.234Z</time></trkpt><trkpt lat="43.5190658" lon="11.9775379"><ele>683.5</ele><time>2026-04-19T08:48:53.236Z</time></trkpt><trkpt lat="43.5191154" lon="11.9776955"><ele>681.0</ele><time>2026-04-19T08:48:55.235Z</time></trkpt><trkpt lat="43.5191487" lon="11.9778553"><ele>678.5</ele><time>2026-04-19T08:48:57.234Z</time></trkpt><trkpt lat="43.5191686" lon="11.9780071"><ele>676.0</ele><time>2026-04-19T08:48:59.236Z</time></trkpt><trkpt lat="43.5191878" lon="11.9781335"><ele>676.0</ele><time>2026-04-19T08:49:01.235Z</time></trkpt><trkpt lat="43.5192323" lon="11.9782434"><ele>676.0</ele><time>2026-04-19T08:49:03.236Z</time></trkpt><trkpt lat="43.5192706" lon="11.9783666"><ele>676.0</ele><time>2026-04-19T08:49:05.235Z</time></trkpt><trkpt lat="43.5192833" lon="11.9785137"><ele>676.0</ele><time>2026-04-19T08:49:07.237Z</time></trkpt><trkpt lat="43.5192816" lon="11.9786042"><ele>676.0</ele><time>2026-04-19T08:49:08.236Z</time></trkpt><trkpt lat="43.5192731" lon="11.9787191"><ele>676.0</ele><time>2026-04-19T08:49:09.235Z</time></trkpt><trkpt lat="43.5192652" lon="11.9788401"><ele>674.5</ele><time>2026-04-19T08:49:10.234Z</time></trkpt><trkpt lat="43.5192669" lon="11.9789595"><ele>673.0</ele><time>2026-04-19T08:49:11.233Z</time></trkpt><trkpt lat="43.5192838" lon="11.9790739"><ele>671.5</ele><time>2026-04-19T08:49:12.234Z</time></trkpt><trkpt lat="43.5193132" lon="11.9791857"><ele>670.0</ele><time>2026-04-19T08:49:13.234Z</time></trkpt><trkpt lat="43.5193468" lon="11.9793049"><ele>668.5</ele><time>2026-04-19T08:49:14.234Z</time></trkpt><trkpt lat="43.5193791" lon="11.9794205"><ele>667.0</ele><time>2026-04-19T08:49:15.234Z</time></trkpt><trkpt lat="43.5194059" lon="11.9795386"><ele>667.0</ele><time>2026-04-19T08:49:16.233Z</time></trkpt><trkpt lat="43.5194322" lon="11.9796545"><ele>667.0</ele><time>2026-04-19T08:49:17.234Z</time></trkpt><trkpt lat="43.5194597" lon="11.979767"><ele>667.0</ele><time>2026-04-19T08:49:18.235Z</time></trkpt><trkpt lat="43.5194883" lon="11.9798788"><ele>667.0</ele><time>2026-04-19T08:49:19.233Z</time></trkpt><trkpt lat="43.5195217" lon="11.9799933"><ele>667.0</ele><time>2026-04-19T08:49:20.234Z</time></trkpt><trkpt lat="43.5195553" lon="11.9801004"><ele>667.0</ele><time>2026-04-19T08:49:21.233Z</time></trkpt><trkpt lat="43.5195965" lon="11.9802061"><ele>667.0</ele><time>2026-04-19T08:49:22.233Z</time></trkpt><trkpt lat="43.5196327" lon="11.9803105"><ele>667.0</ele><time>2026-04-19T08:49:23.234Z</time></trkpt><trkpt lat="43.5196857" lon="11.9804153"><ele>667.0</ele><time>2026-04-19T08:49:24.233Z</time></trkpt><trkpt lat="43.5197521" lon="11.9805078"><ele>667.0</ele><time>2026-04-19T08:49:25.234Z</time></trkpt><trkpt lat="43.519819" lon="11.9805971"><ele>667.0</ele><time>2026-04-19T08:49:26.234Z</time></trkpt><trkpt lat="43.5198811" lon="11.9806865"><ele>667.0</ele><time>2026-04-19T08:49:27.234Z</time></trkpt><trkpt lat="43.5199452" lon="11.9807767"><ele>667.0</ele><time>2026-04-19T08:49:28.233Z</time></trkpt><trkpt lat="43.5200132" lon="11.9808674"><ele>667.0</ele><time>2026-04-19T08:49:29.234Z</time></trkpt><trkpt lat="43.5200673" lon="11.9809739"><ele>667.0</ele><time>2026-04-19T08:49:30.234Z</time></trkpt><trkpt lat="43.5201085" lon="11.9810898"><ele>667.0</ele><time>2026-04-19T08:49:31.234Z</time></trkpt><trkpt lat="43.5201386" lon="11.9812076"><ele>667.5</ele><time>2026-04-19T08:49:32.234Z</time></trkpt><trkpt lat="43.5201633" lon="11.9813228"><ele>668.0</ele><time>2026-04-19T08:49:33.234Z</time></trkpt><trkpt lat="43.5201884" lon="11.9814332"><ele>668.5</ele><time>2026-04-19T08:49:34.233Z</time></trkpt><trkpt lat="43.5202119" lon="11.9815386"><ele>669.0</ele><time>2026-04-19T08:49:35.234Z</time></trkpt><trkpt lat="43.5202363" lon="11.9816437"><ele>669.5</ele><time>2026-04-19T08:49:36.235Z</time></trkpt><trkpt lat="43.5202626" lon="11.9817475"><ele>670.0</ele><time>2026-04-19T08:49:37.234Z</time></trkpt><trkpt lat="43.5202848" lon="11.9818435"><ele>670.0</ele><time>2026-04-19T08:49:38.233Z</time></trkpt><trkpt lat="43.5203261" lon="11.9819766"><ele>670.0</ele><time>2026-04-19T08:49:40.236Z</time></trkpt><trkpt lat="43.5203447" lon="11.9820598"><ele>670.0</ele><time>2026-04-19T08:49:43.233Z</time></trkpt><trkpt lat="43.5203606" lon="11.982148"><ele>670.0</ele><time>2026-04-19T08:49:46.234Z</time></trkpt><trkpt lat="43.5203662" lon="11.9822565"><ele>670.0</ele><time>2026-04-19T08:49:49.233Z</time></trkpt><trkpt lat="43.5203254" lon="11.9823662"><ele>670.0</ele><time>2026-04-19T08:49:52.234Z</time></trkpt><trkpt lat="43.5203028" lon="11.9824486"><ele>668.5</ele><time>2026-04-19T08:49:54.258Z</time></trkpt><trkpt lat="43.5203091" lon="11.9825516"><ele>667.0</ele><time>2026-04-19T08:49:57.203Z</time></trkpt><trkpt lat="43.5203672" lon="11.9826358"><ele>665.5</ele><time>2026-04-19T08:50:01.206Z</time></trkpt><trkpt lat="43.520434" lon="11.9827071"><ele>664.0</ele><time>2026-04-19T08:50:03.235Z</time></trkpt><trkpt lat="43.5205454" lon="11.982803"><ele>662.5</ele><time>2026-04-19T08:50:05.233Z</time></trkpt><trkpt lat="43.5205983" lon="11.9828539"><ele>661.0</ele><time>2026-04-19T08:50:06.235Z</time></trkpt><trkpt lat="43.5206875" lon="11.9829553"><ele>661.0</ele><time>2026-04-19T08:50:08.233Z</time></trkpt><trkpt lat="43.5207712" lon="11.983054"><ele>661.0</ele><time>2026-04-19T08:50:10.234Z</time></trkpt><trkpt lat="43.5208225" lon="11.9831773"><ele>661.0</ele><time>2026-04-19T08:50:12.233Z</time></trkpt><trkpt lat="43.5208719" lon="11.9832837"><ele>661.0</ele><time>2026-04-19T08:50:14.234Z</time></trkpt><trkpt lat="43.5209346" lon="11.9834241"><ele>661.0</ele><time>2026-04-19T08:50:16.234Z</time></trkpt><trkpt lat="43.5209934" lon="11.9835714"><ele>658.8333333333334</ele><time>2026-04-19T08:50:18.233Z</time></trkpt><trkpt lat="43.5210708" lon="11.9836914"><ele>656.6666666666667</ele><time>2026-04-19T08:50:20.233Z</time></trkpt><trkpt lat="43.5211354" lon="11.9837443"><ele>654.5</ele><time>2026-04-19T08:50:22.234Z</time></trkpt><trkpt lat="43.521196" lon="11.9837821"><ele>652.3333333333334</ele><time>2026-04-19T08:50:24.234Z</time></trkpt><trkpt lat="43.5212434" lon="11.9838546"><ele>650.1666666666666</ele><time>2026-04-19T08:50:27.234Z</time></trkpt><trkpt lat="43.5212356" lon="11.9840149"><ele>648.0</ele><time>2026-04-19T08:50:29.234Z</time></trkpt><trkpt lat="43.5212399" lon="11.9841164"><ele>646.4</ele><time>2026-04-19T08:50:30.235Z</time></trkpt><trkpt lat="43.5212693" lon="11.9842454"><ele>644.8</ele><time>2026-04-19T08:50:31.233Z</time></trkpt><trkpt lat="43.5213019" lon="11.9843915"><ele>643.2</ele><time>2026-04-19T08:50:32.233Z</time></trkpt><trkpt lat="43.5213392" lon="11.9845109"><ele>641.6</ele><time>2026-04-19T08:50:33.233Z</time></trkpt><trkpt lat="43.5213764" lon="11.9846058"><ele>640.0</ele><time>2026-04-19T08:50:34.233Z</time></trkpt><trkpt lat="43.5214085" lon="11.984713"><ele>640.0</ele><time>2026-04-19T08:50:35.233Z</time></trkpt><trkpt lat="43.5214128" lon="11.9848276"><ele>640.0</ele><time>2026-04-19T08:50:36.234Z</time></trkpt><trkpt lat="43.5214101" lon="11.9849553"><ele>640.0</ele><time>2026-04-19T08:50:37.233Z</time></trkpt><trkpt lat="43.5213982" lon="11.9851277"><ele>640.0</ele><time>2026-04-19T08:50:38.233Z</time></trkpt><trkpt lat="43.5214041" lon="11.9852707"><ele>640.0</ele><time>2026-04-19T08:50:39.234Z</time></trkpt><trkpt lat="43.5214281" lon="11.9853849"><ele>641.0</ele><time>2026-04-19T08:50:40.233Z</time></trkpt><trkpt lat="43.5214717" lon="11.9854805"><ele>642.0</ele><time>2026-04-19T08:50:41.233Z</time></trkpt><trkpt lat="43.5215271" lon="11.9855542"><ele>643.0</ele><time>2026-04-19T08:50:42.234Z</time></trkpt><trkpt lat="43.5215849" lon="11.9856139"><ele>644.0</ele><time>2026-04-19T08:50:43.233Z</time></trkpt><trkpt lat="43.5216389" lon="11.9856766"><ele>645.0</ele><time>2026-04-19T08:50:44.234Z</time></trkpt><trkpt lat="43.5216807" lon="11.985762"><ele>646.0</ele><time>2026-04-19T08:50:45.234Z</time></trkpt><trkpt lat="43.5216964" lon="11.9858753"><ele>646.0</ele><time>2026-04-19T08:50:46.323Z</time></trkpt><trkpt lat="43.5216926" lon="11.9859912"><ele>646.0</ele><time>2026-04-19T08:50:47.234Z</time></trkpt><trkpt lat="43.5216808" lon="11.986115"><ele>646.0</ele><time>2026-04-19T08:50:48.235Z</time></trkpt><trkpt lat="43.521655" lon="11.9862242"><ele>646.0</ele><time>2026-04-19T08:50:49.233Z</time></trkpt><trkpt lat="43.5216323" lon="11.9863122"><ele>646.0</ele><time>2026-04-19T08:50:50.233Z</time></trkpt><trkpt lat="43.521615" lon="11.9864354"><ele>646.0</ele><time>2026-04-19T08:50:52.233Z</time></trkpt><trkpt lat="43.5216273" lon="11.9865331"><ele>646.0</ele><time>2026-04-19T08:50:54.233Z</time></trkpt><trkpt lat="43.5216499" lon="11.9866402"><ele>646.0</ele><time>2026-04-19T08:50:56.233Z</time></trkpt><trkpt lat="43.5216848" lon="11.986766"><ele>646.0</ele><time>2026-04-19T08:50:58.233Z</time></trkpt><trkpt lat="43.5217426" lon="11.9868983"><ele>646.0</ele><time>2026-04-19T08:51:00.233Z</time></trkpt><trkpt lat="43.521797" lon="11.9870549"><ele>646.0</ele><time>2026-04-19T08:51:02.234Z</time></trkpt><trkpt lat="43.5218" lon="11.9871516"><ele>645.4285714285714</ele><time>2026-04-19T08:51:03.233Z</time></trkpt><trkpt lat="43.5217921" lon="11.9872485"><ele>644.8571428571429</ele><time>2026-04-19T08:51:04.233Z</time></trkpt><trkpt lat="43.5217873" lon="11.9873418"><ele>644.2857142857142</ele><time>2026-04-19T08:51:05.235Z</time></trkpt><trkpt lat="43.5217905" lon="11.9874369"><ele>643.7142857142858</ele><time>2026-04-19T08:51:06.233Z</time></trkpt><trkpt lat="43.5218079" lon="11.9875356"><ele>643.1428571428571</ele><time>2026-04-19T08:51:07.233Z</time></trkpt><trkpt lat="43.5218399" lon="11.9876358"><ele>642.5714285714286</ele><time>2026-04-19T08:51:08.233Z</time></trkpt><trkpt lat="43.5218889" lon="11.9877356"><ele>642.0</ele><time>2026-04-19T08:51:09.233Z</time></trkpt><trkpt lat="43.5219406" lon="11.9878319"><ele>640.8333333333334</ele><time>2026-04-19T08:51:10.234Z</time></trkpt><trkpt lat="43.5219819" lon="11.987926"><ele>639.6666666666666</ele><time>2026-04-19T08:51:11.234Z</time></trkpt><trkpt lat="43.5220149" lon="11.9880155"><ele>638.5</ele><time>2026-04-19T08:51:12.233Z</time></trkpt><trkpt lat="43.5220476" lon="11.9880938"><ele>637.3333333333333</ele><time>2026-04-19T08:51:13.234Z</time></trkpt><trkpt lat="43.5221204" lon="11.9882332"><ele>636.1666666666666</ele><time>2026-04-19T08:51:15.233Z</time></trkpt><trkpt lat="43.5221654" lon="11.9883123"><ele>635.0</ele><time>2026-04-19T08:51:16.234Z</time></trkpt><trkpt lat="43.522215" lon="11.9884088"><ele>636.9999999999999</ele><time>2026-04-19T08:51:17.234Z</time></trkpt><trkpt lat="43.5222575" lon="11.9885105"><ele>639.0</ele><time>2026-04-19T08:51:18.234Z</time></trkpt><trkpt lat="43.522291" lon="11.9886025"><ele>641.0</ele><time>2026-04-19T08:51:19.234Z</time></trkpt><trkpt lat="43.5223166" lon="11.9886896"><ele>643.0</ele><time>2026-04-19T08:51:20.238Z</time></trkpt><trkpt lat="43.522325" lon="11.9887838"><ele>645.0</ele><time>2026-04-19T08:51:21.233Z</time></trkpt><trkpt lat="43.522316" lon="11.9888856"><ele>646.9999999999999</ele><time>2026-04-19T08:51:22.234Z</time></trkpt><trkpt lat="43.5223066" lon="11.9889842"><ele>649.0</ele><time>2026-04-19T08:51:23.233Z</time></trkpt><trkpt lat="43.5223008" lon="11.9891389"><ele>648.4000000000001</ele><time>2026-04-19T08:51:25.234Z</time></trkpt><trkpt lat="43.5223424" lon="11.9892898"><ele>647.8</ele><time>2026-04-19T08:51:27.233Z</time></trkpt><trkpt lat="43.5223845" lon="11.9893846"><ele>647.2</ele><time>2026-04-19T08:51:28.233Z</time></trkpt><trkpt lat="43.5224216" lon="11.9894902"><ele>646.5999999999999</ele><time>2026-04-19T08:51:29.234Z</time></trkpt><trkpt lat="43.5224473" lon="11.9896012"><ele>646.0</ele><time>2026-04-19T08:51:30.233Z</time></trkpt><trkpt lat="43.5224637" lon="11.9897213"><ele>646.0</ele><time>2026-04-19T08:51:31.233Z</time></trkpt><trkpt lat="43.5224671" lon="11.9898466"><ele>646.0</ele><time>2026-04-19T08:51:32.234Z</time></trkpt><trkpt lat="43.5224499" lon="11.9899713"><ele>646.0</ele><time>2026-04-19T08:51:33.235Z</time></trkpt><trkpt lat="43.5224181" lon="11.990083"><ele>646.0</ele><time>2026-04-19T08:51:34.233Z</time></trkpt><trkpt lat="43.5223845" lon="11.9901847"><ele>646.0</ele><time>2026-04-19T08:51:35.234Z</time></trkpt><trkpt lat="43.5223604" lon="11.9902857"><ele>646.0</ele><time>2026-04-19T08:51:36.233Z</time></trkpt><trkpt lat="43.522349" lon="11.9903824"><ele>644.0</ele><time>2026-04-19T08:51:37.233Z</time></trkpt><trkpt lat="43.5223378" lon="11.9905368"><ele>642.0</ele><time>2026-04-19T08:51:39.235Z</time></trkpt><trkpt lat="43.5223283" lon="11.9906681"><ele>640.0</ele><time>2026-04-19T08:51:41.238Z</time></trkpt><trkpt lat="43.5223248" lon="11.9908077"><ele>638.0</ele><time>2026-04-19T08:51:43.233Z</time></trkpt><trkpt lat="43.5223311" lon="11.9909661"><ele>636.0</ele><time>2026-04-19T08:51:45.233Z</time></trkpt><trkpt lat="43.5223185" lon="11.9911286"><ele>635.8</ele><time>2026-04-19T08:51:47.234Z</time></trkpt><trkpt lat="43.5222722" lon="11.9912873"><ele>635.6</ele><time>2026-04-19T08:51:49.234Z</time></trkpt><trkpt lat="43.5222249" lon="11.9913567"><ele>635.4</ele><time>2026-04-19T08:51:50.236Z</time></trkpt><trkpt lat="43.5221633" lon="11.991426"><ele>635.2</ele><time>2026-04-19T08:51:51.236Z</time></trkpt><trkpt lat="43.5220909" lon="11.9914987"><ele>635.0</ele><time>2026-04-19T08:51:52.234Z</time></trkpt><trkpt lat="43.5220086" lon="11.99157"><ele>635.0</ele><time>2026-04-19T08:51:53.235Z</time></trkpt><trkpt lat="43.5219223" lon="11.9916427"><ele>635.0</ele><time>2026-04-19T08:51:54.235Z</time></trkpt><trkpt lat="43.5218353" lon="11.9917202"><ele>635.0</ele><time>2026-04-19T08:51:55.235Z</time></trkpt><trkpt lat="43.5217549" lon="11.991805"><ele>635.0</ele><time>2026-04-19T08:51:56.235Z</time></trkpt><trkpt lat="43.5216858" lon="11.9918921"><ele>635.0</ele><time>2026-04-19T08:51:57.235Z</time></trkpt><trkpt lat="43.5216294" lon="11.9919839"><ele>634.2</ele><time>2026-04-19T08:51:58.236Z</time></trkpt><trkpt lat="43.5215842" lon="11.9920869"><ele>633.4</ele><time>2026-04-19T08:51:59.234Z</time></trkpt><trkpt lat="43.521548" lon="11.9922034"><ele>632.6</ele><time>2026-04-19T08:52:00.233Z</time></trkpt><trkpt lat="43.5215164" lon="11.9923289"><ele>631.8</ele><time>2026-04-19T08:52:01.233Z</time></trkpt><trkpt lat="43.5214894" lon="11.9924576"><ele>631.0</ele><time>2026-04-19T08:52:02.234Z</time></trkpt><trkpt lat="43.5214651" lon="11.9925853"><ele>629.4</ele><time>2026-04-19T08:52:03.233Z</time></trkpt><trkpt lat="43.5214463" lon="11.992713"><ele>627.8</ele><time>2026-04-19T08:52:04.234Z</time></trkpt><trkpt lat="43.5214337" lon="11.9928435"><ele>626.1999999999999</ele><time>2026-04-19T08:52:05.234Z</time></trkpt><trkpt lat="43.52142" lon="11.9929739"><ele>624.6</ele><time>2026-04-19T08:52:06.233Z</time></trkpt><trkpt lat="43.5214039" lon="11.9931031"><ele>623.0</ele><time>2026-04-19T08:52:07.233Z</time></trkpt><trkpt lat="43.5213886" lon="11.9932314"><ele>624.1999999999999</ele><time>2026-04-19T08:52:08.235Z</time></trkpt><trkpt lat="43.5213815" lon="11.9933593"><ele>625.4</ele><time>2026-04-19T08:52:09.233Z</time></trkpt><trkpt lat="43.5213882" lon="11.9934793"><ele>626.5999999999999</ele><time>2026-04-19T08:52:10.233Z</time></trkpt><trkpt lat="43.5214093" lon="11.9935922"><ele>627.8</ele><time>2026-04-19T08:52:11.233Z</time></trkpt><trkpt lat="43.52145" lon="11.9937046"><ele>629.0</ele><time>2026-04-19T08:52:12.234Z</time></trkpt><trkpt lat="43.5215069" lon="11.9938121"><ele>629.0</ele><time>2026-04-19T08:52:13.235Z</time></trkpt><trkpt lat="43.5215534" lon="11.9939187"><ele>629.0</ele><time>2026-04-19T08:52:14.234Z</time></trkpt><trkpt lat="43.5215763" lon="11.9940377"><ele>629.0</ele><time>2026-04-19T08:52:15.234Z</time></trkpt><trkpt lat="43.5215811" lon="11.9941635"><ele>629.0</ele><time>2026-04-19T08:52:16.233Z</time></trkpt><trkpt lat="43.5215674" lon="11.9942951"><ele>629.0</ele><time>2026-04-19T08:52:17.233Z</time></trkpt><trkpt lat="43.5215469" lon="11.9944326"><ele>629.0</ele><time>2026-04-19T08:52:18.233Z</time></trkpt><trkpt lat="43.5215336" lon="11.9945743"><ele>629.0</ele><time>2026-04-19T08:52:19.233Z</time></trkpt><trkpt lat="43.521524" lon="11.9947163"><ele>629.0</ele><time>2026-04-19T08:52:20.234Z</time></trkpt><trkpt lat="43.5215141" lon="11.9948452"><ele>629.0</ele><time>2026-04-19T08:52:21.234Z</time></trkpt><trkpt lat="43.5214983" lon="11.9949679"><ele>629.0</ele><time>2026-04-19T08:52:22.233Z</time></trkpt><trkpt lat="43.5214809" lon="11.9950922"><ele>628.8333333333333</ele><time>2026-04-19T08:52:23.235Z</time></trkpt><trkpt lat="43.5214581" lon="11.9952195"><ele>628.6666666666666</ele><time>2026-04-19T08:52:24.235Z</time></trkpt><trkpt lat="43.5214369" lon="11.9953437"><ele>628.5</ele><time>2026-04-19T08:52:25.234Z</time></trkpt><trkpt lat="43.5214194" lon="11.9954671"><ele>628.3333333333334</ele><time>2026-04-19T08:52:26.234Z</time></trkpt><trkpt lat="43.5214041" lon="11.9955779"><ele>628.1666666666667</ele><time>2026-04-19T08:52:27.235Z</time></trkpt><trkpt lat="43.5213922" lon="11.9956867"><ele>628.0</ele><time>2026-04-19T08:52:28.234Z</time></trkpt><trkpt lat="43.5213896" lon="11.9958028"><ele>628.8333333333334</ele><time>2026-04-19T08:52:29.233Z</time></trkpt><trkpt lat="43.5213999" lon="11.9959182"><ele>629.6666666666667</ele><time>2026-04-19T08:52:30.233Z</time></trkpt><trkpt lat="43.5214312" lon="11.9960235"><ele>630.5</ele><time>2026-04-19T08:52:31.233Z</time></trkpt><trkpt lat="43.5214712" lon="11.9961223"><ele>631.3333333333334</ele><time>2026-04-19T08:52:32.233Z</time></trkpt><trkpt lat="43.5215088" lon="11.9962132"><ele>632.1666666666666</ele><time>2026-04-19T08:52:33.233Z</time></trkpt><trkpt lat="43.5215432" lon="11.99632"><ele>633.0</ele><time>2026-04-19T08:52:34.234Z</time></trkpt><trkpt lat="43.5215694" lon="11.9964478"><ele>633.0</ele><time>2026-04-19T08:52:35.234Z</time></trkpt><trkpt lat="43.5215923" lon="11.9965808"><ele>633.0</ele><time>2026-04-19T08:52:36.234Z</time></trkpt><trkpt lat="43.5216156" lon="11.9967011"><ele>633.0</ele><time>2026-04-19T08:52:37.233Z</time></trkpt><trkpt lat="43.5216387" lon="11.9968085"><ele>633.0</ele><time>2026-04-19T08:52:38.233Z</time></trkpt><trkpt lat="43.5216606" lon="11.9969033"><ele>633.0</ele><time>2026-04-19T08:52:39.233Z</time></trkpt><trkpt lat="43.5216789" lon="11.9969887"><ele>633.0</ele><time>2026-04-19T08:52:40.233Z</time></trkpt><trkpt lat="43.521688" lon="11.9970756"><ele>632.8</ele><time>2026-04-19T08:52:41.233Z</time></trkpt><trkpt lat="43.521685" lon="11.9971728"><ele>632.5999999999999</ele><time>2026-04-19T08:52:42.233Z</time></trkpt><trkpt lat="43.5216741" lon="11.9972877"><ele>632.4000000000001</ele><time>2026-04-19T08:52:43.233Z</time></trkpt><trkpt lat="43.5216578" lon="11.9974216"><ele>632.2</ele><time>2026-04-19T08:52:44.234Z</time></trkpt><trkpt lat="43.5216474" lon="11.9975726"><ele>632.0</ele><time>2026-04-19T08:52:45.233Z</time></trkpt><trkpt lat="43.52165" lon="11.997736"><ele>629.5</ele><time>2026-04-19T08:52:46.233Z</time></trkpt><trkpt lat="43.5216668" lon="11.9979061"><ele>627.0</ele><time>2026-04-19T08:52:47.234Z</time></trkpt><trkpt lat="43.5216961" lon="11.9980774"><ele>624.5</ele><time>2026-04-19T08:52:48.235Z</time></trkpt><trkpt lat="43.5217339" lon="11.9982414"><ele>622.0</ele><time>2026-04-19T08:52:49.234Z</time></trkpt><trkpt lat="43.5217773" lon="11.9984019"><ele>619.75</ele><time>2026-04-19T08:52:50.235Z</time></trkpt><trkpt lat="43.5218315" lon="11.9985564"><ele>617.5</ele><time>2026-04-19T08:52:51.235Z</time></trkpt><trkpt lat="43.5218947" lon="11.9987065"><ele>615.25</ele><time>2026-04-19T08:52:52.235Z</time></trkpt><trkpt lat="43.5219607" lon="11.9988533"><ele>613.0</ele><time>2026-04-19T08:52:53.234Z</time></trkpt><trkpt lat="43.5220256" lon="11.999002"><ele>612.75</ele><time>2026-04-19T08:52:54.236Z</time></trkpt><trkpt lat="43.5220897" lon="11.9991502"><ele>612.5</ele><time>2026-04-19T08:52:55.235Z</time></trkpt><trkpt lat="43.5221437" lon="11.9992928"><ele>612.25</ele><time>2026-04-19T08:52:56.235Z</time></trkpt><trkpt lat="43.5221896" lon="11.9994287"><ele>612.0</ele><time>2026-04-19T08:52:57.234Z</time></trkpt><trkpt lat="43.5222296" lon="11.9995561"><ele>612.0</ele><time>2026-04-19T08:52:58.236Z</time></trkpt><trkpt lat="43.5222613" lon="11.9996807"><ele>612.0</ele><time>2026-04-19T08:52:59.234Z</time></trkpt><trkpt lat="43.5222813" lon="11.9998111"><ele>612.0</ele><time>2026-04-19T08:53:00.233Z</time></trkpt><trkpt lat="43.5222848" lon="11.9999561"><ele>612.0</ele><time>2026-04-19T08:53:01.234Z</time></trkpt><trkpt lat="43.5222696" lon="12.0001052"><ele>612.0</ele><time>2026-04-19T08:53:02.234Z</time></trkpt><trkpt lat="43.5222407" lon="12.0002512"><ele>612.0</ele><time>2026-04-19T08:53:03.233Z</time></trkpt><trkpt lat="43.5222038" lon="12.0003826"><ele>612.0</ele><time>2026-04-19T08:53:04.233Z</time></trkpt><trkpt lat="43.5221654" lon="12.0004921"><ele>612.0</ele><time>2026-04-19T08:53:05.233Z</time></trkpt><trkpt lat="43.5221214" lon="12.000585"><ele>612.0</ele><time>2026-04-19T08:53:06.233Z</time></trkpt><trkpt lat="43.5220732" lon="12.0006662"><ele>612.0</ele><time>2026-04-19T08:53:07.234Z</time></trkpt><trkpt lat="43.5220085" lon="12.0007432"><ele>612.0</ele><time>2026-04-19T08:53:08.233Z</time></trkpt><trkpt lat="43.5219253" lon="12.0008211"><ele>611.8000000000001</ele><time>2026-04-19T08:53:09.234Z</time></trkpt><trkpt lat="43.521831" lon="12.0009009"><ele>611.6</ele><time>2026-04-19T08:53:10.233Z</time></trkpt><trkpt lat="43.5217379" lon="12.0009778"><ele>611.4000000000001</ele><time>2026-04-19T08:53:11.234Z</time></trkpt><trkpt lat="43.5216494" lon="12.0010549"><ele>611.2</ele><time>2026-04-19T08:53:12.235Z</time></trkpt><trkpt lat="43.5215732" lon="12.0011359"><ele>611.0</ele><time>2026-04-19T08:53:13.234Z</time></trkpt><trkpt lat="43.5215182" lon="12.0012187"><ele>611.0</ele><time>2026-04-19T08:53:14.233Z</time></trkpt><trkpt lat="43.5214783" lon="12.0013046"><ele>611.0</ele><time>2026-04-19T08:53:15.233Z</time></trkpt><trkpt lat="43.5214547" lon="12.0013954"><ele>611.0</ele><time>2026-04-19T08:53:16.234Z</time></trkpt><trkpt lat="43.5214452" lon="12.001491"><ele>611.0</ele><time>2026-04-19T08:53:17.234Z</time></trkpt><trkpt lat="43.5214492" lon="12.0015802"><ele>611.0</ele><time>2026-04-19T08:53:18.234Z</time></trkpt><trkpt lat="43.521469" lon="12.0017236"><ele>611.0</ele><time>2026-04-19T08:53:20.234Z</time></trkpt><trkpt lat="43.5214908" lon="12.0018536"><ele>611.2</ele><time>2026-04-19T08:53:22.235Z</time></trkpt><trkpt lat="43.5214922" lon="12.0019926"><ele>611.4000000000001</ele><time>2026-04-19T08:53:24.233Z</time></trkpt><trkpt lat="43.5214592" lon="12.0021507"><ele>611.6</ele><time>2026-04-19T08:53:26.235Z</time></trkpt><trkpt lat="43.5214312" lon="12.0022537"><ele>611.8000000000001</ele><time>2026-04-19T08:53:27.233Z</time></trkpt><trkpt lat="43.5214044" lon="12.0023708"><ele>612.0</ele><time>2026-04-19T08:53:28.233Z</time></trkpt><trkpt lat="43.5213785" lon="12.0024934"><ele>611.4</ele><time>2026-04-19T08:53:29.233Z</time></trkpt><trkpt lat="43.521348" lon="12.0026316"><ele>610.8000000000001</ele><time>2026-04-19T08:53:30.234Z</time></trkpt><trkpt lat="43.5213231" lon="12.0027763"><ele>610.2</ele><time>2026-04-19T08:53:31.233Z</time></trkpt><trkpt lat="43.5213091" lon="12.002931"><ele>609.6</ele><time>2026-04-19T08:53:32.233Z</time></trkpt><trkpt lat="43.5213136" lon="12.0031015"><ele>609.0</ele><time>2026-04-19T08:53:33.234Z</time></trkpt><trkpt lat="43.5213163" lon="12.003282"><ele>607.6</ele><time>2026-04-19T08:53:34.234Z</time></trkpt><trkpt lat="43.5213171" lon="12.0034646"><ele>606.2</ele><time>2026-04-19T08:53:35.233Z</time></trkpt><trkpt lat="43.5213184" lon="12.0036213"><ele>604.8000000000001</ele><time>2026-04-19T08:53:36.234Z</time></trkpt><trkpt lat="43.5213194" lon="12.0037683"><ele>603.4</ele><time>2026-04-19T08:53:37.233Z</time></trkpt><trkpt lat="43.5213324" lon="12.0038951"><ele>602.0</ele><time>2026-04-19T08:53:38.234Z</time></trkpt><trkpt lat="43.5213563" lon="12.0039937"><ele>602.0</ele><time>2026-04-19T08:53:39.234Z</time></trkpt><trkpt lat="43.5213819" lon="12.0040776"><ele>602.0</ele><time>2026-04-19T08:53:40.233Z</time></trkpt><trkpt lat="43.5214008" lon="12.0041904"><ele>602.0</ele><time>2026-04-19T08:53:42.233Z</time></trkpt><trkpt lat="43.5213238" lon="12.0042146"><ele>602.0</ele><time>2026-04-19T08:53:44.234Z</time></trkpt><trkpt lat="43.5212334" lon="12.00415"><ele>602.0</ele><time>2026-04-19T08:53:45.233Z</time></trkpt><trkpt lat="43.5211477" lon="12.0040704"><ele>602.0</ele><time>2026-04-19T08:53:46.233Z</time></trkpt><trkpt lat="43.5210731" lon="12.0039972"><ele>598.0</ele><time>2026-04-19T08:53:47.233Z</time></trkpt><trkpt lat="43.5210125" lon="12.0039373"><ele>594.0</ele><time>2026-04-19T08:53:48.234Z</time></trkpt><trkpt lat="43.5209263" lon="12.0038842"><ele>590.0</ele><time>2026-04-19T08:53:50.234Z</time></trkpt><trkpt lat="43.5209613" lon="12.0040328"><ele>586.0</ele><time>2026-04-19T08:53:53.236Z</time></trkpt><trkpt lat="43.5210312" lon="12.004127"><ele>582.0</ele><time>2026-04-19T08:53:54.233Z</time></trkpt><trkpt lat="43.5211167" lon="12.0042313"><ele>585.25</ele><time>2026-04-19T08:53:55.233Z</time></trkpt><trkpt lat="43.5212367" lon="12.0043483"><ele>588.5</ele><time>2026-04-19T08:53:56.233Z</time></trkpt><trkpt lat="43.5213183" lon="12.00445"><ele>591.75</ele><time>2026-04-19T08:53:57.233Z</time></trkpt><trkpt lat="43.5213817" lon="12.0045717"><ele>595.0</ele><time>2026-04-19T08:53:58.234Z</time></trkpt><trkpt lat="43.521425" lon="12.0047117"><ele>595.0</ele><time>2026-04-19T08:53:59.233Z</time></trkpt><trkpt lat="43.5214667" lon="12.00486"><ele>595.0</ele><time>2026-04-19T08:54:00.233Z</time></trkpt><trkpt lat="43.52149" lon="12.0049967"><ele>595.0</ele><time>2026-04-19T08:54:01.233Z</time></trkpt><trkpt lat="43.52146" lon="12.0051617"><ele>595.0</ele><time>2026-04-19T08:54:02.234Z</time></trkpt><trkpt lat="43.521415" lon="12.0053317"><ele>592.8</ele><time>2026-04-19T08:54:03.233Z</time></trkpt><trkpt lat="43.521375" lon="12.0054783"><ele>590.6</ele><time>2026-04-19T08:54:04.233Z</time></trkpt><trkpt lat="43.5213633" lon="12.0056217"><ele>588.4</ele><time>2026-04-19T08:54:05.233Z</time></trkpt><trkpt lat="43.5213767" lon="12.00575"><ele>586.2</ele><time>2026-04-19T08:54:06.233Z</time></trkpt><trkpt lat="43.5213967" lon="12.0058983"><ele>584.0</ele><time>2026-04-19T08:54:07.233Z</time></trkpt><trkpt lat="43.521435" lon="12.0060417"><ele>581.0</ele><time>2026-04-19T08:54:08.233Z</time></trkpt><trkpt lat="43.521485" lon="12.0061967"><ele>578.0</ele><time>2026-04-19T08:54:09.233Z</time></trkpt><trkpt lat="43.5215283" lon="12.0063717"><ele>575.0</ele><time>2026-04-19T08:54:10.233Z</time></trkpt><trkpt lat="43.5215517" lon="12.0065417"><ele>572.0</ele><time>2026-04-19T08:54:11.235Z</time></trkpt><trkpt lat="43.5215567" lon="12.0067"><ele>570.4</ele><time>2026-04-19T08:54:12.233Z</time></trkpt><trkpt lat="43.52153" lon="12.00685"><ele>568.8000000000001</ele><time>2026-04-19T08:54:13.234Z</time></trkpt><trkpt lat="43.5214733" lon="12.0069867"><ele>567.2</ele><time>2026-04-19T08:54:14.325Z</time></trkpt><trkpt lat="43.5214167" lon="12.0071067"><ele>565.6</ele><time>2026-04-19T08:54:15.234Z</time></trkpt><trkpt lat="43.5213667" lon="12.007205"><ele>564.0</ele><time>2026-04-19T08:54:16.233Z</time></trkpt><trkpt lat="43.52133" lon="12.0073083"><ele>564.0</ele><time>2026-04-19T08:54:17.234Z</time></trkpt><trkpt lat="43.5213133" lon="12.0074317"><ele>564.0</ele><time>2026-04-19T08:54:18.233Z</time></trkpt><trkpt lat="43.521305" lon="12.0075917"><ele>564.0</ele><time>2026-04-19T08:54:19.234Z</time></trkpt><trkpt lat="43.52129" lon="12.0077683"><ele>564.0</ele><time>2026-04-19T08:54:20.233Z</time></trkpt><trkpt lat="43.5212583" lon="12.007945"><ele>555.75</ele><time>2026-04-19T08:54:21.233Z</time></trkpt><trkpt lat="43.5212167" lon="12.0080983"><ele>547.5</ele><time>2026-04-19T08:54:22.233Z</time></trkpt><trkpt lat="43.5211567" lon="12.0082233"><ele>539.25</ele><time>2026-04-19T08:54:23.234Z</time></trkpt><trkpt lat="43.5210917" lon="12.0083433"><ele>531.0</ele><time>2026-04-19T08:54:24.234Z</time></trkpt><trkpt lat="43.5210383" lon="12.0084833"><ele>530.75</ele><time>2026-04-19T08:54:25.233Z</time></trkpt><trkpt lat="43.520995" lon="12.00863"><ele>530.5</ele><time>2026-04-19T08:54:26.234Z</time></trkpt><trkpt lat="43.5209567" lon="12.0087783"><ele>530.25</ele><time>2026-04-19T08:54:27.233Z</time></trkpt><trkpt lat="43.52091" lon="12.0089417"><ele>530.0</ele><time>2026-04-19T08:54:28.233Z</time></trkpt><trkpt lat="43.5208683" lon="12.0091017"><ele>528.5</ele><time>2026-04-19T08:54:29.233Z</time></trkpt><trkpt lat="43.5208267" lon="12.0092583"><ele>527.0</ele><time>2026-04-19T08:54:30.234Z</time></trkpt><trkpt lat="43.5207833" lon="12.0094083"><ele>525.5</ele><time>2026-04-19T08:54:31.234Z</time></trkpt><trkpt lat="43.5207383" lon="12.0095617"><ele>524.0</ele><time>2026-04-19T08:54:32.234Z</time></trkpt><trkpt lat="43.520695" lon="12.00972"><ele>524.0</ele><time>2026-04-19T08:54:33.234Z</time></trkpt><trkpt lat="43.5206567" lon="12.0098833"><ele>524.0</ele><time>2026-04-19T08:54:34.234Z</time></trkpt><trkpt lat="43.5206217" lon="12.01006"><ele>524.0</ele><time>2026-04-19T08:54:35.233Z</time></trkpt><trkpt lat="43.52059" lon="12.0102383"><ele>524.0</ele><time>2026-04-19T08:54:36.233Z</time></trkpt><trkpt lat="43.52056" lon="12.0104133"><ele>522.5</ele><time>2026-04-19T08:54:37.233Z</time></trkpt><trkpt lat="43.520535" lon="12.01059"><ele>521.0</ele><time>2026-04-19T08:54:38.233Z</time></trkpt><trkpt lat="43.5205083" lon="12.0107767"><ele>519.5</ele><time>2026-04-19T08:54:39.233Z</time></trkpt><trkpt lat="43.5204883" lon="12.0109433"><ele>518.0</ele><time>2026-04-19T08:54:40.233Z</time></trkpt><trkpt lat="43.5204617" lon="12.0111017"><ele>515.1999999999999</ele><time>2026-04-19T08:54:41.236Z</time></trkpt><trkpt lat="43.5204417" lon="12.01124"><ele>512.4</ele><time>2026-04-19T08:54:42.233Z</time></trkpt><trkpt lat="43.52043" lon="12.0113767"><ele>509.59999999999997</ele><time>2026-04-19T08:54:43.234Z</time></trkpt><trkpt lat="43.5204267" lon="12.0115133"><ele>506.79999999999995</ele><time>2026-04-19T08:54:44.234Z</time></trkpt><trkpt lat="43.5204333" lon="12.0116433"><ele>504.0</ele><time>2026-04-19T08:54:45.233Z</time></trkpt><trkpt lat="43.520455" lon="12.01176"><ele>501.5</ele><time>2026-04-19T08:54:46.234Z</time></trkpt><trkpt lat="43.5205033" lon="12.0118633"><ele>499.0</ele><time>2026-04-19T08:54:47.234Z</time></trkpt><trkpt lat="43.5205667" lon="12.0119433"><ele>496.5</ele><time>2026-04-19T08:54:48.233Z</time></trkpt><trkpt lat="43.520645" lon="12.012005"><ele>494.0</ele><time>2026-04-19T08:54:49.234Z</time></trkpt><trkpt lat="43.5207117" lon="12.0120067"><ele>491.5</ele><time>2026-04-19T08:54:50.235Z</time></trkpt><trkpt lat="43.5207733" lon="12.0120317"><ele>489.0</ele><time>2026-04-19T08:54:51.233Z</time></trkpt><trkpt lat="43.5208633" lon="12.01212"><ele>489.0</ele><time>2026-04-19T08:54:53.234Z</time></trkpt><trkpt lat="43.5208283" lon="12.01232"><ele>489.0</ele><time>2026-04-19T08:54:55.233Z</time></trkpt><trkpt lat="43.520745" lon="12.0124183"><ele>489.0</ele><time>2026-04-19T08:54:56.234Z</time></trkpt><trkpt lat="43.520655" lon="12.0125"><ele>489.0</ele><time>2026-04-19T08:54:57.234Z</time></trkpt><trkpt lat="43.5205467" lon="12.01253"><ele>487.25</ele><time>2026-04-19T08:54:58.235Z</time></trkpt><trkpt lat="43.5204267" lon="12.01251"><ele>485.5</ele><time>2026-04-19T08:54:59.236Z</time></trkpt><trkpt lat="43.5203083" lon="12.0124633"><ele>483.75</ele><time>2026-04-19T08:55:00.233Z</time></trkpt><trkpt lat="43.5201983" lon="12.01242"><ele>482.0</ele><time>2026-04-19T08:55:01.233Z</time></trkpt><trkpt lat="43.52011" lon="12.0123617"><ele>482.0</ele><time>2026-04-19T08:55:02.234Z</time></trkpt><trkpt lat="43.5200383" lon="12.0122933"><ele>482.00000000000006</ele><time>2026-04-19T08:55:03.234Z</time></trkpt><trkpt lat="43.519975" lon="12.0122283"><ele>482.00000000000006</ele><time>2026-04-19T08:55:04.241Z</time></trkpt><trkpt lat="43.5199117" lon="12.01217"><ele>482.0</ele><time>2026-04-19T08:55:05.236Z</time></trkpt><trkpt lat="43.51983" lon="12.0122367"><ele>482.0</ele><time>2026-04-19T08:55:07.233Z</time></trkpt><trkpt lat="43.5198683" lon="12.012445"><ele>478.5</ele><time>2026-04-19T08:55:09.234Z</time></trkpt><trkpt lat="43.5199133" lon="12.0125633"><ele>475.0</ele><time>2026-04-19T08:55:10.233Z</time></trkpt><trkpt lat="43.5199867" lon="12.0126967"><ele>471.5</ele><time>2026-04-19T08:55:11.234Z</time></trkpt><trkpt lat="43.5200533" lon="12.0128383"><ele>468.0</ele><time>2026-04-19T08:55:12.233Z</time></trkpt><trkpt lat="43.52012" lon="12.0129867"><ele>468.0</ele><time>2026-04-19T08:55:13.234Z</time></trkpt><trkpt lat="43.5201833" lon="12.0131233"><ele>468.0</ele><time>2026-04-19T08:55:14.235Z</time></trkpt><trkpt lat="43.52026" lon="12.01324"><ele>468.0</ele><time>2026-04-19T08:55:15.234Z</time></trkpt><trkpt lat="43.52035" lon="12.013345"><ele>468.0</ele><time>2026-04-19T08:55:16.234Z</time></trkpt><trkpt lat="43.5204533" lon="12.0134183"><ele>466.25</ele><time>2026-04-19T08:55:17.234Z</time></trkpt><trkpt lat="43.5205583" lon="12.0134933"><ele>464.5</ele><time>2026-04-19T08:55:18.233Z</time></trkpt><trkpt lat="43.52066" lon="12.0135833"><ele>462.75</ele><time>2026-04-19T08:55:19.234Z</time></trkpt><trkpt lat="43.5207533" lon="12.01368"><ele>461.0</ele><time>2026-04-19T08:55:20.234Z</time></trkpt><trkpt lat="43.5208417" lon="12.013785"><ele>461.0</ele><time>2026-04-19T08:55:21.234Z</time></trkpt><trkpt lat="43.520925" lon="12.0138833"><ele>461.0</ele><time>2026-04-19T08:55:22.234Z</time></trkpt><trkpt lat="43.521" lon="12.0139833"><ele>461.0</ele><time>2026-04-19T08:55:23.235Z</time></trkpt><trkpt lat="43.521055" lon="12.0141"><ele>461.0</ele><time>2026-04-19T08:55:24.233Z</time></trkpt><trkpt lat="43.5210917" lon="12.0142317"><ele>461.0</ele><time>2026-04-19T08:55:25.233Z</time></trkpt><trkpt lat="43.5211017" lon="12.0143917"><ele>456.5</ele><time>2026-04-19T08:55:26.234Z</time></trkpt><trkpt lat="43.5210933" lon="12.014565"><ele>452.0</ele><time>2026-04-19T08:55:27.233Z</time></trkpt><trkpt lat="43.5210683" lon="12.0147333"><ele>447.5</ele><time>2026-04-19T08:55:28.233Z</time></trkpt><trkpt lat="43.521045" lon="12.0149133"><ele>443.0</ele><time>2026-04-19T08:55:29.233Z</time></trkpt><trkpt lat="43.5210183" lon="12.0150983"><ele>439.5</ele><time>2026-04-19T08:55:30.235Z</time></trkpt><trkpt lat="43.521" lon="12.0152783"><ele>436.0</ele><time>2026-04-19T08:55:31.235Z</time></trkpt><trkpt lat="43.5209967" lon="12.01545"><ele>432.5</ele><time>2026-04-19T08:55:32.234Z</time></trkpt><trkpt lat="43.521005" lon="12.0156217"><ele>429.0</ele><time>2026-04-19T08:55:33.233Z</time></trkpt><trkpt lat="43.5210083" lon="12.0157983"><ele>426.8333333333333</ele><time>2026-04-19T08:55:34.233Z</time></trkpt><trkpt lat="43.521005" lon="12.0159417"><ele>424.66666666666663</ele><time>2026-04-19T08:55:35.234Z</time></trkpt><trkpt lat="43.5209967" lon="12.0160667"><ele>422.5</ele><time>2026-04-19T08:55:36.233Z</time></trkpt><trkpt lat="43.5209767" lon="12.0161733"><ele>420.3333333333333</ele><time>2026-04-19T08:55:37.233Z</time></trkpt><trkpt lat="43.5209583" lon="12.0162683"><ele>418.16666666666663</ele><time>2026-04-19T08:55:38.233Z</time></trkpt><trkpt lat="43.5209217" lon="12.0163733"><ele>416.0</ele><time>2026-04-19T08:55:39.233Z</time></trkpt><trkpt lat="43.5208583" lon="12.0164633"><ele>416.0</ele><time>2026-04-19T08:55:40.234Z</time></trkpt><trkpt lat="43.5207817" lon="12.0165567"><ele>416.0</ele><time>2026-04-19T08:55:41.234Z</time></trkpt><trkpt lat="43.520715" lon="12.01666"><ele>416.0</ele><time>2026-04-19T08:55:42.234Z</time></trkpt><trkpt lat="43.520665" lon="12.0167817"><ele>416.0</ele><time>2026-04-19T08:55:43.233Z</time></trkpt><trkpt lat="43.5206517" lon="12.016925"><ele>416.0</ele><time>2026-04-19T08:55:44.234Z</time></trkpt><trkpt lat="43.5206517" lon="12.01708"><ele>414.4</ele><time>2026-04-19T08:55:45.235Z</time></trkpt><trkpt lat="43.5206483" lon="12.01724"><ele>412.8</ele><time>2026-04-19T08:55:46.234Z</time></trkpt><trkpt lat="43.5206367" lon="12.017385"><ele>411.2</ele><time>2026-04-19T08:55:47.234Z</time></trkpt><trkpt lat="43.5206217" lon="12.0175167"><ele>409.59999999999997</ele><time>2026-04-19T08:55:48.233Z</time></trkpt><trkpt lat="43.5206017" lon="12.01763"><ele>408.0</ele><time>2026-04-19T08:55:49.233Z</time></trkpt><trkpt lat="43.520505" lon="12.01772"><ele>406.5</ele><time>2026-04-19T08:55:51.233Z</time></trkpt><trkpt lat="43.5204417" lon="12.0176967"><ele>405.0</ele><time>2026-04-19T08:55:52.233Z</time></trkpt><trkpt lat="43.520385" lon="12.0176167"><ele>403.5</ele><time>2026-04-19T08:55:53.233Z</time></trkpt><trkpt lat="43.5203217" lon="12.0175367"><ele>402.0</ele><time>2026-04-19T08:55:54.234Z</time></trkpt><trkpt lat="43.5202433" lon="12.0174533"><ele>400.5</ele><time>2026-04-19T08:55:55.233Z</time></trkpt><trkpt lat="43.5201633" lon="12.0173717"><ele>399.0</ele><time>2026-04-19T08:55:56.234Z</time></trkpt><trkpt lat="43.520085" lon="12.0172883"><ele>397.2</ele><time>2026-04-19T08:55:57.233Z</time></trkpt><trkpt lat="43.52001" lon="12.0172"><ele>395.4</ele><time>2026-04-19T08:55:58.233Z</time></trkpt><trkpt lat="43.5199317" lon="12.0171167"><ele>393.6</ele><time>2026-04-19T08:55:59.234Z</time></trkpt><trkpt lat="43.5198483" lon="12.0170383"><ele>391.8</ele><time>2026-04-19T08:56:00.233Z</time></trkpt><trkpt lat="43.519755" lon="12.0169667"><ele>390.0</ele><time>2026-04-19T08:56:01.233Z</time></trkpt><trkpt lat="43.519655" lon="12.0168983"><ele>389.8</ele><time>2026-04-19T08:56:02.233Z</time></trkpt><trkpt lat="43.5195567" lon="12.016835"><ele>389.6</ele><time>2026-04-19T08:56:03.233Z</time></trkpt><trkpt lat="43.519465" lon="12.01676"><ele>389.4</ele><time>2026-04-19T08:56:04.234Z</time></trkpt><trkpt lat="43.519385" lon="12.0166733"><ele>389.2</ele><time>2026-04-19T08:56:05.233Z</time></trkpt><trkpt lat="43.5193133" lon="12.01659"><ele>389.0</ele><time>2026-04-19T08:56:06.24Z</time></trkpt><trkpt lat="43.5192533" lon="12.016525"><ele>389.0</ele><time>2026-04-19T08:56:07.233Z</time></trkpt><trkpt lat="43.5191533" lon="12.0164633"><ele>389.0</ele><time>2026-04-19T08:56:09.234Z</time></trkpt><trkpt lat="43.5190883" lon="12.01655"><ele>389.0</ele><time>2026-04-19T08:56:11.234Z</time></trkpt><trkpt lat="43.51912" lon="12.016675"><ele>389.0</ele><time>2026-04-19T08:56:13.233Z</time></trkpt><trkpt lat="43.5191733" lon="12.0167717"><ele>389.0</ele><time>2026-04-19T08:56:16.233Z</time></trkpt><trkpt lat="43.5192267" lon="12.0168417"><ele>389.16666666666663</ele><time>2026-04-19T08:56:18.234Z</time></trkpt><trkpt lat="43.5192783" lon="12.016945"><ele>389.3333333333333</ele><time>2026-04-19T08:56:20.234Z</time></trkpt><trkpt lat="43.5193467" lon="12.0170517"><ele>389.5</ele><time>2026-04-19T08:56:22.233Z</time></trkpt><trkpt lat="43.5193967" lon="12.017115"><ele>389.66666666666663</ele><time>2026-04-19T08:56:23.234Z</time></trkpt><trkpt lat="43.5194533" lon="12.0171933"><ele>389.8333333333333</ele><time>2026-04-19T08:56:24.233Z</time></trkpt><trkpt lat="43.5195117" lon="12.0172867"><ele>390.0</ele><time>2026-04-19T08:56:25.233Z</time></trkpt><trkpt lat="43.5195733" lon="12.0173867"><ele>387.8</ele><time>2026-04-19T08:56:26.234Z</time></trkpt><trkpt lat="43.519635" lon="12.0174967"><ele>385.6</ele><time>2026-04-19T08:56:27.233Z</time></trkpt><trkpt lat="43.5196933" lon="12.0176067"><ele>383.4</ele><time>2026-04-19T08:56:28.234Z</time></trkpt><trkpt lat="43.5197517" lon="12.01773"><ele>381.2</ele><time>2026-04-19T08:56:29.234Z</time></trkpt><trkpt lat="43.519805" lon="12.0178567"><ele>379.0</ele><time>2026-04-19T08:56:30.233Z</time></trkpt><trkpt lat="43.51985" lon="12.0179867"><ele>379.0</ele><time>2026-04-19T08:56:31.233Z</time></trkpt><trkpt lat="43.519895" lon="12.0181217"><ele>379.0</ele><time>2026-04-19T08:56:32.234Z</time></trkpt><trkpt lat="43.5199433" lon="12.0182517"><ele>379.0</ele><time>2026-04-19T08:56:33.233Z</time></trkpt><trkpt lat="43.520005" lon="12.01837"><ele>379.0</ele><time>2026-04-19T08:56:34.233Z</time></trkpt><trkpt lat="43.52008" lon="12.0184783"><ele>379.0</ele><time>2026-04-19T08:56:35.233Z</time></trkpt><trkpt lat="43.52017" lon="12.0185717"><ele>378.5</ele><time>2026-04-19T08:56:36.233Z</time></trkpt><trkpt lat="43.52026" lon="12.0186667"><ele>378.0</ele><time>2026-04-19T08:56:37.234Z</time></trkpt><trkpt lat="43.52035" lon="12.0187667"><ele>377.5</ele><time>2026-04-19T08:56:38.234Z</time></trkpt><trkpt lat="43.5204317" lon="12.0188817"><ele>377.0</ele><time>2026-04-19T08:56:39.234Z</time></trkpt><trkpt lat="43.52052" lon="12.0189867"><ele>377.0</ele><time>2026-04-19T08:56:40.234Z</time></trkpt><trkpt lat="43.5206133" lon="12.0190833"><ele>377.0</ele><time>2026-04-19T08:56:41.233Z</time></trkpt><trkpt lat="43.5207033" lon="12.019185"><ele>377.0</ele><time>2026-04-19T08:56:42.234Z</time></trkpt><trkpt lat="43.5207883" lon="12.0192867"><ele>377.0</ele><time>2026-04-19T08:56:43.234Z</time></trkpt><trkpt lat="43.5208617" lon="12.0193983"><ele>374.40000000000003</ele><time>2026-04-19T08:56:44.235Z</time></trkpt><trkpt lat="43.520915" lon="12.0195267"><ele>371.8</ele><time>2026-04-19T08:56:45.234Z</time></trkpt><trkpt lat="43.5209467" lon="12.019665"><ele>369.2</ele><time>2026-04-19T08:56:46.236Z</time></trkpt><trkpt lat="43.5209617" lon="12.01981"><ele>366.6</ele><time>2026-04-19T08:56:47.234Z</time></trkpt><trkpt lat="43.520965" lon="12.01997"><ele>364.0</ele><time>2026-04-19T08:56:48.234Z</time></trkpt><trkpt lat="43.5209717" lon="12.0201267"><ele>363.4</ele><time>2026-04-19T08:56:49.234Z</time></trkpt><trkpt lat="43.5209933" lon="12.020275"><ele>362.79999999999995</ele><time>2026-04-19T08:56:50.234Z</time></trkpt><trkpt lat="43.521015" lon="12.0204133"><ele>362.20000000000005</ele><time>2026-04-19T08:56:51.234Z</time></trkpt><trkpt lat="43.5210383" lon="12.02055"><ele>361.6</ele><time>2026-04-19T08:56:52.233Z</time></trkpt><trkpt lat="43.5210667" lon="12.0206767"><ele>361.0</ele><time>2026-04-19T08:56:53.233Z</time></trkpt><trkpt lat="43.5210733" lon="12.0208033"><ele>360.8333333333333</ele><time>2026-04-19T08:56:54.234Z</time></trkpt><trkpt lat="43.5210467" lon="12.0209183"><ele>360.66666666666663</ele><time>2026-04-19T08:56:55.233Z</time></trkpt><trkpt lat="43.5210017" lon="12.02102"><ele>360.5</ele><time>2026-04-19T08:56:56.24Z</time></trkpt><trkpt lat="43.5209267" lon="12.0210833"><ele>360.3333333333333</ele><time>2026-04-19T08:56:57.234Z</time></trkpt><trkpt lat="43.520845" lon="12.0211267"><ele>360.1666666666667</ele><time>2026-04-19T08:56:58.234Z</time></trkpt><trkpt lat="43.5207683" lon="12.0211683"><ele>360.0</ele><time>2026-04-19T08:56:59.236Z</time></trkpt><trkpt lat="43.5206933" lon="12.0212183"><ele>360.0</ele><time>2026-04-19T08:57:00.234Z</time></trkpt><trkpt lat="43.52063" lon="12.021305"><ele>360.0</ele><time>2026-04-19T08:57:01.233Z</time></trkpt><trkpt lat="43.520605" lon="12.0214417"><ele>360.0</ele><time>2026-04-19T08:57:02.235Z</time></trkpt><trkpt lat="43.5206033" lon="12.0216067"><ele>360.0</ele><time>2026-04-19T08:57:03.233Z</time></trkpt><trkpt lat="43.520615" lon="12.0217767"><ele>360.0</ele><time>2026-04-19T08:57:04.234Z</time></trkpt><trkpt lat="43.5206283" lon="12.0219383"><ele>360.0</ele><time>2026-04-19T08:57:05.233Z</time></trkpt><trkpt lat="43.5206383" lon="12.0220917"><ele>360.0</ele><time>2026-04-19T08:57:06.234Z</time></trkpt><trkpt lat="43.5206367" lon="12.0222383"><ele>360.0</ele><time>2026-04-19T08:57:07.233Z</time></trkpt><trkpt lat="43.5206283" lon="12.022385"><ele>360.0</ele><time>2026-04-19T08:57:08.234Z</time></trkpt><trkpt lat="43.5206033" lon="12.0225333"><ele>360.0</ele><time>2026-04-19T08:57:09.234Z</time></trkpt><trkpt lat="43.520575" lon="12.0226733"><ele>360.2</ele><time>2026-04-19T08:57:10.233Z</time></trkpt><trkpt lat="43.520545" lon="12.0228117"><ele>360.4</ele><time>2026-04-19T08:57:11.234Z</time></trkpt><trkpt lat="43.5205117" lon="12.0229433"><ele>360.6</ele><time>2026-04-19T08:57:12.233Z</time></trkpt><trkpt lat="43.520475" lon="12.0230717"><ele>360.8</ele><time>2026-04-19T08:57:13.233Z</time></trkpt><trkpt lat="43.5204533" lon="12.0232083"><ele>361.0</ele><time>2026-04-19T08:57:14.236Z</time></trkpt><trkpt lat="43.5204383" lon="12.02335"><ele>362.20000000000005</ele><time>2026-04-19T08:57:15.233Z</time></trkpt><trkpt lat="43.5204467" lon="12.0235"><ele>363.40000000000003</ele><time>2026-04-19T08:57:16.233Z</time></trkpt><trkpt lat="43.5204567" lon="12.02365"><ele>364.6</ele><time>2026-04-19T08:57:17.233Z</time></trkpt><trkpt lat="43.5204767" lon="12.0238017"><ele>365.8</ele><time>2026-04-19T08:57:18.234Z</time></trkpt><trkpt lat="43.52051" lon="12.0239517"><ele>367.0</ele><time>2026-04-19T08:57:19.234Z</time></trkpt><trkpt lat="43.520555" lon="12.0240967"><ele>366.0</ele><time>2026-04-19T08:57:20.233Z</time></trkpt><trkpt lat="43.5206133" lon="12.0242317"><ele>365.0</ele><time>2026-04-19T08:57:21.233Z</time></trkpt><trkpt lat="43.52067" lon="12.024365"><ele>364.0</ele><time>2026-04-19T08:57:22.234Z</time></trkpt><trkpt lat="43.5207217" lon="12.0245033"><ele>363.0</ele><time>2026-04-19T08:57:23.233Z</time></trkpt><trkpt lat="43.52077" lon="12.0246467"><ele>363.0</ele><time>2026-04-19T08:57:24.233Z</time></trkpt><trkpt lat="43.5208117" lon="12.0247917"><ele>363.0</ele><time>2026-04-19T08:57:25.233Z</time></trkpt><trkpt lat="43.52085" lon="12.0249233"><ele>363.0</ele><time>2026-04-19T08:57:26.234Z</time></trkpt><trkpt lat="43.5208967" lon="12.0250483"><ele>363.0</ele><time>2026-04-19T08:57:27.233Z</time></trkpt><trkpt lat="43.5209567" lon="12.0251617"><ele>363.0</ele><time>2026-04-19T08:57:28.234Z</time></trkpt><trkpt lat="43.5210283" lon="12.0252583"><ele>363.79999999999995</ele><time>2026-04-19T08:57:29.233Z</time></trkpt><trkpt lat="43.5211017" lon="12.025345"><ele>364.6</ele><time>2026-04-19T08:57:30.233Z</time></trkpt><trkpt lat="43.5211783" lon="12.025435"><ele>365.4</ele><time>2026-04-19T08:57:31.238Z</time></trkpt><trkpt lat="43.5212467" lon="12.0255267"><ele>366.20000000000005</ele><time>2026-04-19T08:57:32.233Z</time></trkpt><trkpt lat="43.5212967" lon="12.0256183"><ele>367.0</ele><time>2026-04-19T08:57:33.235Z</time></trkpt><trkpt lat="43.521335" lon="12.0257067"><ele>365.8333333333333</ele><time>2026-04-19T08:57:34.233Z</time></trkpt><trkpt lat="43.5213567" lon="12.0258283"><ele>364.66666666666663</ele><time>2026-04-19T08:57:36.239Z</time></trkpt><trkpt lat="43.52136" lon="12.0259267"><ele>363.5</ele><time>2026-04-19T08:57:38.233Z</time></trkpt><trkpt lat="43.5213683" lon="12.026035"><ele>362.3333333333333</ele><time>2026-04-19T08:57:40.233Z</time></trkpt><trkpt lat="43.5213817" lon="12.026165"><ele>361.1666666666667</ele><time>2026-04-19T08:57:42.233Z</time></trkpt><trkpt lat="43.521395" lon="12.0262583"><ele>360.0</ele><time>2026-04-19T08:57:43.233Z</time></trkpt><trkpt lat="43.52141" lon="12.02635"><ele>360.0</ele><time>2026-04-19T08:57:44.233Z</time></trkpt><trkpt lat="43.5214317" lon="12.0264417"><ele>360.0</ele><time>2026-04-19T08:57:45.233Z</time></trkpt><trkpt lat="43.5214567" lon="12.02653"><ele>360.0</ele><time>2026-04-19T08:57:46.233Z</time></trkpt><trkpt lat="43.5214833" lon="12.02662"><ele>360.0</ele><time>2026-04-19T08:57:47.234Z</time></trkpt><trkpt lat="43.5215167" lon="12.0267067"><ele>360.0</ele><time>2026-04-19T08:57:48.234Z</time></trkpt><trkpt lat="43.5215517" lon="12.0268"><ele>360.0</ele><time>2026-04-19T08:57:49.233Z</time></trkpt><trkpt lat="43.5215867" lon="12.0268967"><ele>360.0</ele><time>2026-04-19T08:57:50.234Z</time></trkpt><trkpt lat="43.5216233" lon="12.0269917"><ele>359.8333333333333</ele><time>2026-04-19T08:57:51.235Z</time></trkpt><trkpt lat="43.5216633" lon="12.02708"><ele>359.6666666666667</ele><time>2026-04-19T08:57:52.239Z</time></trkpt><trkpt lat="43.521705" lon="12.0271733"><ele>359.5</ele><time>2026-04-19T08:57:53.235Z</time></trkpt><trkpt lat="43.5217433" lon="12.0272683"><ele>359.33333333333337</ele><time>2026-04-19T08:57:54.234Z</time></trkpt><trkpt lat="43.52178" lon="12.0273683"><ele>359.1666666666667</ele><time>2026-04-19T08:57:55.233Z</time></trkpt><trkpt lat="43.52182" lon="12.02747"><ele>359.0</ele><time>2026-04-19T08:57:56.234Z</time></trkpt><trkpt lat="43.5218617" lon="12.0275717"><ele>358.0</ele><time>2026-04-19T08:57:57.234Z</time></trkpt><trkpt lat="43.5219033" lon="12.0276917"><ele>357.0</ele><time>2026-04-19T08:57:58.234Z</time></trkpt><trkpt lat="43.5219383" lon="12.0278283"><ele>356.0</ele><time>2026-04-19T08:57:59.234Z</time></trkpt><trkpt lat="43.5219583" lon="12.0279767"><ele>355.0</ele><time>2026-04-19T08:58:00.234Z</time></trkpt><trkpt lat="43.5219783" lon="12.0281317"><ele>354.0</ele><time>2026-04-19T08:58:01.233Z</time></trkpt><trkpt lat="43.5219883" lon="12.0282917"><ele>353.4</ele><time>2026-04-19T08:58:02.235Z</time></trkpt><trkpt lat="43.5219983" lon="12.0284417"><ele>352.79999999999995</ele><time>2026-04-19T08:58:03.233Z</time></trkpt><trkpt lat="43.5220133" lon="12.0285833"><ele>352.20000000000005</ele><time>2026-04-19T08:58:04.233Z</time></trkpt><trkpt lat="43.52204" lon="12.0287217"><ele>351.6</ele><time>2026-04-19T08:58:05.234Z</time></trkpt><trkpt lat="43.5221033" lon="12.0288533"><ele>351.0</ele><time>2026-04-19T08:58:06.233Z</time></trkpt><trkpt lat="43.5221867" lon="12.0289667"><ele>351.0</ele><time>2026-04-19T08:58:07.234Z</time></trkpt><trkpt lat="43.5222833" lon="12.0290733"><ele>351.0</ele><time>2026-04-19T08:58:08.234Z</time></trkpt><trkpt lat="43.5223783" lon="12.02918"><ele>351.0</ele><time>2026-04-19T08:58:09.233Z</time></trkpt><trkpt lat="43.52246" lon="12.0293017"><ele>351.0</ele><time>2026-04-19T08:58:10.235Z</time></trkpt><trkpt lat="43.5225233" lon="12.0294367"><ele>351.0</ele><time>2026-04-19T08:58:11.234Z</time></trkpt><trkpt lat="43.522575" lon="12.0295767"><ele>351.0</ele><time>2026-04-19T08:58:12.233Z</time></trkpt><trkpt lat="43.522615" lon="12.0297233"><ele>351.0</ele><time>2026-04-19T08:58:13.234Z</time></trkpt><trkpt lat="43.5226533" lon="12.0298717"><ele>351.0</ele><time>2026-04-19T08:58:14.233Z</time></trkpt><trkpt lat="43.5226883" lon="12.0300267"><ele>349.25</ele><time>2026-04-19T08:58:15.233Z</time></trkpt><trkpt lat="43.5227267" lon="12.0301783"><ele>347.5</ele><time>2026-04-19T08:58:16.233Z</time></trkpt><trkpt lat="43.522765" lon="12.0303283"><ele>345.75</ele><time>2026-04-19T08:58:17.233Z</time></trkpt><trkpt lat="43.5228083" lon="12.03048"><ele>344.0</ele><time>2026-04-19T08:58:18.233Z</time></trkpt><trkpt lat="43.5228533" lon="12.030625"><ele>346.25</ele><time>2026-04-19T08:58:19.234Z</time></trkpt><trkpt lat="43.5229117" lon="12.030755"><ele>348.5</ele><time>2026-04-19T08:58:20.234Z</time></trkpt><trkpt lat="43.52299" lon="12.0308667"><ele>350.75</ele><time>2026-04-19T08:58:21.234Z</time></trkpt><trkpt lat="43.5230783" lon="12.0309667"><ele>353.0</ele><time>2026-04-19T08:58:22.233Z</time></trkpt><trkpt lat="43.5231783" lon="12.0310633"><ele>353.0</ele><time>2026-04-19T08:58:23.233Z</time></trkpt><trkpt lat="43.5232767" lon="12.0311683"><ele>353.0</ele><time>2026-04-19T08:58:24.234Z</time></trkpt><trkpt lat="43.5233583" lon="12.0312833"><ele>353.0</ele><time>2026-04-19T08:58:25.233Z</time></trkpt><trkpt lat="43.52342" lon="12.0314267"><ele>353.0</ele><time>2026-04-19T08:58:26.233Z</time></trkpt><trkpt lat="43.52346" lon="12.031585"><ele>351.0</ele><time>2026-04-19T08:58:27.233Z</time></trkpt><trkpt lat="43.523495" lon="12.0317467"><ele>349.0</ele><time>2026-04-19T08:58:28.238Z</time></trkpt><trkpt lat="43.5235183" lon="12.0319083"><ele>347.0</ele><time>2026-04-19T08:58:29.233Z</time></trkpt><trkpt lat="43.5235317" lon="12.0320733"><ele>345.0</ele><time>2026-04-19T08:58:30.234Z</time></trkpt><trkpt lat="43.5235217" lon="12.0322417"><ele>345.0</ele><time>2026-04-19T08:58:31.234Z</time></trkpt><trkpt lat="43.5235017" lon="12.032405"><ele>345.0</ele><time>2026-04-19T08:58:32.234Z</time></trkpt><trkpt lat="43.5234883" lon="12.0325667"><ele>345.0</ele><time>2026-04-19T08:58:33.233Z</time></trkpt><trkpt lat="43.523505" lon="12.0327183"><ele>345.0</ele><time>2026-04-19T08:58:34.234Z</time></trkpt><trkpt lat="43.5235267" lon="12.032875"><ele>344.5</ele><time>2026-04-19T08:58:35.233Z</time></trkpt><trkpt lat="43.5235583" lon="12.0330317"><ele>344.0</ele><time>2026-04-19T08:58:36.233Z</time></trkpt><trkpt lat="43.52359" lon="12.033195"><ele>343.5</ele><time>2026-04-19T08:58:37.233Z</time></trkpt><trkpt lat="43.52363" lon="12.033355"><ele>343.0</ele><time>2026-04-19T08:58:38.234Z</time></trkpt><trkpt lat="43.523675" lon="12.033505"><ele>343.0</ele><time>2026-04-19T08:58:39.234Z</time></trkpt><trkpt lat="43.5237217" lon="12.0336567"><ele>343.0</ele><time>2026-04-19T08:58:40.233Z</time></trkpt><trkpt lat="43.5237633" lon="12.033805"><ele>343.0</ele><time>2026-04-19T08:58:41.233Z</time></trkpt><trkpt lat="43.5237983" lon="12.03395"><ele>343.0</ele><time>2026-04-19T08:58:42.233Z</time></trkpt><trkpt lat="43.5238233" lon="12.03411"><ele>345.5</ele><time>2026-04-19T08:58:43.234Z</time></trkpt><trkpt lat="43.52384" lon="12.0342683"><ele>348.0</ele><time>2026-04-19T08:58:44.234Z</time></trkpt><trkpt lat="43.52387" lon="12.0344267"><ele>350.5</ele><time>2026-04-19T08:58:45.233Z</time></trkpt><trkpt lat="43.5239217" lon="12.034565"><ele>353.0</ele><time>2026-04-19T08:58:46.233Z</time></trkpt><trkpt lat="43.523995" lon="12.0346867"><ele>353.0</ele><time>2026-04-19T08:58:47.236Z</time></trkpt><trkpt lat="43.5240717" lon="12.034795"><ele>353.0</ele><time>2026-04-19T08:58:48.235Z</time></trkpt><trkpt lat="43.5241533" lon="12.0349"><ele>353.0</ele><time>2026-04-19T08:58:49.235Z</time></trkpt><trkpt lat="43.5242367" lon="12.0350017"><ele>353.0</ele><time>2026-04-19T08:58:50.234Z</time></trkpt><trkpt lat="43.5243217" lon="12.035105"><ele>353.0</ele><time>2026-04-19T08:58:51.236Z</time></trkpt><trkpt lat="43.524405" lon="12.03521"><ele>353.75</ele><time>2026-04-19T08:58:52.234Z</time></trkpt><trkpt lat="43.5244883" lon="12.03532"><ele>354.5</ele><time>2026-04-19T08:58:53.234Z</time></trkpt><trkpt lat="43.5245667" lon="12.03544"><ele>355.25</ele><time>2026-04-19T08:58:54.234Z</time></trkpt><trkpt lat="43.5246383" lon="12.0355667"><ele>356.0</ele><time>2026-04-19T08:58:55.234Z</time></trkpt><trkpt lat="43.524705" lon="12.035695"><ele>353.20000000000005</ele><time>2026-04-19T08:58:56.233Z</time></trkpt><trkpt lat="43.5247633" lon="12.035825"><ele>350.40000000000003</ele><time>2026-04-19T08:58:57.234Z</time></trkpt><trkpt lat="43.52482" lon="12.0359533"><ele>347.6</ele><time>2026-04-19T08:58:58.234Z</time></trkpt><trkpt lat="43.524875" lon="12.036085"><ele>344.8</ele><time>2026-04-19T08:58:59.233Z</time></trkpt><trkpt lat="43.5249317" lon="12.03622"><ele>342.0</ele><time>2026-04-19T08:59:00.235Z</time></trkpt><trkpt lat="43.524985" lon="12.0363583"><ele>342.0</ele><time>2026-04-19T08:59:01.234Z</time></trkpt><trkpt lat="43.5250367" lon="12.0364967"><ele>342.0</ele><time>2026-04-19T08:59:02.233Z</time></trkpt><trkpt lat="43.5250895" lon="12.0366323"><ele>342.0</ele><time>2026-04-19T08:59:03.234Z</time></trkpt><trkpt lat="43.5251341" lon="12.0367531"><ele>342.0</ele><time>2026-04-19T08:59:04.233Z</time></trkpt><trkpt lat="43.5251722" lon="12.0368522"><ele>342.0</ele><time>2026-04-19T08:59:05.233Z</time></trkpt><trkpt lat="43.5252041" lon="12.0369358"><ele>341.6</ele><time>2026-04-19T08:59:06.234Z</time></trkpt><trkpt lat="43.5252533" lon="12.0370703"><ele>341.20000000000005</ele><time>2026-04-19T08:59:08.234Z</time></trkpt><trkpt lat="43.5253018" lon="12.037174"><ele>340.8</ele><time>2026-04-19T08:59:10.233Z</time></trkpt><trkpt lat="43.5253514" lon="12.037281"><ele>340.4</ele><time>2026-04-19T08:59:12.234Z</time></trkpt><trkpt lat="43.5254108" lon="12.0374018"><ele>340.0</ele><time>2026-04-19T08:59:14.233Z</time></trkpt><trkpt lat="43.5254813" lon="12.0375314"><ele>340.0</ele><time>2026-04-19T08:59:16.233Z</time></trkpt><trkpt lat="43.5255185" lon="12.037611"><ele>340.0</ele><time>2026-04-19T08:59:17.234Z</time></trkpt><trkpt lat="43.5255588" lon="12.0376972"><ele>340.0</ele><time>2026-04-19T08:59:18.234Z</time></trkpt><trkpt lat="43.5256032" lon="12.0377876"><ele>340.0</ele><time>2026-04-19T08:59:19.233Z</time></trkpt><trkpt lat="43.5256483" lon="12.0378815"><ele>340.0</ele><time>2026-04-19T08:59:20.234Z</time></trkpt><trkpt lat="43.5256966" lon="12.0379779"><ele>340.0</ele><time>2026-04-19T08:59:21.234Z</time></trkpt><trkpt lat="43.5257444" lon="12.0380779"><ele>340.0</ele><time>2026-04-19T08:59:22.233Z</time></trkpt><trkpt lat="43.525792" lon="12.0381802"><ele>340.0</ele><time>2026-04-19T08:59:23.234Z</time></trkpt><trkpt lat="43.5258414" lon="12.0382858"><ele>340.0</ele><time>2026-04-19T08:59:24.233Z</time></trkpt><trkpt lat="43.5258893" lon="12.0383942"><ele>340.0</ele><time>2026-04-19T08:59:25.233Z</time></trkpt><trkpt lat="43.5259321" lon="12.0385067"><ele>340.0</ele><time>2026-04-19T08:59:26.235Z</time></trkpt><trkpt lat="43.5259729" lon="12.0386165"><ele>339.0</ele><time>2026-04-19T08:59:27.233Z</time></trkpt><trkpt lat="43.5260168" lon="12.0387251"><ele>338.0</ele><time>2026-04-19T08:59:28.234Z</time></trkpt><trkpt lat="43.5260616" lon="12.0388279"><ele>337.0</ele><time>2026-04-19T08:59:29.233Z</time></trkpt><trkpt lat="43.5261054" lon="12.0389229"><ele>336.0</ele><time>2026-04-19T08:59:30.233Z</time></trkpt><trkpt lat="43.5261457" lon="12.0390179"><ele>335.0</ele><time>2026-04-19T08:59:31.233Z</time></trkpt><trkpt lat="43.5261822" lon="12.0391122"><ele>334.0</ele><time>2026-04-19T08:59:32.234Z</time></trkpt><trkpt lat="43.5262207" lon="12.0392052"><ele>334.16666666666663</ele><time>2026-04-19T08:59:33.234Z</time></trkpt><trkpt lat="43.5262618" lon="12.0392904"><ele>334.3333333333333</ele><time>2026-04-19T08:59:34.234Z</time></trkpt><trkpt lat="43.526323" lon="12.0394151"><ele>334.5</ele><time>2026-04-19T08:59:36.234Z</time></trkpt><trkpt lat="43.5263716" lon="12.039511"><ele>334.6666666666667</ele><time>2026-04-19T08:59:39.234Z</time></trkpt><trkpt lat="43.5264283" lon="12.039455"><ele>334.83333333333337</ele><time>2026-04-19T08:59:52.234Z</time></trkpt><trkpt lat="43.5264483" lon="12.0393417"><ele>335.0</ele><time>2026-04-19T08:59:54.233Z</time></trkpt><trkpt lat="43.526495" lon="12.0392417"><ele>335.0</ele><time>2026-04-19T08:59:56.234Z</time></trkpt><trkpt lat="43.5265617" lon="12.03922"><ele>335.0</ele><time>2026-04-19T08:59:58.233Z</time></trkpt><trkpt lat="43.526635" lon="12.0392083"><ele>335.0</ele><time>2026-04-19T09:00:00.233Z</time></trkpt><trkpt lat="43.5267509" lon="12.039213"><ele>335.0</ele><time>2026-04-19T09:00:03.212Z</time></trkpt><trkpt lat="43.526822" lon="12.0391701"><ele>335.0</ele><time>2026-04-19T09:00:05.27Z</time></trkpt><trkpt lat="43.5268869" lon="12.0390885"><ele>335.0</ele><time>2026-04-19T09:00:08.273Z</time></trkpt><trkpt lat="43.5268443" lon="12.0390023"><ele>335.0</ele><time>2026-04-19T09:00:11.277Z</time></trkpt><trkpt lat="43.5267609" lon="12.0389499"><ele>335.0</ele><time>2026-04-19T09:00:14.279Z</time></trkpt><trkpt lat="43.5267311" lon="12.03886"><ele>335.0</ele><time>2026-04-19T09:00:17.281Z</time></trkpt><trkpt lat="43.5268014" lon="12.0389087"><ele>335.0</ele><time>2026-04-19T09:00:25.29Z</time></trkpt><trkpt lat="43.5268727" lon="12.0390564"><ele>335.0</ele><time>2026-04-19T09:00:28.292Z</time></trkpt><trkpt lat="43.5268241" lon="12.0391443"><ele>335.0</ele><time>2026-04-19T09:00:30.242Z</time></trkpt><trkpt lat="43.5267318" lon="12.0391963"><ele>335.0</ele><time>2026-04-19T09:00:32.234Z</time></trkpt><trkpt lat="43.5266317" lon="12.0392583"><ele>335.0</ele><time>2026-04-19T09:00:33.233Z</time></trkpt><trkpt lat="43.5265217" lon="12.03929"><ele>335.0</ele><time>2026-04-19T09:00:35.234Z</time></trkpt><trkpt lat="43.5264567" lon="12.0393667"><ele>335.0</ele><time>2026-04-19T09:00:37.234Z</time></trkpt><trkpt lat="43.5264533" lon="12.0394917"><ele>335.0</ele><time>2026-04-19T09:00:39.233Z</time></trkpt><trkpt lat="43.5264217" lon="12.03962"><ele>335.0</ele><time>2026-04-19T09:00:41.233Z</time></trkpt><trkpt lat="43.52643" lon="12.0398317"><ele>335.0</ele><time>2026-04-19T09:00:43.233Z</time></trkpt><trkpt lat="43.5264233" lon="12.0399583"><ele>335.0</ele><time>2026-04-19T09:00:44.233Z</time></trkpt><trkpt lat="43.5264033" lon="12.04008"><ele>335.0</ele><time>2026-04-19T09:00:45.233Z</time></trkpt><trkpt lat="43.5263783" lon="12.0401733"><ele>333.6666666666667</ele><time>2026-04-19T09:00:46.233Z</time></trkpt><trkpt lat="43.5263483" lon="12.0403083"><ele>332.33333333333337</ele><time>2026-04-19T09:00:48.235Z</time></trkpt><trkpt lat="43.5264" lon="12.0404083"><ele>331.0</ele><time>2026-04-19T09:00:51.235Z</time></trkpt><trkpt lat="43.526495" lon="12.0404383"><ele>329.6666666666667</ele><time>2026-04-19T09:00:53.235Z</time></trkpt><trkpt lat="43.5265583" lon="12.0404533"><ele>328.3333333333333</ele><time>2026-04-19T09:00:54.233Z</time></trkpt><trkpt lat="43.52663" lon="12.04047"><ele>327.0</ele><time>2026-04-19T09:00:55.233Z</time></trkpt><trkpt lat="43.5267033" lon="12.0404833"><ele>327.0</ele><time>2026-04-19T09:00:56.234Z</time></trkpt><trkpt lat="43.526785" lon="12.040495"><ele>327.0</ele><time>2026-04-19T09:00:57.234Z</time></trkpt><trkpt lat="43.5268717" lon="12.0404933"><ele>327.0</ele><time>2026-04-19T09:00:58.238Z</time></trkpt><trkpt lat="43.526955" lon="12.040485"><ele>327.0</ele><time>2026-04-19T09:00:59.233Z</time></trkpt><trkpt lat="43.5270383" lon="12.0404717"><ele>327.0</ele><time>2026-04-19T09:01:00.233Z</time></trkpt><trkpt lat="43.5271233" lon="12.0404583"><ele>327.0</ele><time>2026-04-19T09:01:01.234Z</time></trkpt><trkpt lat="43.52721" lon="12.0404483"><ele>326.8</ele><time>2026-04-19T09:01:02.234Z</time></trkpt><trkpt lat="43.5273" lon="12.0404417"><ele>326.6</ele><time>2026-04-19T09:01:03.234Z</time></trkpt><trkpt lat="43.5273883" lon="12.040435"><ele>326.40000000000003</ele><time>2026-04-19T09:01:04.233Z</time></trkpt><trkpt lat="43.5274767" lon="12.04043"><ele>326.20000000000005</ele><time>2026-04-19T09:01:05.236Z</time></trkpt><trkpt lat="43.52757" lon="12.040425"><ele>326.0</ele><time>2026-04-19T09:01:06.236Z</time></trkpt><trkpt lat="43.5276667" lon="12.04042"><ele>326.0</ele><time>2026-04-19T09:01:07.234Z</time></trkpt><trkpt lat="43.52776" lon="12.0404083"><ele>326.0</ele><time>2026-04-19T09:01:08.236Z</time></trkpt><trkpt lat="43.52785" lon="12.0403867"><ele>326.0</ele><time>2026-04-19T09:01:09.235Z</time></trkpt><trkpt lat="43.52793" lon="12.0403467"><ele>326.0</ele><time>2026-04-19T09:01:10.234Z</time></trkpt><trkpt lat="43.5279967" lon="12.0402817"><ele>326.0</ele><time>2026-04-19T09:01:11.233Z</time></trkpt><trkpt lat="43.5280533" lon="12.0402033"><ele>326.0</ele><time>2026-04-19T09:01:12.233Z</time></trkpt><trkpt lat="43.528105" lon="12.040115"><ele>326.33333333333337</ele><time>2026-04-19T09:01:13.234Z</time></trkpt><trkpt lat="43.528145" lon="12.0400217"><ele>326.6666666666667</ele><time>2026-04-19T09:01:14.233Z</time></trkpt><trkpt lat="43.5281767" lon="12.0399233"><ele>327.0</ele><time>2026-04-19T09:01:15.234Z</time></trkpt><trkpt lat="43.5282" lon="12.03982"><ele>327.3333333333333</ele><time>2026-04-19T09:01:16.233Z</time></trkpt><trkpt lat="43.5282233" lon="12.039715"><ele>327.66666666666663</ele><time>2026-04-19T09:01:17.234Z</time></trkpt><trkpt lat="43.528245" lon="12.039605"><ele>328.0</ele><time>2026-04-19T09:01:18.233Z</time></trkpt><trkpt lat="43.5282733" lon="12.0394983"><ele>329.16666666666663</ele><time>2026-04-19T09:01:19.235Z</time></trkpt><trkpt lat="43.5283083" lon="12.0393917"><ele>330.3333333333333</ele><time>2026-04-19T09:01:20.234Z</time></trkpt><trkpt lat="43.528355" lon="12.039285"><ele>331.5</ele><time>2026-04-19T09:01:21.235Z</time></trkpt><trkpt lat="43.5284167" lon="12.039205"><ele>332.6666666666667</ele><time>2026-04-19T09:01:22.233Z</time></trkpt><trkpt lat="43.5284883" lon="12.0391417"><ele>333.83333333333337</ele><time>2026-04-19T09:01:23.235Z</time></trkpt><trkpt lat="43.5285667" lon="12.0390867"><ele>335.0</ele><time>2026-04-19T09:01:24.234Z</time></trkpt><trkpt lat="43.5286483" lon="12.0390317"><ele>336.1666666666667</ele><time>2026-04-19T09:01:25.233Z</time></trkpt><trkpt lat="43.5287283" lon="12.0389717"><ele>337.33333333333337</ele><time>2026-04-19T09:01:26.233Z</time></trkpt><trkpt lat="43.5288033" lon="12.0389083"><ele>338.5</ele><time>2026-04-19T09:01:27.233Z</time></trkpt><trkpt lat="43.528875" lon="12.0388467"><ele>339.6666666666667</ele><time>2026-04-19T09:01:28.235Z</time></trkpt><trkpt lat="43.5289483" lon="12.03878"><ele>340.8333333333333</ele><time>2026-04-19T09:01:29.233Z</time></trkpt><trkpt lat="43.529025" lon="12.0387117"><ele>342.0</ele><time>2026-04-19T09:01:30.233Z</time></trkpt><trkpt lat="43.5291033" lon="12.03864"><ele>342.0</ele><time>2026-04-19T09:01:31.234Z</time></trkpt><trkpt lat="43.5291817" lon="12.038565"><ele>342.0</ele><time>2026-04-19T09:01:32.234Z</time></trkpt><trkpt lat="43.529265" lon="12.03849"><ele>342.0</ele><time>2026-04-19T09:01:33.233Z</time></trkpt><trkpt lat="43.529345" lon="12.038415"><ele>342.0</ele><time>2026-04-19T09:01:34.233Z</time></trkpt><trkpt lat="43.529425" lon="12.038345"><ele>342.0</ele><time>2026-04-19T09:01:35.235Z</time></trkpt><trkpt lat="43.5295067" lon="12.03827"><ele>341.75</ele><time>2026-04-19T09:01:36.235Z</time></trkpt><trkpt lat="43.5295917" lon="12.0381867"><ele>341.5</ele><time>2026-04-19T09:01:37.235Z</time></trkpt><trkpt lat="43.5296833" lon="12.0380983"><ele>341.25</ele><time>2026-04-19T09:01:38.233Z</time></trkpt><trkpt lat="43.5297817" lon="12.0380117"><ele>341.0</ele><time>2026-04-19T09:01:39.235Z</time></trkpt><trkpt lat="43.529885" lon="12.03792"><ele>341.0</ele><time>2026-04-19T09:01:40.233Z</time></trkpt><trkpt lat="43.529985" lon="12.0378233"><ele>341.0</ele><time>2026-04-19T09:01:41.234Z</time></trkpt><trkpt lat="43.53008" lon="12.0377233"><ele>341.0</ele><time>2026-04-19T09:01:42.233Z</time></trkpt><trkpt lat="43.5301767" lon="12.03761"><ele>341.0</ele><time>2026-04-19T09:01:43.233Z</time></trkpt><trkpt lat="43.5302667" lon="12.037485"><ele>339.5</ele><time>2026-04-19T09:01:44.234Z</time></trkpt><trkpt lat="43.5303533" lon="12.0373583"><ele>338.0</ele><time>2026-04-19T09:01:45.233Z</time></trkpt><trkpt lat="43.5304333" lon="12.0372367"><ele>336.5</ele><time>2026-04-19T09:01:46.234Z</time></trkpt><trkpt lat="43.5305033" lon="12.0371183"><ele>335.0</ele><time>2026-04-19T09:01:47.233Z</time></trkpt><trkpt lat="43.5305717" lon="12.0369983"><ele>335.0</ele><time>2026-04-19T09:01:48.233Z</time></trkpt><trkpt lat="43.53063" lon="12.0368717"><ele>335.0</ele><time>2026-04-19T09:01:49.233Z</time></trkpt><trkpt lat="43.5306767" lon="12.0367433"><ele>335.0</ele><time>2026-04-19T09:01:50.234Z</time></trkpt><trkpt lat="43.5307167" lon="12.0366117"><ele>335.0</ele><time>2026-04-19T09:01:51.234Z</time></trkpt><trkpt lat="43.5307517" lon="12.036495"><ele>335.0</ele><time>2026-04-19T09:01:52.235Z</time></trkpt><trkpt lat="43.5307817" lon="12.036385"><ele>337.1666666666667</ele><time>2026-04-19T09:01:53.233Z</time></trkpt><trkpt lat="43.5308167" lon="12.0362883"><ele>339.33333333333337</ele><time>2026-04-19T09:01:54.234Z</time></trkpt><trkpt lat="43.5308667" lon="12.036215"><ele>341.5</ele><time>2026-04-19T09:01:55.234Z</time></trkpt><trkpt lat="43.53094" lon="12.03616"><ele>343.6666666666667</ele><time>2026-04-19T09:01:56.233Z</time></trkpt><trkpt lat="43.5310217" lon="12.0361267"><ele>345.8333333333333</ele><time>2026-04-19T09:01:57.234Z</time></trkpt><trkpt lat="43.53112" lon="12.0361383"><ele>348.0</ele><time>2026-04-19T09:01:58.233Z</time></trkpt><trkpt lat="43.5312167" lon="12.0361617"><ele>346.0</ele><time>2026-04-19T09:01:59.233Z</time></trkpt><trkpt lat="43.5313117" lon="12.03619"><ele>344.0</ele><time>2026-04-19T09:02:00.233Z</time></trkpt><trkpt lat="43.5314033" lon="12.03621"><ele>342.0</ele><time>2026-04-19T09:02:01.233Z</time></trkpt><trkpt lat="43.5314833" lon="12.0362283"><ele>340.0</ele><time>2026-04-19T09:02:02.235Z</time></trkpt><trkpt lat="43.5315583" lon="12.0362267"><ele>338.0</ele><time>2026-04-19T09:02:03.235Z</time></trkpt><trkpt lat="43.531625" lon="12.03621"><ele>336.0</ele><time>2026-04-19T09:02:04.233Z</time></trkpt><trkpt lat="43.5316767" lon="12.03616"><ele>336.0</ele><time>2026-04-19T09:02:05.233Z</time></trkpt><trkpt lat="43.5317517" lon="12.0360433"><ele>336.0</ele><time>2026-04-19T09:02:07.233Z</time></trkpt><trkpt lat="43.5318367" lon="12.035925"><ele>336.0</ele><time>2026-04-19T09:02:09.233Z</time></trkpt><trkpt lat="43.5319333" lon="12.0358167"><ele>336.0</ele><time>2026-04-19T09:02:11.235Z</time></trkpt><trkpt lat="43.531985" lon="12.0357633"><ele>336.0</ele><time>2026-04-19T09:02:12.233Z</time></trkpt><trkpt lat="43.5320767" lon="12.035655"><ele>335.6666666666667</ele><time>2026-04-19T09:02:14.234Z</time></trkpt><trkpt lat="43.53215" lon="12.03551"><ele>335.3333333333333</ele><time>2026-04-19T09:02:16.233Z</time></trkpt><trkpt lat="43.532185" lon="12.0354233"><ele>335.0</ele><time>2026-04-19T09:02:17.234Z</time></trkpt><trkpt lat="43.5322183" lon="12.0353333"><ele>334.66666666666663</ele><time>2026-04-19T09:02:18.234Z</time></trkpt><trkpt lat="43.5322483" lon="12.0352367"><ele>334.3333333333333</ele><time>2026-04-19T09:02:19.233Z</time></trkpt><trkpt lat="43.5322686" lon="12.03513"><ele>334.0</ele><time>2026-04-19T09:02:20.234Z</time></trkpt><trkpt lat="43.5322745" lon="12.0350174"><ele>334.0</ele><time>2026-04-19T09:02:21.234Z</time></trkpt><trkpt lat="43.532269" lon="12.0349044"><ele>340.0</ele><time>2026-04-19T09:02:22.233Z</time></trkpt><trkpt lat="43.5322522" lon="12.0347983"><ele>340.0</ele><time>2026-04-19T09:02:23.234Z</time></trkpt><trkpt lat="43.5322246" lon="12.0347114"><ele>340.0</ele><time>2026-04-19T09:02:24.234Z</time></trkpt><trkpt lat="43.5321723" lon="12.0345805"><ele>340.0</ele><time>2026-04-19T09:02:26.234Z</time></trkpt><trkpt lat="43.5321491" lon="12.0344954"><ele>340.0</ele><time>2026-04-19T09:02:28.235Z</time></trkpt></trkseg><trkseg><trkpt lat="43.5203006" lon="12.0451894"><ele>325.5</ele><time>2026-04-19T09:30:42.235Z</time></trkpt><trkpt lat="43.5204331" lon="12.0451113"><ele>325.0</ele><time>2026-04-19T09:30:43.232Z</time></trkpt><trkpt lat="43.5211014" lon="12.0447392"><ele>325.0</ele><time>2026-04-19T09:30:48.232Z</time></trkpt><trkpt lat="43.5212282" lon="12.0446524"><ele>325.0</ele><time>2026-04-19T09:30:49.233Z</time></trkpt><trkpt lat="43.5213504" lon="12.0445514"><ele>325.0</ele><time>2026-04-19T09:30:50.233Z</time></trkpt><trkpt lat="43.5214717" lon="12.0444428"><ele>325.0</ele><time>2026-04-19T09:30:51.232Z</time></trkpt><trkpt lat="43.521589" lon="12.044322"><ele>325.0</ele><time>2026-04-19T09:30:52.232Z</time></trkpt><trkpt lat="43.5217048" lon="12.0442036"><ele>325.0</ele><time>2026-04-19T09:30:53.233Z</time></trkpt><trkpt lat="43.5218181" lon="12.0440833"><ele>325.0</ele><time>2026-04-19T09:30:54.233Z</time></trkpt><trkpt lat="43.5219259" lon="12.0439633"><ele>325.0</ele><time>2026-04-19T09:30:55.233Z</time></trkpt><trkpt lat="43.5220293" lon="12.0438356"><ele>324.75</ele><time>2026-04-19T09:30:56.232Z</time></trkpt><trkpt lat="43.5221306" lon="12.0436939"><ele>324.5</ele><time>2026-04-19T09:30:57.327Z</time></trkpt><trkpt lat="43.5222194" lon="12.0435617"><ele>324.25</ele><time>2026-04-19T09:30:58.233Z</time></trkpt><trkpt lat="43.5223063" lon="12.0434238"><ele>324.0</ele><time>2026-04-19T09:30:59.235Z</time></trkpt><trkpt lat="43.5223732" lon="12.0433116"><ele>324.8333333333333</ele><time>2026-04-19T09:31:00.234Z</time></trkpt><trkpt lat="43.5224211" lon="12.043208"><ele>325.6666666666667</ele><time>2026-04-19T09:31:02.234Z</time></trkpt><trkpt lat="43.5223749" lon="12.0430695"><ele>326.5</ele><time>2026-04-19T09:31:09.234Z</time></trkpt><trkpt lat="43.5223712" lon="12.042981"><ele>327.33333333333337</ele><time>2026-04-19T09:31:10.233Z</time></trkpt><trkpt lat="43.5223732" lon="12.0428864"><ele>328.1666666666667</ele><time>2026-04-19T09:31:11.233Z</time></trkpt><trkpt lat="43.5223787" lon="12.0427856"><ele>329.0</ele><time>2026-04-19T09:31:12.234Z</time></trkpt><trkpt lat="43.5223967" lon="12.0426789"><ele>329.0</ele><time>2026-04-19T09:31:13.232Z</time></trkpt><trkpt lat="43.5224278" lon="12.0425723"><ele>329.0</ele><time>2026-04-19T09:31:14.233Z</time></trkpt><trkpt lat="43.5224723" lon="12.0424812"><ele>329.0</ele><time>2026-04-19T09:31:15.234Z</time></trkpt><trkpt lat="43.5225248" lon="12.042402"><ele>329.0</ele><time>2026-04-19T09:31:16.235Z</time></trkpt><trkpt lat="43.5225798" lon="12.0423256"><ele>329.0</ele><time>2026-04-19T09:31:17.232Z</time></trkpt><trkpt lat="43.522643" lon="12.0422483"><ele>329.0</ele><time>2026-04-19T09:31:18.233Z</time></trkpt><trkpt lat="43.5227125" lon="12.0421763"><ele>328.83333333333337</ele><time>2026-04-19T09:31:19.233Z</time></trkpt><trkpt lat="43.5227875" lon="12.0421183"><ele>328.6666666666667</ele><time>2026-04-19T09:31:20.233Z</time></trkpt><trkpt lat="43.5228595" lon="12.0420613"><ele>328.5</ele><time>2026-04-19T09:31:21.235Z</time></trkpt><trkpt lat="43.5229248" lon="12.0420015"><ele>328.3333333333333</ele><time>2026-04-19T09:31:22.233Z</time></trkpt><trkpt lat="43.5229897" lon="12.0419426"><ele>328.16666666666663</ele><time>2026-04-19T09:31:23.232Z</time></trkpt><trkpt lat="43.5230491" lon="12.0418802"><ele>328.0</ele><time>2026-04-19T09:31:24.232Z</time></trkpt><trkpt lat="43.5230961" lon="12.0418086"><ele>328.0</ele><time>2026-04-19T09:31:25.232Z</time></trkpt><trkpt lat="43.5231443" lon="12.0417415"><ele>328.0</ele><time>2026-04-19T09:31:26.233Z</time></trkpt><trkpt lat="43.5231903" lon="12.0416812"><ele>328.0</ele><time>2026-04-19T09:31:27.232Z</time></trkpt><trkpt lat="43.5232752" lon="12.0415839"><ele>328.0</ele><time>2026-04-19T09:31:29.233Z</time></trkpt><trkpt lat="43.5233649" lon="12.0414982"><ele>328.0</ele><time>2026-04-19T09:31:31.233Z</time></trkpt><trkpt lat="43.5234692" lon="12.0414185"><ele>327.8333333333333</ele><time>2026-04-19T09:31:33.232Z</time></trkpt><trkpt lat="43.5235295" lon="12.0413801"><ele>327.66666666666663</ele><time>2026-04-19T09:31:34.233Z</time></trkpt><trkpt lat="43.5235954" lon="12.0413351"><ele>327.5</ele><time>2026-04-19T09:31:35.234Z</time></trkpt><trkpt lat="43.5236626" lon="12.0412846"><ele>327.3333333333333</ele><time>2026-04-19T09:31:36.233Z</time></trkpt><trkpt lat="43.5237325" lon="12.0412348"><ele>327.1666666666667</ele><time>2026-04-19T09:31:37.233Z</time></trkpt><trkpt lat="43.5238109" lon="12.041191"><ele>327.0</ele><time>2026-04-19T09:31:38.235Z</time></trkpt><trkpt lat="43.5238968" lon="12.0411518"><ele>327.0</ele><time>2026-04-19T09:31:39.232Z</time></trkpt><trkpt lat="43.5239856" lon="12.0411145"><ele>327.0</ele><time>2026-04-19T09:31:40.234Z</time></trkpt><trkpt lat="43.5240655" lon="12.0410791"><ele>327.0</ele><time>2026-04-19T09:31:41.233Z</time></trkpt><trkpt lat="43.5241364" lon="12.0410463"><ele>327.0</ele><time>2026-04-19T09:31:42.232Z</time></trkpt><trkpt lat="43.52425" lon="12.041042"><ele>327.0</ele><time>2026-04-19T09:31:44.233Z</time></trkpt><trkpt lat="43.524304" lon="12.0411104"><ele>327.0</ele><time>2026-04-19T09:31:45.234Z</time></trkpt><trkpt lat="43.5243529" lon="12.0412065"><ele>327.0</ele><time>2026-04-19T09:31:46.234Z</time></trkpt><trkpt lat="43.5243964" lon="12.0412931"><ele>327.0</ele><time>2026-04-19T09:31:47.232Z</time></trkpt><trkpt lat="43.5244314" lon="12.0413657"><ele>327.0</ele><time>2026-04-19T09:31:48.232Z</time></trkpt><trkpt lat="43.524483" lon="12.0414424"><ele>327.0</ele><time>2026-04-19T09:31:50.233Z</time></trkpt><trkpt lat="43.5245468" lon="12.0414315"><ele>327.0</ele><time>2026-04-19T09:31:51.232Z</time></trkpt><trkpt lat="43.5246268" lon="12.0414028"><ele>327.0</ele><time>2026-04-19T09:31:52.232Z</time></trkpt><trkpt lat="43.524718" lon="12.0413559"><ele>326.25</ele><time>2026-04-19T09:31:53.233Z</time></trkpt><trkpt lat="43.5248229" lon="12.0413044"><ele>325.5</ele><time>2026-04-19T09:31:54.234Z</time></trkpt><trkpt lat="43.5249348" lon="12.0412571"><ele>324.75</ele><time>2026-04-19T09:31:55.232Z</time></trkpt><trkpt lat="43.5250463" lon="12.0412032"><ele>324.0</ele><time>2026-04-19T09:31:56.233Z</time></trkpt><trkpt lat="43.5251506" lon="12.0411514"><ele>324.0</ele><time>2026-04-19T09:31:57.234Z</time></trkpt><trkpt lat="43.5252494" lon="12.0411094"><ele>324.0</ele><time>2026-04-19T09:31:58.232Z</time></trkpt><trkpt lat="43.5253441" lon="12.0410669"><ele>324.0</ele><time>2026-04-19T09:31:59.234Z</time></trkpt><trkpt lat="43.5254354" lon="12.0410125"><ele>324.0</ele><time>2026-04-19T09:32:00.235Z</time></trkpt><trkpt lat="43.5255268" lon="12.0409449"><ele>324.0</ele><time>2026-04-19T09:32:01.235Z</time></trkpt><trkpt lat="43.5256186" lon="12.0408584"><ele>324.4</ele><time>2026-04-19T09:32:02.234Z</time></trkpt><trkpt lat="43.5257003" lon="12.0407855"><ele>324.79999999999995</ele><time>2026-04-19T09:32:03.235Z</time></trkpt><trkpt lat="43.5257772" lon="12.0407199"><ele>325.20000000000005</ele><time>2026-04-19T09:32:04.235Z</time></trkpt><trkpt lat="43.525866" lon="12.0406446"><ele>325.6</ele><time>2026-04-19T09:32:05.234Z</time></trkpt><trkpt lat="43.5259627" lon="12.0405755"><ele>326.0</ele><time>2026-04-19T09:32:06.234Z</time></trkpt><trkpt lat="43.5260567" lon="12.0405216"><ele>326.0</ele><time>2026-04-19T09:32:07.234Z</time></trkpt><trkpt lat="43.5261448" lon="12.0404788"><ele>326.0</ele><time>2026-04-19T09:32:08.234Z</time></trkpt><trkpt lat="43.5262255" lon="12.0404434"><ele>326.0</ele><time>2026-04-19T09:32:09.232Z</time></trkpt><trkpt lat="43.5263068" lon="12.0404125"><ele>326.0</ele><time>2026-04-19T09:32:10.235Z</time></trkpt><trkpt lat="43.5263969" lon="12.0404021"><ele>326.0</ele><time>2026-04-19T09:32:11.232Z</time></trkpt><trkpt lat="43.5264938" lon="12.0404168"><ele>326.20000000000005</ele><time>2026-04-19T09:32:12.233Z</time></trkpt><trkpt lat="43.5265983" lon="12.0404441"><ele>326.40000000000003</ele><time>2026-04-19T09:32:13.232Z</time></trkpt><trkpt lat="43.5267097" lon="12.0404701"><ele>326.6</ele><time>2026-04-19T09:32:14.234Z</time></trkpt><trkpt lat="43.5268221" lon="12.0404861"><ele>326.8</ele><time>2026-04-19T09:32:15.232Z</time></trkpt><trkpt lat="43.5269314" lon="12.0404821"><ele>327.0</ele><time>2026-04-19T09:32:16.232Z</time></trkpt><trkpt lat="43.5270396" lon="12.0404662"><ele>326.75</ele><time>2026-04-19T09:32:17.232Z</time></trkpt><trkpt lat="43.5271522" lon="12.0404485"><ele>326.5</ele><time>2026-04-19T09:32:18.233Z</time></trkpt><trkpt lat="43.5272687" lon="12.0404361"><ele>326.25</ele><time>2026-04-19T09:32:19.232Z</time></trkpt><trkpt lat="43.5273878" lon="12.0404271"><ele>326.0</ele><time>2026-04-19T09:32:20.233Z</time></trkpt><trkpt lat="43.5275064" lon="12.0404218"><ele>326.0</ele><time>2026-04-19T09:32:21.232Z</time></trkpt><trkpt lat="43.5276225" lon="12.0404176"><ele>326.0</ele><time>2026-04-19T09:32:22.233Z</time></trkpt><trkpt lat="43.5277284" lon="12.0404106"><ele>326.0</ele><time>2026-04-19T09:32:23.234Z</time></trkpt><trkpt lat="43.5278273" lon="12.0403917"><ele>326.0</ele><time>2026-04-19T09:32:24.234Z</time></trkpt><trkpt lat="43.5279161" lon="12.0403511"><ele>326.0</ele><time>2026-04-19T09:32:25.232Z</time></trkpt><trkpt lat="43.5279987" lon="12.0402794"><ele>326.4</ele><time>2026-04-19T09:32:26.234Z</time></trkpt><trkpt lat="43.5280723" lon="12.0401817"><ele>326.8</ele><time>2026-04-19T09:32:27.232Z</time></trkpt><trkpt lat="43.5281325" lon="12.0400612"><ele>327.2</ele><time>2026-04-19T09:32:28.233Z</time></trkpt><trkpt lat="43.528176" lon="12.0399296"><ele>327.59999999999997</ele><time>2026-04-19T09:32:29.234Z</time></trkpt><trkpt lat="43.5282086" lon="12.0397925"><ele>328.0</ele><time>2026-04-19T09:32:30.233Z</time></trkpt><trkpt lat="43.5282395" lon="12.0396545"><ele>329.4</ele><time>2026-04-19T09:32:31.234Z</time></trkpt><trkpt lat="43.528271" lon="12.0395134"><ele>330.79999999999995</ele><time>2026-04-19T09:32:32.235Z</time></trkpt><trkpt lat="43.5283138" lon="12.039381"><ele>332.2</ele><time>2026-04-19T09:32:33.232Z</time></trkpt><trkpt lat="43.528374" lon="12.0392678"><ele>333.6</ele><time>2026-04-19T09:32:34.233Z</time></trkpt><trkpt lat="43.5284532" lon="12.0391766"><ele>335.0</ele><time>2026-04-19T09:32:35.239Z</time></trkpt><trkpt lat="43.5285453" lon="12.0391028"><ele>336.4</ele><time>2026-04-19T09:32:36.234Z</time></trkpt><trkpt lat="43.5286448" lon="12.0390375"><ele>337.8</ele><time>2026-04-19T09:32:37.232Z</time></trkpt><trkpt lat="43.5287437" lon="12.0389714"><ele>339.20000000000005</ele><time>2026-04-19T09:32:38.233Z</time></trkpt><trkpt lat="43.5288358" lon="12.0388989"><ele>340.6</ele><time>2026-04-19T09:32:39.232Z</time></trkpt><trkpt lat="43.5289219" lon="12.0388207"><ele>342.0</ele><time>2026-04-19T09:32:40.234Z</time></trkpt><trkpt lat="43.5290083" lon="12.038736"><ele>342.0</ele><time>2026-04-19T09:32:41.234Z</time></trkpt><trkpt lat="43.5291004" lon="12.0386484"><ele>342.0</ele><time>2026-04-19T09:32:42.232Z</time></trkpt><trkpt lat="43.529198" lon="12.0385648"><ele>342.0</ele><time>2026-04-19T09:32:43.234Z</time></trkpt><trkpt lat="43.5292954" lon="12.0384788"><ele>342.0</ele><time>2026-04-19T09:32:44.234Z</time></trkpt><trkpt lat="43.5293923" lon="12.0383881"><ele>341.75</ele><time>2026-04-19T09:32:45.233Z</time></trkpt><trkpt lat="43.5294919" lon="12.0382943"><ele>341.5</ele><time>2026-04-19T09:32:46.234Z</time></trkpt><trkpt lat="43.5295962" lon="12.0381984"><ele>341.25</ele><time>2026-04-19T09:32:47.232Z</time></trkpt><trkpt lat="43.5297048" lon="12.0380975"><ele>341.0</ele><time>2026-04-19T09:32:48.234Z</time></trkpt><trkpt lat="43.5298152" lon="12.0379903"><ele>341.0</ele><time>2026-04-19T09:32:49.233Z</time></trkpt><trkpt lat="43.5299245" lon="12.0378854"><ele>341.0</ele><time>2026-04-19T09:32:50.234Z</time></trkpt><trkpt lat="43.5300325" lon="12.0377829"><ele>341.0</ele><time>2026-04-19T09:32:51.233Z</time></trkpt><trkpt lat="43.5301366" lon="12.0376723"><ele>341.0</ele><time>2026-04-19T09:32:52.233Z</time></trkpt><trkpt lat="43.5302407" lon="12.037543"><ele>339.5</ele><time>2026-04-19T09:32:53.234Z</time></trkpt><trkpt lat="43.5303493" lon="12.0373904"><ele>338.0</ele><time>2026-04-19T09:32:54.234Z</time></trkpt><trkpt lat="43.5304515" lon="12.0372342"><ele>336.5</ele><time>2026-04-19T09:32:55.233Z</time></trkpt><trkpt lat="43.5305415" lon="12.0370881"><ele>335.0</ele><time>2026-04-19T09:32:56.233Z</time></trkpt><trkpt lat="43.5306203" lon="12.0369376"><ele>335.0</ele><time>2026-04-19T09:32:57.233Z</time></trkpt><trkpt lat="43.5306844" lon="12.0367796"><ele>335.0</ele><time>2026-04-19T09:32:58.233Z</time></trkpt><trkpt lat="43.5307392" lon="12.0366122"><ele>335.0</ele><time>2026-04-19T09:32:59.232Z</time></trkpt><trkpt lat="43.5307876" lon="12.0364589"><ele>335.0</ele><time>2026-04-19T09:33:00.232Z</time></trkpt><trkpt lat="43.5308306" lon="12.0363345"><ele>335.2</ele><time>2026-04-19T09:33:01.235Z</time></trkpt><trkpt lat="43.5308826" lon="12.0362372"><ele>335.4</ele><time>2026-04-19T09:33:02.235Z</time></trkpt><trkpt lat="43.5309451" lon="12.0361638"><ele>335.6</ele><time>2026-04-19T09:33:03.234Z</time></trkpt><trkpt lat="43.5310209" lon="12.0361252"><ele>335.8</ele><time>2026-04-19T09:33:04.234Z</time></trkpt><trkpt lat="43.5311182" lon="12.0361249"><ele>336.0</ele><time>2026-04-19T09:33:05.233Z</time></trkpt><trkpt lat="43.5312357" lon="12.0361565"><ele>336.0</ele><time>2026-04-19T09:33:06.232Z</time></trkpt><trkpt lat="43.5313487" lon="12.0361959"><ele>336.0</ele><time>2026-04-19T09:33:07.233Z</time></trkpt><trkpt lat="43.5314457" lon="12.0362276"><ele>336.0</ele><time>2026-04-19T09:33:08.234Z</time></trkpt><trkpt lat="43.5315287" lon="12.0362402"><ele>336.0</ele><time>2026-04-19T09:33:09.233Z</time></trkpt><trkpt lat="43.5316044" lon="12.0362258"><ele>336.0</ele><time>2026-04-19T09:33:10.233Z</time></trkpt><trkpt lat="43.5316681" lon="12.0361836"><ele>336.0</ele><time>2026-04-19T09:33:11.234Z</time></trkpt><trkpt lat="43.531727" lon="12.0361107"><ele>336.0</ele><time>2026-04-19T09:33:12.233Z</time></trkpt><trkpt lat="43.5317908" lon="12.0360215"><ele>336.0</ele><time>2026-04-19T09:33:13.232Z</time></trkpt><trkpt lat="43.5318641" lon="12.0359248"><ele>336.0</ele><time>2026-04-19T09:33:14.233Z</time></trkpt><trkpt lat="43.5319483" lon="12.0358332"><ele>336.0</ele><time>2026-04-19T09:33:15.233Z</time></trkpt><trkpt lat="43.5320341" lon="12.0357444"><ele>336.0</ele><time>2026-04-19T09:33:16.233Z</time></trkpt><trkpt lat="43.5321067" lon="12.0356382"><ele>335.6</ele><time>2026-04-19T09:33:17.232Z</time></trkpt><trkpt lat="43.5321682" lon="12.0355068"><ele>335.20000000000005</ele><time>2026-04-19T09:33:18.233Z</time></trkpt><trkpt lat="43.5322229" lon="12.0353619"><ele>334.79999999999995</ele><time>2026-04-19T09:33:19.234Z</time></trkpt><trkpt lat="43.5322666" lon="12.0352244"><ele>334.4</ele><time>2026-04-19T09:33:20.233Z</time></trkpt><trkpt lat="43.5322945" lon="12.0351026"><ele>334.0</ele><time>2026-04-19T09:33:21.233Z</time></trkpt><trkpt lat="43.5323008" lon="12.0349785"><ele>335.2</ele><time>2026-04-19T09:33:22.234Z</time></trkpt><trkpt lat="43.5322829" lon="12.0348502"><ele>336.4</ele><time>2026-04-19T09:33:23.232Z</time></trkpt><trkpt lat="43.532237" lon="12.0347251"><ele>337.6</ele><time>2026-04-19T09:33:24.232Z</time></trkpt><trkpt lat="43.5321919" lon="12.0346053"><ele>338.8</ele><time>2026-04-19T09:33:25.232Z</time></trkpt><trkpt lat="43.5321714" lon="12.0344892"><ele>340.0</ele><time>2026-04-19T09:33:26.233Z</time></trkpt><trkpt lat="43.5321723" lon="12.0343762"><ele>340.0</ele><time>2026-04-19T09:33:27.233Z</time></trkpt><trkpt lat="43.5322321" lon="12.0342572"><ele>340.0</ele><time>2026-04-19T09:33:28.234Z</time></trkpt><trkpt lat="43.5323207" lon="12.0341285"><ele>340.0</ele><time>2026-04-19T09:33:29.233Z</time></trkpt><trkpt lat="43.5324194" lon="12.0340058"><ele>340.0</ele><time>2026-04-19T09:33:30.232Z</time></trkpt><trkpt lat="43.5325168" lon="12.0338965"><ele>341.75</ele><time>2026-04-19T09:33:31.232Z</time></trkpt><trkpt lat="43.53262" lon="12.0338038"><ele>343.5</ele><time>2026-04-19T09:33:32.233Z</time></trkpt><trkpt lat="43.5327307" lon="12.0337355"><ele>345.25</ele><time>2026-04-19T09:33:33.233Z</time></trkpt><trkpt lat="43.5328428" lon="12.0336901"><ele>347.0</ele><time>2026-04-19T09:33:34.233Z</time></trkpt><trkpt lat="43.5329423" lon="12.0336679"><ele>347.0</ele><time>2026-04-19T09:33:35.234Z</time></trkpt><trkpt lat="43.5330301" lon="12.033667"><ele>347.0</ele><time>2026-04-19T09:33:36.233Z</time></trkpt><trkpt lat="43.5331155" lon="12.0336884"><ele>347.0</ele><time>2026-04-19T09:33:37.233Z</time></trkpt><trkpt lat="43.5332024" lon="12.0337051"><ele>347.0</ele><time>2026-04-19T09:33:38.233Z</time></trkpt><trkpt lat="43.5332904" lon="12.0336985"><ele>347.0</ele><time>2026-04-19T09:33:39.233Z</time></trkpt><trkpt lat="43.5333869" lon="12.0336566"><ele>347.0</ele><time>2026-04-19T09:33:40.233Z</time></trkpt><trkpt lat="43.5334895" lon="12.033586"><ele>347.0</ele><time>2026-04-19T09:33:41.233Z</time></trkpt><trkpt lat="43.5335863" lon="12.0335104"><ele>347.0</ele><time>2026-04-19T09:33:42.234Z</time></trkpt><trkpt lat="43.5336737" lon="12.0334289"><ele>347.0</ele><time>2026-04-19T09:33:43.234Z</time></trkpt><trkpt lat="43.5337521" lon="12.0333364"><ele>347.0</ele><time>2026-04-19T09:33:44.233Z</time></trkpt><trkpt lat="43.5338171" lon="12.0332246"><ele>345.40000000000003</ele><time>2026-04-19T09:33:45.233Z</time></trkpt><trkpt lat="43.5338678" lon="12.0330893"><ele>343.8</ele><time>2026-04-19T09:33:46.233Z</time></trkpt><trkpt lat="43.5339024" lon="12.0329451"><ele>342.2</ele><time>2026-04-19T09:33:47.233Z</time></trkpt><trkpt lat="43.533925" lon="12.0327994"><ele>340.6</ele><time>2026-04-19T09:33:48.233Z</time></trkpt><trkpt lat="43.53394" lon="12.0326588"><ele>339.0</ele><time>2026-04-19T09:33:49.233Z</time></trkpt><trkpt lat="43.5339535" lon="12.0325314"><ele>340.4</ele><time>2026-04-19T09:33:50.233Z</time></trkpt><trkpt lat="43.5339704" lon="12.0324222"><ele>341.79999999999995</ele><time>2026-04-19T09:33:51.233Z</time></trkpt><trkpt lat="43.5339876" lon="12.0323288"><ele>343.20000000000005</ele><time>2026-04-19T09:33:52.233Z</time></trkpt><trkpt lat="43.5339914" lon="12.0321868"><ele>344.6</ele><time>2026-04-19T09:33:54.233Z</time></trkpt><trkpt lat="43.534055" lon="12.0321117"><ele>346.0</ele><time>2026-04-19T09:34:12.234Z</time></trkpt><trkpt lat="43.5341567" lon="12.0320217"><ele>346.0</ele><time>2026-04-19T09:34:14.234Z</time></trkpt><trkpt lat="43.53422" lon="12.0319733"><ele>346.0</ele><time>2026-04-19T09:34:15.233Z</time></trkpt><trkpt lat="43.5343" lon="12.0319233"><ele>346.0</ele><time>2026-04-19T09:34:16.233Z</time></trkpt><trkpt lat="43.5343667" lon="12.0318917"><ele>346.0</ele><time>2026-04-19T09:34:17.233Z</time></trkpt><trkpt lat="43.5345024" lon="12.0318902"><ele>346.0</ele><time>2026-04-19T09:34:19.233Z</time></trkpt><trkpt lat="43.534574" lon="12.0318763"><ele>346.0</ele><time>2026-04-19T09:34:20.233Z</time></trkpt><trkpt lat="43.5346398" lon="12.0318567"><ele>345.66666666666663</ele><time>2026-04-19T09:34:21.233Z</time></trkpt><trkpt lat="43.5347144" lon="12.0318143"><ele>345.3333333333333</ele><time>2026-04-19T09:34:22.236Z</time></trkpt><trkpt lat="43.5347888" lon="12.0317691"><ele>345.0</ele><time>2026-04-19T09:34:23.234Z</time></trkpt><trkpt lat="43.5348598" lon="12.0317288"><ele>344.6666666666667</ele><time>2026-04-19T09:34:24.234Z</time></trkpt><trkpt lat="43.5349169" lon="12.0316904"><ele>344.33333333333337</ele><time>2026-04-19T09:34:25.234Z</time></trkpt><trkpt lat="43.535011" lon="12.0316092"><ele>344.0</ele><time>2026-04-19T09:34:27.234Z</time></trkpt><trkpt lat="43.5350569" lon="12.0315394"><ele>344.0</ele><time>2026-04-19T09:34:29.233Z</time></trkpt><trkpt lat="43.5350766" lon="12.0314437"><ele>344.0</ele><time>2026-04-19T09:34:32.235Z</time></trkpt><trkpt lat="43.5351391" lon="12.0314615"><ele>344.0</ele><time>2026-04-19T09:34:36.234Z</time></trkpt><trkpt lat="43.5351507" lon="12.0315539"><ele>344.0</ele><time>2026-04-19T09:34:40.233Z</time></trkpt><trkpt lat="43.5352164" lon="12.0316378"><ele>344.0</ele><time>2026-04-19T09:34:44.233Z</time></trkpt><trkpt lat="43.535289" lon="12.0316723"><ele>344.0</ele><time>2026-04-19T09:34:49.01Z</time></trkpt><trkpt lat="43.535368" lon="12.0317238"><ele>343.6666666666667</ele><time>2026-04-19T09:34:51.263Z</time></trkpt><trkpt lat="43.5354271" lon="12.0317748"><ele>343.33333333333337</ele><time>2026-04-19T09:34:53.24Z</time></trkpt><trkpt lat="43.5355436" lon="12.0318042"><ele>343.0</ele><time>2026-04-19T09:34:55.267Z</time></trkpt><trkpt lat="43.5356076" lon="12.0318511"><ele>342.6666666666667</ele><time>2026-04-19T09:34:58.271Z</time></trkpt><trkpt lat="43.535674" lon="12.0319021"><ele>342.3333333333333</ele><time>2026-04-19T09:35:02.339Z</time></trkpt><trkpt lat="43.535748" lon="12.0318774"><ele>342.0</ele><time>2026-04-19T09:35:06.279Z</time></trkpt><trkpt lat="43.5356773" lon="12.0318266"><ele>342.0</ele><time>2026-04-19T09:35:10.283Z</time></trkpt><trkpt lat="43.5356991" lon="12.0317334"><ele>342.0</ele><time>2026-04-19T09:35:11.284Z</time></trkpt><trkpt lat="43.5356076" lon="12.031714"><ele>342.0</ele><time>2026-04-19T09:35:13.287Z</time></trkpt><trkpt lat="43.5355225" lon="12.0317274"><ele>342.0</ele><time>2026-04-19T09:35:15.261Z</time></trkpt><trkpt lat="43.5354354" lon="12.0316374"><ele>342.0</ele><time>2026-04-19T09:35:16.233Z</time></trkpt><trkpt lat="43.5353686" lon="12.0315977"><ele>342.0</ele><time>2026-04-19T09:35:17.234Z</time></trkpt><trkpt lat="43.5352647" lon="12.0315417"><ele>342.40000000000003</ele><time>2026-04-19T09:35:19.234Z</time></trkpt><trkpt lat="43.5351926" lon="12.0315066"><ele>342.8</ele><time>2026-04-19T09:35:21.233Z</time></trkpt><trkpt lat="43.5351336" lon="12.0314339"><ele>343.2</ele><time>2026-04-19T09:35:24.233Z</time></trkpt><trkpt lat="43.5350888" lon="12.0315078"><ele>343.6</ele><time>2026-04-19T09:35:28.282Z</time></trkpt><trkpt lat="43.535053" lon="12.0315949"><ele>344.0</ele><time>2026-04-19T09:35:29.283Z</time></trkpt><trkpt lat="43.5348997" lon="12.0316916"><ele>344.0</ele><time>2026-04-19T09:35:31.233Z</time></trkpt><trkpt lat="43.5348084" lon="12.0317394"><ele>344.0</ele><time>2026-04-19T09:35:32.233Z</time></trkpt><trkpt lat="43.534725" lon="12.0317746"><ele>344.0</ele><time>2026-04-19T09:35:33.233Z</time></trkpt><trkpt lat="43.5346537" lon="12.0318297"><ele>344.0</ele><time>2026-04-19T09:35:34.233Z</time></trkpt><trkpt lat="43.534597" lon="12.0318675"><ele>344.0</ele><time>2026-04-19T09:35:35.235Z</time></trkpt><trkpt lat="43.5344928" lon="12.0318692"><ele>344.0</ele><time>2026-04-19T09:35:37.233Z</time></trkpt><trkpt lat="43.5343885" lon="12.0318661"><ele>344.33333333333337</ele><time>2026-04-19T09:35:39.234Z</time></trkpt><trkpt lat="43.5342828" lon="12.0319168"><ele>344.6666666666667</ele><time>2026-04-19T09:35:41.234Z</time></trkpt><trkpt lat="43.5342036" lon="12.0319915"><ele>345.0</ele><time>2026-04-19T09:35:43.233Z</time></trkpt><trkpt lat="43.5341273" lon="12.0320526"><ele>345.3333333333333</ele><time>2026-04-19T09:35:45.233Z</time></trkpt><trkpt lat="43.5340582" lon="12.032068"><ele>345.66666666666663</ele><time>2026-04-19T09:35:48.234Z</time></trkpt><trkpt lat="43.534069" lon="12.0321662"><ele>346.0</ele><time>2026-04-19T09:36:03.278Z</time></trkpt><trkpt lat="43.5342502" lon="12.0323872"><ele>344.6</ele><time>2026-04-19T09:36:06.233Z</time></trkpt><trkpt lat="43.5343235" lon="12.0324903"><ele>343.20000000000005</ele><time>2026-04-19T09:36:07.233Z</time></trkpt><trkpt lat="43.5343908" lon="12.0325924"><ele>341.79999999999995</ele><time>2026-04-19T09:36:08.234Z</time></trkpt><trkpt lat="43.5344538" lon="12.0327005"><ele>340.4</ele><time>2026-04-19T09:36:09.233Z</time></trkpt><trkpt lat="43.5345123" lon="12.0328074"><ele>339.0</ele><time>2026-04-19T09:36:10.233Z</time></trkpt><trkpt lat="43.5345718" lon="12.0329118"><ele>338.0</ele><time>2026-04-19T09:36:11.234Z</time></trkpt><trkpt lat="43.5346292" lon="12.0330164"><ele>337.0</ele><time>2026-04-19T09:36:12.233Z</time></trkpt><trkpt lat="43.5346876" lon="12.0331182"><ele>336.0</ele><time>2026-04-19T09:36:13.234Z</time></trkpt><trkpt lat="43.534751" lon="12.0332205"><ele>335.0</ele><time>2026-04-19T09:36:14.234Z</time></trkpt><trkpt lat="43.5348116" lon="12.0333213"><ele>334.0</ele><time>2026-04-19T09:36:15.233Z</time></trkpt><trkpt lat="43.5348689" lon="12.0334216"><ele>333.8333333333333</ele><time>2026-04-19T09:36:16.233Z</time></trkpt><trkpt lat="43.5349231" lon="12.0335258"><ele>333.66666666666663</ele><time>2026-04-19T09:36:17.235Z</time></trkpt><trkpt lat="43.5349672" lon="12.0336311"><ele>333.5</ele><time>2026-04-19T09:36:18.234Z</time></trkpt><trkpt lat="43.5350049" lon="12.0337368"><ele>333.3333333333333</ele><time>2026-04-19T09:36:19.234Z</time></trkpt><trkpt lat="43.5350385" lon="12.0338432"><ele>333.1666666666667</ele><time>2026-04-19T09:36:20.234Z</time></trkpt><trkpt lat="43.5350663" lon="12.0339404"><ele>333.0</ele><time>2026-04-19T09:36:21.234Z</time></trkpt><trkpt lat="43.5350923" lon="12.0340218"><ele>333.0</ele><time>2026-04-19T09:36:22.235Z</time></trkpt><trkpt lat="43.5351258" lon="12.0341194"><ele>333.0</ele><time>2026-04-19T09:36:24.234Z</time></trkpt><trkpt lat="43.5351922" lon="12.0341633"><ele>333.0</ele><time>2026-04-19T09:36:27.233Z</time></trkpt><trkpt lat="43.5352685" lon="12.0342031"><ele>333.0</ele><time>2026-04-19T09:36:30.233Z</time></trkpt><trkpt lat="43.5353474" lon="12.0342198"><ele>333.0</ele><time>2026-04-19T09:36:33.233Z</time></trkpt><trkpt lat="43.5354199" lon="12.0342457"><ele>333.0</ele><time>2026-04-19T09:36:36.233Z</time></trkpt><trkpt lat="43.5355082" lon="12.0342852"><ele>333.1666666666667</ele><time>2026-04-19T09:36:38.233Z</time></trkpt><trkpt lat="43.5356021" lon="12.0343567"><ele>333.3333333333333</ele><time>2026-04-19T09:36:40.232Z</time></trkpt><trkpt lat="43.5356807" lon="12.0344349"><ele>333.5</ele><time>2026-04-19T09:36:42.232Z</time></trkpt><trkpt lat="43.5357384" lon="12.0345194"><ele>333.66666666666663</ele><time>2026-04-19T09:36:44.233Z</time></trkpt><trkpt lat="43.535794" lon="12.0345965"><ele>333.8333333333333</ele><time>2026-04-19T09:36:46.233Z</time></trkpt><trkpt lat="43.5358274" lon="12.0346831"><ele>334.0</ele><time>2026-04-19T09:36:48.233Z</time></trkpt><trkpt lat="43.5357985" lon="12.0347991"><ele>334.0</ele><time>2026-04-19T09:36:50.233Z</time></trkpt><trkpt lat="43.5357565" lon="12.0349389"><ele>334.0</ele><time>2026-04-19T09:36:52.233Z</time></trkpt><trkpt lat="43.5358097" lon="12.0350407"><ele>334.0</ele><time>2026-04-19T09:36:54.234Z</time></trkpt><trkpt lat="43.5359389" lon="12.0350854"><ele>334.0</ele><time>2026-04-19T09:36:56.233Z</time></trkpt><trkpt lat="43.5360292" lon="12.0351283"><ele>334.0</ele><time>2026-04-19T09:36:57.233Z</time></trkpt><trkpt lat="43.5361241" lon="12.0351927"><ele>334.0</ele><time>2026-04-19T09:36:58.233Z</time></trkpt><trkpt lat="43.5362123" lon="12.0352764"><ele>334.0</ele><time>2026-04-19T09:36:59.234Z</time></trkpt><trkpt lat="43.5362906" lon="12.035365"><ele>334.0</ele><time>2026-04-19T09:37:00.232Z</time></trkpt><trkpt lat="43.5363667" lon="12.0354471"><ele>334.0</ele><time>2026-04-19T09:37:01.233Z</time></trkpt><trkpt lat="43.5364389" lon="12.0355181"><ele>334.0</ele><time>2026-04-19T09:37:02.233Z</time></trkpt><trkpt lat="43.5365122" lon="12.0355817"><ele>334.16666666666663</ele><time>2026-04-19T09:37:03.233Z</time></trkpt><trkpt lat="43.5365801" lon="12.0356436"><ele>334.3333333333333</ele><time>2026-04-19T09:37:04.233Z</time></trkpt><trkpt lat="43.5366464" lon="12.0357081"><ele>334.5</ele><time>2026-04-19T09:37:05.233Z</time></trkpt><trkpt lat="43.5367147" lon="12.0357681"><ele>334.6666666666667</ele><time>2026-04-19T09:37:06.234Z</time></trkpt><trkpt lat="43.53678" lon="12.0358201"><ele>334.83333333333337</ele><time>2026-04-19T09:37:07.234Z</time></trkpt><trkpt lat="43.53685" lon="12.0358728"><ele>335.0</ele><time>2026-04-19T09:37:08.233Z</time></trkpt><trkpt lat="43.5369086" lon="12.0359306"><ele>335.33333333333337</ele><time>2026-04-19T09:37:09.234Z</time></trkpt><trkpt lat="43.5369723" lon="12.0359945"><ele>335.6666666666667</ele><time>2026-04-19T09:37:10.232Z</time></trkpt><trkpt lat="43.537048" lon="12.0360564"><ele>336.0</ele><time>2026-04-19T09:37:11.234Z</time></trkpt><trkpt lat="43.5371277" lon="12.0361234"><ele>336.3333333333333</ele><time>2026-04-19T09:37:12.233Z</time></trkpt><trkpt lat="43.5372021" lon="12.0361985"><ele>336.66666666666663</ele><time>2026-04-19T09:37:13.234Z</time></trkpt><trkpt lat="43.5372753" lon="12.0362797"><ele>337.0</ele><time>2026-04-19T09:37:14.233Z</time></trkpt><trkpt lat="43.5373403" lon="12.0363629"><ele>337.0</ele><time>2026-04-19T09:37:15.232Z</time></trkpt><trkpt lat="43.5373992" lon="12.0364399"><ele>337.0</ele><time>2026-04-19T09:37:16.234Z</time></trkpt><trkpt lat="43.5374466" lon="12.036507"><ele>337.0</ele><time>2026-04-19T09:37:17.233Z</time></trkpt><trkpt lat="43.537527" lon="12.0366333"><ele>337.0</ele><time>2026-04-19T09:37:19.234Z</time></trkpt><trkpt lat="43.5375752" lon="12.0367247"><ele>337.0</ele><time>2026-04-19T09:37:21.233Z</time></trkpt><trkpt lat="43.5376226" lon="12.0368136"><ele>337.0</ele><time>2026-04-19T09:37:25.233Z</time></trkpt><trkpt lat="43.5376848" lon="12.0368832"><ele>338.0</ele><time>2026-04-19T09:37:27.234Z</time></trkpt><trkpt lat="43.537736" lon="12.0369592"><ele>339.0</ele><time>2026-04-19T09:37:29.234Z</time></trkpt><trkpt lat="43.5378194" lon="12.0369669"><ele>340.0</ele><time>2026-04-19T09:37:32.261Z</time></trkpt><trkpt lat="43.5379151" lon="12.0368738"><ele>341.0</ele><time>2026-04-19T09:37:34.235Z</time></trkpt><trkpt lat="43.5379682" lon="12.0368251"><ele>342.0</ele><time>2026-04-19T09:37:35.233Z</time></trkpt><trkpt lat="43.5380248" lon="12.036777"><ele>343.0</ele><time>2026-04-19T09:37:36.234Z</time></trkpt><trkpt lat="43.5380865" lon="12.0367249"><ele>342.8333333333333</ele><time>2026-04-19T09:37:37.232Z</time></trkpt><trkpt lat="43.5381493" lon="12.0366671"><ele>342.66666666666663</ele><time>2026-04-19T09:37:38.232Z</time></trkpt><trkpt lat="43.5382114" lon="12.0366083"><ele>342.5</ele><time>2026-04-19T09:37:39.233Z</time></trkpt><trkpt lat="43.5382758" lon="12.0365479"><ele>342.3333333333333</ele><time>2026-04-19T09:37:40.233Z</time></trkpt><trkpt lat="43.538343" lon="12.0364906"><ele>342.1666666666667</ele><time>2026-04-19T09:37:41.232Z</time></trkpt><trkpt lat="43.5384148" lon="12.0364359"><ele>342.0</ele><time>2026-04-19T09:37:42.234Z</time></trkpt><trkpt lat="43.5384903" lon="12.0363823"><ele>342.0</ele><time>2026-04-19T09:37:43.232Z</time></trkpt><trkpt lat="43.5385713" lon="12.0363291"><ele>342.0</ele><time>2026-04-19T09:37:44.234Z</time></trkpt><trkpt lat="43.5386565" lon="12.03628"><ele>342.0</ele><time>2026-04-19T09:37:45.233Z</time></trkpt><trkpt lat="43.5387249" lon="12.0362311"><ele>342.0</ele><time>2026-04-19T09:37:46.232Z</time></trkpt><trkpt lat="43.5388139" lon="12.0361401"><ele>342.0</ele><time>2026-04-19T09:37:48.232Z</time></trkpt><trkpt lat="43.5388923" lon="12.0362019"><ele>344.1666666666667</ele><time>2026-04-19T09:37:51.232Z</time></trkpt><trkpt lat="43.5389293" lon="12.0363233"><ele>346.3333333333333</ele><time>2026-04-19T09:37:53.232Z</time></trkpt><trkpt lat="43.5389985" lon="12.0363083"><ele>348.5</ele><time>2026-04-19T09:37:55.232Z</time></trkpt><trkpt lat="43.5390648" lon="12.0361625"><ele>350.66666666666663</ele><time>2026-04-19T09:37:57.233Z</time></trkpt><trkpt lat="43.5391057" lon="12.0360892"><ele>352.8333333333333</ele><time>2026-04-19T09:37:58.232Z</time></trkpt><trkpt lat="43.5391605" lon="12.0360328"><ele>355.0</ele><time>2026-04-19T09:37:59.232Z</time></trkpt><trkpt lat="43.5392284" lon="12.0359913"><ele>355.0</ele><time>2026-04-19T09:38:00.232Z</time></trkpt><trkpt lat="43.5393028" lon="12.035963"><ele>355.0</ele><time>2026-04-19T09:38:01.232Z</time></trkpt><trkpt lat="43.5393683" lon="12.0359464"><ele>355.0</ele><time>2026-04-19T09:38:02.232Z</time></trkpt><trkpt lat="43.5394586" lon="12.035938"><ele>355.0</ele><time>2026-04-19T09:38:04.232Z</time></trkpt><trkpt lat="43.5395425" lon="12.035922"><ele>355.0</ele><time>2026-04-19T09:38:08.233Z</time></trkpt><trkpt lat="43.5396275" lon="12.0358964"><ele>355.0</ele><time>2026-04-19T09:38:10.232Z</time></trkpt><trkpt lat="43.5397339" lon="12.03586"><ele>355.5</ele><time>2026-04-19T09:38:12.233Z</time></trkpt><trkpt lat="43.5398586" lon="12.0358213"><ele>356.0</ele><time>2026-04-19T09:38:14.234Z</time></trkpt><trkpt lat="43.5399263" lon="12.0358037"><ele>356.5</ele><time>2026-04-19T09:38:15.233Z</time></trkpt><trkpt lat="43.5399967" lon="12.0357911"><ele>357.0</ele><time>2026-04-19T09:38:16.233Z</time></trkpt><trkpt lat="43.5400656" lon="12.0357824"><ele>357.5</ele><time>2026-04-19T09:38:17.234Z</time></trkpt><trkpt lat="43.5401321" lon="12.0357769"><ele>358.0</ele><time>2026-04-19T09:38:18.232Z</time></trkpt><trkpt lat="43.540219" lon="12.0357611"><ele>358.0</ele><time>2026-04-19T09:38:20.232Z</time></trkpt><trkpt lat="43.5402848" lon="12.0357589"><ele>358.0</ele><time>2026-04-19T09:38:24.233Z</time></trkpt><trkpt lat="43.5401568" lon="12.0357631"><ele>358.0</ele><time>2026-04-19T09:38:35.297Z</time></trkpt><trkpt lat="43.5400102" lon="12.0357892"><ele>358.0</ele><time>2026-04-19T09:38:37.298Z</time></trkpt><trkpt lat="43.5399063" lon="12.0358117"><ele>358.0</ele><time>2026-04-19T09:38:38.299Z</time></trkpt><trkpt lat="43.5397682" lon="12.0358401"><ele>357.4</ele><time>2026-04-19T09:38:40.301Z</time></trkpt><trkpt lat="43.5395881" lon="12.0358973"><ele>356.79999999999995</ele><time>2026-04-19T09:38:42.233Z</time></trkpt><trkpt lat="43.5395067" lon="12.0359182"><ele>356.2</ele><time>2026-04-19T09:38:43.233Z</time></trkpt><trkpt lat="43.5394271" lon="12.0359348"><ele>355.6</ele><time>2026-04-19T09:38:44.233Z</time></trkpt><trkpt lat="43.5393635" lon="12.0359452"><ele>355.0</ele><time>2026-04-19T09:38:45.232Z</time></trkpt><trkpt lat="43.5392858" lon="12.0359504"><ele>355.0</ele><time>2026-04-19T09:38:47.232Z</time></trkpt><trkpt lat="43.5393792" lon="12.0360179"><ele>355.0</ele><time>2026-04-19T09:39:02.284Z</time></trkpt><trkpt lat="43.5395197" lon="12.0362097"><ele>355.0</ele><time>2026-04-19T09:39:05.233Z</time></trkpt><trkpt lat="43.5395744" lon="12.036301"><ele>355.0</ele><time>2026-04-19T09:39:06.233Z</time></trkpt><trkpt lat="43.5396238" lon="12.0363868"><ele>357.8333333333333</ele><time>2026-04-19T09:39:07.232Z</time></trkpt><trkpt lat="43.5396725" lon="12.036472"><ele>360.66666666666663</ele><time>2026-04-19T09:39:08.233Z</time></trkpt><trkpt lat="43.5397189" lon="12.036561"><ele>363.5</ele><time>2026-04-19T09:39:09.232Z</time></trkpt><trkpt lat="43.5397647" lon="12.0366493"><ele>366.3333333333333</ele><time>2026-04-19T09:39:10.232Z</time></trkpt><trkpt lat="43.5398022" lon="12.0367323"><ele>369.1666666666667</ele><time>2026-04-19T09:39:11.233Z</time></trkpt><trkpt lat="43.5398669" lon="12.0368607"><ele>372.0</ele><time>2026-04-19T09:39:13.233Z</time></trkpt><trkpt lat="43.5398931" lon="12.0369623"><ele>373.0</ele><time>2026-04-19T09:39:15.232Z</time></trkpt><trkpt lat="43.5398689" lon="12.0370756"><ele>374.0</ele><time>2026-04-19T09:39:17.232Z</time></trkpt><trkpt lat="43.5398304" lon="12.0371734"><ele>375.0</ele><time>2026-04-19T09:39:19.232Z</time></trkpt><trkpt lat="43.5399318" lon="12.0372326"><ele>376.0</ele><time>2026-04-19T09:39:23.234Z</time></trkpt><trkpt lat="43.5400007" lon="12.0372442"><ele>377.0</ele><time>2026-04-19T09:39:24.232Z</time></trkpt><trkpt lat="43.5400876" lon="12.0372505"><ele>378.0</ele><time>2026-04-19T09:39:25.232Z</time></trkpt><trkpt lat="43.5401886" lon="12.0372595"><ele>378.0</ele><time>2026-04-19T09:39:26.233Z</time></trkpt><trkpt lat="43.5403048" lon="12.0372714"><ele>378.0</ele><time>2026-04-19T09:39:27.232Z</time></trkpt><trkpt lat="43.5404318" lon="12.0372874"><ele>378.0</ele><time>2026-04-19T09:39:28.233Z</time></trkpt><trkpt lat="43.5405499" lon="12.0372996"><ele>378.0</ele><time>2026-04-19T09:39:29.232Z</time></trkpt><trkpt lat="43.5406607" lon="12.0373089"><ele>380.2</ele><time>2026-04-19T09:39:30.234Z</time></trkpt><trkpt lat="43.5407608" lon="12.0373135"><ele>382.4</ele><time>2026-04-19T09:39:31.233Z</time></trkpt><trkpt lat="43.5408544" lon="12.0373105"><ele>384.59999999999997</ele><time>2026-04-19T09:39:32.233Z</time></trkpt><trkpt lat="43.5409487" lon="12.0373047"><ele>386.79999999999995</ele><time>2026-04-19T09:39:33.234Z</time></trkpt><trkpt lat="43.541049" lon="12.0373065"><ele>389.0</ele><time>2026-04-19T09:39:34.232Z</time></trkpt><trkpt lat="43.5411553" lon="12.037318"><ele>391.4</ele><time>2026-04-19T09:39:35.233Z</time></trkpt><trkpt lat="43.5412733" lon="12.0373314"><ele>393.79999999999995</ele><time>2026-04-19T09:39:36.233Z</time></trkpt><trkpt lat="43.5413998" lon="12.0373459"><ele>396.20000000000005</ele><time>2026-04-19T09:39:37.232Z</time></trkpt><trkpt lat="43.5415131" lon="12.037362"><ele>398.6</ele><time>2026-04-19T09:39:38.233Z</time></trkpt><trkpt lat="43.541601" lon="12.0373753"><ele>401.0</ele><time>2026-04-19T09:39:39.233Z</time></trkpt><trkpt lat="43.5416708" lon="12.0373861"><ele>401.0</ele><time>2026-04-19T09:39:40.232Z</time></trkpt><trkpt lat="43.541762" lon="12.0374023"><ele>401.0</ele><time>2026-04-19T09:39:42.232Z</time></trkpt><trkpt lat="43.5418391" lon="12.0374408"><ele>401.0</ele><time>2026-04-19T09:39:46.233Z</time></trkpt><trkpt lat="43.5418972" lon="12.0375051"><ele>401.0</ele><time>2026-04-19T09:39:48.233Z</time></trkpt><trkpt lat="43.5419827" lon="12.0375984"><ele>401.0</ele><time>2026-04-19T09:39:50.232Z</time></trkpt><trkpt lat="43.5420706" lon="12.0376894"><ele>402.16666666666663</ele><time>2026-04-19T09:39:52.234Z</time></trkpt><trkpt lat="43.5421241" lon="12.0377359"><ele>403.3333333333333</ele><time>2026-04-19T09:39:53.233Z</time></trkpt><trkpt lat="43.5421839" lon="12.0377886"><ele>404.5</ele><time>2026-04-19T09:39:54.233Z</time></trkpt><trkpt lat="43.5422513" lon="12.037851"><ele>405.66666666666663</ele><time>2026-04-19T09:39:55.232Z</time></trkpt><trkpt lat="43.5423315" lon="12.0379222"><ele>406.8333333333333</ele><time>2026-04-19T09:39:56.233Z</time></trkpt><trkpt lat="43.5424155" lon="12.0380121"><ele>408.0</ele><time>2026-04-19T09:39:57.233Z</time></trkpt><trkpt lat="43.5425111" lon="12.0381267"><ele>408.0</ele><time>2026-04-19T09:39:58.233Z</time></trkpt><trkpt lat="43.5426091" lon="12.0382461"><ele>408.0</ele><time>2026-04-19T09:39:59.233Z</time></trkpt><trkpt lat="43.5427027" lon="12.0383562"><ele>408.0</ele><time>2026-04-19T09:40:00.232Z</time></trkpt><trkpt lat="43.5427878" lon="12.0384557"><ele>408.0</ele><time>2026-04-19T09:40:01.233Z</time></trkpt><trkpt lat="43.5428695" lon="12.0385508"><ele>407.6666666666667</ele><time>2026-04-19T09:40:02.232Z</time></trkpt><trkpt lat="43.5429487" lon="12.0386434"><ele>407.33333333333337</ele><time>2026-04-19T09:40:03.232Z</time></trkpt><trkpt lat="43.5430212" lon="12.0387235"><ele>407.0</ele><time>2026-04-19T09:40:04.233Z</time></trkpt><trkpt lat="43.543088" lon="12.0387876"><ele>406.6666666666667</ele><time>2026-04-19T09:40:05.233Z</time></trkpt><trkpt lat="43.5431542" lon="12.0388332"><ele>406.33333333333337</ele><time>2026-04-19T09:40:06.234Z</time></trkpt><trkpt lat="43.5432222" lon="12.0388574"><ele>406.0</ele><time>2026-04-19T09:40:07.232Z</time></trkpt><trkpt lat="43.5432889" lon="12.0388667"><ele>406.00000000000006</ele><time>2026-04-19T09:40:08.232Z</time></trkpt><trkpt lat="43.5433526" lon="12.0388786"><ele>406.0</ele><time>2026-04-19T09:40:09.233Z</time></trkpt><trkpt lat="43.5434607" lon="12.0389381"><ele>406.0</ele><time>2026-04-19T09:40:11.233Z</time></trkpt><trkpt lat="43.5435382" lon="12.0390494"><ele>406.0</ele><time>2026-04-19T09:40:13.233Z</time></trkpt><trkpt lat="43.543578" lon="12.0391228"><ele>406.00000000000006</ele><time>2026-04-19T09:40:14.234Z</time></trkpt><trkpt lat="43.5436203" lon="12.0392098"><ele>406.0</ele><time>2026-04-19T09:40:15.232Z</time></trkpt><trkpt lat="43.5436717" lon="12.0393083"><ele>405.4</ele><time>2026-04-19T09:40:16.232Z</time></trkpt><trkpt lat="43.5437283" lon="12.0394114"><ele>404.8</ele><time>2026-04-19T09:40:17.233Z</time></trkpt><trkpt lat="43.5437876" lon="12.0395154"><ele>404.2</ele><time>2026-04-19T09:40:18.232Z</time></trkpt><trkpt lat="43.543855" lon="12.0396244"><ele>403.59999999999997</ele><time>2026-04-19T09:40:19.232Z</time></trkpt><trkpt lat="43.5439306" lon="12.039738"><ele>403.0</ele><time>2026-04-19T09:40:20.234Z</time></trkpt><trkpt lat="43.5440148" lon="12.0398551"><ele>407.0</ele><time>2026-04-19T09:40:21.232Z</time></trkpt><trkpt lat="43.5441094" lon="12.0399734"><ele>411.0</ele><time>2026-04-19T09:40:22.232Z</time></trkpt><trkpt lat="43.5442153" lon="12.0400834"><ele>415.0</ele><time>2026-04-19T09:40:23.233Z</time></trkpt><trkpt lat="43.5443308" lon="12.0401858"><ele>419.0</ele><time>2026-04-19T09:40:24.234Z</time></trkpt><trkpt lat="43.5444399" lon="12.0402857"><ele>419.0</ele><time>2026-04-19T09:40:25.232Z</time></trkpt><trkpt lat="43.5445364" lon="12.0403899"><ele>419.0</ele><time>2026-04-19T09:40:26.233Z</time></trkpt><trkpt lat="43.5446284" lon="12.0404872"><ele>419.0</ele><time>2026-04-19T09:40:27.233Z</time></trkpt><trkpt lat="43.544713" lon="12.0405726"><ele>419.0</ele><time>2026-04-19T09:40:28.232Z</time></trkpt><trkpt lat="43.5448043" lon="12.0406329"><ele>419.0</ele><time>2026-04-19T09:40:29.232Z</time></trkpt><trkpt lat="43.5449142" lon="12.0406761"><ele>419.0</ele><time>2026-04-19T09:40:30.232Z</time></trkpt><trkpt lat="43.5450392" lon="12.0407381"><ele>419.0</ele><time>2026-04-19T09:40:31.232Z</time></trkpt><trkpt lat="43.5451741" lon="12.0408302"><ele>419.0</ele><time>2026-04-19T09:40:32.232Z</time></trkpt><trkpt lat="43.5453073" lon="12.0409379"><ele>419.0</ele><time>2026-04-19T09:40:33.232Z</time></trkpt><trkpt lat="43.5454333" lon="12.0410521"><ele>423.75</ele><time>2026-04-19T09:40:34.232Z</time></trkpt><trkpt lat="43.5455569" lon="12.04116"><ele>428.5</ele><time>2026-04-19T09:40:35.232Z</time></trkpt><trkpt lat="43.5456675" lon="12.04126"><ele>433.25</ele><time>2026-04-19T09:40:36.232Z</time></trkpt><trkpt lat="43.5457726" lon="12.041367"><ele>438.0</ele><time>2026-04-19T09:40:37.233Z</time></trkpt><trkpt lat="43.5458695" lon="12.0414843"><ele>438.0</ele><time>2026-04-19T09:40:38.233Z</time></trkpt><trkpt lat="43.5459521" lon="12.0416046"><ele>437.99999999999994</ele><time>2026-04-19T09:40:39.233Z</time></trkpt><trkpt lat="43.5460202" lon="12.0417294"><ele>437.99999999999994</ele><time>2026-04-19T09:40:40.233Z</time></trkpt><trkpt lat="43.5460795" lon="12.041859"><ele>438.0</ele><time>2026-04-19T09:40:41.233Z</time></trkpt><trkpt lat="43.5461306" lon="12.0419753"><ele>438.0</ele><time>2026-04-19T09:40:42.232Z</time></trkpt><trkpt lat="43.5461709" lon="12.042066"><ele>439.8333333333333</ele><time>2026-04-19T09:40:43.233Z</time></trkpt><trkpt lat="43.5462248" lon="12.0422019"><ele>441.66666666666663</ele><time>2026-04-19T09:40:45.232Z</time></trkpt><trkpt lat="43.5462682" lon="12.0423034"><ele>443.5</ele><time>2026-04-19T09:40:47.233Z</time></trkpt><trkpt lat="43.5463068" lon="12.0424208"><ele>445.3333333333333</ele><time>2026-04-19T09:40:49.232Z</time></trkpt><trkpt lat="43.5463395" lon="12.0425196"><ele>447.16666666666663</ele><time>2026-04-19T09:40:51.233Z</time></trkpt><trkpt lat="43.5463638" lon="12.0426036"><ele>449.0</ele><time>2026-04-19T09:40:54.233Z</time></trkpt><trkpt lat="43.5463856" lon="12.0427708"><ele>450.49999999999994</ele><time>2026-04-19T09:42:56.234Z</time></trkpt><trkpt lat="43.5464022" lon="12.0428756"><ele>452.0</ele><time>2026-04-19T09:42:57.233Z</time></trkpt><trkpt lat="43.546416" lon="12.0430027"><ele>453.5</ele><time>2026-04-19T09:42:58.233Z</time></trkpt><trkpt lat="43.5464313" lon="12.0431163"><ele>455.0</ele><time>2026-04-19T09:42:59.233Z</time></trkpt><trkpt lat="43.5464464" lon="12.0432245"><ele>456.49999999999994</ele><time>2026-04-19T09:43:00.233Z</time></trkpt><trkpt lat="43.54646" lon="12.0433346"><ele>458.0</ele><time>2026-04-19T09:43:01.233Z</time></trkpt><trkpt lat="43.5464762" lon="12.0434543"><ele>459.3333333333333</ele><time>2026-04-19T09:43:02.233Z</time></trkpt><trkpt lat="43.5464906" lon="12.0435829"><ele>460.66666666666663</ele><time>2026-04-19T09:43:03.233Z</time></trkpt><trkpt lat="43.5465016" lon="12.0437045"><ele>462.0</ele><time>2026-04-19T09:43:04.234Z</time></trkpt><trkpt lat="43.546507" lon="12.0438209"><ele>463.33333333333337</ele><time>2026-04-19T09:43:05.234Z</time></trkpt><trkpt lat="43.5465085" lon="12.0439303"><ele>464.6666666666667</ele><time>2026-04-19T09:43:06.235Z</time></trkpt><trkpt lat="43.546512" lon="12.0440262"><ele>466.0</ele><time>2026-04-19T09:43:07.233Z</time></trkpt><trkpt lat="43.5465167" lon="12.0441849"><ele>467.00000000000006</ele><time>2026-04-19T09:43:09.232Z</time></trkpt><trkpt lat="43.5465281" lon="12.0443161"><ele>468.0</ele><time>2026-04-19T09:43:11.234Z</time></trkpt><trkpt lat="43.5465554" lon="12.0444449"><ele>469.0</ele><time>2026-04-19T09:43:13.232Z</time></trkpt><trkpt lat="43.5465863" lon="12.044549"><ele>470.0</ele><time>2026-04-19T09:43:15.232Z</time></trkpt><trkpt lat="43.546616" lon="12.0446271"><ele>471.00000000000006</ele><time>2026-04-19T09:43:17.233Z</time></trkpt><trkpt lat="43.546662" lon="12.0447168"><ele>472.0</ele><time>2026-04-19T09:43:20.232Z</time></trkpt><trkpt lat="43.5467179" lon="12.0447603"><ele>472.00000000000006</ele><time>2026-04-19T09:43:22.233Z</time></trkpt><trkpt lat="43.5467764" lon="12.0448142"><ele>472.0</ele><time>2026-04-19T09:43:24.233Z</time></trkpt><trkpt lat="43.5467907" lon="12.0449253"><ele>472.0</ele><time>2026-04-19T09:43:26.234Z</time></trkpt><trkpt lat="43.5467723" lon="12.0451045"><ele>472.0</ele><time>2026-04-19T09:43:28.233Z</time></trkpt><trkpt lat="43.5467508" lon="12.0452106"><ele>472.00000000000006</ele><time>2026-04-19T09:43:29.233Z</time></trkpt><trkpt lat="43.5467243" lon="12.0453209"><ele>472.0</ele><time>2026-04-19T09:43:30.232Z</time></trkpt><trkpt lat="43.5466896" lon="12.0454298"><ele>473.00000000000006</ele><time>2026-04-19T09:43:31.233Z</time></trkpt><trkpt lat="43.5466452" lon="12.0455355"><ele>474.0</ele><time>2026-04-19T09:43:32.234Z</time></trkpt><trkpt lat="43.5466015" lon="12.0456368"><ele>475.0</ele><time>2026-04-19T09:43:33.233Z</time></trkpt><trkpt lat="43.5465607" lon="12.0457187"><ele>476.0</ele><time>2026-04-19T09:43:34.232Z</time></trkpt><trkpt lat="43.5465069" lon="12.045826"><ele>477.00000000000006</ele><time>2026-04-19T09:43:36.233Z</time></trkpt><trkpt lat="43.5465097" lon="12.0459165"><ele>478.0</ele><time>2026-04-19T09:43:38.234Z</time></trkpt><trkpt lat="43.5465745" lon="12.0460162"><ele>479.2</ele><time>2026-04-19T09:43:40.232Z</time></trkpt><trkpt lat="43.5466688" lon="12.0461349"><ele>480.4</ele><time>2026-04-19T09:43:42.233Z</time></trkpt><trkpt lat="43.5467224" lon="12.0461905"><ele>481.59999999999997</ele><time>2026-04-19T09:43:43.232Z</time></trkpt><trkpt lat="43.5468058" lon="12.0462798"><ele>482.79999999999995</ele><time>2026-04-19T09:43:45.233Z</time></trkpt><trkpt lat="43.5468577" lon="12.0463462"><ele>484.0</ele><time>2026-04-19T09:43:47.232Z</time></trkpt><trkpt lat="43.546918" lon="12.046421"><ele>484.00000000000006</ele><time>2026-04-19T09:43:49.233Z</time></trkpt><trkpt lat="43.5469668" lon="12.0464874"><ele>484.0</ele><time>2026-04-19T09:43:51.233Z</time></trkpt><trkpt lat="43.5470429" lon="12.046559"><ele>484.0</ele><time>2026-04-19T09:43:54.233Z</time></trkpt><trkpt lat="43.5470992" lon="12.0466116"><ele>484.0</ele><time>2026-04-19T09:43:56.234Z</time></trkpt><trkpt lat="43.5471754" lon="12.0466839"><ele>484.00000000000006</ele><time>2026-04-19T09:43:59.232Z</time></trkpt><trkpt lat="43.5472574" lon="12.0467597"><ele>484.0</ele><time>2026-04-19T09:44:02.234Z</time></trkpt><trkpt lat="43.5473207" lon="12.0467955"><ele>483.33333333333337</ele><time>2026-04-19T09:44:04.232Z</time></trkpt><trkpt lat="43.5473728" lon="12.0468538"><ele>482.6666666666667</ele><time>2026-04-19T09:44:07.233Z</time></trkpt><trkpt lat="43.547422" lon="12.0469212"><ele>482.0</ele><time>2026-04-19T09:44:10.232Z</time></trkpt><trkpt lat="43.5474705" lon="12.0469768"><ele>481.33333333333337</ele><time>2026-04-19T09:44:12.232Z</time></trkpt><trkpt lat="43.547548" lon="12.0470367"><ele>480.6666666666667</ele><time>2026-04-19T09:44:14.234Z</time></trkpt><trkpt lat="43.5476284" lon="12.0470905"><ele>480.0</ele><time>2026-04-19T09:44:16.233Z</time></trkpt><trkpt lat="43.5477333" lon="12.0471333"><ele>480.0</ele><time>2026-04-19T09:44:18.234Z</time></trkpt><trkpt lat="43.5478317" lon="12.0471767"><ele>480.0</ele><time>2026-04-19T09:44:20.233Z</time></trkpt><trkpt lat="43.54793" lon="12.04726"><ele>480.0</ele><time>2026-04-19T09:44:22.233Z</time></trkpt><trkpt lat="43.54799" lon="12.0473117"><ele>480.0</ele><time>2026-04-19T09:44:23.233Z</time></trkpt><trkpt lat="43.548055" lon="12.0473633"><ele>480.0</ele><time>2026-04-19T09:44:24.234Z</time></trkpt><trkpt lat="43.548115" lon="12.047405"><ele>480.0</ele><time>2026-04-19T09:44:25.233Z</time></trkpt><trkpt lat="43.5481767" lon="12.047445"><ele>476.5</ele><time>2026-04-19T09:44:26.235Z</time></trkpt><trkpt lat="43.5482367" lon="12.0474783"><ele>473.0</ele><time>2026-04-19T09:44:27.235Z</time></trkpt><trkpt lat="43.5482983" lon="12.0475333"><ele>469.5</ele><time>2026-04-19T09:44:28.233Z</time></trkpt><trkpt lat="43.5483583" lon="12.0475833"><ele>466.0</ele><time>2026-04-19T09:44:29.234Z</time></trkpt><trkpt lat="43.548415" lon="12.0476283"><ele>462.5</ele><time>2026-04-19T09:44:30.234Z</time></trkpt><trkpt lat="43.5485" lon="12.0477167"><ele>459.0</ele><time>2026-04-19T09:44:32.234Z</time></trkpt><trkpt lat="43.54854" lon="12.0478067"><ele>459.0</ele><time>2026-04-19T09:44:34.232Z</time></trkpt><trkpt lat="43.5485867" lon="12.04791"><ele>459.0</ele><time>2026-04-19T09:44:36.233Z</time></trkpt><trkpt lat="43.5486483" lon="12.0480233"><ele>459.0</ele><time>2026-04-19T09:44:38.233Z</time></trkpt><trkpt lat="43.5487183" lon="12.0481433"><ele>459.0</ele><time>2026-04-19T09:44:40.232Z</time></trkpt><trkpt lat="43.5487567" lon="12.0483067"><ele>459.0</ele><time>2026-04-19T09:44:42.232Z</time></trkpt><trkpt lat="43.5487667" lon="12.0484"><ele>455.6666666666667</ele><time>2026-04-19T09:44:43.235Z</time></trkpt><trkpt lat="43.548775" lon="12.0484917"><ele>452.33333333333337</ele><time>2026-04-19T09:44:44.234Z</time></trkpt><trkpt lat="43.5487783" lon="12.0485817"><ele>449.0</ele><time>2026-04-19T09:44:45.232Z</time></trkpt><trkpt lat="43.54879" lon="12.04874"><ele>445.6666666666667</ele><time>2026-04-19T09:44:47.233Z</time></trkpt><trkpt lat="43.5488183" lon="12.0489017"><ele>442.33333333333337</ele><time>2026-04-19T09:44:49.234Z</time></trkpt><trkpt lat="43.548825" lon="12.0489883"><ele>439.0</ele><time>2026-04-19T09:44:50.233Z</time></trkpt><trkpt lat="43.54883" lon="12.0490767"><ele>437.4</ele><time>2026-04-19T09:44:51.233Z</time></trkpt><trkpt lat="43.5488383" lon="12.04923"><ele>435.79999999999995</ele><time>2026-04-19T09:44:53.232Z</time></trkpt><trkpt lat="43.5488317" lon="12.0493867"><ele>434.20000000000005</ele><time>2026-04-19T09:44:55.232Z</time></trkpt><trkpt lat="43.5488183" lon="12.0495417"><ele>432.6</ele><time>2026-04-19T09:44:57.233Z</time></trkpt><trkpt lat="43.5488367" lon="12.049675"><ele>431.0</ele><time>2026-04-19T09:44:59.234Z</time></trkpt><trkpt lat="43.5488783" lon="12.049785"><ele>431.0</ele><time>2026-04-19T09:45:01.234Z</time></trkpt><trkpt lat="43.548935" lon="12.0498833"><ele>431.0</ele><time>2026-04-19T09:45:03.233Z</time></trkpt><trkpt lat="43.549" lon="12.0499867"><ele>431.0</ele><time>2026-04-19T09:45:05.233Z</time></trkpt><trkpt lat="43.5490633" lon="12.0500783"><ele>431.0</ele><time>2026-04-19T09:45:07.232Z</time></trkpt><trkpt lat="43.5491233" lon="12.05017"><ele>431.0</ele><time>2026-04-19T09:45:09.233Z</time></trkpt><trkpt lat="43.54919" lon="12.05026"><ele>430.49999999999994</ele><time>2026-04-19T09:45:11.233Z</time></trkpt><trkpt lat="43.5492517" lon="12.0502833"><ele>430.0</ele><time>2026-04-19T09:45:14.234Z</time></trkpt><trkpt lat="43.54929" lon="12.0503617"><ele>429.5</ele><time>2026-04-19T09:45:18.233Z</time></trkpt><trkpt lat="43.5492983" lon="12.0504483"><ele>429.0</ele><time>2026-04-19T09:45:20.233Z</time></trkpt><trkpt lat="43.5493067" lon="12.0505817"><ele>428.49999999999994</ele><time>2026-04-19T09:45:23.233Z</time></trkpt><trkpt lat="43.5493033" lon="12.0506883"><ele>428.0</ele><time>2026-04-19T09:45:25.235Z</time></trkpt><trkpt lat="43.54927" lon="12.050795"><ele>426.0</ele><time>2026-04-19T09:45:27.233Z</time></trkpt><trkpt lat="43.549185" lon="12.0508883"><ele>423.99999999999994</ele><time>2026-04-19T09:45:29.234Z</time></trkpt><trkpt lat="43.5490833" lon="12.05096"><ele>422.0</ele><time>2026-04-19T09:45:31.233Z</time></trkpt><trkpt lat="43.5489533" lon="12.0510017"><ele>420.0</ele><time>2026-04-19T09:45:33.233Z</time></trkpt><trkpt lat="43.5488833" lon="12.0510283"><ele>418.0</ele><time>2026-04-19T09:45:34.233Z</time></trkpt><trkpt lat="43.548815" lon="12.05106"><ele>418.00000000000006</ele><time>2026-04-19T09:45:35.232Z</time></trkpt><trkpt lat="43.5487483" lon="12.0510933"><ele>418.0</ele><time>2026-04-19T09:45:36.233Z</time></trkpt><trkpt lat="43.548685" lon="12.0511333"><ele>418.0</ele><time>2026-04-19T09:45:37.233Z</time></trkpt><trkpt lat="43.5486167" lon="12.051175"><ele>418.0</ele><time>2026-04-19T09:45:38.233Z</time></trkpt><trkpt lat="43.5485467" lon="12.0512083"><ele>418.00000000000006</ele><time>2026-04-19T09:45:39.233Z</time></trkpt><trkpt lat="43.5484767" lon="12.05123"><ele>418.0</ele><time>2026-04-19T09:45:40.234Z</time></trkpt><trkpt lat="43.5483733" lon="12.0512667"><ele>417.33333333333337</ele><time>2026-04-19T09:45:42.233Z</time></trkpt><trkpt lat="43.5483167" lon="12.0513333"><ele>416.6666666666667</ele><time>2026-04-19T09:45:44.233Z</time></trkpt><trkpt lat="43.548315" lon="12.0514417"><ele>416.0</ele><time>2026-04-19T09:45:49.233Z</time></trkpt><trkpt lat="43.5482717" lon="12.051545"><ele>415.33333333333337</ele><time>2026-04-19T09:45:51.233Z</time></trkpt><trkpt lat="43.54825" lon="12.0517133"><ele>414.6666666666667</ele><time>2026-04-19T09:45:53.234Z</time></trkpt><trkpt lat="43.5482533" lon="12.05181"><ele>414.0</ele><time>2026-04-19T09:45:54.234Z</time></trkpt><trkpt lat="43.5482483" lon="12.0519017"><ele>411.5</ele><time>2026-04-19T09:45:55.234Z</time></trkpt><trkpt lat="43.5482433" lon="12.05199"><ele>409.0</ele><time>2026-04-19T09:45:56.235Z</time></trkpt><trkpt lat="43.548245" lon="12.0520783"><ele>406.5</ele><time>2026-04-19T09:45:57.232Z</time></trkpt><trkpt lat="43.5482533" lon="12.052165"><ele>404.0</ele><time>2026-04-19T09:45:58.232Z</time></trkpt><trkpt lat="43.5482917" lon="12.0523233"><ele>401.5</ele><time>2026-04-19T09:46:00.233Z</time></trkpt><trkpt lat="43.5483317" lon="12.0524583"><ele>399.0</ele><time>2026-04-19T09:46:02.235Z</time></trkpt><trkpt lat="43.5483183" lon="12.052585"><ele>397.2</ele><time>2026-04-19T09:46:04.232Z</time></trkpt><trkpt lat="43.5482317" lon="12.0526817"><ele>395.4</ele><time>2026-04-19T09:46:06.233Z</time></trkpt><trkpt lat="43.5481033" lon="12.0526967"><ele>393.6</ele><time>2026-04-19T09:46:08.234Z</time></trkpt><trkpt lat="43.548025" lon="12.052665"><ele>391.8</ele><time>2026-04-19T09:46:09.233Z</time></trkpt><trkpt lat="43.54795" lon="12.0526433"><ele>390.0</ele><time>2026-04-19T09:46:10.232Z</time></trkpt><trkpt lat="43.5478783" lon="12.0526183"><ele>390.6</ele><time>2026-04-19T09:46:11.234Z</time></trkpt><trkpt lat="43.5478083" lon="12.052585"><ele>391.2</ele><time>2026-04-19T09:46:12.232Z</time></trkpt><trkpt lat="43.5476917" lon="12.052565"><ele>391.79999999999995</ele><time>2026-04-19T09:46:14.234Z</time></trkpt><trkpt lat="43.5476033" lon="12.0526233"><ele>392.4</ele><time>2026-04-19T09:46:16.234Z</time></trkpt><trkpt lat="43.5475383" lon="12.0527383"><ele>393.0</ele><time>2026-04-19T09:46:18.234Z</time></trkpt><trkpt lat="43.5475783" lon="12.0528167"><ele>393.00000000000006</ele><time>2026-04-19T09:46:31.232Z</time></trkpt><trkpt lat="43.5476483" lon="12.05279"><ele>393.0</ele><time>2026-04-19T09:46:34.233Z</time></trkpt><trkpt lat="43.547685" lon="12.0528817"><ele>393.0</ele><time>2026-04-19T09:46:42.233Z</time></trkpt><trkpt lat="43.5477133" lon="12.0529617"><ele>393.0</ele><time>2026-04-19T09:46:45.233Z</time></trkpt><trkpt lat="43.5477183" lon="12.0530783"><ele>393.0</ele><time>2026-04-19T09:46:50.234Z</time></trkpt><trkpt lat="43.547735" lon="12.0531767"><ele>393.00000000000006</ele><time>2026-04-19T09:46:54.233Z</time></trkpt><trkpt lat="43.5477683" lon="12.05327"><ele>393.0</ele><time>2026-04-19T09:46:56.233Z</time></trkpt><trkpt lat="43.5477867" lon="12.053385"><ele>392.0</ele><time>2026-04-19T09:46:59.233Z</time></trkpt><trkpt lat="43.5478017" lon="12.0535067"><ele>391.0</ele><time>2026-04-19T09:47:02.234Z</time></trkpt><trkpt lat="43.5478333" lon="12.0536317"><ele>390.0</ele><time>2026-04-19T09:47:05.234Z</time></trkpt><trkpt lat="43.54786" lon="12.05373"><ele>389.0</ele><time>2026-04-19T09:47:07.234Z</time></trkpt><trkpt lat="43.547875" lon="12.0538267"><ele>388.0</ele><time>2026-04-19T09:47:16.233Z</time></trkpt><trkpt lat="43.5479183" lon="12.05391"><ele>387.0</ele><time>2026-04-19T09:47:19.234Z</time></trkpt><trkpt lat="43.5479683" lon="12.054"><ele>384.8</ele><time>2026-04-19T09:47:22.239Z</time></trkpt><trkpt lat="43.547995" lon="12.05412"><ele>382.6</ele><time>2026-04-19T09:47:25.234Z</time></trkpt><trkpt lat="43.54803" lon="12.05422"><ele>380.40000000000003</ele><time>2026-04-19T09:47:28.233Z</time></trkpt><trkpt lat="43.5480333" lon="12.054335"><ele>378.20000000000005</ele><time>2026-04-19T09:47:31.234Z</time></trkpt><trkpt lat="43.5480417" lon="12.0544483"><ele>376.0</ele><time>2026-04-19T09:47:37.233Z</time></trkpt><trkpt lat="43.548075" lon="12.0546217"><ele>372.8</ele><time>2026-04-19T09:47:39.233Z</time></trkpt><trkpt lat="43.5481067" lon="12.054715"><ele>369.6</ele><time>2026-04-19T09:47:40.235Z</time></trkpt><trkpt lat="43.548145" lon="12.0548117"><ele>366.4</ele><time>2026-04-19T09:47:41.232Z</time></trkpt><trkpt lat="43.548185" lon="12.0549317"><ele>363.2</ele><time>2026-04-19T09:47:42.234Z</time></trkpt><trkpt lat="43.5482283" lon="12.0550733"><ele>360.0</ele><time>2026-04-19T09:47:43.232Z</time></trkpt><trkpt lat="43.54827" lon="12.0552267"><ele>357.75</ele><time>2026-04-19T09:47:44.233Z</time></trkpt><trkpt lat="43.548305" lon="12.0553867"><ele>355.5</ele><time>2026-04-19T09:47:45.233Z</time></trkpt><trkpt lat="43.5483333" lon="12.055555"><ele>353.25</ele><time>2026-04-19T09:47:46.234Z</time></trkpt><trkpt lat="43.5483517" lon="12.05572"><ele>351.0</ele><time>2026-04-19T09:47:47.233Z</time></trkpt><trkpt lat="43.5483617" lon="12.055875"><ele>350.0</ele><time>2026-04-19T09:47:48.233Z</time></trkpt><trkpt lat="43.5483733" lon="12.0560233"><ele>349.0</ele><time>2026-04-19T09:47:49.233Z</time></trkpt><trkpt lat="43.54838" lon="12.0561633"><ele>348.0</ele><time>2026-04-19T09:47:50.234Z</time></trkpt><trkpt lat="43.5483767" lon="12.0563"><ele>347.0</ele><time>2026-04-19T09:47:51.233Z</time></trkpt><trkpt lat="43.5483767" lon="12.0564283"><ele>346.0</ele><time>2026-04-19T09:47:52.233Z</time></trkpt><trkpt lat="43.54838" lon="12.0565533"><ele>345.16666666666663</ele><time>2026-04-19T09:47:53.233Z</time></trkpt><trkpt lat="43.5483817" lon="12.0566717"><ele>344.3333333333333</ele><time>2026-04-19T09:47:54.233Z</time></trkpt><trkpt lat="43.5483817" lon="12.0567833"><ele>343.5</ele><time>2026-04-19T09:47:55.233Z</time></trkpt><trkpt lat="43.5483833" lon="12.056885"><ele>342.6666666666667</ele><time>2026-04-19T09:47:56.234Z</time></trkpt><trkpt lat="43.5483817" lon="12.056975"><ele>341.83333333333337</ele><time>2026-04-19T09:47:57.234Z</time></trkpt><trkpt lat="43.548405" lon="12.0571183"><ele>341.0</ele><time>2026-04-19T09:47:59.234Z</time></trkpt><trkpt lat="43.54846" lon="12.05717"><ele>341.0</ele><time>2026-04-19T09:48:01.233Z</time></trkpt><trkpt lat="43.5485317" lon="12.0571217"><ele>341.0</ele><time>2026-04-19T09:48:03.233Z</time></trkpt><trkpt lat="43.548615" lon="12.0570417"><ele>341.0</ele><time>2026-04-19T09:48:05.234Z</time></trkpt><trkpt lat="43.5487133" lon="12.0569417"><ele>341.0</ele><time>2026-04-19T09:48:07.234Z</time></trkpt><trkpt lat="43.5487717" lon="12.0568883"><ele>341.0</ele><time>2026-04-19T09:48:08.233Z</time></trkpt><trkpt lat="43.5488383" lon="12.0568367"><ele>341.0</ele><time>2026-04-19T09:48:09.232Z</time></trkpt><trkpt lat="43.5489083" lon="12.0567817"><ele>341.0</ele><time>2026-04-19T09:48:10.233Z</time></trkpt><trkpt lat="43.5489817" lon="12.0567267"><ele>341.0</ele><time>2026-04-19T09:48:11.233Z</time></trkpt><trkpt lat="43.549055" lon="12.056675"><ele>341.0</ele><time>2026-04-19T09:48:12.234Z</time></trkpt><trkpt lat="43.5491283" lon="12.0566333"><ele>341.0</ele><time>2026-04-19T09:48:13.233Z</time></trkpt><trkpt lat="43.5492017" lon="12.05659"><ele>341.0</ele><time>2026-04-19T09:48:14.233Z</time></trkpt><trkpt lat="43.5492717" lon="12.0565433"><ele>341.0</ele><time>2026-04-19T09:48:15.233Z</time></trkpt><trkpt lat="43.549345" lon="12.05649"><ele>341.0</ele><time>2026-04-19T09:48:16.233Z</time></trkpt><trkpt lat="43.549415" lon="12.0564333"><ele>341.0</ele><time>2026-04-19T09:48:17.234Z</time></trkpt><trkpt lat="43.5494833" lon="12.0563783"><ele>341.0</ele><time>2026-04-19T09:48:18.233Z</time></trkpt><trkpt lat="43.5495533" lon="12.0563217"><ele>341.0</ele><time>2026-04-19T09:48:19.234Z</time></trkpt><trkpt lat="43.54962" lon="12.0562633"><ele>341.0</ele><time>2026-04-19T09:48:20.233Z</time></trkpt><trkpt lat="43.5496883" lon="12.0561983"><ele>339.6666666666667</ele><time>2026-04-19T09:48:21.233Z</time></trkpt><trkpt lat="43.5497567" lon="12.0561333"><ele>338.33333333333337</ele><time>2026-04-19T09:48:22.233Z</time></trkpt><trkpt lat="43.5498217" lon="12.056065"><ele>337.0</ele><time>2026-04-19T09:48:23.233Z</time></trkpt><trkpt lat="43.5498883" lon="12.0559967"><ele>335.6666666666667</ele><time>2026-04-19T09:48:24.239Z</time></trkpt><trkpt lat="43.549955" lon="12.0559283"><ele>334.3333333333333</ele><time>2026-04-19T09:48:25.234Z</time></trkpt><trkpt lat="43.55002" lon="12.0558567"><ele>333.0</ele><time>2026-04-19T09:48:26.233Z</time></trkpt><trkpt lat="43.550085" lon="12.0557883"><ele>333.1666666666667</ele><time>2026-04-19T09:48:27.234Z</time></trkpt><trkpt lat="43.5501483" lon="12.05572"><ele>333.3333333333333</ele><time>2026-04-19T09:48:28.232Z</time></trkpt><trkpt lat="43.550215" lon="12.055655"><ele>333.5</ele><time>2026-04-19T09:48:29.233Z</time></trkpt><trkpt lat="43.55028" lon="12.0555883"><ele>333.66666666666663</ele><time>2026-04-19T09:48:30.234Z</time></trkpt><trkpt lat="43.550345" lon="12.0555167"><ele>333.8333333333333</ele><time>2026-04-19T09:48:31.234Z</time></trkpt><trkpt lat="43.5504133" lon="12.0554417"><ele>334.0</ele><time>2026-04-19T09:48:32.233Z</time></trkpt><trkpt lat="43.5504767" lon="12.0553683"><ele>334.0</ele><time>2026-04-19T09:48:33.234Z</time></trkpt><trkpt lat="43.5505417" lon="12.0552967"><ele>334.0</ele><time>2026-04-19T09:48:34.234Z</time></trkpt><trkpt lat="43.5506133" lon="12.0552267"><ele>334.0</ele><time>2026-04-19T09:48:35.234Z</time></trkpt><trkpt lat="43.5506867" lon="12.0551617"><ele>334.0</ele><time>2026-04-19T09:48:36.233Z</time></trkpt><trkpt lat="43.5507567" lon="12.0551"><ele>334.0</ele><time>2026-04-19T09:48:37.233Z</time></trkpt><trkpt lat="43.550825" lon="12.05504"><ele>334.0</ele><time>2026-04-19T09:48:38.233Z</time></trkpt><trkpt lat="43.5508967" lon="12.054985"><ele>334.66666666666663</ele><time>2026-04-19T09:48:39.233Z</time></trkpt><trkpt lat="43.5509733" lon="12.05493"><ele>335.3333333333333</ele><time>2026-04-19T09:48:40.234Z</time></trkpt><trkpt lat="43.5510483" lon="12.05488"><ele>336.0</ele><time>2026-04-19T09:48:41.239Z</time></trkpt><trkpt lat="43.5511183" lon="12.05483"><ele>336.6666666666667</ele><time>2026-04-19T09:48:42.233Z</time></trkpt><trkpt lat="43.5511983" lon="12.0547767"><ele>337.33333333333337</ele><time>2026-04-19T09:48:43.234Z</time></trkpt><trkpt lat="43.5512733" lon="12.0547283"><ele>338.0</ele><time>2026-04-19T09:48:44.233Z</time></trkpt><trkpt lat="43.5513533" lon="12.0546767"><ele>338.5</ele><time>2026-04-19T09:48:45.233Z</time></trkpt><trkpt lat="43.5514317" lon="12.0546233"><ele>339.0</ele><time>2026-04-19T09:48:46.232Z</time></trkpt><trkpt lat="43.5515067" lon="12.0545733"><ele>339.5</ele><time>2026-04-19T09:48:47.233Z</time></trkpt><trkpt lat="43.5515817" lon="12.0545317"><ele>340.0</ele><time>2026-04-19T09:48:48.234Z</time></trkpt><trkpt lat="43.5516583" lon="12.0545033"><ele>340.5</ele><time>2026-04-19T09:48:49.233Z</time></trkpt><trkpt lat="43.5517333" lon="12.0544867"><ele>341.0</ele><time>2026-04-19T09:48:50.235Z</time></trkpt><trkpt lat="43.55181" lon="12.05448"><ele>341.0</ele><time>2026-04-19T09:48:51.233Z</time></trkpt><trkpt lat="43.5518883" lon="12.054475"><ele>341.0</ele><time>2026-04-19T09:48:52.234Z</time></trkpt><trkpt lat="43.5519733" lon="12.05446"><ele>341.0</ele><time>2026-04-19T09:48:53.233Z</time></trkpt><trkpt lat="43.5520617" lon="12.05444"><ele>341.0</ele><time>2026-04-19T09:48:54.234Z</time></trkpt><trkpt lat="43.5521567" lon="12.0544167"><ele>341.0</ele><time>2026-04-19T09:48:55.234Z</time></trkpt><trkpt lat="43.5522517" lon="12.054375"><ele>340.8</ele><time>2026-04-19T09:48:56.233Z</time></trkpt><trkpt lat="43.5523433" lon="12.05431"><ele>340.6</ele><time>2026-04-19T09:48:57.233Z</time></trkpt><trkpt lat="43.552435" lon="12.054225"><ele>340.4</ele><time>2026-04-19T09:48:58.234Z</time></trkpt><trkpt lat="43.5525267" lon="12.0541283"><ele>340.2</ele><time>2026-04-19T09:48:59.234Z</time></trkpt><trkpt lat="43.552615" lon="12.0540267"><ele>340.0</ele><time>2026-04-19T09:49:00.234Z</time></trkpt><trkpt lat="43.5526933" lon="12.0539267"><ele>340.5</ele><time>2026-04-19T09:49:01.234Z</time></trkpt><trkpt lat="43.5527617" lon="12.0538333"><ele>341.0</ele><time>2026-04-19T09:49:02.234Z</time></trkpt><trkpt lat="43.552825" lon="12.0537483"><ele>341.5</ele><time>2026-04-19T09:49:03.233Z</time></trkpt><trkpt lat="43.5528833" lon="12.0536733"><ele>342.0</ele><time>2026-04-19T09:49:04.233Z</time></trkpt><trkpt lat="43.5529433" lon="12.0536067"><ele>342.5</ele><time>2026-04-19T09:49:05.233Z</time></trkpt><trkpt lat="43.553015" lon="12.0535433"><ele>343.0</ele><time>2026-04-19T09:49:06.233Z</time></trkpt><trkpt lat="43.5530883" lon="12.0534833"><ele>343.0</ele><time>2026-04-19T09:49:07.233Z</time></trkpt><trkpt lat="43.5531733" lon="12.0534167"><ele>343.0</ele><time>2026-04-19T09:49:08.233Z</time></trkpt><trkpt lat="43.5532583" lon="12.0533517"><ele>343.0</ele><time>2026-04-19T09:49:09.233Z</time></trkpt><trkpt lat="43.553345" lon="12.05327"><ele>343.0</ele><time>2026-04-19T09:49:10.234Z</time></trkpt><trkpt lat="43.5534333" lon="12.0531683"><ele>343.0</ele><time>2026-04-19T09:49:11.234Z</time></trkpt><trkpt lat="43.5535183" lon="12.0530617"><ele>343.75</ele><time>2026-04-19T09:49:12.233Z</time></trkpt><trkpt lat="43.5536083" lon="12.05295"><ele>344.5</ele><time>2026-04-19T09:49:13.234Z</time></trkpt><trkpt lat="43.5536967" lon="12.0528367"><ele>345.25</ele><time>2026-04-19T09:49:14.233Z</time></trkpt><trkpt lat="43.553785" lon="12.0527217"><ele>346.0</ele><time>2026-04-19T09:49:15.234Z</time></trkpt><trkpt lat="43.5538683" lon="12.0526017"><ele>346.0</ele><time>2026-04-19T09:49:16.233Z</time></trkpt><trkpt lat="43.5539567" lon="12.0524733"><ele>346.0</ele><time>2026-04-19T09:49:17.236Z</time></trkpt><trkpt lat="43.5540483" lon="12.05234"><ele>346.0</ele><time>2026-04-19T09:49:18.233Z</time></trkpt><trkpt lat="43.55414" lon="12.052215"><ele>346.0</ele><time>2026-04-19T09:49:19.235Z</time></trkpt><trkpt lat="43.554225" lon="12.0521033"><ele>346.0</ele><time>2026-04-19T09:49:20.237Z</time></trkpt><trkpt lat="43.5543067" lon="12.052005"><ele>346.0</ele><time>2026-04-19T09:49:21.233Z</time></trkpt><trkpt lat="43.5543983" lon="12.0519183"><ele>346.0</ele><time>2026-04-19T09:49:22.233Z</time></trkpt><trkpt lat="43.554505" lon="12.0518517"><ele>346.0</ele><time>2026-04-19T09:49:23.233Z</time></trkpt><trkpt lat="43.554625" lon="12.0517967"><ele>345.25</ele><time>2026-04-19T09:49:24.233Z</time></trkpt><trkpt lat="43.5547483" lon="12.0517483"><ele>344.5</ele><time>2026-04-19T09:49:25.233Z</time></trkpt><trkpt lat="43.5548633" lon="12.0516983"><ele>343.75</ele><time>2026-04-19T09:49:26.233Z</time></trkpt><trkpt lat="43.554975" lon="12.0516517"><ele>343.0</ele><time>2026-04-19T09:49:27.234Z</time></trkpt><trkpt lat="43.555078" lon="12.0516077"><ele>343.16666666666663</ele><time>2026-04-19T09:49:28.234Z</time></trkpt><trkpt lat="43.5551708" lon="12.0515741"><ele>343.3333333333333</ele><time>2026-04-19T09:49:29.233Z</time></trkpt><trkpt lat="43.5552508" lon="12.0515552"><ele>343.5</ele><time>2026-04-19T09:49:30.234Z</time></trkpt><trkpt lat="43.5553214" lon="12.0515508"><ele>343.6666666666667</ele><time>2026-04-19T09:49:31.233Z</time></trkpt><trkpt lat="43.5553848" lon="12.0515399"><ele>343.83333333333337</ele><time>2026-04-19T09:49:32.235Z</time></trkpt><trkpt lat="43.5554443" lon="12.0515051"><ele>344.0</ele><time>2026-04-19T09:49:33.233Z</time></trkpt><trkpt lat="43.5555111" lon="12.0514566"><ele>344.0</ele><time>2026-04-19T09:49:34.234Z</time></trkpt><trkpt lat="43.5555884" lon="12.0513994"><ele>344.0</ele><time>2026-04-19T09:49:35.233Z</time></trkpt><trkpt lat="43.5556747" lon="12.051338"><ele>344.0</ele><time>2026-04-19T09:49:36.234Z</time></trkpt><trkpt lat="43.5557665" lon="12.0512721"><ele>344.0</ele><time>2026-04-19T09:49:37.233Z</time></trkpt><trkpt lat="43.5558614" lon="12.0512114"><ele>344.0</ele><time>2026-04-19T09:49:38.233Z</time></trkpt><trkpt lat="43.5559548" lon="12.0511584"><ele>344.0</ele><time>2026-04-19T09:49:39.233Z</time></trkpt><trkpt lat="43.5560423" lon="12.0511112"><ele>344.0</ele><time>2026-04-19T09:49:40.233Z</time></trkpt><trkpt lat="43.5561165" lon="12.0510672"><ele>344.0</ele><time>2026-04-19T09:49:41.233Z</time></trkpt><trkpt lat="43.5561791" lon="12.0510277"><ele>344.0</ele><time>2026-04-19T09:49:42.233Z</time></trkpt><trkpt lat="43.5562459" lon="12.0509661"><ele>344.0</ele><time>2026-04-19T09:49:44.233Z</time></trkpt><trkpt lat="43.5562361" lon="12.0508285"><ele>344.0</ele><time>2026-04-19T09:49:47.234Z</time></trkpt><trkpt lat="43.5562302" lon="12.0506881"><ele>344.5</ele><time>2026-04-19T09:49:49.234Z</time></trkpt><trkpt lat="43.5562531" lon="12.0506068"><ele>345.0</ele><time>2026-04-19T09:49:51.233Z</time></trkpt><trkpt lat="43.5563264" lon="12.0505498"><ele>345.5</ele><time>2026-04-19T09:49:53.235Z</time></trkpt><trkpt lat="43.5564475" lon="12.0504831"><ele>346.0</ele><time>2026-04-19T09:49:55.233Z</time></trkpt><trkpt lat="43.5565151" lon="12.0504444"><ele>346.5</ele><time>2026-04-19T09:49:56.233Z</time></trkpt><trkpt lat="43.5565831" lon="12.0504016"><ele>347.0</ele><time>2026-04-19T09:49:57.234Z</time></trkpt><trkpt lat="43.5566485" lon="12.0503645"><ele>347.0</ele><time>2026-04-19T09:49:58.235Z</time></trkpt><trkpt lat="43.5567095" lon="12.0503313"><ele>347.0</ele><time>2026-04-19T09:49:59.235Z</time></trkpt><trkpt lat="43.5568172" lon="12.0502632"><ele>347.0</ele><time>2026-04-19T09:50:01.234Z</time></trkpt><trkpt lat="43.5569146" lon="12.0502412"><ele>347.0</ele><time>2026-04-19T09:50:03.234Z</time></trkpt><trkpt lat="43.5570135" lon="12.0503634"><ele>347.0</ele><time>2026-04-19T09:50:05.233Z</time></trkpt><trkpt lat="43.5570496" lon="12.0504588"><ele>346.5</ele><time>2026-04-19T09:50:06.233Z</time></trkpt><trkpt lat="43.557077" lon="12.0505704"><ele>346.0</ele><time>2026-04-19T09:50:07.235Z</time></trkpt><trkpt lat="43.557097" lon="12.0506857"><ele>345.5</ele><time>2026-04-19T09:50:08.233Z</time></trkpt><trkpt lat="43.5571074" lon="12.0507944"><ele>345.0</ele><time>2026-04-19T09:50:09.234Z</time></trkpt><trkpt lat="43.5571152" lon="12.0508837"><ele>344.5</ele><time>2026-04-19T09:50:10.233Z</time></trkpt><trkpt lat="43.5571389" lon="12.0510146"><ele>344.0</ele><time>2026-04-19T09:50:12.234Z</time></trkpt><trkpt lat="43.5572088" lon="12.0510864"><ele>343.33333333333337</ele><time>2026-04-19T09:50:14.235Z</time></trkpt><trkpt lat="43.5572747" lon="12.0511075"><ele>342.6666666666667</ele><time>2026-04-19T09:50:15.233Z</time></trkpt><trkpt lat="43.557351" lon="12.0511192"><ele>342.0</ele><time>2026-04-19T09:50:16.233Z</time></trkpt><trkpt lat="43.5574355" lon="12.0511195"><ele>341.3333333333333</ele><time>2026-04-19T09:50:17.234Z</time></trkpt><trkpt lat="43.5575247" lon="12.0511107"><ele>340.66666666666663</ele><time>2026-04-19T09:50:18.235Z</time></trkpt><trkpt lat="43.5576182" lon="12.0510793"><ele>340.0</ele><time>2026-04-19T09:50:19.235Z</time></trkpt><trkpt lat="43.5577095" lon="12.0510317"><ele>340.0</ele><time>2026-04-19T09:50:20.233Z</time></trkpt><trkpt lat="43.557803" lon="12.0509762"><ele>340.0</ele><time>2026-04-19T09:50:21.233Z</time></trkpt><trkpt lat="43.5579" lon="12.0509115"><ele>340.0</ele><time>2026-04-19T09:50:22.235Z</time></trkpt><trkpt lat="43.5579992" lon="12.0508319"><ele>340.0</ele><time>2026-04-19T09:50:23.234Z</time></trkpt><trkpt lat="43.5580945" lon="12.0507414"><ele>340.0</ele><time>2026-04-19T09:50:24.234Z</time></trkpt><trkpt lat="43.5581882" lon="12.0506438"><ele>339.75</ele><time>2026-04-19T09:50:25.233Z</time></trkpt><trkpt lat="43.5582783" lon="12.0505493"><ele>339.5</ele><time>2026-04-19T09:50:26.235Z</time></trkpt><trkpt lat="43.5583677" lon="12.0504574"><ele>339.25</ele><time>2026-04-19T09:50:27.234Z</time></trkpt><trkpt lat="43.5584613" lon="12.0503693"><ele>339.0</ele><time>2026-04-19T09:50:28.234Z</time></trkpt><trkpt lat="43.5585578" lon="12.0502869"><ele>339.0</ele><time>2026-04-19T09:50:29.233Z</time></trkpt><trkpt lat="43.5586524" lon="12.0502167"><ele>339.0</ele><time>2026-04-19T09:50:30.233Z</time></trkpt><trkpt lat="43.5587495" lon="12.0501574"><ele>339.0</ele><time>2026-04-19T09:50:31.235Z</time></trkpt><trkpt lat="43.5588493" lon="12.0501096"><ele>339.0</ele><time>2026-04-19T09:50:32.233Z</time></trkpt><trkpt lat="43.5589535" lon="12.0500729"><ele>339.0</ele><time>2026-04-19T09:50:33.233Z</time></trkpt><trkpt lat="43.5590575" lon="12.050047"><ele>339.2</ele><time>2026-04-19T09:50:34.234Z</time></trkpt><trkpt lat="43.559159" lon="12.0500298"><ele>339.4</ele><time>2026-04-19T09:50:35.233Z</time></trkpt><trkpt lat="43.5592614" lon="12.05002"><ele>339.6</ele><time>2026-04-19T09:50:36.232Z</time></trkpt><trkpt lat="43.5593575" lon="12.0500152"><ele>339.8</ele><time>2026-04-19T09:50:37.234Z</time></trkpt><trkpt lat="43.5594482" lon="12.0500226"><ele>340.0</ele><time>2026-04-19T09:50:38.234Z</time></trkpt><trkpt lat="43.559535" lon="12.050031"><ele>340.0</ele><time>2026-04-19T09:50:39.233Z</time></trkpt><trkpt lat="43.559616" lon="12.0500374"><ele>340.0</ele><time>2026-04-19T09:50:40.234Z</time></trkpt><trkpt lat="43.5596965" lon="12.0500433"><ele>340.0</ele><time>2026-04-19T09:50:41.234Z</time></trkpt><trkpt lat="43.5597699" lon="12.0500454"><ele>340.0</ele><time>2026-04-19T09:50:42.233Z</time></trkpt><trkpt lat="43.5598787" lon="12.0500353"><ele>340.0</ele><time>2026-04-19T09:50:44.234Z</time></trkpt><trkpt lat="43.5599508" lon="12.0500222"><ele>340.0</ele><time>2026-04-19T09:50:46.234Z</time></trkpt><trkpt lat="43.5601882" lon="12.049976"><ele>340.0</ele><time>2026-04-19T09:51:06.234Z</time></trkpt><trkpt lat="43.5602701" lon="12.0499684"><ele>340.0</ele><time>2026-04-19T09:51:07.233Z</time></trkpt><trkpt lat="43.5603487" lon="12.0499594"><ele>340.0</ele><time>2026-04-19T09:51:08.233Z</time></trkpt><trkpt lat="43.5604253" lon="12.0499517"><ele>340.0</ele><time>2026-04-19T09:51:09.233Z</time></trkpt><trkpt lat="43.5605028" lon="12.0499479"><ele>340.0</ele><time>2026-04-19T09:51:10.234Z</time></trkpt><trkpt lat="43.5605803" lon="12.0499435"><ele>340.0</ele><time>2026-04-19T09:51:11.233Z</time></trkpt><trkpt lat="43.5606561" lon="12.0499356"><ele>340.3333333333333</ele><time>2026-04-19T09:51:12.235Z</time></trkpt><trkpt lat="43.5607311" lon="12.0499252"><ele>340.66666666666663</ele><time>2026-04-19T09:51:13.233Z</time></trkpt><trkpt lat="43.5608061" lon="12.0499114"><ele>341.0</ele><time>2026-04-19T09:51:14.234Z</time></trkpt><trkpt lat="43.5608839" lon="12.0498967"><ele>341.3333333333333</ele><time>2026-04-19T09:51:15.233Z</time></trkpt><trkpt lat="43.5609635" lon="12.0498779"><ele>341.6666666666667</ele><time>2026-04-19T09:51:16.234Z</time></trkpt><trkpt lat="43.5610435" lon="12.04985"><ele>342.0</ele><time>2026-04-19T09:51:17.233Z</time></trkpt><trkpt lat="43.5611359" lon="12.0498262"><ele>341.40000000000003</ele><time>2026-04-19T09:51:18.234Z</time></trkpt><trkpt lat="43.5612273" lon="12.0498021"><ele>340.8</ele><time>2026-04-19T09:51:19.234Z</time></trkpt><trkpt lat="43.5613191" lon="12.0497758"><ele>340.2</ele><time>2026-04-19T09:51:20.234Z</time></trkpt><trkpt lat="43.5614137" lon="12.0497437"><ele>339.6</ele><time>2026-04-19T09:51:21.234Z</time></trkpt><trkpt lat="43.5615087" lon="12.0497116"><ele>339.0</ele><time>2026-04-19T09:51:22.232Z</time></trkpt><trkpt lat="43.5616037" lon="12.0496781"><ele>339.0</ele><time>2026-04-19T09:51:23.232Z</time></trkpt><trkpt lat="43.5616959" lon="12.0496418"><ele>339.0</ele><time>2026-04-19T09:51:24.232Z</time></trkpt><trkpt lat="43.5617864" lon="12.0495923"><ele>339.0</ele><time>2026-04-19T09:51:25.233Z</time></trkpt><trkpt lat="43.5618746" lon="12.0495327"><ele>339.0</ele><time>2026-04-19T09:51:26.233Z</time></trkpt><trkpt lat="43.5619582" lon="12.0494512"><ele>339.0</ele><time>2026-04-19T09:51:27.232Z</time></trkpt><trkpt lat="43.56204" lon="12.0493568"><ele>338.79999999999995</ele><time>2026-04-19T09:51:28.234Z</time></trkpt><trkpt lat="43.5621228" lon="12.049253"><ele>338.59999999999997</ele><time>2026-04-19T09:51:29.235Z</time></trkpt><trkpt lat="43.5622075" lon="12.0491466"><ele>338.4</ele><time>2026-04-19T09:51:30.232Z</time></trkpt><trkpt lat="43.5622901" lon="12.0490402"><ele>338.2</ele><time>2026-04-19T09:51:31.232Z</time></trkpt><trkpt lat="43.5623716" lon="12.0489419"><ele>338.0</ele><time>2026-04-19T09:51:32.234Z</time></trkpt><trkpt lat="43.5624489" lon="12.0488495"><ele>339.0</ele><time>2026-04-19T09:51:33.232Z</time></trkpt><trkpt lat="43.5625236" lon="12.0487688"><ele>340.0</ele><time>2026-04-19T09:51:34.232Z</time></trkpt><trkpt lat="43.5625954" lon="12.0486965"><ele>341.0</ele><time>2026-04-19T09:51:35.232Z</time></trkpt><trkpt lat="43.5626562" lon="12.0486399"><ele>342.0</ele><time>2026-04-19T09:51:36.233Z</time></trkpt><trkpt lat="43.5627107" lon="12.0485881"><ele>343.0</ele><time>2026-04-19T09:51:37.234Z</time></trkpt><trkpt lat="43.5628004" lon="12.0485211"><ele>344.0</ele><time>2026-04-19T09:51:39.232Z</time></trkpt><trkpt lat="43.5628771" lon="12.048526"><ele>344.0</ele><time>2026-04-19T09:51:41.233Z</time></trkpt><trkpt lat="43.5629911" lon="12.04862"><ele>344.0</ele><time>2026-04-19T09:51:43.233Z</time></trkpt><trkpt lat="43.5630675" lon="12.0486982"><ele>344.0</ele><time>2026-04-19T09:51:44.234Z</time></trkpt><trkpt lat="43.563159" lon="12.0488"><ele>344.0</ele><time>2026-04-19T09:51:45.232Z</time></trkpt><trkpt lat="43.5632606" lon="12.0489163"><ele>344.0</ele><time>2026-04-19T09:51:46.232Z</time></trkpt><trkpt lat="43.5633657" lon="12.0490392"><ele>344.0</ele><time>2026-04-19T09:51:47.233Z</time></trkpt><trkpt lat="43.5634707" lon="12.0491616"><ele>344.0</ele><time>2026-04-19T09:51:48.232Z</time></trkpt><trkpt lat="43.5635749" lon="12.0492841"><ele>344.0</ele><time>2026-04-19T09:51:49.232Z</time></trkpt><trkpt lat="43.5636771" lon="12.0494091"><ele>343.25</ele><time>2026-04-19T09:51:50.234Z</time></trkpt><trkpt lat="43.5637757" lon="12.0495366"><ele>342.5</ele><time>2026-04-19T09:51:51.232Z</time></trkpt><trkpt lat="43.5638752" lon="12.0496658"><ele>341.75</ele><time>2026-04-19T09:51:52.232Z</time></trkpt><trkpt lat="43.5639754" lon="12.0497961"><ele>341.0</ele><time>2026-04-19T09:51:53.232Z</time></trkpt><trkpt lat="43.5640754" lon="12.0499239"><ele>340.0</ele><time>2026-04-19T09:51:54.232Z</time></trkpt><trkpt lat="43.5641766" lon="12.0500495"><ele>339.0</ele><time>2026-04-19T09:51:55.232Z</time></trkpt><trkpt lat="43.5642801" lon="12.0501703"><ele>338.0</ele><time>2026-04-19T09:51:56.234Z</time></trkpt><trkpt lat="43.5643853" lon="12.0502875"><ele>337.0</ele><time>2026-04-19T09:51:57.232Z</time></trkpt><trkpt lat="43.5644964" lon="12.0504041"><ele>336.25</ele><time>2026-04-19T09:51:58.234Z</time></trkpt><trkpt lat="43.5646041" lon="12.0505146"><ele>335.5</ele><time>2026-04-19T09:51:59.233Z</time></trkpt><trkpt lat="43.5647009" lon="12.05064"><ele>334.75</ele><time>2026-04-19T09:52:00.233Z</time></trkpt><trkpt lat="43.564786" lon="12.0507902"><ele>334.0</ele><time>2026-04-19T09:52:01.231Z</time></trkpt><trkpt lat="43.5648595" lon="12.0509588"><ele>334.0</ele><time>2026-04-19T09:52:02.234Z</time></trkpt><trkpt lat="43.5649236" lon="12.051137"><ele>334.0</ele><time>2026-04-19T09:52:03.233Z</time></trkpt><trkpt lat="43.5649512" lon="12.0513105"><ele>334.0</ele><time>2026-04-19T09:52:04.233Z</time></trkpt><trkpt lat="43.5649551" lon="12.0514715"><ele>334.0</ele><time>2026-04-19T09:52:05.233Z</time></trkpt><trkpt lat="43.5649469" lon="12.0516182"><ele>333.6</ele><time>2026-04-19T09:52:06.232Z</time></trkpt><trkpt lat="43.5649573" lon="12.0517485"><ele>333.2</ele><time>2026-04-19T09:52:07.234Z</time></trkpt><trkpt lat="43.5649926" lon="12.0518658"><ele>332.8</ele><time>2026-04-19T09:52:08.232Z</time></trkpt><trkpt lat="43.5650746" lon="12.0519409"><ele>332.40000000000003</ele><time>2026-04-19T09:52:09.234Z</time></trkpt><trkpt lat="43.5651888" lon="12.0519722"><ele>332.0</ele><time>2026-04-19T09:52:10.233Z</time></trkpt><trkpt lat="43.5653125" lon="12.0519819"><ele>331.75</ele><time>2026-04-19T09:52:11.234Z</time></trkpt><trkpt lat="43.5654392" lon="12.0520063"><ele>331.5</ele><time>2026-04-19T09:52:12.234Z</time></trkpt><trkpt lat="43.5655693" lon="12.0520465"><ele>331.25</ele><time>2026-04-19T09:52:13.234Z</time></trkpt><trkpt lat="43.5657044" lon="12.0520984"><ele>331.0</ele><time>2026-04-19T09:52:14.235Z</time></trkpt><trkpt lat="43.5658432" lon="12.0521568"><ele>331.0</ele><time>2026-04-19T09:52:15.233Z</time></trkpt><trkpt lat="43.5659776" lon="12.0522226"><ele>331.0</ele><time>2026-04-19T09:52:16.232Z</time></trkpt><trkpt lat="43.566114" lon="12.0522944"><ele>331.0</ele><time>2026-04-19T09:52:17.232Z</time></trkpt><trkpt lat="43.5662519" lon="12.0523682"><ele>331.0</ele><time>2026-04-19T09:52:18.233Z</time></trkpt><trkpt lat="43.5663915" lon="12.0524499"><ele>331.0</ele><time>2026-04-19T09:52:19.235Z</time></trkpt><trkpt lat="43.5665297" lon="12.0525324"><ele>331.0</ele><time>2026-04-19T09:52:20.234Z</time></trkpt><trkpt lat="43.5666653" lon="12.0526233"><ele>331.0</ele><time>2026-04-19T09:52:21.235Z</time></trkpt><trkpt lat="43.5667952" lon="12.0527179"><ele>331.0</ele><time>2026-04-19T09:52:22.234Z</time></trkpt><trkpt lat="43.5669261" lon="12.0528137"><ele>331.25</ele><time>2026-04-19T09:52:23.236Z</time></trkpt><trkpt lat="43.5670565" lon="12.0529059"><ele>331.5</ele><time>2026-04-19T09:52:24.235Z</time></trkpt><trkpt lat="43.5671871" lon="12.0529969"><ele>331.75</ele><time>2026-04-19T09:52:25.235Z</time></trkpt><trkpt lat="43.5673181" lon="12.0530849"><ele>332.0</ele><time>2026-04-19T09:52:26.234Z</time></trkpt><trkpt lat="43.5674483" lon="12.0531726"><ele>332.0</ele><time>2026-04-19T09:52:27.235Z</time></trkpt><trkpt lat="43.5675792" lon="12.0532629"><ele>332.0</ele><time>2026-04-19T09:52:28.234Z</time></trkpt><trkpt lat="43.5677108" lon="12.0533588"><ele>332.0</ele><time>2026-04-19T09:52:29.24Z</time></trkpt><trkpt lat="43.5678426" lon="12.0534591"><ele>332.0</ele><time>2026-04-19T09:52:30.235Z</time></trkpt><trkpt lat="43.5679678" lon="12.0535659"><ele>332.25</ele><time>2026-04-19T09:52:31.234Z</time></trkpt><trkpt lat="43.5680839" lon="12.0536779"><ele>332.5</ele><time>2026-04-19T09:52:32.235Z</time></trkpt><trkpt lat="43.5682006" lon="12.0537848"><ele>332.75</ele><time>2026-04-19T09:52:33.233Z</time></trkpt><trkpt lat="43.5683234" lon="12.05388"><ele>333.0</ele><time>2026-04-19T09:52:34.234Z</time></trkpt><trkpt lat="43.5684517" lon="12.0539761"><ele>333.0</ele><time>2026-04-19T09:52:35.236Z</time></trkpt><trkpt lat="43.5685748" lon="12.0540709"><ele>333.0</ele><time>2026-04-19T09:52:36.235Z</time></trkpt><trkpt lat="43.5686894" lon="12.054152"><ele>333.0</ele><time>2026-04-19T09:52:37.234Z</time></trkpt><trkpt lat="43.5687957" lon="12.0542159"><ele>333.0</ele><time>2026-04-19T09:52:38.236Z</time></trkpt><trkpt lat="43.5688745" lon="12.0542646"><ele>332.8333333333333</ele><time>2026-04-19T09:52:39.235Z</time></trkpt><trkpt lat="43.5689353" lon="12.0543"><ele>332.6666666666667</ele><time>2026-04-19T09:52:40.233Z</time></trkpt><trkpt lat="43.5690257" lon="12.0543386"><ele>332.5</ele><time>2026-04-19T09:52:42.234Z</time></trkpt><trkpt lat="43.5690978" lon="12.0542776"><ele>332.33333333333337</ele><time>2026-04-19T09:52:44.234Z</time></trkpt><trkpt lat="43.5691371" lon="12.0542027"><ele>332.1666666666667</ele><time>2026-04-19T09:52:45.232Z</time></trkpt><trkpt lat="43.5691829" lon="12.0540827"><ele>332.0</ele><time>2026-04-19T09:52:46.233Z</time></trkpt><trkpt lat="43.5692236" lon="12.0539589"><ele>332.1666666666667</ele><time>2026-04-19T09:52:47.233Z</time></trkpt><trkpt lat="43.5692637" lon="12.053848"><ele>332.33333333333337</ele><time>2026-04-19T09:52:48.233Z</time></trkpt><trkpt lat="43.5693015" lon="12.0537559"><ele>332.5</ele><time>2026-04-19T09:52:49.232Z</time></trkpt><trkpt lat="43.5693365" lon="12.053683"><ele>332.6666666666667</ele><time>2026-04-19T09:52:50.235Z</time></trkpt><trkpt lat="43.5694124" lon="12.0536104"><ele>332.8333333333333</ele><time>2026-04-19T09:52:52.233Z</time></trkpt><trkpt lat="43.5695012" lon="12.0536694"><ele>333.0</ele><time>2026-04-19T09:52:54.234Z</time></trkpt><trkpt lat="43.5695664" lon="12.0537312"><ele>333.0</ele><time>2026-04-19T09:52:55.233Z</time></trkpt><trkpt lat="43.5696446" lon="12.0538068"><ele>333.0</ele><time>2026-04-19T09:52:56.233Z</time></trkpt><trkpt lat="43.5697252" lon="12.0538898"><ele>333.0</ele><time>2026-04-19T09:52:57.233Z</time></trkpt><trkpt lat="43.5698038" lon="12.0539686"><ele>333.0</ele><time>2026-04-19T09:52:58.233Z</time></trkpt><trkpt lat="43.569879" lon="12.0540354"><ele>333.0</ele><time>2026-04-19T09:52:59.233Z</time></trkpt><trkpt lat="43.5699477" lon="12.0540902"><ele>333.0</ele><time>2026-04-19T09:53:00.234Z</time></trkpt><trkpt lat="43.5700098" lon="12.054134"><ele>333.0</ele><time>2026-04-19T09:53:01.235Z</time></trkpt><trkpt lat="43.5700686" lon="12.0541663"><ele>333.0</ele><time>2026-04-19T09:53:02.233Z</time></trkpt><trkpt lat="43.5701725" lon="12.054097"><ele>333.0</ele><time>2026-04-19T09:53:04.234Z</time></trkpt><trkpt lat="43.5702217" lon="12.054011"><ele>333.0</ele><time>2026-04-19T09:53:05.234Z</time></trkpt><trkpt lat="43.5702746" lon="12.0539174"><ele>333.0</ele><time>2026-04-19T09:53:06.234Z</time></trkpt><trkpt lat="43.5703364" lon="12.0538118"><ele>332.79999999999995</ele><time>2026-04-19T09:53:07.233Z</time></trkpt><trkpt lat="43.5704004" lon="12.0536909"><ele>332.6</ele><time>2026-04-19T09:53:08.234Z</time></trkpt><trkpt lat="43.5704603" lon="12.0535642"><ele>332.4</ele><time>2026-04-19T09:53:09.232Z</time></trkpt><trkpt lat="43.5705119" lon="12.0534536"><ele>332.20000000000005</ele><time>2026-04-19T09:53:10.234Z</time></trkpt><trkpt lat="43.5705554" lon="12.0533611"><ele>332.0</ele><time>2026-04-19T09:53:11.233Z</time></trkpt><trkpt lat="43.5705922" lon="12.0532904"><ele>332.0</ele><time>2026-04-19T09:53:12.234Z</time></trkpt><trkpt lat="43.570668" lon="12.0532325"><ele>332.0</ele><time>2026-04-19T09:53:14.234Z</time></trkpt><trkpt lat="43.5707198" lon="12.0532863"><ele>332.0</ele><time>2026-04-19T09:53:15.232Z</time></trkpt><trkpt lat="43.5707883" lon="12.053364"><ele>332.0</ele><time>2026-04-19T09:53:16.232Z</time></trkpt><trkpt lat="43.5708744" lon="12.0534557"><ele>332.0</ele><time>2026-04-19T09:53:17.234Z</time></trkpt><trkpt lat="43.5709855" lon="12.0535628"><ele>332.0</ele><time>2026-04-19T09:53:18.235Z</time></trkpt><trkpt lat="43.5711076" lon="12.0536811"><ele>332.0</ele><time>2026-04-19T09:53:19.235Z</time></trkpt><trkpt lat="43.5712364" lon="12.053804"><ele>332.0</ele><time>2026-04-19T09:53:20.234Z</time></trkpt><trkpt lat="43.5713716" lon="12.05393"><ele>332.33333333333337</ele><time>2026-04-19T09:53:21.233Z</time></trkpt><trkpt lat="43.57151" lon="12.0540587"><ele>332.6666666666667</ele><time>2026-04-19T09:53:22.234Z</time></trkpt><trkpt lat="43.5716448" lon="12.054186"><ele>333.0</ele><time>2026-04-19T09:53:23.234Z</time></trkpt><trkpt lat="43.5717689" lon="12.054315"><ele>333.25</ele><time>2026-04-19T09:53:24.232Z</time></trkpt><trkpt lat="43.5718859" lon="12.0544422"><ele>333.5</ele><time>2026-04-19T09:53:25.232Z</time></trkpt><trkpt lat="43.5720026" lon="12.0545661"><ele>333.75</ele><time>2026-04-19T09:53:26.232Z</time></trkpt><trkpt lat="43.5721205" lon="12.0546889"><ele>334.0</ele><time>2026-04-19T09:53:27.233Z</time></trkpt><trkpt lat="43.5722332" lon="12.0548026"><ele>334.0</ele><time>2026-04-19T09:53:28.233Z</time></trkpt><trkpt lat="43.5723341" lon="12.0549015"><ele>334.0</ele><time>2026-04-19T09:53:29.233Z</time></trkpt><trkpt lat="43.5724185" lon="12.0549895"><ele>334.0</ele><time>2026-04-19T09:53:30.233Z</time></trkpt><trkpt lat="43.5724929" lon="12.055071"><ele>334.0</ele><time>2026-04-19T09:53:31.233Z</time></trkpt><trkpt lat="43.5725617" lon="12.0551466"><ele>334.0</ele><time>2026-04-19T09:53:32.233Z</time></trkpt><trkpt lat="43.5726248" lon="12.0552167"><ele>334.0</ele><time>2026-04-19T09:53:33.233Z</time></trkpt><trkpt lat="43.5726859" lon="12.0552826"><ele>334.0</ele><time>2026-04-19T09:53:34.233Z</time></trkpt><trkpt lat="43.5727456" lon="12.0553442"><ele>334.0</ele><time>2026-04-19T09:53:35.233Z</time></trkpt><trkpt lat="43.5728029" lon="12.0554025"><ele>334.0</ele><time>2026-04-19T09:53:36.233Z</time></trkpt><trkpt lat="43.5728588" lon="12.0554539"><ele>334.0</ele><time>2026-04-19T09:53:37.232Z</time></trkpt><trkpt lat="43.5729081" lon="12.0555092"><ele>334.0</ele><time>2026-04-19T09:53:38.233Z</time></trkpt><trkpt lat="43.5729727" lon="12.0555952"><ele>334.0</ele><time>2026-04-19T09:53:40.233Z</time></trkpt><trkpt lat="43.5730179" lon="12.0556769"><ele>334.16666666666663</ele><time>2026-04-19T09:53:43.232Z</time></trkpt><trkpt lat="43.5729873" lon="12.0558081"><ele>334.3333333333333</ele><time>2026-04-19T09:53:53.171Z</time></trkpt><trkpt lat="43.5729087" lon="12.0558803"><ele>334.5</ele><time>2026-04-19T09:53:54.232Z</time></trkpt><trkpt lat="43.5728452" lon="12.0559362"><ele>334.6666666666667</ele><time>2026-04-19T09:53:55.232Z</time></trkpt><trkpt lat="43.5727889" lon="12.0559835"><ele>334.83333333333337</ele><time>2026-04-19T09:53:56.233Z</time></trkpt><trkpt lat="43.572703" lon="12.0560739"><ele>335.0</ele><time>2026-04-19T09:53:58.232Z</time></trkpt><trkpt lat="43.5726253" lon="12.0561697"><ele>335.0</ele><time>2026-04-19T09:54:00.233Z</time></trkpt><trkpt lat="43.5725361" lon="12.0562723"><ele>335.0</ele><time>2026-04-19T09:54:02.233Z</time></trkpt><trkpt lat="43.572489" lon="12.0563333"><ele>335.0</ele><time>2026-04-19T09:54:03.232Z</time></trkpt><trkpt lat="43.5724087" lon="12.0564649"><ele>335.0</ele><time>2026-04-19T09:54:05.233Z</time></trkpt><trkpt lat="43.5723308" lon="12.0565934"><ele>335.0</ele><time>2026-04-19T09:54:07.233Z</time></trkpt><trkpt lat="43.57225" lon="12.0567194"><ele>334.6</ele><time>2026-04-19T09:54:09.234Z</time></trkpt><trkpt lat="43.5721752" lon="12.0568392"><ele>334.2</ele><time>2026-04-19T09:54:11.233Z</time></trkpt><trkpt lat="43.5721152" lon="12.0569562"><ele>333.79999999999995</ele><time>2026-04-19T09:54:13.234Z</time></trkpt><trkpt lat="43.5720557" lon="12.0570768"><ele>333.4</ele><time>2026-04-19T09:54:15.233Z</time></trkpt><trkpt lat="43.5720133" lon="12.0571761"><ele>333.0</ele><time>2026-04-19T09:54:17.233Z</time></trkpt><trkpt lat="43.5719852" lon="12.0572684"><ele>333.0</ele><time>2026-04-19T09:54:20.233Z</time></trkpt><trkpt lat="43.5719386" lon="12.0573523"><ele>333.0</ele><time>2026-04-19T09:54:23.234Z</time></trkpt><trkpt lat="43.5719085" lon="12.0574894"><ele>333.0</ele><time>2026-04-19T09:54:25.232Z</time></trkpt><trkpt lat="43.5718686" lon="12.057631"><ele>333.0</ele><time>2026-04-19T09:54:27.233Z</time></trkpt><trkpt lat="43.5718522" lon="12.0577172"><ele>333.0</ele><time>2026-04-19T09:54:28.232Z</time></trkpt><trkpt lat="43.5718149" lon="12.0578588"><ele>333.14285714285717</ele><time>2026-04-19T09:54:30.232Z</time></trkpt><trkpt lat="43.5717877" lon="12.0579493"><ele>333.2857142857143</ele><time>2026-04-19T09:54:32.233Z</time></trkpt><trkpt lat="43.5717742" lon="12.0580439"><ele>333.42857142857144</ele><time>2026-04-19T09:54:35.233Z</time></trkpt><trkpt lat="43.5717781" lon="12.0579377"><ele>333.57142857142856</ele><time>2026-04-19T09:54:41.233Z</time></trkpt><trkpt lat="43.5718115" lon="12.05784"><ele>333.7142857142857</ele><time>2026-04-19T09:54:42.233Z</time></trkpt><trkpt lat="43.5718411" lon="12.0577452"><ele>333.85714285714283</ele><time>2026-04-19T09:54:43.233Z</time></trkpt><trkpt lat="43.5718699" lon="12.0576459"><ele>334.0</ele><time>2026-04-19T09:54:44.233Z</time></trkpt><trkpt lat="43.5718983" lon="12.0575487"><ele>333.8333333333333</ele><time>2026-04-19T09:54:45.232Z</time></trkpt><trkpt lat="43.5719277" lon="12.0574472"><ele>333.66666666666663</ele><time>2026-04-19T09:54:46.233Z</time></trkpt><trkpt lat="43.5719604" lon="12.057339"><ele>333.5</ele><time>2026-04-19T09:54:47.232Z</time></trkpt><trkpt lat="43.5719999" lon="12.0572272"><ele>333.3333333333333</ele><time>2026-04-19T09:54:48.232Z</time></trkpt><trkpt lat="43.5720489" lon="12.0571154"><ele>333.1666666666667</ele><time>2026-04-19T09:54:49.232Z</time></trkpt><trkpt lat="43.5721052" lon="12.0570008"><ele>333.0</ele><time>2026-04-19T09:54:50.234Z</time></trkpt><trkpt lat="43.5721675" lon="12.0568846"><ele>333.0</ele><time>2026-04-19T09:54:51.232Z</time></trkpt><trkpt lat="43.5722359" lon="12.0567729"><ele>333.0</ele><time>2026-04-19T09:54:52.232Z</time></trkpt><trkpt lat="43.5723095" lon="12.0566593"><ele>333.0</ele><time>2026-04-19T09:54:53.233Z</time></trkpt><trkpt lat="43.5723816" lon="12.0565372"><ele>333.0</ele><time>2026-04-19T09:54:54.232Z</time></trkpt><trkpt lat="43.5724524" lon="12.0564195"><ele>333.0</ele><time>2026-04-19T09:54:55.232Z</time></trkpt><trkpt lat="43.5725296" lon="12.0563075"><ele>333.4</ele><time>2026-04-19T09:54:56.233Z</time></trkpt><trkpt lat="43.572615" lon="12.0562044"><ele>333.79999999999995</ele><time>2026-04-19T09:54:57.232Z</time></trkpt><trkpt lat="43.5727042" lon="12.0561087"><ele>334.2</ele><time>2026-04-19T09:54:58.234Z</time></trkpt><trkpt lat="43.5727923" lon="12.0560241"><ele>334.6</ele><time>2026-04-19T09:54:59.232Z</time></trkpt><trkpt lat="43.5728779" lon="12.055945"><ele>335.0</ele><time>2026-04-19T09:55:00.233Z</time></trkpt><trkpt lat="43.5729599" lon="12.0558652"><ele>335.0</ele><time>2026-04-19T09:55:01.233Z</time></trkpt><trkpt lat="43.573024" lon="12.0557902"><ele>335.0</ele><time>2026-04-19T09:55:02.233Z</time></trkpt><trkpt lat="43.5730712" lon="12.0557262"><ele>335.0</ele><time>2026-04-19T09:55:03.232Z</time></trkpt><trkpt lat="43.5731307" lon="12.0556334"><ele>335.0</ele><time>2026-04-19T09:55:05.232Z</time></trkpt><trkpt lat="43.5731701" lon="12.0555596"><ele>335.0</ele><time>2026-04-19T09:55:08.232Z</time></trkpt><trkpt lat="43.5732066" lon="12.0554611"><ele>335.0</ele><time>2026-04-19T09:55:12.232Z</time></trkpt><trkpt lat="43.573249" lon="12.0553788"><ele>335.1666666666667</ele><time>2026-04-19T09:55:14.234Z</time></trkpt><trkpt lat="43.5733322" lon="12.0552599"><ele>335.33333333333337</ele><time>2026-04-19T09:55:16.232Z</time></trkpt><trkpt lat="43.5733826" lon="12.055195"><ele>335.5</ele><time>2026-04-19T09:55:17.232Z</time></trkpt><trkpt lat="43.5734346" lon="12.055136"><ele>335.6666666666667</ele><time>2026-04-19T09:55:18.233Z</time></trkpt><trkpt lat="43.5734884" lon="12.0550812"><ele>335.8333333333333</ele><time>2026-04-19T09:55:19.232Z</time></trkpt><trkpt lat="43.5735446" lon="12.0550274"><ele>336.0</ele><time>2026-04-19T09:55:20.233Z</time></trkpt><trkpt lat="43.573603" lon="12.0549775"><ele>336.0</ele><time>2026-04-19T09:55:21.232Z</time></trkpt><trkpt lat="43.5736758" lon="12.0549115"><ele>336.0</ele><time>2026-04-19T09:55:23.233Z</time></trkpt><trkpt lat="43.5737328" lon="12.054856"><ele>336.0</ele><time>2026-04-19T09:55:25.233Z</time></trkpt><trkpt lat="43.5737862" lon="12.0547968"><ele>336.0</ele><time>2026-04-19T09:55:27.233Z</time></trkpt><trkpt lat="43.5737126" lon="12.0548871"><ele>336.0</ele><time>2026-04-19T09:55:34.232Z</time></trkpt><trkpt lat="43.5736378" lon="12.054948"><ele>336.0</ele><time>2026-04-19T09:55:35.232Z</time></trkpt><trkpt lat="43.573545" lon="12.0550203"><ele>336.0</ele><time>2026-04-19T09:55:36.232Z</time></trkpt><trkpt lat="43.5734544" lon="12.0551069"><ele>336.0</ele><time>2026-04-19T09:55:37.232Z</time></trkpt><trkpt lat="43.5733732" lon="12.0552074"><ele>336.0</ele><time>2026-04-19T09:55:38.232Z</time></trkpt><trkpt lat="43.5733036" lon="12.0553028"><ele>336.0</ele><time>2026-04-19T09:55:39.232Z</time></trkpt><trkpt lat="43.5732462" lon="12.0553932"><ele>336.0</ele><time>2026-04-19T09:55:40.233Z</time></trkpt><trkpt lat="43.5731993" lon="12.0554739"><ele>336.0</ele><time>2026-04-19T09:55:41.232Z</time></trkpt><trkpt lat="43.5731821" lon="12.0555905"><ele>336.0</ele><time>2026-04-19T09:55:43.232Z</time></trkpt><trkpt lat="43.5732488" lon="12.0556739"><ele>336.0</ele><time>2026-04-19T09:55:45.233Z</time></trkpt><trkpt lat="43.5733509" lon="12.0557732"><ele>336.0</ele><time>2026-04-19T09:55:47.232Z</time></trkpt><trkpt lat="43.5734207" lon="12.0558364"><ele>336.0</ele><time>2026-04-19T09:55:48.232Z</time></trkpt><trkpt lat="43.5734917" lon="12.055911"><ele>335.8</ele><time>2026-04-19T09:55:49.232Z</time></trkpt><trkpt lat="43.5735693" lon="12.0559916"><ele>335.6</ele><time>2026-04-19T09:55:50.235Z</time></trkpt><trkpt lat="43.5736533" lon="12.0560864"><ele>335.4</ele><time>2026-04-19T09:55:51.233Z</time></trkpt><trkpt lat="43.5737429" lon="12.0561886"><ele>335.2</ele><time>2026-04-19T09:55:52.232Z</time></trkpt><trkpt lat="43.57383" lon="12.0562961"><ele>335.0</ele><time>2026-04-19T09:55:53.232Z</time></trkpt><trkpt lat="43.5739061" lon="12.0563987"><ele>335.0</ele><time>2026-04-19T09:55:54.233Z</time></trkpt><trkpt lat="43.5739847" lon="12.0564983"><ele>335.0</ele><time>2026-04-19T09:55:55.232Z</time></trkpt><trkpt lat="43.5740675" lon="12.0565942"><ele>335.0</ele><time>2026-04-19T09:55:56.234Z</time></trkpt><trkpt lat="43.5741499" lon="12.0566867"><ele>335.0</ele><time>2026-04-19T09:55:57.232Z</time></trkpt><trkpt lat="43.5742382" lon="12.0567906"><ele>335.0</ele><time>2026-04-19T09:55:58.232Z</time></trkpt><trkpt lat="43.5743317" lon="12.0568985"><ele>334.5</ele><time>2026-04-19T09:55:59.234Z</time></trkpt><trkpt lat="43.5744298" lon="12.0570072"><ele>334.0</ele><time>2026-04-19T09:56:00.234Z</time></trkpt><trkpt lat="43.5745249" lon="12.0571183"><ele>333.5</ele><time>2026-04-19T09:56:01.232Z</time></trkpt><trkpt lat="43.5746221" lon="12.0572302"><ele>333.0</ele><time>2026-04-19T09:56:02.232Z</time></trkpt><trkpt lat="43.5747193" lon="12.0573395"><ele>333.0</ele><time>2026-04-19T09:56:03.233Z</time></trkpt><trkpt lat="43.5748108" lon="12.0574447"><ele>333.0</ele><time>2026-04-19T09:56:04.233Z</time></trkpt><trkpt lat="43.5748993" lon="12.0575453"><ele>333.0</ele><time>2026-04-19T09:56:05.232Z</time></trkpt><trkpt lat="43.5749864" lon="12.0576505"><ele>333.0</ele><time>2026-04-19T09:56:06.233Z</time></trkpt><trkpt lat="43.5750723" lon="12.0577573"><ele>333.25</ele><time>2026-04-19T09:56:07.232Z</time></trkpt><trkpt lat="43.5751587" lon="12.0578608"><ele>333.5</ele><time>2026-04-19T09:56:08.234Z</time></trkpt><trkpt lat="43.5752455" lon="12.0579621"><ele>333.75</ele><time>2026-04-19T09:56:09.233Z</time></trkpt><trkpt lat="43.5753318" lon="12.0580649"><ele>334.0</ele><time>2026-04-19T09:56:10.233Z</time></trkpt><trkpt lat="43.5754202" lon="12.0581672"><ele>334.0</ele><time>2026-04-19T09:56:11.234Z</time></trkpt><trkpt lat="43.5755113" lon="12.0582703"><ele>334.0</ele><time>2026-04-19T09:56:12.233Z</time></trkpt><trkpt lat="43.5756049" lon="12.0583719"><ele>334.0</ele><time>2026-04-19T09:56:13.237Z</time></trkpt><trkpt lat="43.5756953" lon="12.0584759"><ele>334.0</ele><time>2026-04-19T09:56:14.233Z</time></trkpt><trkpt lat="43.5757838" lon="12.0585854"><ele>334.0</ele><time>2026-04-19T09:56:15.233Z</time></trkpt><trkpt lat="43.5758722" lon="12.0586955"><ele>334.0</ele><time>2026-04-19T09:56:16.234Z</time></trkpt><trkpt lat="43.575959" lon="12.0588035"><ele>334.0</ele><time>2026-04-19T09:56:17.232Z</time></trkpt><trkpt lat="43.57604" lon="12.0589028"><ele>334.0</ele><time>2026-04-19T09:56:18.233Z</time></trkpt><trkpt lat="43.5761117" lon="12.0589895"><ele>334.0</ele><time>2026-04-19T09:56:19.233Z</time></trkpt><trkpt lat="43.5761733" lon="12.05906"><ele>334.0</ele><time>2026-04-19T09:56:20.233Z</time></trkpt><trkpt lat="43.576245" lon="12.0591333"><ele>334.0</ele><time>2026-04-19T09:56:21.232Z</time></trkpt><trkpt lat="43.5780817" lon="12.0561833"><ele>334.0</ele><time>2026-04-19T09:57:09.233Z</time></trkpt><trkpt lat="43.5781133" lon="12.056"><ele>334.0</ele><time>2026-04-19T09:57:11.232Z</time></trkpt><trkpt lat="43.57813" lon="12.0558983"><ele>334.0</ele><time>2026-04-19T09:57:13.232Z</time></trkpt><trkpt lat="43.5782017" lon="12.0559117"><ele>334.0</ele><time>2026-04-19T09:57:17.232Z</time></trkpt><trkpt lat="43.5782417" lon="12.05599"><ele>334.0</ele><time>2026-04-19T09:57:19.232Z</time></trkpt><trkpt lat="43.5782933" lon="12.05607"><ele>334.0</ele><time>2026-04-19T09:57:21.232Z</time></trkpt><trkpt lat="43.5783633" lon="12.0561467"><ele>334.0</ele><time>2026-04-19T09:57:23.233Z</time></trkpt><trkpt lat="43.578455" lon="12.0561867"><ele>334.0</ele><time>2026-04-19T09:57:25.233Z</time></trkpt><trkpt lat="43.57855" lon="12.056205"><ele>334.0</ele><time>2026-04-19T09:57:27.233Z</time></trkpt><trkpt lat="43.5786617" lon="12.0562017"><ele>334.0</ele><time>2026-04-19T09:57:29.233Z</time></trkpt><trkpt lat="43.5787783" lon="12.0561483"><ele>334.0</ele><time>2026-04-19T09:57:31.233Z</time></trkpt><trkpt lat="43.5788883" lon="12.0559467"><ele>334.1428571428571</ele><time>2026-04-19T09:57:34.234Z</time></trkpt><trkpt lat="43.5788933" lon="12.0558533"><ele>334.2857142857143</ele><time>2026-04-19T09:57:35.233Z</time></trkpt><trkpt lat="43.578915" lon="12.0557683"><ele>334.42857142857144</ele><time>2026-04-19T09:57:36.233Z</time></trkpt><trkpt lat="43.5789433" lon="12.0556367"><ele>334.57142857142856</ele><time>2026-04-19T09:57:38.233Z</time></trkpt><trkpt lat="43.57896" lon="12.05555"><ele>334.7142857142857</ele><time>2026-04-19T09:57:40.232Z</time></trkpt><trkpt lat="43.5789883" lon="12.055465"><ele>334.85714285714283</ele><time>2026-04-19T09:57:43.232Z</time></trkpt><trkpt lat="43.579025" lon="12.05537"><ele>335.0</ele><time>2026-04-19T09:57:48.233Z</time></trkpt><trkpt lat="43.5790833" lon="12.055325"><ele>335.0</ele><time>2026-04-19T09:57:51.233Z</time></trkpt><trkpt lat="43.5791367" lon="12.0552733"><ele>335.0</ele><time>2026-04-19T09:57:54.232Z</time></trkpt><trkpt lat="43.5792283" lon="12.05514"><ele>335.0</ele><time>2026-04-19T09:58:01.232Z</time></trkpt><trkpt lat="43.5792933" lon="12.0550783"><ele>335.0</ele><time>2026-04-19T09:58:05.234Z</time></trkpt><trkpt lat="43.5793481" lon="12.0550091"><ele>335.0</ele><time>2026-04-19T09:58:08.269Z</time></trkpt><trkpt lat="43.5794135" lon="12.0549528"><ele>335.0</ele><time>2026-04-19T09:58:10.293Z</time></trkpt><trkpt lat="43.5794696" lon="12.0548722"><ele>335.0</ele><time>2026-04-19T09:58:12.372Z</time></trkpt><trkpt lat="43.5795437" lon="12.0548147"><ele>335.0</ele><time>2026-04-19T09:58:15.276Z</time></trkpt><trkpt lat="43.5795782" lon="12.0549994"><ele>335.0</ele><time>2026-04-19T09:58:21.281Z</time></trkpt><trkpt lat="43.5795847" lon="12.0551325"><ele>335.0</ele><time>2026-04-19T09:58:23.346Z</time></trkpt><trkpt lat="43.5796343" lon="12.0552803"><ele>335.0</ele><time>2026-04-19T09:58:25.37Z</time></trkpt><trkpt lat="43.5796557" lon="12.0554498"><ele>335.1666666666667</ele><time>2026-04-19T09:58:27.232Z</time></trkpt><trkpt lat="43.5796614" lon="12.0555367"><ele>335.33333333333337</ele><time>2026-04-19T09:58:28.232Z</time></trkpt><trkpt lat="43.5796661" lon="12.0556823"><ele>335.5</ele><time>2026-04-19T09:58:30.233Z</time></trkpt><trkpt lat="43.5796995" lon="12.0558311"><ele>335.6666666666667</ele><time>2026-04-19T09:58:32.234Z</time></trkpt><trkpt lat="43.5797163" lon="12.0559245"><ele>335.8333333333333</ele><time>2026-04-19T09:58:33.232Z</time></trkpt><trkpt lat="43.5797301" lon="12.0560198"><ele>336.0</ele><time>2026-04-19T09:58:34.232Z</time></trkpt><trkpt lat="43.5797434" lon="12.0561195"><ele>336.6</ele><time>2026-04-19T09:58:35.234Z</time></trkpt><trkpt lat="43.5797511" lon="12.0562161"><ele>337.20000000000005</ele><time>2026-04-19T09:58:36.233Z</time></trkpt><trkpt lat="43.5797808" lon="12.0564724"><ele>337.79999999999995</ele><time>2026-04-19T09:58:40.232Z</time></trkpt><trkpt lat="43.5798412" lon="12.0565251"><ele>338.4</ele><time>2026-04-19T09:58:44.232Z</time></trkpt><trkpt lat="43.5798741" lon="12.0564293"><ele>339.0</ele><time>2026-04-19T10:00:00.345Z</time></trkpt><trkpt lat="43.5800506" lon="12.0563316"><ele>339.0</ele><time>2026-04-19T10:00:03.235Z</time></trkpt><trkpt lat="43.5801077" lon="12.0562938"><ele>339.0</ele><time>2026-04-19T10:00:04.234Z</time></trkpt><trkpt lat="43.5801776" lon="12.0562624"><ele>339.0</ele><time>2026-04-19T10:00:05.234Z</time></trkpt><trkpt lat="43.5802674" lon="12.0562429"><ele>339.0</ele><time>2026-04-19T10:00:06.235Z</time></trkpt><trkpt lat="43.5803619" lon="12.0562168"><ele>339.0</ele><time>2026-04-19T10:00:07.234Z</time></trkpt><trkpt lat="43.5804539" lon="12.0561834"><ele>339.0</ele><time>2026-04-19T10:00:08.236Z</time></trkpt><trkpt lat="43.5805502" lon="12.0561475"><ele>340.2</ele><time>2026-04-19T10:00:09.235Z</time></trkpt><trkpt lat="43.5806456" lon="12.0561048"><ele>341.4</ele><time>2026-04-19T10:00:10.234Z</time></trkpt><trkpt lat="43.5807334" lon="12.0560542"><ele>342.6</ele><time>2026-04-19T10:00:11.234Z</time></trkpt><trkpt lat="43.5808229" lon="12.0560043"><ele>343.8</ele><time>2026-04-19T10:00:12.234Z</time></trkpt><trkpt lat="43.5809142" lon="12.0559535"><ele>345.0</ele><time>2026-04-19T10:00:13.234Z</time></trkpt><trkpt lat="43.5810107" lon="12.0559084"><ele>345.0</ele><time>2026-04-19T10:00:14.236Z</time></trkpt><trkpt lat="43.5811012" lon="12.0558699"><ele>345.0</ele><time>2026-04-19T10:00:15.234Z</time></trkpt><trkpt lat="43.5811861" lon="12.055843"><ele>345.0</ele><time>2026-04-19T10:00:16.233Z</time></trkpt><trkpt lat="43.5812666" lon="12.0558217"><ele>345.0</ele><time>2026-04-19T10:00:17.233Z</time></trkpt><trkpt lat="43.5813413" lon="12.055795"><ele>345.0</ele><time>2026-04-19T10:00:18.234Z</time></trkpt><trkpt lat="43.5814141" lon="12.055758"><ele>345.0</ele><time>2026-04-19T10:00:19.234Z</time></trkpt><trkpt lat="43.581483" lon="12.0557113"><ele>345.75</ele><time>2026-04-19T10:00:20.233Z</time></trkpt><trkpt lat="43.5815385" lon="12.0556508"><ele>346.5</ele><time>2026-04-19T10:00:21.234Z</time></trkpt><trkpt lat="43.5817034" lon="12.0554657"><ele>347.25</ele><time>2026-04-19T10:00:25.233Z</time></trkpt><trkpt lat="43.5818137" lon="12.0554697"><ele>348.0</ele><time>2026-04-19T10:00:27.236Z</time></trkpt><trkpt lat="43.5819304" lon="12.0554816"><ele>349.6666666666667</ele><time>2026-04-19T10:00:29.234Z</time></trkpt><trkpt lat="43.5820427" lon="12.0555179"><ele>351.3333333333333</ele><time>2026-04-19T10:00:31.234Z</time></trkpt><trkpt lat="43.5821481" lon="12.0555667"><ele>353.0</ele><time>2026-04-19T10:00:33.235Z</time></trkpt><trkpt lat="43.582218" lon="12.0556244"><ele>354.66666666666663</ele><time>2026-04-19T10:00:35.235Z</time></trkpt><trkpt lat="43.5822598" lon="12.0557065"><ele>356.3333333333333</ele><time>2026-04-19T10:00:38.235Z</time></trkpt><trkpt lat="43.5822991" lon="12.0557769"><ele>358.0</ele><time>2026-04-19T10:00:43.235Z</time></trkpt><trkpt lat="43.5823893" lon="12.0560003"><ele>358.2</ele><time>2026-04-19T10:01:02.318Z</time></trkpt><trkpt lat="43.5823946" lon="12.0560965"><ele>358.4</ele><time>2026-04-19T10:01:06.29Z</time></trkpt><trkpt lat="43.5825217" lon="12.0562567"><ele>358.59999999999997</ele><time>2026-04-19T10:01:11.233Z</time></trkpt><trkpt lat="43.5825617" lon="12.0563617"><ele>358.79999999999995</ele><time>2026-04-19T10:01:13.234Z</time></trkpt><trkpt lat="43.5825883" lon="12.0564867"><ele>359.0</ele><time>2026-04-19T10:01:15.233Z</time></trkpt><trkpt lat="43.5826083" lon="12.05658"><ele>359.0</ele><time>2026-04-19T10:01:17.234Z</time></trkpt><trkpt lat="43.5826483" lon="12.05668"><ele>359.0</ele><time>2026-04-19T10:01:19.234Z</time></trkpt></trkseg><trkseg><trkpt lat="43.5822783" lon="12.0538667"><ele>352.0</ele><time>2026-04-19T10:50:30.235Z</time></trkpt><trkpt lat="43.582315" lon="12.0537317"><ele>352.0</ele><time>2026-04-19T10:50:32.236Z</time></trkpt><trkpt lat="43.582335" lon="12.053645"><ele>352.0</ele><time>2026-04-19T10:50:33.236Z</time></trkpt><trkpt lat="43.5823583" lon="12.0535517"><ele>352.0</ele><time>2026-04-19T10:50:34.235Z</time></trkpt><trkpt lat="43.5823983" lon="12.0534367"><ele>352.0</ele><time>2026-04-19T10:50:35.235Z</time></trkpt><trkpt lat="43.5824433" lon="12.0533183"><ele>352.0</ele><time>2026-04-19T10:50:36.235Z</time></trkpt><trkpt lat="43.5824933" lon="12.0531933"><ele>351.40000000000003</ele><time>2026-04-19T10:50:37.235Z</time></trkpt><trkpt lat="43.5825317" lon="12.0530633"><ele>350.8</ele><time>2026-04-19T10:50:38.236Z</time></trkpt><trkpt lat="43.582565" lon="12.0529333"><ele>350.2</ele><time>2026-04-19T10:50:39.235Z</time></trkpt><trkpt lat="43.58259" lon="12.0528117"><ele>349.6</ele><time>2026-04-19T10:50:40.234Z</time></trkpt><trkpt lat="43.5826133" lon="12.0526917"><ele>349.0</ele><time>2026-04-19T10:50:41.234Z</time></trkpt><trkpt lat="43.582635" lon="12.0525783"><ele>349.0</ele><time>2026-04-19T10:50:42.235Z</time></trkpt><trkpt lat="43.5826533" lon="12.052465"><ele>349.0</ele><time>2026-04-19T10:50:43.234Z</time></trkpt><trkpt lat="43.5826717" lon="12.0523483"><ele>349.0</ele><time>2026-04-19T10:50:44.235Z</time></trkpt><trkpt lat="43.582685" lon="12.0522317"><ele>349.0</ele><time>2026-04-19T10:50:45.235Z</time></trkpt><trkpt lat="43.582695" lon="12.0521083"><ele>349.0</ele><time>2026-04-19T10:50:46.241Z</time></trkpt><trkpt lat="43.582705" lon="12.0519733"><ele>349.0</ele><time>2026-04-19T10:50:47.233Z</time></trkpt><trkpt lat="43.5827333" lon="12.051845"><ele>349.4</ele><time>2026-04-19T10:50:48.234Z</time></trkpt><trkpt lat="43.582765" lon="12.0517117"><ele>349.79999999999995</ele><time>2026-04-19T10:50:49.235Z</time></trkpt><trkpt lat="43.5827983" lon="12.0515767"><ele>350.20000000000005</ele><time>2026-04-19T10:50:50.233Z</time></trkpt><trkpt lat="43.582835" lon="12.051445"><ele>350.6</ele><time>2026-04-19T10:50:51.233Z</time></trkpt><trkpt lat="43.5828683" lon="12.0513183"><ele>351.0</ele><time>2026-04-19T10:50:52.234Z</time></trkpt><trkpt lat="43.5829017" lon="12.0512"><ele>351.0</ele><time>2026-04-19T10:50:53.233Z</time></trkpt><trkpt lat="43.5829383" lon="12.0511"><ele>351.0</ele><time>2026-04-19T10:50:54.235Z</time></trkpt><trkpt lat="43.5829767" lon="12.0510133"><ele>351.0</ele><time>2026-04-19T10:50:55.233Z</time></trkpt><trkpt lat="43.5830217" lon="12.050935"><ele>351.0</ele><time>2026-04-19T10:50:56.234Z</time></trkpt><trkpt lat="43.5830833" lon="12.050865"><ele>351.0</ele><time>2026-04-19T10:50:57.235Z</time></trkpt><trkpt lat="43.583155" lon="12.050795"><ele>351.0</ele><time>2026-04-19T10:50:58.234Z</time></trkpt><trkpt lat="43.5832283" lon="12.0507117"><ele>351.0</ele><time>2026-04-19T10:50:59.234Z</time></trkpt><trkpt lat="43.5832967" lon="12.0506233"><ele>351.0</ele><time>2026-04-19T10:51:00.233Z</time></trkpt><trkpt lat="43.5833533" lon="12.050525"><ele>351.0</ele><time>2026-04-19T10:51:01.234Z</time></trkpt><trkpt lat="43.5833883" lon="12.0504133"><ele>351.0</ele><time>2026-04-19T10:51:02.235Z</time></trkpt><trkpt lat="43.5834033" lon="12.05029"><ele>351.0</ele><time>2026-04-19T10:51:03.235Z</time></trkpt><trkpt lat="43.58341" lon="12.050165"><ele>351.0</ele><time>2026-04-19T10:51:04.233Z</time></trkpt><trkpt lat="43.5834033" lon="12.0500367"><ele>351.0</ele><time>2026-04-19T10:51:05.234Z</time></trkpt><trkpt lat="43.5833933" lon="12.049915"><ele>351.0</ele><time>2026-04-19T10:51:06.234Z</time></trkpt><trkpt lat="43.5833833" lon="12.0498083"><ele>351.0</ele><time>2026-04-19T10:51:07.234Z</time></trkpt><trkpt lat="43.5833767" lon="12.0497017"><ele>351.0</ele><time>2026-04-19T10:51:08.235Z</time></trkpt><trkpt lat="43.58338" lon="12.0495883"><ele>351.0</ele><time>2026-04-19T10:51:09.233Z</time></trkpt><trkpt lat="43.5833917" lon="12.0494717"><ele>350.1666666666667</ele><time>2026-04-19T10:51:10.233Z</time></trkpt><trkpt lat="43.5834167" lon="12.0493583"><ele>349.3333333333333</ele><time>2026-04-19T10:51:11.235Z</time></trkpt><trkpt lat="43.5834483" lon="12.0492467"><ele>348.5</ele><time>2026-04-19T10:51:12.235Z</time></trkpt><trkpt lat="43.5834883" lon="12.04914"><ele>347.66666666666663</ele><time>2026-04-19T10:51:13.235Z</time></trkpt><trkpt lat="43.5835367" lon="12.0490433"><ele>346.8333333333333</ele><time>2026-04-19T10:51:14.234Z</time></trkpt><trkpt lat="43.5836017" lon="12.0489567"><ele>346.0</ele><time>2026-04-19T10:51:15.234Z</time></trkpt><trkpt lat="43.5836767" lon="12.0488733"><ele>346.20000000000005</ele><time>2026-04-19T10:51:16.234Z</time></trkpt><trkpt lat="43.5837567" lon="12.04882"><ele>346.40000000000003</ele><time>2026-04-19T10:51:17.234Z</time></trkpt><trkpt lat="43.58384" lon="12.0487767"><ele>346.6</ele><time>2026-04-19T10:51:18.234Z</time></trkpt><trkpt lat="43.5839317" lon="12.0487417"><ele>346.8</ele><time>2026-04-19T10:51:19.233Z</time></trkpt><trkpt lat="43.58403" lon="12.0487167"><ele>347.0</ele><time>2026-04-19T10:51:20.235Z</time></trkpt><trkpt lat="43.5841283" lon="12.048685"><ele>347.0</ele><time>2026-04-19T10:51:21.234Z</time></trkpt><trkpt lat="43.5842267" lon="12.048655"><ele>347.0</ele><time>2026-04-19T10:51:22.233Z</time></trkpt><trkpt lat="43.5843133" lon="12.04863"><ele>347.0</ele><time>2026-04-19T10:51:23.233Z</time></trkpt><trkpt lat="43.5843933" lon="12.0486117"><ele>347.0</ele><time>2026-04-19T10:51:24.234Z</time></trkpt><trkpt lat="43.5844633" lon="12.0485967"><ele>347.0</ele><time>2026-04-19T10:51:25.233Z</time></trkpt><trkpt lat="43.5845367" lon="12.0485917"><ele>347.0</ele><time>2026-04-19T10:51:26.234Z</time></trkpt><trkpt lat="43.58461" lon="12.04859"><ele>347.1666666666667</ele><time>2026-04-19T10:51:27.234Z</time></trkpt><trkpt lat="43.5846867" lon="12.0485967"><ele>347.33333333333337</ele><time>2026-04-19T10:51:28.235Z</time></trkpt><trkpt lat="43.5847683" lon="12.0486"><ele>347.5</ele><time>2026-04-19T10:51:29.234Z</time></trkpt><trkpt lat="43.5848483" lon="12.048605"><ele>347.6666666666667</ele><time>2026-04-19T10:51:30.234Z</time></trkpt><trkpt lat="43.58493" lon="12.04861"><ele>347.8333333333333</ele><time>2026-04-19T10:51:31.234Z</time></trkpt><trkpt lat="43.58502" lon="12.0486167"><ele>348.0</ele><time>2026-04-19T10:51:32.235Z</time></trkpt><trkpt lat="43.5850967" lon="12.0486167"><ele>348.0</ele><time>2026-04-19T10:51:33.233Z</time></trkpt><trkpt lat="43.585205" lon="12.0486183"><ele>348.0</ele><time>2026-04-19T10:51:35.233Z</time></trkpt><trkpt lat="43.5852817" lon="12.0486233"><ele>348.0</ele><time>2026-04-19T10:51:53.234Z</time></trkpt><trkpt lat="43.5853767" lon="12.048625"><ele>348.0</ele><time>2026-04-19T10:51:56.235Z</time></trkpt><trkpt lat="43.5854733" lon="12.0486417"><ele>348.0</ele><time>2026-04-19T10:51:58.234Z</time></trkpt><trkpt lat="43.5855367" lon="12.0486933"><ele>348.59999999999997</ele><time>2026-04-19T10:51:59.234Z</time></trkpt><trkpt lat="43.58562" lon="12.0487917"><ele>349.2</ele><time>2026-04-19T10:52:01.233Z</time></trkpt><trkpt lat="43.585695" lon="12.048865"><ele>349.8</ele><time>2026-04-19T10:52:03.235Z</time></trkpt><trkpt lat="43.5857317" lon="12.048975"><ele>350.4</ele><time>2026-04-19T10:52:06.235Z</time></trkpt><trkpt lat="43.5858083" lon="12.0489983"><ele>351.0</ele><time>2026-04-19T10:52:10.233Z</time></trkpt><trkpt lat="43.58588" lon="12.0488783"><ele>351.0</ele><time>2026-04-19T10:52:12.234Z</time></trkpt><trkpt lat="43.5859483" lon="12.04874"><ele>351.0</ele><time>2026-04-19T10:52:14.234Z</time></trkpt><trkpt lat="43.5859833" lon="12.0486633"><ele>351.0</ele><time>2026-04-19T10:52:15.233Z</time></trkpt><trkpt lat="43.5860183" lon="12.0485883"><ele>351.0</ele><time>2026-04-19T10:52:16.234Z</time></trkpt><trkpt lat="43.5860667" lon="12.0484667"><ele>351.0</ele><time>2026-04-19T10:52:18.233Z</time></trkpt><trkpt lat="43.5860983" lon="12.0483867"><ele>351.0</ele><time>2026-04-19T10:52:20.234Z</time></trkpt><trkpt lat="43.58608" lon="12.0485117"><ele>351.0</ele><time>2026-04-19T10:52:40.234Z</time></trkpt><trkpt lat="43.58604" lon="12.04859"><ele>351.0</ele><time>2026-04-19T10:52:41.233Z</time></trkpt><trkpt lat="43.5859883" lon="12.0486867"><ele>351.0</ele><time>2026-04-19T10:52:42.233Z</time></trkpt><trkpt lat="43.5859417" lon="12.048785"><ele>351.0</ele><time>2026-04-19T10:52:43.234Z</time></trkpt><trkpt lat="43.5858983" lon="12.0488617"><ele>351.0</ele><time>2026-04-19T10:52:44.234Z</time></trkpt><trkpt lat="43.5858183" lon="12.04895"><ele>351.0</ele><time>2026-04-19T10:52:46.234Z</time></trkpt><trkpt lat="43.585745" lon="12.0489283"><ele>351.0</ele><time>2026-04-19T10:52:48.235Z</time></trkpt><trkpt lat="43.5856867" lon="12.0488333"><ele>351.0</ele><time>2026-04-19T10:52:50.236Z</time></trkpt><trkpt lat="43.5856117" lon="12.0487517"><ele>351.0</ele><time>2026-04-19T10:52:52.234Z</time></trkpt><trkpt lat="43.585555" lon="12.0486717"><ele>351.0</ele><time>2026-04-19T10:52:54.235Z</time></trkpt><trkpt lat="43.58546" lon="12.0486367"><ele>351.0</ele><time>2026-04-19T10:52:56.235Z</time></trkpt><trkpt lat="43.5853533" lon="12.0486383"><ele>350.5714285714286</ele><time>2026-04-19T10:52:58.234Z</time></trkpt><trkpt lat="43.5852883" lon="12.0486383"><ele>350.14285714285717</ele><time>2026-04-19T10:53:00.236Z</time></trkpt><trkpt lat="43.5852633" lon="12.0485383"><ele>349.7142857142857</ele><time>2026-04-19T10:53:03.235Z</time></trkpt><trkpt lat="43.5852383" lon="12.0484333"><ele>349.28571428571433</ele><time>2026-04-19T10:53:05.234Z</time></trkpt><trkpt lat="43.5852033" lon="12.0483383"><ele>348.8571428571429</ele><time>2026-04-19T10:53:07.234Z</time></trkpt><trkpt lat="43.5851517" lon="12.04827"><ele>348.42857142857144</ele><time>2026-04-19T10:53:09.234Z</time></trkpt><trkpt lat="43.5851017" lon="12.04819"><ele>348.0</ele><time>2026-04-19T10:53:12.233Z</time></trkpt><trkpt lat="43.5850517" lon="12.0481167"><ele>347.6666666666667</ele><time>2026-04-19T10:53:15.235Z</time></trkpt><trkpt lat="43.5850017" lon="12.0480283"><ele>347.3333333333333</ele><time>2026-04-19T10:53:19.234Z</time></trkpt><trkpt lat="43.58494" lon="12.0479317"><ele>347.0</ele><time>2026-04-19T10:53:22.234Z</time></trkpt><trkpt lat="43.58499" lon="12.047995"><ele>346.66666666666663</ele><time>2026-04-19T10:53:36.234Z</time></trkpt><trkpt lat="43.5850517" lon="12.0480533"><ele>346.3333333333333</ele><time>2026-04-19T10:53:38.236Z</time></trkpt><trkpt lat="43.5850062" lon="12.048165"><ele>346.0</ele><time>2026-04-19T10:53:40.297Z</time></trkpt><trkpt lat="43.5851027" lon="12.0481621"><ele>346.0</ele><time>2026-04-19T10:53:41.299Z</time></trkpt><trkpt lat="43.5851582" lon="12.0482142"><ele>346.0</ele><time>2026-04-19T10:53:42.3Z</time></trkpt><trkpt lat="43.5852156" lon="12.0483361"><ele>346.0</ele><time>2026-04-19T10:53:44.235Z</time></trkpt><trkpt lat="43.5852443" lon="12.0484967"><ele>346.0</ele><time>2026-04-19T10:53:46.233Z</time></trkpt><trkpt lat="43.5852583" lon="12.0485975"><ele>346.0</ele><time>2026-04-19T10:53:48.235Z</time></trkpt><trkpt lat="43.5851957" lon="12.0486187"><ele>346.0</ele><time>2026-04-19T10:53:50.234Z</time></trkpt><trkpt lat="43.5851" lon="12.0486283"><ele>346.4</ele><time>2026-04-19T10:53:52.235Z</time></trkpt><trkpt lat="43.5849883" lon="12.0486483"><ele>346.8</ele><time>2026-04-19T10:53:54.233Z</time></trkpt><trkpt lat="43.5848783" lon="12.048655"><ele>347.2</ele><time>2026-04-19T10:53:56.233Z</time></trkpt><trkpt lat="43.5847367" lon="12.0486417"><ele>347.59999999999997</ele><time>2026-04-19T10:53:58.234Z</time></trkpt><trkpt lat="43.5846583" lon="12.0486433"><ele>348.0</ele><time>2026-04-19T10:53:59.235Z</time></trkpt><trkpt lat="43.584575" lon="12.048645"><ele>347.8333333333333</ele><time>2026-04-19T10:54:00.234Z</time></trkpt><trkpt lat="43.5845017" lon="12.0486467"><ele>347.6666666666667</ele><time>2026-04-19T10:54:01.234Z</time></trkpt><trkpt lat="43.5844283" lon="12.0486483"><ele>347.5</ele><time>2026-04-19T10:54:02.234Z</time></trkpt><trkpt lat="43.5843467" lon="12.0486733"><ele>347.33333333333337</ele><time>2026-04-19T10:54:03.234Z</time></trkpt><trkpt lat="43.584265" lon="12.0487"><ele>347.1666666666667</ele><time>2026-04-19T10:54:04.233Z</time></trkpt><trkpt lat="43.5841783" lon="12.0487217"><ele>347.0</ele><time>2026-04-19T10:54:05.232Z</time></trkpt><trkpt lat="43.5840817" lon="12.04875"><ele>347.0</ele><time>2026-04-19T10:54:06.234Z</time></trkpt><trkpt lat="43.5839833" lon="12.0487817"><ele>347.0</ele><time>2026-04-19T10:54:07.234Z</time></trkpt><trkpt lat="43.58388" lon="12.0488067"><ele>347.0</ele><time>2026-04-19T10:54:08.233Z</time></trkpt><trkpt lat="43.5837817" lon="12.0488433"><ele>347.0</ele><time>2026-04-19T10:54:09.233Z</time></trkpt><trkpt lat="43.5837083" lon="12.0489133"><ele>347.0</ele><time>2026-04-19T10:54:10.233Z</time></trkpt><trkpt lat="43.583625" lon="12.0489817"><ele>346.83333333333337</ele><time>2026-04-19T10:54:11.233Z</time></trkpt><trkpt lat="43.5835617" lon="12.0490633"><ele>346.6666666666667</ele><time>2026-04-19T10:54:12.233Z</time></trkpt><trkpt lat="43.583505" lon="12.0491483"><ele>346.5</ele><time>2026-04-19T10:54:13.233Z</time></trkpt><trkpt lat="43.5834583" lon="12.04924"><ele>346.3333333333333</ele><time>2026-04-19T10:54:14.233Z</time></trkpt><trkpt lat="43.583425" lon="12.0493483"><ele>346.16666666666663</ele><time>2026-04-19T10:54:15.234Z</time></trkpt><trkpt lat="43.5833983" lon="12.0494633"><ele>346.0</ele><time>2026-04-19T10:54:16.234Z</time></trkpt><trkpt lat="43.58338" lon="12.0495833"><ele>346.0</ele><time>2026-04-19T10:54:17.233Z</time></trkpt><trkpt lat="43.5833783" lon="12.0497017"><ele>346.0</ele><time>2026-04-19T10:54:18.233Z</time></trkpt><trkpt lat="43.5833833" lon="12.0498167"><ele>346.0</ele><time>2026-04-19T10:54:19.233Z</time></trkpt><trkpt lat="43.5833917" lon="12.0499417"><ele>346.0</ele><time>2026-04-19T10:54:20.233Z</time></trkpt><trkpt lat="43.583395" lon="12.050075"><ele>346.0</ele><time>2026-04-19T10:54:21.234Z</time></trkpt><trkpt lat="43.5833917" lon="12.0502033"><ele>346.8333333333333</ele><time>2026-04-19T10:54:22.233Z</time></trkpt><trkpt lat="43.5833833" lon="12.0503317"><ele>347.66666666666663</ele><time>2026-04-19T10:54:23.234Z</time></trkpt><trkpt lat="43.5833633" lon="12.0504583"><ele>348.5</ele><time>2026-04-19T10:54:24.233Z</time></trkpt><trkpt lat="43.58333" lon="12.050565"><ele>349.3333333333333</ele><time>2026-04-19T10:54:25.233Z</time></trkpt><trkpt lat="43.5832833" lon="12.05067"><ele>350.1666666666667</ele><time>2026-04-19T10:54:26.233Z</time></trkpt><trkpt lat="43.5832467" lon="12.0507483"><ele>351.0</ele><time>2026-04-19T10:54:27.234Z</time></trkpt><trkpt lat="43.5831683" lon="12.05083"><ele>351.0</ele><time>2026-04-19T10:54:28.234Z</time></trkpt><trkpt lat="43.5831117" lon="12.0508867"><ele>351.0</ele><time>2026-04-19T10:54:29.233Z</time></trkpt><trkpt lat="43.5830267" lon="12.05097"><ele>351.0</ele><time>2026-04-19T10:54:31.233Z</time></trkpt><trkpt lat="43.58297" lon="12.0510517"><ele>351.0</ele><time>2026-04-19T10:54:33.233Z</time></trkpt><trkpt lat="43.5829183" lon="12.05118"><ele>351.0</ele><time>2026-04-19T10:54:35.233Z</time></trkpt><trkpt lat="43.5828867" lon="12.05126"><ele>351.0</ele><time>2026-04-19T10:54:36.233Z</time></trkpt><trkpt lat="43.5828483" lon="12.0513683"><ele>349.20000000000005</ele><time>2026-04-19T10:54:37.233Z</time></trkpt><trkpt lat="43.5828133" lon="12.0514817"><ele>347.40000000000003</ele><time>2026-04-19T10:54:38.233Z</time></trkpt><trkpt lat="43.5827783" lon="12.0516067"><ele>345.6</ele><time>2026-04-19T10:54:39.233Z</time></trkpt><trkpt lat="43.58275" lon="12.0517433"><ele>343.8</ele><time>2026-04-19T10:54:40.234Z</time></trkpt><trkpt lat="43.582725" lon="12.0518867"><ele>342.0</ele><time>2026-04-19T10:54:41.233Z</time></trkpt><trkpt lat="43.5827067" lon="12.0520283"><ele>342.0</ele><time>2026-04-19T10:54:42.233Z</time></trkpt><trkpt lat="43.5826917" lon="12.05217"><ele>342.0</ele><time>2026-04-19T10:54:43.234Z</time></trkpt><trkpt lat="43.582675" lon="12.05231"><ele>342.0</ele><time>2026-04-19T10:54:44.234Z</time></trkpt><trkpt lat="43.5826583" lon="12.0524467"><ele>342.0</ele><time>2026-04-19T10:54:45.233Z</time></trkpt><trkpt lat="43.58264" lon="12.052585"><ele>342.0</ele><time>2026-04-19T10:54:46.234Z</time></trkpt><trkpt lat="43.5826167" lon="12.052725"><ele>343.40000000000003</ele><time>2026-04-19T10:54:47.234Z</time></trkpt><trkpt lat="43.582585" lon="12.052855"><ele>344.8</ele><time>2026-04-19T10:54:48.234Z</time></trkpt><trkpt lat="43.5825517" lon="12.05298"><ele>346.2</ele><time>2026-04-19T10:54:49.233Z</time></trkpt><trkpt lat="43.5825167" lon="12.0531083"><ele>347.6</ele><time>2026-04-19T10:54:50.233Z</time></trkpt><trkpt lat="43.5824733" lon="12.0532433"><ele>349.0</ele><time>2026-04-19T10:54:51.233Z</time></trkpt><trkpt lat="43.5824217" lon="12.0533733"><ele>349.75</ele><time>2026-04-19T10:54:52.234Z</time></trkpt><trkpt lat="43.582375" lon="12.0535133"><ele>350.5</ele><time>2026-04-19T10:54:53.234Z</time></trkpt><trkpt lat="43.58233" lon="12.0536583"><ele>351.25</ele><time>2026-04-19T10:54:54.234Z</time></trkpt><trkpt lat="43.5822867" lon="12.0538083"><ele>352.0</ele><time>2026-04-19T10:54:55.233Z</time></trkpt><trkpt lat="43.582245" lon="12.0539483"><ele>352.0</ele><time>2026-04-19T10:54:56.234Z</time></trkpt><trkpt lat="43.5822" lon="12.0540833"><ele>352.0</ele><time>2026-04-19T10:54:57.233Z</time></trkpt><trkpt lat="43.58215" lon="12.0542083"><ele>352.0</ele><time>2026-04-19T10:54:58.233Z</time></trkpt><trkpt lat="43.5820933" lon="12.05432"><ele>352.0</ele><time>2026-04-19T10:54:59.235Z</time></trkpt><trkpt lat="43.5820267" lon="12.0544183"><ele>352.0</ele><time>2026-04-19T10:55:00.234Z</time></trkpt><trkpt lat="43.5819533" lon="12.0545217"><ele>351.20000000000005</ele><time>2026-04-19T10:55:01.233Z</time></trkpt><trkpt lat="43.58189" lon="12.0546367"><ele>350.4</ele><time>2026-04-19T10:55:02.234Z</time></trkpt><trkpt lat="43.58183" lon="12.05475"><ele>349.6</ele><time>2026-04-19T10:55:03.234Z</time></trkpt><trkpt lat="43.5817767" lon="12.0548717"><ele>348.79999999999995</ele><time>2026-04-19T10:55:04.233Z</time></trkpt><trkpt lat="43.58174" lon="12.0549967"><ele>348.0</ele><time>2026-04-19T10:55:05.235Z</time></trkpt><trkpt lat="43.5817133" lon="12.05513"><ele>348.0</ele><time>2026-04-19T10:55:06.233Z</time></trkpt><trkpt lat="43.5816933" lon="12.0552533"><ele>348.0</ele><time>2026-04-19T10:55:07.234Z</time></trkpt><trkpt lat="43.581675" lon="12.055355"><ele>348.0</ele><time>2026-04-19T10:55:08.233Z</time></trkpt><trkpt lat="43.58162" lon="12.055505"><ele>348.0</ele><time>2026-04-19T10:55:10.234Z</time></trkpt><trkpt lat="43.5815833" lon="12.0555833"><ele>348.0</ele><time>2026-04-19T10:55:11.235Z</time></trkpt><trkpt lat="43.5815383" lon="12.0556583"><ele>348.0</ele><time>2026-04-19T10:55:12.234Z</time></trkpt><trkpt lat="43.581485" lon="12.0557267"><ele>348.0</ele><time>2026-04-19T10:55:13.233Z</time></trkpt><trkpt lat="43.5814267" lon="12.05578"><ele>348.0</ele><time>2026-04-19T10:55:14.235Z</time></trkpt><trkpt lat="43.5813683" lon="12.0558283"><ele>348.0</ele><time>2026-04-19T10:55:15.233Z</time></trkpt><trkpt lat="43.5813033" lon="12.055865"><ele>348.0</ele><time>2026-04-19T10:55:16.234Z</time></trkpt><trkpt lat="43.58123" lon="12.055895"><ele>348.0</ele><time>2026-04-19T10:55:17.234Z</time></trkpt><trkpt lat="43.5811483" lon="12.0559133"><ele>348.0</ele><time>2026-04-19T10:55:18.233Z</time></trkpt><trkpt lat="43.5810517" lon="12.0559267"><ele>347.4</ele><time>2026-04-19T10:55:19.233Z</time></trkpt><trkpt lat="43.580945" lon="12.0559583"><ele>346.79999999999995</ele><time>2026-04-19T10:55:20.233Z</time></trkpt><trkpt lat="43.580835" lon="12.055995"><ele>346.2</ele><time>2026-04-19T10:55:21.234Z</time></trkpt><trkpt lat="43.580735" lon="12.0560483"><ele>345.6</ele><time>2026-04-19T10:55:22.233Z</time></trkpt><trkpt lat="43.5806383" lon="12.0561017"><ele>345.0</ele><time>2026-04-19T10:55:23.233Z</time></trkpt><trkpt lat="43.580545" lon="12.0561533"><ele>345.0</ele><time>2026-04-19T10:55:24.234Z</time></trkpt><trkpt lat="43.5804483" lon="12.0562017"><ele>345.0</ele><time>2026-04-19T10:55:25.239Z</time></trkpt><trkpt lat="43.5803483" lon="12.0562333"><ele>345.0</ele><time>2026-04-19T10:55:26.234Z</time></trkpt><trkpt lat="43.5802467" lon="12.05626"><ele>345.0</ele><time>2026-04-19T10:55:27.233Z</time></trkpt><trkpt lat="43.5801483" lon="12.0562983"><ele>345.0</ele><time>2026-04-19T10:55:28.233Z</time></trkpt><trkpt lat="43.58006" lon="12.0563433"><ele>344.0</ele><time>2026-04-19T10:55:29.233Z</time></trkpt><trkpt lat="43.579985" lon="12.056395"><ele>343.0</ele><time>2026-04-19T10:55:30.233Z</time></trkpt><trkpt lat="43.579925" lon="12.0564433"><ele>342.0</ele><time>2026-04-19T10:55:31.233Z</time></trkpt><trkpt lat="43.5798533" lon="12.0565067"><ele>341.0</ele><time>2026-04-19T10:55:33.235Z</time></trkpt><trkpt lat="43.5797883" lon="12.056515"><ele>340.0</ele><time>2026-04-19T10:55:37.233Z</time></trkpt><trkpt lat="43.57974" lon="12.0563783"><ele>339.0</ele><time>2026-04-19T10:55:40.234Z</time></trkpt><trkpt lat="43.5797283" lon="12.0562883"><ele>339.0</ele><time>2026-04-19T10:55:41.233Z</time></trkpt><trkpt lat="43.5797183" lon="12.0561717"><ele>339.0</ele><time>2026-04-19T10:55:42.233Z</time></trkpt><trkpt lat="43.5797167" lon="12.056065"><ele>339.0</ele><time>2026-04-19T10:55:43.234Z</time></trkpt><trkpt lat="43.5797083" lon="12.055965"><ele>339.0</ele><time>2026-04-19T10:55:44.233Z</time></trkpt><trkpt lat="43.5797" lon="12.0558683"><ele>339.0</ele><time>2026-04-19T10:55:45.233Z</time></trkpt><trkpt lat="43.5796917" lon="12.0557783"><ele>339.0</ele><time>2026-04-19T10:55:46.234Z</time></trkpt><trkpt lat="43.5796917" lon="12.0556867"><ele>339.0</ele><time>2026-04-19T10:55:47.234Z</time></trkpt><trkpt lat="43.579685" lon="12.0555833"><ele>338.5</ele><time>2026-04-19T10:55:48.233Z</time></trkpt><trkpt lat="43.5796767" lon="12.05547"><ele>338.0</ele><time>2026-04-19T10:55:49.234Z</time></trkpt><trkpt lat="43.579665" lon="12.055365"><ele>337.5</ele><time>2026-04-19T10:55:50.234Z</time></trkpt><trkpt lat="43.5796433" lon="12.05527"><ele>337.0</ele><time>2026-04-19T10:55:51.234Z</time></trkpt><trkpt lat="43.5796217" lon="12.0551817"><ele>336.5</ele><time>2026-04-19T10:55:52.233Z</time></trkpt><trkpt lat="43.5795933" lon="12.0550967"><ele>336.0</ele><time>2026-04-19T10:55:53.234Z</time></trkpt><trkpt lat="43.57958" lon="12.0549633"><ele>335.8333333333333</ele><time>2026-04-19T10:55:55.234Z</time></trkpt><trkpt lat="43.5796" lon="12.0548533"><ele>335.6666666666667</ele><time>2026-04-19T10:55:58.233Z</time></trkpt><trkpt lat="43.579595" lon="12.05473"><ele>335.5</ele><time>2026-04-19T10:56:03.235Z</time></trkpt><trkpt lat="43.5796217" lon="12.054635"><ele>335.33333333333337</ele><time>2026-04-19T10:56:05.233Z</time></trkpt><trkpt lat="43.5796017" lon="12.0545"><ele>335.1666666666667</ele><time>2026-04-19T10:56:07.234Z</time></trkpt><trkpt lat="43.5795733" lon="12.0544033"><ele>335.0</ele><time>2026-04-19T10:56:08.233Z</time></trkpt><trkpt lat="43.5795467" lon="12.0542883"><ele>335.0</ele><time>2026-04-19T10:56:09.233Z</time></trkpt><trkpt lat="43.5795217" lon="12.05416"><ele>335.0</ele><time>2026-04-19T10:56:10.233Z</time></trkpt><trkpt lat="43.5794933" lon="12.0540217"><ele>335.0</ele><time>2026-04-19T10:56:11.233Z</time></trkpt><trkpt lat="43.5794567" lon="12.0538817"><ele>335.0</ele><time>2026-04-19T10:56:12.234Z</time></trkpt><trkpt lat="43.5794217" lon="12.0537433"><ele>335.0</ele><time>2026-04-19T10:56:13.234Z</time></trkpt><trkpt lat="43.579395" lon="12.0536167"><ele>335.0</ele><time>2026-04-19T10:56:14.235Z</time></trkpt><trkpt lat="43.5793767" lon="12.053495"><ele>335.0</ele><time>2026-04-19T10:56:15.233Z</time></trkpt><trkpt lat="43.579365" lon="12.053375"><ele>335.0</ele><time>2026-04-19T10:56:16.233Z</time></trkpt><trkpt lat="43.579355" lon="12.0532583"><ele>335.0</ele><time>2026-04-19T10:56:17.233Z</time></trkpt><trkpt lat="43.57935" lon="12.0531483"><ele>335.0</ele><time>2026-04-19T10:56:18.234Z</time></trkpt><trkpt lat="43.579345" lon="12.0530317"><ele>335.0</ele><time>2026-04-19T10:56:19.234Z</time></trkpt><trkpt lat="43.5793383" lon="12.0529067"><ele>335.33333333333337</ele><time>2026-04-19T10:56:20.235Z</time></trkpt><trkpt lat="43.5793317" lon="12.0527867"><ele>335.6666666666667</ele><time>2026-04-19T10:56:21.235Z</time></trkpt><trkpt lat="43.5793233" lon="12.052675"><ele>336.0</ele><time>2026-04-19T10:56:22.237Z</time></trkpt><trkpt lat="43.5793167" lon="12.0525717"><ele>336.3333333333333</ele><time>2026-04-19T10:56:23.233Z</time></trkpt><trkpt lat="43.579305" lon="12.0524767"><ele>336.66666666666663</ele><time>2026-04-19T10:56:24.234Z</time></trkpt><trkpt lat="43.5792883" lon="12.052385"><ele>337.0</ele><time>2026-04-19T10:56:25.233Z</time></trkpt><trkpt lat="43.5792633" lon="12.0522917"><ele>337.0</ele><time>2026-04-19T10:56:26.234Z</time></trkpt><trkpt lat="43.5792283" lon="12.0521917"><ele>337.0</ele><time>2026-04-19T10:56:27.235Z</time></trkpt><trkpt lat="43.579195" lon="12.0520917"><ele>337.0</ele><time>2026-04-19T10:56:28.233Z</time></trkpt><trkpt lat="43.5791683" lon="12.052"><ele>337.0</ele><time>2026-04-19T10:56:29.234Z</time></trkpt><trkpt lat="43.5791333" lon="12.05185"><ele>337.0</ele><time>2026-04-19T10:56:31.234Z</time></trkpt><trkpt lat="43.5791183" lon="12.0517183"><ele>337.0</ele><time>2026-04-19T10:56:33.233Z</time></trkpt><trkpt lat="43.5791167" lon="12.0515867"><ele>336.0</ele><time>2026-04-19T10:56:35.235Z</time></trkpt><trkpt lat="43.5791283" lon="12.05146"><ele>336.0</ele><time>2026-04-19T10:56:37.234Z</time></trkpt><trkpt lat="43.5791383" lon="12.05136"><ele>336.0</ele><time>2026-04-19T10:56:39.233Z</time></trkpt><trkpt lat="43.579155" lon="12.051275"><ele>336.0</ele><time>2026-04-19T10:56:42.233Z</time></trkpt><trkpt lat="43.579175" lon="12.0511717"><ele>336.0</ele><time>2026-04-19T10:56:46.234Z</time></trkpt><trkpt lat="43.57919" lon="12.0510867"><ele>336.0</ele><time>2026-04-19T10:56:49.233Z</time></trkpt><trkpt lat="43.57919" lon="12.0510867"><ele>336.0</ele><time>2026-04-19T10:56:49.233Z</time></trkpt><trkpt lat="43.57919" lon="12.0510867"><ele>336.0</ele><time>2026-04-19T10:56:49.233Z</time></trkpt><trkpt lat="43.57919" lon="12.0510867"><ele>336.0</ele><time>2026-04-19T10:56:49.233Z</time></trkpt><trkpt lat="43.57919" lon="12.0510867"><ele>336.0</ele><time>2026-04-19T10:56:49.233Z</time></trkpt><trkpt lat="43.57919" lon="12.0510867"><ele>336.0</ele><time>2026-04-19T10:56:49.233Z</time></trkpt><trkpt lat="43.57919" lon="12.0510867"><ele>336.0</ele><time>2026-04-19T10:56:49.233Z</time></trkpt></trkseg><trkseg><trkpt lat="43.5772774" lon="12.0548445"><ele>335.0</ele><time>2026-04-19T11:06:16.234Z</time></trkpt><trkpt lat="43.5772018" lon="12.0547819"><ele>335.0</ele><time>2026-04-19T11:06:17.234Z</time></trkpt><trkpt lat="43.5771265" lon="12.0547206"><ele>335.0</ele><time>2026-04-19T11:06:18.233Z</time></trkpt><trkpt lat="43.5770464" lon="12.0546566"><ele>335.0</ele><time>2026-04-19T11:06:19.235Z</time></trkpt><trkpt lat="43.5769612" lon="12.0545882"><ele>335.0</ele><time>2026-04-19T11:06:20.234Z</time></trkpt><trkpt lat="43.5768726" lon="12.0545128"><ele>335.0</ele><time>2026-04-19T11:06:21.233Z</time></trkpt><trkpt lat="43.5767791" lon="12.0544384"><ele>335.0</ele><time>2026-04-19T11:06:22.235Z</time></trkpt><trkpt lat="43.576684" lon="12.0543655"><ele>335.0</ele><time>2026-04-19T11:06:23.235Z</time></trkpt><trkpt lat="43.5765891" lon="12.0542877"><ele>335.0</ele><time>2026-04-19T11:06:24.234Z</time></trkpt><trkpt lat="43.5764889" lon="12.0542073"><ele>335.0</ele><time>2026-04-19T11:06:25.235Z</time></trkpt><trkpt lat="43.5763829" lon="12.0541198"><ele>335.0</ele><time>2026-04-19T11:06:26.234Z</time></trkpt><trkpt lat="43.5762774" lon="12.0540363"><ele>335.0</ele><time>2026-04-19T11:06:27.233Z</time></trkpt><trkpt lat="43.5761767" lon="12.0539546"><ele>335.0</ele><time>2026-04-19T11:06:28.233Z</time></trkpt><trkpt lat="43.576073" lon="12.0538675"><ele>335.0</ele><time>2026-04-19T11:06:29.234Z</time></trkpt><trkpt lat="43.5759637" lon="12.0537792"><ele>335.0</ele><time>2026-04-19T11:06:30.236Z</time></trkpt><trkpt lat="43.5758531" lon="12.0536892"><ele>335.0</ele><time>2026-04-19T11:06:31.233Z</time></trkpt><trkpt lat="43.5757378" lon="12.0536004"><ele>335.0</ele><time>2026-04-19T11:06:32.235Z</time></trkpt><trkpt lat="43.5756172" lon="12.0535089"><ele>335.0</ele><time>2026-04-19T11:06:33.235Z</time></trkpt><trkpt lat="43.5754908" lon="12.0534101"><ele>335.0</ele><time>2026-04-19T11:06:34.235Z</time></trkpt><trkpt lat="43.5753615" lon="12.0533114"><ele>335.0</ele><time>2026-04-19T11:06:35.236Z</time></trkpt><trkpt lat="43.5752372" lon="12.0532239"><ele>335.0</ele><time>2026-04-19T11:06:36.233Z</time></trkpt><trkpt lat="43.5751285" lon="12.0531507"><ele>335.0</ele><time>2026-04-19T11:06:37.234Z</time></trkpt><trkpt lat="43.5750382" lon="12.0530811"><ele>335.1666666666667</ele><time>2026-04-19T11:06:38.233Z</time></trkpt><trkpt lat="43.5749602" lon="12.0530225"><ele>335.33333333333337</ele><time>2026-04-19T11:06:39.233Z</time></trkpt><trkpt lat="43.5748929" lon="12.0529694"><ele>335.5</ele><time>2026-04-19T11:06:40.234Z</time></trkpt><trkpt lat="43.574833" lon="12.0529285"><ele>335.6666666666667</ele><time>2026-04-19T11:06:41.234Z</time></trkpt><trkpt lat="43.5747513" lon="12.0528809"><ele>335.8333333333333</ele><time>2026-04-19T11:06:43.233Z</time></trkpt><trkpt lat="43.5746708" lon="12.0528565"><ele>336.0</ele><time>2026-04-19T11:06:46.233Z</time></trkpt><trkpt lat="43.5745979" lon="12.052801"><ele>336.0</ele><time>2026-04-19T11:06:48.235Z</time></trkpt><trkpt lat="43.5745285" lon="12.0527455"><ele>336.0</ele><time>2026-04-19T11:06:49.234Z</time></trkpt><trkpt lat="43.5744375" lon="12.0526764"><ele>336.0</ele><time>2026-04-19T11:06:50.234Z</time></trkpt><trkpt lat="43.574334" lon="12.0526042"><ele>336.0</ele><time>2026-04-19T11:06:51.234Z</time></trkpt><trkpt lat="43.5742232" lon="12.0525244"><ele>336.0</ele><time>2026-04-19T11:06:52.236Z</time></trkpt><trkpt lat="43.57411" lon="12.0524349"><ele>336.0</ele><time>2026-04-19T11:06:53.233Z</time></trkpt><trkpt lat="43.5739891" lon="12.0523396"><ele>336.0</ele><time>2026-04-19T11:06:54.234Z</time></trkpt><trkpt lat="43.5738709" lon="12.052245"><ele>336.0</ele><time>2026-04-19T11:06:55.234Z</time></trkpt><trkpt lat="43.5737538" lon="12.0521509"><ele>336.0</ele><time>2026-04-19T11:06:56.234Z</time></trkpt><trkpt lat="43.5736362" lon="12.0520575"><ele>335.5</ele><time>2026-04-19T11:06:57.234Z</time></trkpt><trkpt lat="43.5735194" lon="12.0519654"><ele>335.0</ele><time>2026-04-19T11:06:58.235Z</time></trkpt><trkpt lat="43.573405" lon="12.0518752"><ele>334.5</ele><time>2026-04-19T11:06:59.234Z</time></trkpt><trkpt lat="43.5732889" lon="12.0517832"><ele>334.0</ele><time>2026-04-19T11:07:00.235Z</time></trkpt><trkpt lat="43.5731737" lon="12.0516883"><ele>334.25</ele><time>2026-04-19T11:07:01.235Z</time></trkpt><trkpt lat="43.5730547" lon="12.0515952"><ele>334.5</ele><time>2026-04-19T11:07:02.234Z</time></trkpt><trkpt lat="43.5729364" lon="12.0515068"><ele>334.75</ele><time>2026-04-19T11:07:03.233Z</time></trkpt><trkpt lat="43.5728223" lon="12.0514272"><ele>335.0</ele><time>2026-04-19T11:07:04.233Z</time></trkpt><trkpt lat="43.5727184" lon="12.0513628"><ele>335.0</ele><time>2026-04-19T11:07:05.234Z</time></trkpt><trkpt lat="43.5726253" lon="12.051313"><ele>335.0</ele><time>2026-04-19T11:07:06.233Z</time></trkpt><trkpt lat="43.5725445" lon="12.0512836"><ele>335.0</ele><time>2026-04-19T11:07:07.233Z</time></trkpt><trkpt lat="43.5724677" lon="12.0512695"><ele>335.0</ele><time>2026-04-19T11:07:08.234Z</time></trkpt><trkpt lat="43.5723879" lon="12.0512644"><ele>335.0</ele><time>2026-04-19T11:07:09.233Z</time></trkpt><trkpt lat="43.5722993" lon="12.0512596"><ele>335.0</ele><time>2026-04-19T11:07:10.233Z</time></trkpt><trkpt lat="43.5722034" lon="12.0512487"><ele>335.0</ele><time>2026-04-19T11:07:11.234Z</time></trkpt><trkpt lat="43.5721073" lon="12.0512168"><ele>335.0</ele><time>2026-04-19T11:07:12.234Z</time></trkpt><trkpt lat="43.5720118" lon="12.0511655"><ele>335.0</ele><time>2026-04-19T11:07:13.233Z</time></trkpt><trkpt lat="43.5719142" lon="12.0510964"><ele>335.0</ele><time>2026-04-19T11:07:14.235Z</time></trkpt><trkpt lat="43.5718192" lon="12.0509881"><ele>335.0</ele><time>2026-04-19T11:07:15.234Z</time></trkpt><trkpt lat="43.5717338" lon="12.050871"><ele>335.5</ele><time>2026-04-19T11:07:16.233Z</time></trkpt><trkpt lat="43.5716493" lon="12.050773"><ele>336.0</ele><time>2026-04-19T11:07:17.233Z</time></trkpt><trkpt lat="43.5715568" lon="12.0506922"><ele>336.5</ele><time>2026-04-19T11:07:18.233Z</time></trkpt><trkpt lat="43.5714577" lon="12.0506203"><ele>337.0</ele><time>2026-04-19T11:07:19.233Z</time></trkpt><trkpt lat="43.5713557" lon="12.0505389"><ele>337.0</ele><time>2026-04-19T11:07:20.234Z</time></trkpt><trkpt lat="43.571257" lon="12.0504426"><ele>337.0</ele><time>2026-04-19T11:07:21.234Z</time></trkpt><trkpt lat="43.571165" lon="12.0503248"><ele>337.0</ele><time>2026-04-19T11:07:22.235Z</time></trkpt><trkpt lat="43.5710751" lon="12.0502002"><ele>337.0</ele><time>2026-04-19T11:07:23.233Z</time></trkpt><trkpt lat="43.5709826" lon="12.0500756"><ele>336.0</ele><time>2026-04-19T11:07:24.234Z</time></trkpt><trkpt lat="43.5708851" lon="12.0499536"><ele>335.0</ele><time>2026-04-19T11:07:25.234Z</time></trkpt><trkpt lat="43.570784" lon="12.0498347"><ele>334.0</ele><time>2026-04-19T11:07:26.234Z</time></trkpt><trkpt lat="43.570682" lon="12.0497154"><ele>333.0</ele><time>2026-04-19T11:07:27.234Z</time></trkpt><trkpt lat="43.5705829" lon="12.0495939"><ele>333.0</ele><time>2026-04-19T11:07:28.233Z</time></trkpt><trkpt lat="43.5704888" lon="12.0494698"><ele>333.0</ele><time>2026-04-19T11:07:29.234Z</time></trkpt><trkpt lat="43.5704003" lon="12.0493401"><ele>333.0</ele><time>2026-04-19T11:07:30.234Z</time></trkpt><trkpt lat="43.5703152" lon="12.0492052"><ele>333.0</ele><time>2026-04-19T11:07:31.234Z</time></trkpt><trkpt lat="43.570236" lon="12.0490732"><ele>333.2</ele><time>2026-04-19T11:07:32.234Z</time></trkpt><trkpt lat="43.5701623" lon="12.0489552"><ele>333.4</ele><time>2026-04-19T11:07:33.234Z</time></trkpt><trkpt lat="43.5700996" lon="12.0488517"><ele>333.59999999999997</ele><time>2026-04-19T11:07:34.234Z</time></trkpt><trkpt lat="43.5700488" lon="12.0487624"><ele>333.79999999999995</ele><time>2026-04-19T11:07:35.236Z</time></trkpt><trkpt lat="43.570006" lon="12.0486847"><ele>334.0</ele><time>2026-04-19T11:07:36.235Z</time></trkpt><trkpt lat="43.5699498" lon="12.0485666"><ele>334.0</ele><time>2026-04-19T11:07:38.235Z</time></trkpt><trkpt lat="43.5699117" lon="12.0484703"><ele>334.0</ele><time>2026-04-19T11:07:41.235Z</time></trkpt><trkpt lat="43.5698417" lon="12.0484833"><ele>334.0</ele><time>2026-04-19T11:07:53.233Z</time></trkpt><trkpt lat="43.5697167" lon="12.048545"><ele>334.0</ele><time>2026-04-19T11:07:55.234Z</time></trkpt><trkpt lat="43.5696083" lon="12.04859"><ele>334.0</ele><time>2026-04-19T11:07:56.235Z</time></trkpt><trkpt lat="43.569495" lon="12.04864"><ele>333.75</ele><time>2026-04-19T11:07:57.233Z</time></trkpt><trkpt lat="43.5693733" lon="12.0487083"><ele>333.5</ele><time>2026-04-19T11:07:58.234Z</time></trkpt><trkpt lat="43.5692583" lon="12.04878"><ele>333.25</ele><time>2026-04-19T11:07:59.235Z</time></trkpt><trkpt lat="43.5691467" lon="12.0488617"><ele>333.0</ele><time>2026-04-19T11:08:00.236Z</time></trkpt><trkpt lat="43.5690433" lon="12.0489583"><ele>333.0</ele><time>2026-04-19T11:08:01.236Z</time></trkpt><trkpt lat="43.5689851" lon="12.0490378"><ele>333.0</ele><time>2026-04-19T11:08:02.234Z</time></trkpt><trkpt lat="43.5688423" lon="12.0491754"><ele>333.0</ele><time>2026-04-19T11:08:03.235Z</time></trkpt><trkpt lat="43.5687178" lon="12.049311"><ele>333.0</ele><time>2026-04-19T11:08:04.236Z</time></trkpt><trkpt lat="43.568595" lon="12.0494525"><ele>333.6666666666667</ele><time>2026-04-19T11:08:05.235Z</time></trkpt><trkpt lat="43.5684732" lon="12.0495896"><ele>334.33333333333337</ele><time>2026-04-19T11:08:06.236Z</time></trkpt><trkpt lat="43.5683512" lon="12.0497264"><ele>335.0</ele><time>2026-04-19T11:08:07.236Z</time></trkpt><trkpt lat="43.5682289" lon="12.0498649"><ele>334.6666666666667</ele><time>2026-04-19T11:08:08.236Z</time></trkpt><trkpt lat="43.5681109" lon="12.0500005"><ele>334.3333333333333</ele><time>2026-04-19T11:08:09.236Z</time></trkpt><trkpt lat="43.5679958" lon="12.05014"><ele>334.0</ele><time>2026-04-19T11:08:10.235Z</time></trkpt><trkpt lat="43.5678799" lon="12.0502754"><ele>333.75</ele><time>2026-04-19T11:08:11.236Z</time></trkpt><trkpt lat="43.5677642" lon="12.0503985"><ele>333.5</ele><time>2026-04-19T11:08:12.236Z</time></trkpt><trkpt lat="43.5676533" lon="12.0505208"><ele>333.25</ele><time>2026-04-19T11:08:13.235Z</time></trkpt><trkpt lat="43.5675505" lon="12.0506436"><ele>333.0</ele><time>2026-04-19T11:08:14.235Z</time></trkpt><trkpt lat="43.5674426" lon="12.0507593"><ele>332.75</ele><time>2026-04-19T11:08:15.235Z</time></trkpt><trkpt lat="43.5673338" lon="12.0508685"><ele>332.5</ele><time>2026-04-19T11:08:16.235Z</time></trkpt><trkpt lat="43.5672227" lon="12.0509722"><ele>332.25</ele><time>2026-04-19T11:08:17.236Z</time></trkpt><trkpt lat="43.5671075" lon="12.0510654"><ele>332.0</ele><time>2026-04-19T11:08:18.234Z</time></trkpt><trkpt lat="43.5669883" lon="12.0511514"><ele>332.0</ele><time>2026-04-19T11:08:19.233Z</time></trkpt><trkpt lat="43.566869" lon="12.0512403"><ele>332.0</ele><time>2026-04-19T11:08:20.233Z</time></trkpt><trkpt lat="43.5667534" lon="12.0513374"><ele>332.0</ele><time>2026-04-19T11:08:21.239Z</time></trkpt><trkpt lat="43.5666371" lon="12.0514346"><ele>332.0</ele><time>2026-04-19T11:08:22.234Z</time></trkpt><trkpt lat="43.5665141" lon="12.051528"><ele>331.75</ele><time>2026-04-19T11:08:23.233Z</time></trkpt><trkpt lat="43.5663894" lon="12.0516251"><ele>331.5</ele><time>2026-04-19T11:08:24.233Z</time></trkpt><trkpt lat="43.5662667" lon="12.0517168"><ele>331.25</ele><time>2026-04-19T11:08:25.234Z</time></trkpt><trkpt lat="43.5661571" lon="12.0518023"><ele>331.0</ele><time>2026-04-19T11:08:26.235Z</time></trkpt><trkpt lat="43.5660599" lon="12.0518818"><ele>331.0</ele><time>2026-04-19T11:08:27.236Z</time></trkpt><trkpt lat="43.5659734" lon="12.0519528"><ele>331.0</ele><time>2026-04-19T11:08:28.234Z</time></trkpt><trkpt lat="43.5658992" lon="12.0520087"><ele>331.0</ele><time>2026-04-19T11:08:29.235Z</time></trkpt><trkpt lat="43.565834" lon="12.0520499"><ele>331.0</ele><time>2026-04-19T11:08:30.235Z</time></trkpt><trkpt lat="43.5657729" lon="12.0520755"><ele>331.0</ele><time>2026-04-19T11:08:31.235Z</time></trkpt><trkpt lat="43.5656442" lon="12.0520604"><ele>331.0</ele><time>2026-04-19T11:08:33.235Z</time></trkpt><trkpt lat="43.5655683" lon="12.0520344"><ele>331.0</ele><time>2026-04-19T11:08:34.234Z</time></trkpt><trkpt lat="43.5654847" lon="12.0520141"><ele>331.0</ele><time>2026-04-19T11:08:35.234Z</time></trkpt><trkpt lat="43.5653959" lon="12.0519928"><ele>331.0</ele><time>2026-04-19T11:08:36.235Z</time></trkpt><trkpt lat="43.5653009" lon="12.0519726"><ele>331.0</ele><time>2026-04-19T11:08:37.237Z</time></trkpt><trkpt lat="43.5652036" lon="12.0519482"><ele>331.0</ele><time>2026-04-19T11:08:38.235Z</time></trkpt><trkpt lat="43.5651114" lon="12.0519066"><ele>331.20000000000005</ele><time>2026-04-19T11:08:39.235Z</time></trkpt><trkpt lat="43.5650332" lon="12.0518411"><ele>331.40000000000003</ele><time>2026-04-19T11:08:40.234Z</time></trkpt><trkpt lat="43.5649745" lon="12.0517439"><ele>331.6</ele><time>2026-04-19T11:08:41.234Z</time></trkpt><trkpt lat="43.564944" lon="12.0516089"><ele>331.8</ele><time>2026-04-19T11:08:42.234Z</time></trkpt><trkpt lat="43.5649366" lon="12.0514496"><ele>332.0</ele><time>2026-04-19T11:08:43.234Z</time></trkpt><trkpt lat="43.5649303" lon="12.0512804"><ele>332.5</ele><time>2026-04-19T11:08:44.235Z</time></trkpt><trkpt lat="43.5649022" lon="12.0511137"><ele>333.0</ele><time>2026-04-19T11:08:45.235Z</time></trkpt><trkpt lat="43.5648488" lon="12.0509448"><ele>333.5</ele><time>2026-04-19T11:08:46.233Z</time></trkpt><trkpt lat="43.5647818" lon="12.0507754"><ele>334.0</ele><time>2026-04-19T11:08:47.234Z</time></trkpt><trkpt lat="43.5646983" lon="12.0506188"><ele>334.0</ele><time>2026-04-19T11:08:48.233Z</time></trkpt><trkpt lat="43.5645982" lon="12.050477"><ele>334.0</ele><time>2026-04-19T11:08:49.233Z</time></trkpt><trkpt lat="43.5644827" lon="12.0503527"><ele>334.0</ele><time>2026-04-19T11:08:50.235Z</time></trkpt><trkpt lat="43.5643649" lon="12.0502336"><ele>334.0</ele><time>2026-04-19T11:08:51.233Z</time></trkpt><trkpt lat="43.5642517" lon="12.050113"><ele>335.0</ele><time>2026-04-19T11:08:52.235Z</time></trkpt><trkpt lat="43.5641379" lon="12.0499784"><ele>336.0</ele><time>2026-04-19T11:08:53.233Z</time></trkpt><trkpt lat="43.5640219" lon="12.0498368"><ele>337.0</ele><time>2026-04-19T11:08:54.234Z</time></trkpt><trkpt lat="43.5639052" lon="12.049693"><ele>337.0</ele><time>2026-04-19T11:08:55.235Z</time></trkpt><trkpt lat="43.5637898" lon="12.0495522"><ele>337.0</ele><time>2026-04-19T11:08:56.234Z</time></trkpt><trkpt lat="43.5636788" lon="12.0494142"><ele>337.0</ele><time>2026-04-19T11:08:57.234Z</time></trkpt><trkpt lat="43.5635749" lon="12.049285"><ele>337.0</ele><time>2026-04-19T11:08:58.233Z</time></trkpt><trkpt lat="43.5634765" lon="12.0491583"><ele>338.75</ele><time>2026-04-19T11:08:59.235Z</time></trkpt><trkpt lat="43.5633806" lon="12.0490357"><ele>340.5</ele><time>2026-04-19T11:09:00.235Z</time></trkpt><trkpt lat="43.5632826" lon="12.0489202"><ele>342.25</ele><time>2026-04-19T11:09:01.235Z</time></trkpt><trkpt lat="43.5631803" lon="12.0488112"><ele>344.0</ele><time>2026-04-19T11:09:02.234Z</time></trkpt><trkpt lat="43.563074" lon="12.0487054"><ele>344.0</ele><time>2026-04-19T11:09:03.233Z</time></trkpt><trkpt lat="43.5629627" lon="12.0486048"><ele>344.0</ele><time>2026-04-19T11:09:04.234Z</time></trkpt><trkpt lat="43.5628475" lon="12.0485111"><ele>344.0</ele><time>2026-04-19T11:09:05.236Z</time></trkpt><trkpt lat="43.5627318" lon="12.0484207"><ele>344.0</ele><time>2026-04-19T11:09:06.233Z</time></trkpt><trkpt lat="43.5626135" lon="12.0483338"><ele>344.0</ele><time>2026-04-19T11:09:07.234Z</time></trkpt><trkpt lat="43.562492" lon="12.0482472"><ele>344.0</ele><time>2026-04-19T11:09:08.234Z</time></trkpt><trkpt lat="43.56237" lon="12.0481648"><ele>344.0</ele><time>2026-04-19T11:09:09.235Z</time></trkpt><trkpt lat="43.5622466" lon="12.0480791"><ele>344.0</ele><time>2026-04-19T11:09:10.235Z</time></trkpt><trkpt lat="43.5621268" lon="12.0479926"><ele>344.25</ele><time>2026-04-19T11:09:11.235Z</time></trkpt><trkpt lat="43.5620085" lon="12.0479129"><ele>344.5</ele><time>2026-04-19T11:09:12.235Z</time></trkpt><trkpt lat="43.5618894" lon="12.0478511"><ele>344.75</ele><time>2026-04-19T11:09:13.234Z</time></trkpt><trkpt lat="43.561771" lon="12.0478237"><ele>345.0</ele><time>2026-04-19T11:09:14.234Z</time></trkpt><trkpt lat="43.5616456" lon="12.0478206"><ele>345.0</ele><time>2026-04-19T11:09:15.233Z</time></trkpt><trkpt lat="43.5615076" lon="12.0478337"><ele>345.0</ele><time>2026-04-19T11:09:16.233Z</time></trkpt><trkpt lat="43.5613725" lon="12.0478336"><ele>345.0</ele><time>2026-04-19T11:09:17.233Z</time></trkpt><trkpt lat="43.561247" lon="12.0478182"><ele>345.0</ele><time>2026-04-19T11:09:18.234Z</time></trkpt><trkpt lat="43.5611286" lon="12.0477946"><ele>346.0</ele><time>2026-04-19T11:09:19.233Z</time></trkpt><trkpt lat="43.5610153" lon="12.0477628"><ele>347.0</ele><time>2026-04-19T11:09:20.235Z</time></trkpt><trkpt lat="43.5609135" lon="12.0477143"><ele>348.0</ele><time>2026-04-19T11:09:21.234Z</time></trkpt><trkpt lat="43.5608282" lon="12.0476591"><ele>349.0</ele><time>2026-04-19T11:09:22.236Z</time></trkpt><trkpt lat="43.5607582" lon="12.0476078"><ele>350.0</ele><time>2026-04-19T11:09:23.234Z</time></trkpt><trkpt lat="43.5607025" lon="12.0475617"><ele>350.0</ele><time>2026-04-19T11:09:24.233Z</time></trkpt><trkpt lat="43.5606192" lon="12.047477"><ele>350.0</ele><time>2026-04-19T11:09:26.235Z</time></trkpt><trkpt lat="43.5605204" lon="12.0474287"><ele>350.0</ele><time>2026-04-19T11:09:28.244Z</time></trkpt><trkpt lat="43.5604474" lon="12.0474459"><ele>350.0</ele><time>2026-04-19T11:09:29.235Z</time></trkpt><trkpt lat="43.5603547" lon="12.047504"><ele>350.0</ele><time>2026-04-19T11:09:30.234Z</time></trkpt><trkpt lat="43.5602565" lon="12.0475818"><ele>350.33333333333337</ele><time>2026-04-19T11:09:31.234Z</time></trkpt><trkpt lat="43.5601382" lon="12.047675"><ele>350.6666666666667</ele><time>2026-04-19T11:09:32.234Z</time></trkpt><trkpt lat="43.5600034" lon="12.0477747"><ele>351.0</ele><time>2026-04-19T11:09:33.234Z</time></trkpt><trkpt lat="43.5598587" lon="12.047879"><ele>351.0</ele><time>2026-04-19T11:09:34.236Z</time></trkpt><trkpt lat="43.5597085" lon="12.0479869"><ele>351.0</ele><time>2026-04-19T11:09:35.234Z</time></trkpt><trkpt lat="43.5595516" lon="12.0480991"><ele>351.0</ele><time>2026-04-19T11:09:36.234Z</time></trkpt><trkpt lat="43.5593925" lon="12.0482141"><ele>350.0</ele><time>2026-04-19T11:09:37.235Z</time></trkpt><trkpt lat="43.5592353" lon="12.0483251"><ele>349.0</ele><time>2026-04-19T11:09:38.234Z</time></trkpt><trkpt lat="43.5590778" lon="12.0484348"><ele>348.0</ele><time>2026-04-19T11:09:39.234Z</time></trkpt><trkpt lat="43.5589202" lon="12.0485453"><ele>348.0</ele><time>2026-04-19T11:09:40.237Z</time></trkpt><trkpt lat="43.5587636" lon="12.048655"><ele>348.0</ele><time>2026-04-19T11:09:41.234Z</time></trkpt><trkpt lat="43.5586058" lon="12.0487637"><ele>348.0</ele><time>2026-04-19T11:09:42.235Z</time></trkpt><trkpt lat="43.5584479" lon="12.0488708"><ele>346.6666666666667</ele><time>2026-04-19T11:09:43.236Z</time></trkpt><trkpt lat="43.5582886" lon="12.0489806"><ele>345.33333333333337</ele><time>2026-04-19T11:09:44.234Z</time></trkpt><trkpt lat="43.5581275" lon="12.0490923"><ele>344.0</ele><time>2026-04-19T11:09:45.235Z</time></trkpt><trkpt lat="43.55797" lon="12.0492027"><ele>345.0</ele><time>2026-04-19T11:09:46.235Z</time></trkpt><trkpt lat="43.5578149" lon="12.0493095"><ele>346.0</ele><time>2026-04-19T11:09:47.235Z</time></trkpt><trkpt lat="43.5576603" lon="12.0494172"><ele>347.0</ele><time>2026-04-19T11:09:48.234Z</time></trkpt><trkpt lat="43.5575083" lon="12.0495258"><ele>347.0</ele><time>2026-04-19T11:09:49.235Z</time></trkpt><trkpt lat="43.5573541" lon="12.0496355"><ele>347.0</ele><time>2026-04-19T11:09:50.236Z</time></trkpt><trkpt lat="43.5571949" lon="12.0497458"><ele>347.0</ele><time>2026-04-19T11:09:51.235Z</time></trkpt><trkpt lat="43.5570345" lon="12.0498586"><ele>347.0</ele><time>2026-04-19T11:09:52.235Z</time></trkpt><trkpt lat="43.5568784" lon="12.049972"><ele>347.0</ele><time>2026-04-19T11:09:53.236Z</time></trkpt><trkpt lat="43.5567263" lon="12.0500797"><ele>347.0</ele><time>2026-04-19T11:09:54.236Z</time></trkpt><trkpt lat="43.5565777" lon="12.0501788"><ele>347.0</ele><time>2026-04-19T11:09:55.235Z</time></trkpt><trkpt lat="43.5564311" lon="12.0502687"><ele>347.0</ele><time>2026-04-19T11:09:56.235Z</time></trkpt><trkpt lat="43.5562833" lon="12.0503492"><ele>347.0</ele><time>2026-04-19T11:09:57.235Z</time></trkpt><trkpt lat="43.5561336" lon="12.0504198"><ele>348.33333333333337</ele><time>2026-04-19T11:09:58.235Z</time></trkpt><trkpt lat="43.5559849" lon="12.0504839"><ele>349.6666666666667</ele><time>2026-04-19T11:09:59.235Z</time></trkpt><trkpt lat="43.5558354" lon="12.0505493"><ele>351.0</ele><time>2026-04-19T11:10:00.235Z</time></trkpt><trkpt lat="43.5556868" lon="12.0506162"><ele>351.0</ele><time>2026-04-19T11:10:01.236Z</time></trkpt><trkpt lat="43.555537" lon="12.0506831"><ele>351.0</ele><time>2026-04-19T11:10:02.235Z</time></trkpt><trkpt lat="43.5553869" lon="12.0507499"><ele>351.0</ele><time>2026-04-19T11:10:03.235Z</time></trkpt><trkpt lat="43.555234" lon="12.0508179"><ele>350.3333333333333</ele><time>2026-04-19T11:10:04.236Z</time></trkpt><trkpt lat="43.5550791" lon="12.050887"><ele>349.66666666666663</ele><time>2026-04-19T11:10:05.235Z</time></trkpt><trkpt lat="43.5549227" lon="12.050956"><ele>349.0</ele><time>2026-04-19T11:10:06.236Z</time></trkpt><trkpt lat="43.554767" lon="12.051024"><ele>349.0</ele><time>2026-04-19T11:10:07.234Z</time></trkpt><trkpt lat="43.5546115" lon="12.0510912"><ele>349.0</ele><time>2026-04-19T11:10:08.237Z</time></trkpt><trkpt lat="43.554457" lon="12.0511579"><ele>349.0</ele><time>2026-04-19T11:10:09.234Z</time></trkpt><trkpt lat="43.5543037" lon="12.0512248"><ele>351.0</ele><time>2026-04-19T11:10:10.235Z</time></trkpt><trkpt lat="43.5541504" lon="12.0512911"><ele>353.0</ele><time>2026-04-19T11:10:11.235Z</time></trkpt><trkpt lat="43.5539945" lon="12.0513568"><ele>355.0</ele><time>2026-04-19T11:10:12.235Z</time></trkpt><trkpt lat="43.553839" lon="12.0514217"><ele>354.0</ele><time>2026-04-19T11:10:13.234Z</time></trkpt><trkpt lat="43.5536836" lon="12.0514891"><ele>353.0</ele><time>2026-04-19T11:10:14.234Z</time></trkpt><trkpt lat="43.5535273" lon="12.0515574"><ele>352.0</ele><time>2026-04-19T11:10:15.235Z</time></trkpt><trkpt lat="43.5533719" lon="12.0516263"><ele>352.0</ele><time>2026-04-19T11:10:16.234Z</time></trkpt><trkpt lat="43.5532141" lon="12.0516931"><ele>352.0</ele><time>2026-04-19T11:10:17.234Z</time></trkpt><trkpt lat="43.5530558" lon="12.0517595"><ele>352.0</ele><time>2026-04-19T11:10:18.235Z</time></trkpt><trkpt lat="43.5528989" lon="12.051823"><ele>351.66666666666663</ele><time>2026-04-19T11:10:19.234Z</time></trkpt><trkpt lat="43.5527449" lon="12.051888"><ele>351.3333333333333</ele><time>2026-04-19T11:10:20.235Z</time></trkpt><trkpt lat="43.552593" lon="12.0519514"><ele>351.0</ele><time>2026-04-19T11:10:21.235Z</time></trkpt><trkpt lat="43.5524402" lon="12.0520131"><ele>351.0</ele><time>2026-04-19T11:10:22.234Z</time></trkpt><trkpt lat="43.5522887" lon="12.0520814"><ele>351.0</ele><time>2026-04-19T11:10:23.233Z</time></trkpt><trkpt lat="43.5521372" lon="12.0521503"><ele>351.0</ele><time>2026-04-19T11:10:24.234Z</time></trkpt><trkpt lat="43.5519855" lon="12.0522159"><ele>353.3333333333333</ele><time>2026-04-19T11:10:25.234Z</time></trkpt><trkpt lat="43.5518323" lon="12.0522799"><ele>355.66666666666663</ele><time>2026-04-19T11:10:26.235Z</time></trkpt><trkpt lat="43.5516774" lon="12.0523486"><ele>358.0</ele><time>2026-04-19T11:10:27.235Z</time></trkpt><trkpt lat="43.5515223" lon="12.0524193"><ele>357.66666666666663</ele><time>2026-04-19T11:10:28.235Z</time></trkpt><trkpt lat="43.5513687" lon="12.052494"><ele>357.3333333333333</ele><time>2026-04-19T11:10:29.235Z</time></trkpt><trkpt lat="43.5512155" lon="12.0525724"><ele>357.0</ele><time>2026-04-19T11:10:30.235Z</time></trkpt><trkpt lat="43.5510634" lon="12.0526553"><ele>357.0</ele><time>2026-04-19T11:10:31.235Z</time></trkpt><trkpt lat="43.5509143" lon="12.05274"><ele>357.0</ele><time>2026-04-19T11:10:32.236Z</time></trkpt><trkpt lat="43.5507651" lon="12.0528241"><ele>357.0</ele><time>2026-04-19T11:10:33.235Z</time></trkpt><trkpt lat="43.550615" lon="12.0529107"><ele>357.0</ele><time>2026-04-19T11:10:34.235Z</time></trkpt><trkpt lat="43.5504606" lon="12.0530023"><ele>357.0</ele><time>2026-04-19T11:10:35.235Z</time></trkpt><trkpt lat="43.5503084" lon="12.0530918"><ele>357.0</ele><time>2026-04-19T11:10:36.235Z</time></trkpt><trkpt lat="43.5501627" lon="12.0531755"><ele>355.6666666666667</ele><time>2026-04-19T11:10:37.235Z</time></trkpt><trkpt lat="43.5500195" lon="12.0532565"><ele>354.33333333333337</ele><time>2026-04-19T11:10:38.236Z</time></trkpt><trkpt lat="43.5498751" lon="12.0533392"><ele>353.0</ele><time>2026-04-19T11:10:39.235Z</time></trkpt><trkpt lat="43.5497289" lon="12.0534256"><ele>353.0</ele><time>2026-04-19T11:10:40.235Z</time></trkpt><trkpt lat="43.5495823" lon="12.0535125"><ele>353.0</ele><time>2026-04-19T11:10:41.234Z</time></trkpt><trkpt lat="43.549434" lon="12.0535995"><ele>353.0</ele><time>2026-04-19T11:10:42.234Z</time></trkpt><trkpt lat="43.5492868" lon="12.0536864"><ele>355.75</ele><time>2026-04-19T11:10:43.235Z</time></trkpt><trkpt lat="43.5491431" lon="12.0537714"><ele>358.5</ele><time>2026-04-19T11:10:44.236Z</time></trkpt><trkpt lat="43.5490076" lon="12.0538504"><ele>361.25</ele><time>2026-04-19T11:10:45.234Z</time></trkpt><trkpt lat="43.5488762" lon="12.0539266"><ele>364.0</ele><time>2026-04-19T11:10:46.234Z</time></trkpt><trkpt lat="43.5487435" lon="12.0540012"><ele>363.0</ele><time>2026-04-19T11:10:47.235Z</time></trkpt><trkpt lat="43.5486098" lon="12.0540776"><ele>362.0</ele><time>2026-04-19T11:10:48.235Z</time></trkpt><trkpt lat="43.5484749" lon="12.0541555"><ele>361.0</ele><time>2026-04-19T11:10:49.235Z</time></trkpt><trkpt lat="43.5483373" lon="12.0542353"><ele>360.0</ele><time>2026-04-19T11:10:50.236Z</time></trkpt><trkpt lat="43.5481989" lon="12.0543173"><ele>360.0</ele><time>2026-04-19T11:10:51.236Z</time></trkpt><trkpt lat="43.5480592" lon="12.0543994"><ele>360.0</ele><time>2026-04-19T11:10:52.236Z</time></trkpt><trkpt lat="43.5479177" lon="12.0544827"><ele>360.0</ele><time>2026-04-19T11:10:53.235Z</time></trkpt><trkpt lat="43.5477745" lon="12.0545639"><ele>365.0</ele><time>2026-04-19T11:10:54.235Z</time></trkpt><trkpt lat="43.5476289" lon="12.0546473"><ele>370.0</ele><time>2026-04-19T11:10:55.235Z</time></trkpt><trkpt lat="43.5474811" lon="12.0547285"><ele>375.0</ele><time>2026-04-19T11:10:56.235Z</time></trkpt><trkpt lat="43.5473324" lon="12.054808"><ele>375.0</ele><time>2026-04-19T11:10:57.234Z</time></trkpt><trkpt lat="43.5471827" lon="12.0548925"><ele>375.0</ele><time>2026-04-19T11:10:58.234Z</time></trkpt><trkpt lat="43.5470323" lon="12.0549787"><ele>375.0</ele><time>2026-04-19T11:10:59.234Z</time></trkpt><trkpt lat="43.5468777" lon="12.0550671"><ele>372.3333333333333</ele><time>2026-04-19T11:11:00.234Z</time></trkpt><trkpt lat="43.5467163" lon="12.0551601"><ele>369.66666666666663</ele><time>2026-04-19T11:11:01.234Z</time></trkpt><trkpt lat="43.5465538" lon="12.0552575"><ele>367.0</ele><time>2026-04-19T11:11:02.235Z</time></trkpt><trkpt lat="43.5463951" lon="12.0553515"><ele>367.0</ele><time>2026-04-19T11:11:03.235Z</time></trkpt><trkpt lat="43.5462441" lon="12.0554407"><ele>367.0</ele><time>2026-04-19T11:11:04.235Z</time></trkpt><trkpt lat="43.5460973" lon="12.0555228"><ele>367.0</ele><time>2026-04-19T11:11:05.235Z</time></trkpt><trkpt lat="43.5459517" lon="12.0556003"><ele>367.0</ele><time>2026-04-19T11:11:06.235Z</time></trkpt><trkpt lat="43.545811" lon="12.0556788"><ele>367.0</ele><time>2026-04-19T11:11:07.234Z</time></trkpt><trkpt lat="43.5456776" lon="12.0557534"><ele>367.0</ele><time>2026-04-19T11:11:08.235Z</time></trkpt><trkpt lat="43.5455506" lon="12.0558253"><ele>367.0</ele><time>2026-04-19T11:11:09.234Z</time></trkpt><trkpt lat="43.5454261" lon="12.0558997"><ele>370.75</ele><time>2026-04-19T11:11:10.234Z</time></trkpt><trkpt lat="43.5453055" lon="12.055976"><ele>374.5</ele><time>2026-04-19T11:11:11.235Z</time></trkpt><trkpt lat="43.5451789" lon="12.0560533"><ele>378.25</ele><time>2026-04-19T11:11:12.235Z</time></trkpt><trkpt lat="43.5450489" lon="12.0561307"><ele>382.0</ele><time>2026-04-19T11:11:13.235Z</time></trkpt><trkpt lat="43.544916" lon="12.0562046"><ele>382.0</ele><time>2026-04-19T11:11:14.235Z</time></trkpt><trkpt lat="43.544785" lon="12.0562796"><ele>382.0</ele><time>2026-04-19T11:11:15.233Z</time></trkpt><trkpt lat="43.544654" lon="12.0563687"><ele>382.0</ele><time>2026-04-19T11:11:16.234Z</time></trkpt><trkpt lat="43.5445181" lon="12.0564745"><ele>382.0</ele><time>2026-04-19T11:11:17.235Z</time></trkpt><trkpt lat="43.544382" lon="12.0565875"><ele>383.3333333333333</ele><time>2026-04-19T11:11:18.234Z</time></trkpt><trkpt lat="43.5442463" lon="12.0567035"><ele>384.66666666666663</ele><time>2026-04-19T11:11:19.235Z</time></trkpt><trkpt lat="43.5441095" lon="12.0568218"><ele>386.0</ele><time>2026-04-19T11:11:20.234Z</time></trkpt><trkpt lat="43.54397" lon="12.0569367"><ele>386.0</ele><time>2026-04-19T11:11:21.234Z</time></trkpt><trkpt lat="43.5438316" lon="12.0570459"><ele>386.0</ele><time>2026-04-19T11:11:22.234Z</time></trkpt><trkpt lat="43.5436971" lon="12.057143"><ele>386.0</ele><time>2026-04-19T11:11:23.235Z</time></trkpt><trkpt lat="43.5435612" lon="12.0572261"><ele>390.0</ele><time>2026-04-19T11:11:24.234Z</time></trkpt><trkpt lat="43.5434235" lon="12.05729"><ele>394.0</ele><time>2026-04-19T11:11:25.235Z</time></trkpt><trkpt lat="43.5432821" lon="12.0573387"><ele>398.0</ele><time>2026-04-19T11:11:26.234Z</time></trkpt><trkpt lat="43.5431388" lon="12.0573814"><ele>402.0</ele><time>2026-04-19T11:11:27.235Z</time></trkpt><trkpt lat="43.5429943" lon="12.057404"><ele>400.33333333333337</ele><time>2026-04-19T11:11:28.234Z</time></trkpt><trkpt lat="43.5428507" lon="12.0573792"><ele>398.6666666666667</ele><time>2026-04-19T11:11:29.235Z</time></trkpt><trkpt lat="43.542712" lon="12.057305"><ele>397.0</ele><time>2026-04-19T11:11:30.233Z</time></trkpt><trkpt lat="43.5425971" lon="12.0571547"><ele>397.0</ele><time>2026-04-19T11:11:31.234Z</time></trkpt><trkpt lat="43.5425003" lon="12.0569668"><ele>397.0</ele><time>2026-04-19T11:11:32.235Z</time></trkpt><trkpt lat="43.5424205" lon="12.0567657"><ele>397.0</ele><time>2026-04-19T11:11:33.233Z</time></trkpt><trkpt lat="43.5423468" lon="12.0565657"><ele>399.75</ele><time>2026-04-19T11:11:34.234Z</time></trkpt><trkpt lat="43.5422715" lon="12.0563739"><ele>402.5</ele><time>2026-04-19T11:11:35.233Z</time></trkpt><trkpt lat="43.5422011" lon="12.0562021"><ele>405.25</ele><time>2026-04-19T11:11:36.234Z</time></trkpt><trkpt lat="43.5421332" lon="12.0560391"><ele>408.0</ele><time>2026-04-19T11:11:37.234Z</time></trkpt><trkpt lat="43.5420654" lon="12.0558801"><ele>408.0</ele><time>2026-04-19T11:11:38.235Z</time></trkpt><trkpt lat="43.5420116" lon="12.0557406"><ele>408.0</ele><time>2026-04-19T11:11:39.233Z</time></trkpt><trkpt lat="43.5419748" lon="12.0556166"><ele>408.0</ele><time>2026-04-19T11:11:40.235Z</time></trkpt><trkpt lat="43.541956" lon="12.0555057"><ele>408.0</ele><time>2026-04-19T11:11:41.233Z</time></trkpt><trkpt lat="43.5419576" lon="12.055407"><ele>408.0</ele><time>2026-04-19T11:11:42.235Z</time></trkpt><trkpt lat="43.5420451" lon="12.055335"><ele>408.0</ele><time>2026-04-19T11:11:44.235Z</time></trkpt><trkpt lat="43.5421089" lon="12.0553735"><ele>408.0</ele><time>2026-04-19T11:11:45.233Z</time></trkpt><trkpt lat="43.5421777" lon="12.0554438"><ele>408.0</ele><time>2026-04-19T11:11:46.233Z</time></trkpt><trkpt lat="43.5422458" lon="12.0555413"><ele>408.0</ele><time>2026-04-19T11:11:47.234Z</time></trkpt><trkpt lat="43.5423114" lon="12.0556779"><ele>408.0</ele><time>2026-04-19T11:11:48.234Z</time></trkpt><trkpt lat="43.5423773" lon="12.0558309"><ele>408.0</ele><time>2026-04-19T11:11:49.235Z</time></trkpt><trkpt lat="43.5424545" lon="12.0559883"><ele>408.0</ele><time>2026-04-19T11:11:50.236Z</time></trkpt><trkpt lat="43.5425429" lon="12.0561406"><ele>408.0</ele><time>2026-04-19T11:11:51.235Z</time></trkpt><trkpt lat="43.5426441" lon="12.0562723"><ele>408.0</ele><time>2026-04-19T11:11:52.235Z</time></trkpt><trkpt lat="43.5427594" lon="12.0563738"><ele>410.5</ele><time>2026-04-19T11:11:53.234Z</time></trkpt><trkpt lat="43.5428847" lon="12.056437"><ele>413.0</ele><time>2026-04-19T11:11:54.234Z</time></trkpt><trkpt lat="43.5430226" lon="12.0564558"><ele>415.5</ele><time>2026-04-19T11:11:55.233Z</time></trkpt><trkpt lat="43.5431589" lon="12.0564282"><ele>418.0</ele><time>2026-04-19T11:11:56.234Z</time></trkpt><trkpt lat="43.5432896" lon="12.0563623"><ele>418.0</ele><time>2026-04-19T11:11:57.234Z</time></trkpt><trkpt lat="43.543415" lon="12.056269"><ele>418.0</ele><time>2026-04-19T11:11:58.233Z</time></trkpt><trkpt lat="43.5435315" lon="12.0561578"><ele>418.0</ele><time>2026-04-19T11:11:59.234Z</time></trkpt><trkpt lat="43.5436404" lon="12.056055"><ele>418.0</ele><time>2026-04-19T11:12:00.233Z</time></trkpt><trkpt lat="43.5437481" lon="12.055963"><ele>417.0</ele><time>2026-04-19T11:12:01.233Z</time></trkpt><trkpt lat="43.5438488" lon="12.0558791"><ele>416.0</ele><time>2026-04-19T11:12:02.234Z</time></trkpt><trkpt lat="43.5439387" lon="12.0557922"><ele>415.0</ele><time>2026-04-19T11:12:03.234Z</time></trkpt><trkpt lat="43.5440044" lon="12.0557006"><ele>414.0</ele><time>2026-04-19T11:12:04.233Z</time></trkpt><trkpt lat="43.5440391" lon="12.0556117"><ele>413.0</ele><time>2026-04-19T11:12:05.234Z</time></trkpt><trkpt lat="43.5440396" lon="12.0555225"><ele>413.0</ele><time>2026-04-19T11:12:06.234Z</time></trkpt><trkpt lat="43.5439801" lon="12.0554702"><ele>413.0</ele><time>2026-04-19T11:12:07.234Z</time></trkpt><trkpt lat="43.5438888" lon="12.0554502"><ele>413.0</ele><time>2026-04-19T11:12:08.234Z</time></trkpt><trkpt lat="43.5437904" lon="12.0554787"><ele>413.0</ele><time>2026-04-19T11:12:09.234Z</time></trkpt><trkpt lat="43.5436835" lon="12.0555602"><ele>413.0</ele><time>2026-04-19T11:12:10.234Z</time></trkpt><trkpt lat="43.5435799" lon="12.055642"><ele>414.0</ele><time>2026-04-19T11:12:11.234Z</time></trkpt><trkpt lat="43.5434804" lon="12.0557127"><ele>415.0</ele><time>2026-04-19T11:12:12.234Z</time></trkpt><trkpt lat="43.543385" lon="12.0557784"><ele>416.0</ele><time>2026-04-19T11:12:13.234Z</time></trkpt><trkpt lat="43.543287" lon="12.0558278"><ele>417.0</ele><time>2026-04-19T11:12:14.235Z</time></trkpt><trkpt lat="43.5431866" lon="12.055839"><ele>418.0</ele><time>2026-04-19T11:12:15.234Z</time></trkpt><trkpt lat="43.5430912" lon="12.0558014"><ele>418.2</ele><time>2026-04-19T11:12:16.234Z</time></trkpt><trkpt lat="43.5430098" lon="12.055722"><ele>418.4</ele><time>2026-04-19T11:12:17.234Z</time></trkpt><trkpt lat="43.5429531" lon="12.0556027"><ele>418.59999999999997</ele><time>2026-04-19T11:12:18.234Z</time></trkpt><trkpt lat="43.5429123" lon="12.0554578"><ele>418.79999999999995</ele><time>2026-04-19T11:12:19.234Z</time></trkpt><trkpt lat="43.5428719" lon="12.0553023"><ele>419.0</ele><time>2026-04-19T11:12:20.234Z</time></trkpt><trkpt lat="43.5428256" lon="12.0551404"><ele>419.0</ele><time>2026-04-19T11:12:21.235Z</time></trkpt><trkpt lat="43.5427761" lon="12.0549763"><ele>419.0</ele><time>2026-04-19T11:12:22.234Z</time></trkpt><trkpt lat="43.5427291" lon="12.0548123"><ele>419.0</ele><time>2026-04-19T11:12:23.235Z</time></trkpt><trkpt lat="43.5426809" lon="12.0546465"><ele>419.0</ele><time>2026-04-19T11:12:24.234Z</time></trkpt><trkpt lat="43.5426347" lon="12.0544795"><ele>422.25</ele><time>2026-04-19T11:12:25.234Z</time></trkpt><trkpt lat="43.5425865" lon="12.0543128"><ele>425.5</ele><time>2026-04-19T11:12:26.234Z</time></trkpt><trkpt lat="43.5425375" lon="12.054147"><ele>428.75</ele><time>2026-04-19T11:12:27.234Z</time></trkpt><trkpt lat="43.5424847" lon="12.0539835"><ele>432.0</ele><time>2026-04-19T11:12:28.234Z</time></trkpt><trkpt lat="43.5424229" lon="12.0538271"><ele>433.5</ele><time>2026-04-19T11:12:29.234Z</time></trkpt><trkpt lat="43.5423517" lon="12.0536796"><ele>435.0</ele><time>2026-04-19T11:12:30.236Z</time></trkpt><trkpt lat="43.5422668" lon="12.0535439"><ele>436.5</ele><time>2026-04-19T11:12:31.234Z</time></trkpt><trkpt lat="43.5421737" lon="12.0534192"><ele>438.0</ele><time>2026-04-19T11:12:32.236Z</time></trkpt><trkpt lat="43.5420728" lon="12.0533051"><ele>440.5</ele><time>2026-04-19T11:12:33.234Z</time></trkpt><trkpt lat="43.5419607" lon="12.0532077"><ele>443.0</ele><time>2026-04-19T11:12:34.234Z</time></trkpt><trkpt lat="43.541838" lon="12.053138"><ele>445.5</ele><time>2026-04-19T11:12:35.235Z</time></trkpt><trkpt lat="43.5417082" lon="12.0530947"><ele>448.0</ele><time>2026-04-19T11:12:36.234Z</time></trkpt><trkpt lat="43.5415849" lon="12.0530631"><ele>448.0</ele><time>2026-04-19T11:12:37.235Z</time></trkpt><trkpt lat="43.5414667" lon="12.0530222"><ele>448.0</ele><time>2026-04-19T11:12:38.234Z</time></trkpt><trkpt lat="43.5413581" lon="12.0529495"><ele>448.0</ele><time>2026-04-19T11:12:39.234Z</time></trkpt><trkpt lat="43.5412618" lon="12.0528526"><ele>448.0</ele><time>2026-04-19T11:12:40.234Z</time></trkpt><trkpt lat="43.5411808" lon="12.0527458"><ele>447.79999999999995</ele><time>2026-04-19T11:12:41.234Z</time></trkpt><trkpt lat="43.5411124" lon="12.05264"><ele>447.59999999999997</ele><time>2026-04-19T11:12:42.234Z</time></trkpt><trkpt lat="43.5410538" lon="12.0525393"><ele>447.40000000000003</ele><time>2026-04-19T11:12:43.234Z</time></trkpt><trkpt lat="43.5409959" lon="12.0524391"><ele>447.20000000000005</ele><time>2026-04-19T11:12:44.235Z</time></trkpt><trkpt lat="43.5409411" lon="12.0523404"><ele>447.0</ele><time>2026-04-19T11:12:45.233Z</time></trkpt><trkpt lat="43.5408881" lon="12.0522422"><ele>447.0</ele><time>2026-04-19T11:12:46.235Z</time></trkpt><trkpt lat="43.5408363" lon="12.052148"><ele>447.00000000000006</ele><time>2026-04-19T11:12:47.234Z</time></trkpt><trkpt lat="43.5407876" lon="12.0520645"><ele>447.00000000000006</ele><time>2026-04-19T11:12:48.236Z</time></trkpt><trkpt lat="43.5407452" lon="12.0519955"><ele>447.0</ele><time>2026-04-19T11:12:49.236Z</time></trkpt><trkpt lat="43.5406687" lon="12.0518712"><ele>447.0</ele><time>2026-04-19T11:12:51.235Z</time></trkpt><trkpt lat="43.5405982" lon="12.051764"><ele>447.0</ele><time>2026-04-19T11:12:53.235Z</time></trkpt><trkpt lat="43.540534" lon="12.0517129"><ele>447.0</ele><time>2026-04-19T11:12:55.234Z</time></trkpt><trkpt lat="43.5404573" lon="12.0517383"><ele>447.0</ele><time>2026-04-19T11:12:57.235Z</time></trkpt><trkpt lat="43.5403887" lon="12.0517822"><ele>447.0</ele><time>2026-04-19T11:12:59.234Z</time></trkpt><trkpt lat="43.5403283" lon="12.0518667"><ele>447.0</ele><time>2026-04-19T11:14:36.235Z</time></trkpt><trkpt lat="43.54027" lon="12.051915"><ele>447.0</ele><time>2026-04-19T11:14:37.235Z</time></trkpt><trkpt lat="43.5402117" lon="12.0519733"><ele>446.1666666666667</ele><time>2026-04-19T11:14:38.235Z</time></trkpt><trkpt lat="43.5401433" lon="12.0520333"><ele>445.33333333333337</ele><time>2026-04-19T11:14:39.234Z</time></trkpt><trkpt lat="43.5400883" lon="12.0521267"><ele>444.5</ele><time>2026-04-19T11:14:40.235Z</time></trkpt><trkpt lat="43.5400167" lon="12.0522"><ele>443.6666666666667</ele><time>2026-04-19T11:14:41.234Z</time></trkpt><trkpt lat="43.5399533" lon="12.0522733"><ele>442.83333333333337</ele><time>2026-04-19T11:14:42.234Z</time></trkpt><trkpt lat="43.5398883" lon="12.052355"><ele>442.0</ele><time>2026-04-19T11:14:43.234Z</time></trkpt><trkpt lat="43.539815" lon="12.052465"><ele>442.0</ele><time>2026-04-19T11:14:44.236Z</time></trkpt><trkpt lat="43.5397283" lon="12.0526017"><ele>442.0</ele><time>2026-04-19T11:14:45.232Z</time></trkpt><trkpt lat="43.5396367" lon="12.05274"><ele>442.0</ele><time>2026-04-19T11:14:46.233Z</time></trkpt><trkpt lat="43.5395417" lon="12.0528683"><ele>442.0</ele><time>2026-04-19T11:14:47.234Z</time></trkpt><trkpt lat="43.5394433" lon="12.052995"><ele>443.0</ele><time>2026-04-19T11:14:48.233Z</time></trkpt><trkpt lat="43.5393367" lon="12.0531383"><ele>444.0</ele><time>2026-04-19T11:14:49.233Z</time></trkpt><trkpt lat="43.5392333" lon="12.05329"><ele>445.0</ele><time>2026-04-19T11:14:50.234Z</time></trkpt><trkpt lat="43.53914" lon="12.053455"><ele>445.75</ele><time>2026-04-19T11:14:51.233Z</time></trkpt><trkpt lat="43.53905" lon="12.0536117"><ele>446.5</ele><time>2026-04-19T11:14:52.234Z</time></trkpt><trkpt lat="43.538965" lon="12.0537733"><ele>447.25</ele><time>2026-04-19T11:14:53.234Z</time></trkpt><trkpt lat="43.5388817" lon="12.0539167"><ele>448.0</ele><time>2026-04-19T11:14:54.233Z</time></trkpt><trkpt lat="43.5387967" lon="12.05404"><ele>448.5</ele><time>2026-04-19T11:14:55.232Z</time></trkpt><trkpt lat="43.5387067" lon="12.0541667"><ele>449.0</ele><time>2026-04-19T11:14:56.233Z</time></trkpt><trkpt lat="43.5386183" lon="12.0542933"><ele>449.5</ele><time>2026-04-19T11:14:57.234Z</time></trkpt><trkpt lat="43.5385317" lon="12.0544183"><ele>450.0</ele><time>2026-04-19T11:14:58.233Z</time></trkpt><trkpt lat="43.53845" lon="12.0545383"><ele>450.0</ele><time>2026-04-19T11:14:59.234Z</time></trkpt><trkpt lat="43.5383683" lon="12.0546567"><ele>450.0</ele><time>2026-04-19T11:15:00.233Z</time></trkpt><trkpt lat="43.5382883" lon="12.0547733"><ele>450.0</ele><time>2026-04-19T11:15:01.233Z</time></trkpt><trkpt lat="43.5382033" lon="12.0548933"><ele>450.0</ele><time>2026-04-19T11:15:02.233Z</time></trkpt><trkpt lat="43.5381183" lon="12.0550133"><ele>448.75</ele><time>2026-04-19T11:15:03.233Z</time></trkpt><trkpt lat="43.538035" lon="12.0551333"><ele>447.5</ele><time>2026-04-19T11:15:04.232Z</time></trkpt><trkpt lat="43.537945" lon="12.0552567"><ele>446.25</ele><time>2026-04-19T11:15:05.233Z</time></trkpt><trkpt lat="43.53785" lon="12.0553867"><ele>445.0</ele><time>2026-04-19T11:15:06.233Z</time></trkpt><trkpt lat="43.5377483" lon="12.0555167"><ele>445.0</ele><time>2026-04-19T11:15:07.233Z</time></trkpt><trkpt lat="43.5376417" lon="12.055645"><ele>445.0</ele><time>2026-04-19T11:15:08.234Z</time></trkpt><trkpt lat="43.53753" lon="12.0557717"><ele>445.0</ele><time>2026-04-19T11:15:09.232Z</time></trkpt><trkpt lat="43.537425" lon="12.0559017"><ele>445.0</ele><time>2026-04-19T11:15:10.233Z</time></trkpt><trkpt lat="43.537315" lon="12.0560233"><ele>445.0</ele><time>2026-04-19T11:15:11.233Z</time></trkpt><trkpt lat="43.5371917" lon="12.0561217"><ele>445.0</ele><time>2026-04-19T11:15:12.233Z</time></trkpt><trkpt lat="43.5370567" lon="12.0561817"><ele>445.0</ele><time>2026-04-19T11:15:13.233Z</time></trkpt><trkpt lat="43.536915" lon="12.0562117"><ele>445.0</ele><time>2026-04-19T11:15:14.233Z</time></trkpt><trkpt lat="43.53677" lon="12.0562217"><ele>444.33333333333337</ele><time>2026-04-19T11:15:15.232Z</time></trkpt><trkpt lat="43.5366267" lon="12.0561967"><ele>443.66666666666663</ele><time>2026-04-19T11:15:16.235Z</time></trkpt><trkpt lat="43.536475" lon="12.056135"><ele>443.0</ele><time>2026-04-19T11:15:17.232Z</time></trkpt><trkpt lat="43.536325" lon="12.0560767"><ele>442.25</ele><time>2026-04-19T11:15:18.233Z</time></trkpt><trkpt lat="43.53618" lon="12.05603"><ele>441.5</ele><time>2026-04-19T11:15:19.233Z</time></trkpt><trkpt lat="43.5360483" lon="12.0559867"><ele>440.75</ele><time>2026-04-19T11:15:20.233Z</time></trkpt><trkpt lat="43.5359217" lon="12.0559467"><ele>440.0</ele><time>2026-04-19T11:15:21.233Z</time></trkpt><trkpt lat="43.5357933" lon="12.0559067"><ele>440.0</ele><time>2026-04-19T11:15:22.233Z</time></trkpt><trkpt lat="43.53566" lon="12.0558783"><ele>440.0</ele><time>2026-04-19T11:15:23.234Z</time></trkpt><trkpt lat="43.5355117" lon="12.0558883"><ele>440.0</ele><time>2026-04-19T11:15:24.233Z</time></trkpt><trkpt lat="43.5353567" lon="12.0559117"><ele>440.0</ele><time>2026-04-19T11:15:25.234Z</time></trkpt><trkpt lat="43.535195" lon="12.0559567"><ele>438.3333333333333</ele><time>2026-04-19T11:15:26.233Z</time></trkpt><trkpt lat="43.53503" lon="12.056015"><ele>436.66666666666663</ele><time>2026-04-19T11:15:27.234Z</time></trkpt><trkpt lat="43.5348633" lon="12.0560733"><ele>435.0</ele><time>2026-04-19T11:15:28.234Z</time></trkpt><trkpt lat="43.5346983" lon="12.0561317"><ele>431.66666666666663</ele><time>2026-04-19T11:15:29.234Z</time></trkpt><trkpt lat="43.5345383" lon="12.0561917"><ele>428.3333333333333</ele><time>2026-04-19T11:15:30.233Z</time></trkpt><trkpt lat="43.5343733" lon="12.0562483"><ele>425.0</ele><time>2026-04-19T11:15:31.233Z</time></trkpt><trkpt lat="43.5342067" lon="12.056305"><ele>425.0</ele><time>2026-04-19T11:15:32.234Z</time></trkpt><trkpt lat="43.5340417" lon="12.056365"><ele>425.0</ele><time>2026-04-19T11:15:33.233Z</time></trkpt><trkpt lat="43.53388" lon="12.0564217"><ele>425.0</ele><time>2026-04-19T11:15:34.234Z</time></trkpt><trkpt lat="43.5337233" lon="12.0564783"><ele>424.3333333333333</ele><time>2026-04-19T11:15:35.233Z</time></trkpt><trkpt lat="43.53357" lon="12.056535"><ele>423.66666666666663</ele><time>2026-04-19T11:15:36.234Z</time></trkpt><trkpt lat="43.533415" lon="12.0565983"><ele>423.0</ele><time>2026-04-19T11:15:37.233Z</time></trkpt><trkpt lat="43.5332533" lon="12.0566517"><ele>422.0</ele><time>2026-04-19T11:15:38.234Z</time></trkpt><trkpt lat="43.5330933" lon="12.0567033"><ele>421.0</ele><time>2026-04-19T11:15:39.233Z</time></trkpt><trkpt lat="43.53293" lon="12.0567717"><ele>420.0</ele><time>2026-04-19T11:15:40.233Z</time></trkpt><trkpt lat="43.53277" lon="12.0568517"><ele>420.0</ele><time>2026-04-19T11:15:41.232Z</time></trkpt><trkpt lat="43.53262" lon="12.056945"><ele>420.0</ele><time>2026-04-19T11:15:42.233Z</time></trkpt><trkpt lat="43.5324867" lon="12.0570417"><ele>420.0</ele><time>2026-04-19T11:15:43.234Z</time></trkpt><trkpt lat="43.532365" lon="12.0571483"><ele>420.0</ele><time>2026-04-19T11:15:44.233Z</time></trkpt><trkpt lat="43.53225" lon="12.05726"><ele>420.0</ele><time>2026-04-19T11:15:45.233Z</time></trkpt><trkpt lat="43.5321367" lon="12.057385"><ele>420.0</ele><time>2026-04-19T11:15:46.332Z</time></trkpt><trkpt lat="43.5320267" lon="12.05752"><ele>420.0</ele><time>2026-04-19T11:15:47.234Z</time></trkpt><trkpt lat="43.5319167" lon="12.0576617"><ele>418.66666666666663</ele><time>2026-04-19T11:15:48.233Z</time></trkpt><trkpt lat="43.531815" lon="12.0578117"><ele>417.3333333333333</ele><time>2026-04-19T11:15:49.235Z</time></trkpt><trkpt lat="43.5317133" lon="12.05797"><ele>416.0</ele><time>2026-04-19T11:15:50.235Z</time></trkpt><trkpt lat="43.5316117" lon="12.0581283"><ele>416.0</ele><time>2026-04-19T11:15:51.233Z</time></trkpt><trkpt lat="43.53151" lon="12.0582917"><ele>416.0</ele><time>2026-04-19T11:15:52.233Z</time></trkpt><trkpt lat="43.53141" lon="12.0584583"><ele>416.0</ele><time>2026-04-19T11:15:53.234Z</time></trkpt><trkpt lat="43.5313067" lon="12.05863"><ele>413.5</ele><time>2026-04-19T11:15:54.234Z</time></trkpt><trkpt lat="43.53121" lon="12.0587933"><ele>411.0</ele><time>2026-04-19T11:15:55.234Z</time></trkpt><trkpt lat="43.5311167" lon="12.0589267"><ele>408.5</ele><time>2026-04-19T11:15:56.234Z</time></trkpt><trkpt lat="43.5310233" lon="12.0590567"><ele>406.0</ele><time>2026-04-19T11:15:57.234Z</time></trkpt><trkpt lat="43.53093" lon="12.059175"><ele>406.0</ele><time>2026-04-19T11:15:58.234Z</time></trkpt><trkpt lat="43.5308467" lon="12.059295"><ele>406.0</ele><time>2026-04-19T11:15:59.234Z</time></trkpt><trkpt lat="43.53076" lon="12.05939"><ele>406.0</ele><time>2026-04-19T11:16:00.234Z</time></trkpt><trkpt lat="43.5306633" lon="12.0594633"><ele>406.0</ele><time>2026-04-19T11:16:01.234Z</time></trkpt><trkpt lat="43.530565" lon="12.0595167"><ele>406.0</ele><time>2026-04-19T11:16:02.233Z</time></trkpt><trkpt lat="43.53046" lon="12.0595067"><ele>404.5</ele><time>2026-04-19T11:16:03.234Z</time></trkpt><trkpt lat="43.5303483" lon="12.0594267"><ele>403.0</ele><time>2026-04-19T11:16:04.234Z</time></trkpt><trkpt lat="43.5302317" lon="12.0593183"><ele>401.5</ele><time>2026-04-19T11:16:05.234Z</time></trkpt><trkpt lat="43.5301017" lon="12.0592033"><ele>400.0</ele><time>2026-04-19T11:16:06.233Z</time></trkpt><trkpt lat="43.5299667" lon="12.059085"><ele>398.33333333333337</ele><time>2026-04-19T11:16:07.233Z</time></trkpt><trkpt lat="43.5298317" lon="12.05898"><ele>396.66666666666663</ele><time>2026-04-19T11:16:08.233Z</time></trkpt><trkpt lat="43.5296833" lon="12.0589083"><ele>395.0</ele><time>2026-04-19T11:16:09.232Z</time></trkpt><trkpt lat="43.5295233" lon="12.0588633"><ele>393.0</ele><time>2026-04-19T11:16:10.233Z</time></trkpt><trkpt lat="43.529355" lon="12.0588267"><ele>391.0</ele><time>2026-04-19T11:16:11.233Z</time></trkpt><trkpt lat="43.52919" lon="12.0587933"><ele>389.0</ele><time>2026-04-19T11:16:12.233Z</time></trkpt><trkpt lat="43.529025" lon="12.05876"><ele>389.0</ele><time>2026-04-19T11:16:13.234Z</time></trkpt><trkpt lat="43.52887" lon="12.058725"><ele>389.0</ele><time>2026-04-19T11:16:14.234Z</time></trkpt><trkpt lat="43.5287117" lon="12.0586917"><ele>389.0</ele><time>2026-04-19T11:16:15.234Z</time></trkpt><trkpt lat="43.5285567" lon="12.05866"><ele>388.66666666666663</ele><time>2026-04-19T11:16:16.232Z</time></trkpt><trkpt lat="43.5284017" lon="12.0586217"><ele>388.33333333333337</ele><time>2026-04-19T11:16:17.233Z</time></trkpt><trkpt lat="43.5282467" lon="12.0585867"><ele>388.0</ele><time>2026-04-19T11:16:18.233Z</time></trkpt><trkpt lat="43.5280883" lon="12.058565"><ele>388.0</ele><time>2026-04-19T11:16:19.234Z</time></trkpt><trkpt lat="43.5279267" lon="12.058545"><ele>388.0</ele><time>2026-04-19T11:16:20.234Z</time></trkpt><trkpt lat="43.527765" lon="12.0585217"><ele>388.0</ele><time>2026-04-19T11:16:21.233Z</time></trkpt><trkpt lat="43.5276033" lon="12.058495"><ele>386.33333333333337</ele><time>2026-04-19T11:16:22.234Z</time></trkpt><trkpt lat="43.5274467" lon="12.058465"><ele>384.6666666666667</ele><time>2026-04-19T11:16:23.235Z</time></trkpt><trkpt lat="43.5272917" lon="12.05844"><ele>383.0</ele><time>2026-04-19T11:16:24.233Z</time></trkpt><trkpt lat="43.52714" lon="12.0584183"><ele>381.6666666666667</ele><time>2026-04-19T11:16:25.233Z</time></trkpt><trkpt lat="43.52699" lon="12.0583983"><ele>380.3333333333333</ele><time>2026-04-19T11:16:26.234Z</time></trkpt><trkpt lat="43.52684" lon="12.0583833"><ele>379.0</ele><time>2026-04-19T11:16:27.233Z</time></trkpt><trkpt lat="43.52669" lon="12.0583817"><ele>379.0</ele><time>2026-04-19T11:16:28.233Z</time></trkpt><trkpt lat="43.5265383" lon="12.058395"><ele>379.0</ele><time>2026-04-19T11:16:29.235Z</time></trkpt><trkpt lat="43.52638" lon="12.0584233"><ele>379.0</ele><time>2026-04-19T11:16:30.233Z</time></trkpt><trkpt lat="43.5262217" lon="12.0584717"><ele>376.66666666666663</ele><time>2026-04-19T11:16:31.233Z</time></trkpt><trkpt lat="43.5260667" lon="12.0585233"><ele>374.3333333333333</ele><time>2026-04-19T11:16:32.234Z</time></trkpt><trkpt lat="43.52592" lon="12.0585683"><ele>372.0</ele><time>2026-04-19T11:16:33.234Z</time></trkpt><trkpt lat="43.525775" lon="12.0586017"><ele>372.0</ele><time>2026-04-19T11:16:34.232Z</time></trkpt><trkpt lat="43.5256333" lon="12.058625"><ele>372.0</ele><time>2026-04-19T11:16:35.234Z</time></trkpt><trkpt lat="43.5254983" lon="12.05862"><ele>372.0</ele><time>2026-04-19T11:16:36.234Z</time></trkpt><trkpt lat="43.525365" lon="12.058585"><ele>372.0</ele><time>2026-04-19T11:16:37.234Z</time></trkpt><trkpt lat="43.5252267" lon="12.0585117"><ele>369.5</ele><time>2026-04-19T11:16:38.234Z</time></trkpt><trkpt lat="43.5250883" lon="12.0584233"><ele>367.0</ele><time>2026-04-19T11:16:39.234Z</time></trkpt><trkpt lat="43.5249617" lon="12.0583383"><ele>364.5</ele><time>2026-04-19T11:16:40.232Z</time></trkpt><trkpt lat="43.5248433" lon="12.0582567"><ele>362.0</ele><time>2026-04-19T11:16:41.234Z</time></trkpt><trkpt lat="43.5247333" lon="12.058175"><ele>361.8</ele><time>2026-04-19T11:16:42.233Z</time></trkpt><trkpt lat="43.5246333" lon="12.0580933"><ele>361.6</ele><time>2026-04-19T11:16:43.234Z</time></trkpt><trkpt lat="43.5245433" lon="12.05802"><ele>361.40000000000003</ele><time>2026-04-19T11:16:44.233Z</time></trkpt><trkpt lat="43.5244583" lon="12.057965"><ele>361.20000000000005</ele><time>2026-04-19T11:16:45.234Z</time></trkpt><trkpt lat="43.5243767" lon="12.0579217"><ele>361.0</ele><time>2026-04-19T11:16:46.233Z</time></trkpt><trkpt lat="43.52429" lon="12.0578983"><ele>358.8</ele><time>2026-04-19T11:16:47.234Z</time></trkpt><trkpt lat="43.5242133" lon="12.0579283"><ele>356.6</ele><time>2026-04-19T11:16:48.234Z</time></trkpt><trkpt lat="43.5241517" lon="12.0579933"><ele>354.4</ele><time>2026-04-19T11:16:49.234Z</time></trkpt><trkpt lat="43.5241367" lon="12.058115"><ele>352.2</ele><time>2026-04-19T11:16:50.235Z</time></trkpt><trkpt lat="43.5241483" lon="12.058255"><ele>350.0</ele><time>2026-04-19T11:16:51.233Z</time></trkpt><trkpt lat="43.5241933" lon="12.05839"><ele>349.5</ele><time>2026-04-19T11:16:52.233Z</time></trkpt><trkpt lat="43.5242417" lon="12.05852"><ele>349.0</ele><time>2026-04-19T11:16:53.233Z</time></trkpt><trkpt lat="43.5242767" lon="12.0586367"><ele>348.5</ele><time>2026-04-19T11:16:54.233Z</time></trkpt><trkpt lat="43.524275" lon="12.0587417"><ele>348.0</ele><time>2026-04-19T11:16:55.234Z</time></trkpt><trkpt lat="43.5242217" lon="12.0588183"><ele>347.5</ele><time>2026-04-19T11:16:56.234Z</time></trkpt><trkpt lat="43.5241283" lon="12.0588433"><ele>347.0</ele><time>2026-04-19T11:16:57.234Z</time></trkpt><trkpt lat="43.5240083" lon="12.05881"><ele>347.0</ele><time>2026-04-19T11:16:58.233Z</time></trkpt><trkpt lat="43.523875" lon="12.05875"><ele>347.0</ele><time>2026-04-19T11:16:59.234Z</time></trkpt><trkpt lat="43.5237317" lon="12.0586767"><ele>347.0</ele><time>2026-04-19T11:17:00.234Z</time></trkpt><trkpt lat="43.5235767" lon="12.058605"><ele>343.0</ele><time>2026-04-19T11:17:01.234Z</time></trkpt><trkpt lat="43.5234233" lon="12.0585283"><ele>339.0</ele><time>2026-04-19T11:17:02.234Z</time></trkpt><trkpt lat="43.5232667" lon="12.0584567"><ele>335.0</ele><time>2026-04-19T11:17:03.235Z</time></trkpt><trkpt lat="43.5231117" lon="12.0583883"><ele>335.0</ele><time>2026-04-19T11:17:04.234Z</time></trkpt><trkpt lat="43.52296" lon="12.058325"><ele>335.0</ele><time>2026-04-19T11:17:05.234Z</time></trkpt><trkpt lat="43.52281" lon="12.0582667"><ele>335.0</ele><time>2026-04-19T11:17:06.235Z</time></trkpt><trkpt lat="43.52266" lon="12.0582167"><ele>334.0</ele><time>2026-04-19T11:17:07.234Z</time></trkpt><trkpt lat="43.5225083" lon="12.058175"><ele>333.0</ele><time>2026-04-19T11:17:08.235Z</time></trkpt><trkpt lat="43.5223567" lon="12.0581417"><ele>332.0</ele><time>2026-04-19T11:17:09.234Z</time></trkpt><trkpt lat="43.5222017" lon="12.0581133"><ele>329.0</ele><time>2026-04-19T11:17:10.235Z</time></trkpt><trkpt lat="43.5220467" lon="12.0580867"><ele>326.0</ele><time>2026-04-19T11:17:11.234Z</time></trkpt><trkpt lat="43.52189" lon="12.0580583"><ele>323.0</ele><time>2026-04-19T11:17:12.234Z</time></trkpt><trkpt lat="43.5217333" lon="12.05803"><ele>323.0</ele><time>2026-04-19T11:17:13.234Z</time></trkpt><trkpt lat="43.521575" lon="12.058"><ele>323.0</ele><time>2026-04-19T11:17:14.234Z</time></trkpt><trkpt lat="43.521415" lon="12.0579717"><ele>323.0</ele><time>2026-04-19T11:17:15.233Z</time></trkpt><trkpt lat="43.521255" lon="12.0579433"><ele>321.6666666666667</ele><time>2026-04-19T11:17:16.234Z</time></trkpt><trkpt lat="43.5210983" lon="12.0579183"><ele>320.3333333333333</ele><time>2026-04-19T11:17:17.234Z</time></trkpt><trkpt lat="43.5209417" lon="12.0578933"><ele>319.0</ele><time>2026-04-19T11:17:18.235Z</time></trkpt><trkpt lat="43.5207867" lon="12.0578567"><ele>319.0</ele><time>2026-04-19T11:17:19.233Z</time></trkpt><trkpt lat="43.52063" lon="12.0578033"><ele>319.0</ele><time>2026-04-19T11:17:20.234Z</time></trkpt><trkpt lat="43.52047" lon="12.0577417"><ele>319.0</ele><time>2026-04-19T11:17:21.234Z</time></trkpt><trkpt lat="43.5203067" lon="12.05768"><ele>319.0</ele><time>2026-04-19T11:17:22.234Z</time></trkpt><trkpt lat="43.5201433" lon="12.0576183"><ele>319.0</ele><time>2026-04-19T11:17:23.235Z</time></trkpt><trkpt lat="43.5199833" lon="12.057555"><ele>319.0</ele><time>2026-04-19T11:17:24.234Z</time></trkpt><trkpt lat="43.5198283" lon="12.057495"><ele>318.75</ele><time>2026-04-19T11:17:25.247Z</time></trkpt><trkpt lat="43.5196833" lon="12.05744"><ele>318.5</ele><time>2026-04-19T11:17:26.233Z</time></trkpt><trkpt lat="43.5195433" lon="12.0573883"><ele>318.25</ele><time>2026-04-19T11:17:27.234Z</time></trkpt><trkpt lat="43.51941" lon="12.0573383"><ele>318.0</ele><time>2026-04-19T11:17:28.233Z</time></trkpt><trkpt lat="43.51928" lon="12.057295"><ele>318.25</ele><time>2026-04-19T11:17:29.235Z</time></trkpt><trkpt lat="43.51915" lon="12.057275"><ele>318.5</ele><time>2026-04-19T11:17:30.234Z</time></trkpt><trkpt lat="43.5190167" lon="12.0572933"><ele>318.75</ele><time>2026-04-19T11:17:31.235Z</time></trkpt><trkpt lat="43.5188883" lon="12.0573467"><ele>319.0</ele><time>2026-04-19T11:17:32.235Z</time></trkpt><trkpt lat="43.5187833" lon="12.0574617"><ele>319.5</ele><time>2026-04-19T11:17:33.235Z</time></trkpt><trkpt lat="43.5187017" lon="12.0576167"><ele>320.0</ele><time>2026-04-19T11:17:34.234Z</time></trkpt><trkpt lat="43.5186283" lon="12.0577883"><ele>320.5</ele><time>2026-04-19T11:17:35.234Z</time></trkpt><trkpt lat="43.5185517" lon="12.057965"><ele>321.0</ele><time>2026-04-19T11:17:36.232Z</time></trkpt><trkpt lat="43.5184733" lon="12.05814"><ele>320.25</ele><time>2026-04-19T11:17:37.233Z</time></trkpt><trkpt lat="43.518405" lon="12.0583333"><ele>319.5</ele><time>2026-04-19T11:17:38.233Z</time></trkpt><trkpt lat="43.518335" lon="12.058515"><ele>318.75</ele><time>2026-04-19T11:17:39.233Z</time></trkpt><trkpt lat="43.518265" lon="12.058685"><ele>318.0</ele><time>2026-04-19T11:17:40.233Z</time></trkpt><trkpt lat="43.5182" lon="12.05885"><ele>318.0</ele><time>2026-04-19T11:17:41.235Z</time></trkpt><trkpt lat="43.5181383" lon="12.0590067"><ele>318.0</ele><time>2026-04-19T11:17:42.233Z</time></trkpt><trkpt lat="43.5180833" lon="12.05915"><ele>318.0</ele><time>2026-04-19T11:17:43.234Z</time></trkpt><trkpt lat="43.5180317" lon="12.0592817"><ele>318.0</ele><time>2026-04-19T11:17:44.234Z</time></trkpt><trkpt lat="43.5179783" lon="12.05938"><ele>318.0</ele><time>2026-04-19T11:17:45.233Z</time></trkpt><trkpt lat="43.51792" lon="12.0594417"><ele>318.1666666666667</ele><time>2026-04-19T11:17:46.233Z</time></trkpt><trkpt lat="43.5178533" lon="12.059445"><ele>318.3333333333333</ele><time>2026-04-19T11:17:47.235Z</time></trkpt><trkpt lat="43.517785" lon="12.0594083"><ele>318.5</ele><time>2026-04-19T11:17:48.235Z</time></trkpt><trkpt lat="43.5177133" lon="12.059355"><ele>318.66666666666663</ele><time>2026-04-19T11:17:49.234Z</time></trkpt><trkpt lat="43.5176367" lon="12.0592967"><ele>318.8333333333333</ele><time>2026-04-19T11:17:50.235Z</time></trkpt><trkpt lat="43.517555" lon="12.059235"><ele>319.0</ele><time>2026-04-19T11:17:51.236Z</time></trkpt><trkpt lat="43.517465" lon="12.0591633"><ele>318.5</ele><time>2026-04-19T11:17:52.234Z</time></trkpt><trkpt lat="43.5173683" lon="12.059075"><ele>318.0</ele><time>2026-04-19T11:17:53.234Z</time></trkpt><trkpt lat="43.5172533" lon="12.0589983"><ele>317.5</ele><time>2026-04-19T11:17:54.234Z</time></trkpt><trkpt lat="43.5171267" lon="12.0589167"><ele>317.0</ele><time>2026-04-19T11:17:55.235Z</time></trkpt><trkpt lat="43.5169967" lon="12.0588283"><ele>316.6666666666667</ele><time>2026-04-19T11:17:56.235Z</time></trkpt><trkpt lat="43.51686" lon="12.0587383"><ele>316.3333333333333</ele><time>2026-04-19T11:17:57.235Z</time></trkpt><trkpt lat="43.5167217" lon="12.0586433"><ele>316.0</ele><time>2026-04-19T11:17:58.235Z</time></trkpt><trkpt lat="43.5165817" lon="12.0585483"><ele>316.0</ele><time>2026-04-19T11:17:59.235Z</time></trkpt><trkpt lat="43.5164417" lon="12.05846"><ele>316.0</ele><time>2026-04-19T11:18:00.235Z</time></trkpt><trkpt lat="43.5163133" lon="12.0583783"><ele>316.0</ele><time>2026-04-19T11:18:01.235Z</time></trkpt><trkpt lat="43.516195" lon="12.0583"><ele>316.0</ele><time>2026-04-19T11:18:02.235Z</time></trkpt><trkpt lat="43.5160833" lon="12.0582183"><ele>316.0</ele><time>2026-04-19T11:18:03.236Z</time></trkpt><trkpt lat="43.5159717" lon="12.05815"><ele>316.0</ele><time>2026-04-19T11:18:04.234Z</time></trkpt><trkpt lat="43.5158633" lon="12.0581233"><ele>316.0</ele><time>2026-04-19T11:18:05.235Z</time></trkpt><trkpt lat="43.5157583" lon="12.058145"><ele>316.0</ele><time>2026-04-19T11:18:06.235Z</time></trkpt><trkpt lat="43.51567" lon="12.058205"><ele>316.0</ele><time>2026-04-19T11:18:07.235Z</time></trkpt><trkpt lat="43.5156033" lon="12.058285"><ele>316.0</ele><time>2026-04-19T11:18:08.233Z</time></trkpt><trkpt lat="43.5155517" lon="12.0583617"><ele>316.0</ele><time>2026-04-19T11:18:09.234Z</time></trkpt><trkpt lat="43.51545" lon="12.0584133"><ele>316.0</ele><time>2026-04-19T11:18:11.233Z</time></trkpt><trkpt lat="43.5153283" lon="12.0583717"><ele>316.0</ele><time>2026-04-19T11:18:13.235Z</time></trkpt><trkpt lat="43.5152517" lon="12.0583983"><ele>316.0</ele><time>2026-04-19T11:18:14.234Z</time></trkpt><trkpt lat="43.51518" lon="12.05845"><ele>318.0</ele><time>2026-04-19T11:18:15.233Z</time></trkpt><trkpt lat="43.5150833" lon="12.058495"><ele>320.0</ele><time>2026-04-19T11:18:16.233Z</time></trkpt><trkpt lat="43.5149983" lon="12.05854"><ele>322.0</ele><time>2026-04-19T11:18:17.234Z</time></trkpt><trkpt lat="43.5149117" lon="12.0586033"><ele>324.0</ele><time>2026-04-19T11:18:18.233Z</time></trkpt><trkpt lat="43.5148233" lon="12.0586783"><ele>326.0</ele><time>2026-04-19T11:18:19.233Z</time></trkpt><trkpt lat="43.514725" lon="12.0587333"><ele>326.0</ele><time>2026-04-19T11:18:20.235Z</time></trkpt><trkpt lat="43.5146133" lon="12.05876"><ele>326.0</ele><time>2026-04-19T11:18:21.233Z</time></trkpt><trkpt lat="43.5144883" lon="12.0587517"><ele>326.0</ele><time>2026-04-19T11:18:22.233Z</time></trkpt><trkpt lat="43.514365" lon="12.0587317"><ele>326.0</ele><time>2026-04-19T11:18:23.233Z</time></trkpt><trkpt lat="43.5142433" lon="12.0587"><ele>328.75</ele><time>2026-04-19T11:18:24.234Z</time></trkpt><trkpt lat="43.51412" lon="12.0586367"><ele>331.5</ele><time>2026-04-19T11:18:25.233Z</time></trkpt><trkpt lat="43.5139983" lon="12.0585417"><ele>334.25</ele><time>2026-04-19T11:18:26.235Z</time></trkpt><trkpt lat="43.5138883" lon="12.0584433"><ele>337.0</ele><time>2026-04-19T11:18:27.233Z</time></trkpt><trkpt lat="43.51379" lon="12.0583633"><ele>339.20000000000005</ele><time>2026-04-19T11:18:28.235Z</time></trkpt><trkpt lat="43.5137017" lon="12.05831"><ele>341.4</ele><time>2026-04-19T11:18:29.233Z</time></trkpt><trkpt lat="43.51362" lon="12.0582717"><ele>343.6</ele><time>2026-04-19T11:18:30.234Z</time></trkpt><trkpt lat="43.5135333" lon="12.0582417"><ele>345.79999999999995</ele><time>2026-04-19T11:18:31.234Z</time></trkpt><trkpt lat="43.51345" lon="12.05822"><ele>348.0</ele><time>2026-04-19T11:18:32.234Z</time></trkpt><trkpt lat="43.513355" lon="12.0581967"><ele>348.0</ele><time>2026-04-19T11:18:33.234Z</time></trkpt><trkpt lat="43.513265" lon="12.058175"><ele>348.0</ele><time>2026-04-19T11:18:34.234Z</time></trkpt><trkpt lat="43.51317" lon="12.0581267"><ele>348.0</ele><time>2026-04-19T11:18:35.233Z</time></trkpt><trkpt lat="43.5130917" lon="12.058035"><ele>348.0</ele><time>2026-04-19T11:18:36.233Z</time></trkpt><trkpt lat="43.5130183" lon="12.0579167"><ele>348.0</ele><time>2026-04-19T11:18:37.234Z</time></trkpt><trkpt lat="43.512945" lon="12.0577767"><ele>350.0</ele><time>2026-04-19T11:18:38.233Z</time></trkpt><trkpt lat="43.5128633" lon="12.05763"><ele>352.0</ele><time>2026-04-19T11:18:39.233Z</time></trkpt><trkpt lat="43.5127967" lon="12.0574817"><ele>354.0</ele><time>2026-04-19T11:18:40.233Z</time></trkpt><trkpt lat="43.5127567" lon="12.05735"><ele>356.0</ele><time>2026-04-19T11:18:41.234Z</time></trkpt><trkpt lat="43.51272" lon="12.0572367"><ele>356.6</ele><time>2026-04-19T11:18:42.234Z</time></trkpt><trkpt lat="43.51269" lon="12.0571333"><ele>357.20000000000005</ele><time>2026-04-19T11:18:43.233Z</time></trkpt><trkpt lat="43.512655" lon="12.05702"><ele>357.79999999999995</ele><time>2026-04-19T11:18:44.234Z</time></trkpt><trkpt lat="43.512615" lon="12.0569017"><ele>358.4</ele><time>2026-04-19T11:18:45.234Z</time></trkpt><trkpt lat="43.5125683" lon="12.0567883"><ele>359.0</ele><time>2026-04-19T11:18:46.233Z</time></trkpt><trkpt lat="43.5125133" lon="12.0566783"><ele>359.2</ele><time>2026-04-19T11:18:47.234Z</time></trkpt><trkpt lat="43.51245" lon="12.05657"><ele>359.4</ele><time>2026-04-19T11:18:48.233Z</time></trkpt><trkpt lat="43.5123867" lon="12.056465"><ele>359.6</ele><time>2026-04-19T11:18:49.233Z</time></trkpt><trkpt lat="43.5123167" lon="12.0563717"><ele>359.8</ele><time>2026-04-19T11:18:50.235Z</time></trkpt><trkpt lat="43.5122567" lon="12.0562667"><ele>360.0</ele><time>2026-04-19T11:18:51.235Z</time></trkpt><trkpt lat="43.5122083" lon="12.0561533"><ele>360.0</ele><time>2026-04-19T11:18:52.233Z</time></trkpt><trkpt lat="43.51217" lon="12.0560467"><ele>360.0</ele><time>2026-04-19T11:18:53.234Z</time></trkpt><trkpt lat="43.51214" lon="12.05595"><ele>360.0</ele><time>2026-04-19T11:18:54.234Z</time></trkpt><trkpt lat="43.5121167" lon="12.0558633"><ele>360.0</ele><time>2026-04-19T11:18:55.233Z</time></trkpt><trkpt lat="43.5120983" lon="12.0557767"><ele>360.0</ele><time>2026-04-19T11:18:56.234Z</time></trkpt><trkpt lat="43.5120817" lon="12.0556867"><ele>360.0</ele><time>2026-04-19T11:18:57.233Z</time></trkpt><trkpt lat="43.5120633" lon="12.0555967"><ele>360.0</ele><time>2026-04-19T11:18:58.233Z</time></trkpt><trkpt lat="43.5120417" lon="12.0555033"><ele>361.8333333333333</ele><time>2026-04-19T11:18:59.233Z</time></trkpt><trkpt lat="43.5120183" lon="12.0554017"><ele>363.6666666666667</ele><time>2026-04-19T11:19:00.233Z</time></trkpt><trkpt lat="43.512" lon="12.05529"><ele>365.5</ele><time>2026-04-19T11:19:01.234Z</time></trkpt><trkpt lat="43.511985" lon="12.0551733"><ele>367.33333333333337</ele><time>2026-04-19T11:19:02.235Z</time></trkpt><trkpt lat="43.5119683" lon="12.0550533"><ele>369.1666666666667</ele><time>2026-04-19T11:19:03.233Z</time></trkpt><trkpt lat="43.5119533" lon="12.0549317"><ele>371.0</ele><time>2026-04-19T11:19:04.233Z</time></trkpt><trkpt lat="43.5119433" lon="12.0548117"><ele>372.1666666666667</ele><time>2026-04-19T11:19:05.233Z</time></trkpt><trkpt lat="43.51194" lon="12.0546933"><ele>373.33333333333337</ele><time>2026-04-19T11:19:06.235Z</time></trkpt><trkpt lat="43.5119333" lon="12.0545767"><ele>374.5</ele><time>2026-04-19T11:19:07.235Z</time></trkpt><trkpt lat="43.5119233" lon="12.054465"><ele>375.6666666666667</ele><time>2026-04-19T11:19:08.234Z</time></trkpt><trkpt lat="43.511905" lon="12.0543467"><ele>376.8333333333333</ele><time>2026-04-19T11:19:09.234Z</time></trkpt><trkpt lat="43.51188" lon="12.0542317"><ele>378.0</ele><time>2026-04-19T11:19:10.234Z</time></trkpt><trkpt lat="43.511855" lon="12.0541117"><ele>379.4</ele><time>2026-04-19T11:19:11.233Z</time></trkpt><trkpt lat="43.5118345" lon="12.0539941"><ele>380.79999999999995</ele><time>2026-04-19T11:19:12.233Z</time></trkpt><trkpt lat="43.5118118" lon="12.0538748"><ele>382.2</ele><time>2026-04-19T11:19:13.234Z</time></trkpt><trkpt lat="43.5117884" lon="12.0537558"><ele>383.6</ele><time>2026-04-19T11:19:14.234Z</time></trkpt><trkpt lat="43.5117574" lon="12.053635"><ele>385.0</ele><time>2026-04-19T11:19:15.234Z</time></trkpt><trkpt lat="43.5117353" lon="12.053514"><ele>385.00000000000006</ele><time>2026-04-19T11:19:16.233Z</time></trkpt><trkpt lat="43.5117176" lon="12.053393"><ele>385.0</ele><time>2026-04-19T11:19:17.234Z</time></trkpt><trkpt lat="43.5116895" lon="12.0532716"><ele>385.0</ele><time>2026-04-19T11:19:18.234Z</time></trkpt><trkpt lat="43.5116475" lon="12.0531619"><ele>385.0</ele><time>2026-04-19T11:19:19.233Z</time></trkpt><trkpt lat="43.5115974" lon="12.0530714"><ele>385.00000000000006</ele><time>2026-04-19T11:19:20.234Z</time></trkpt><trkpt lat="43.5115403" lon="12.0529934"><ele>385.0</ele><time>2026-04-19T11:19:21.233Z</time></trkpt><trkpt lat="43.5114845" lon="12.0529196"><ele>385.0</ele><time>2026-04-19T11:19:22.234Z</time></trkpt><trkpt lat="43.5114282" lon="12.0528334"><ele>385.0</ele><time>2026-04-19T11:19:23.234Z</time></trkpt><trkpt lat="43.5113631" lon="12.0527376"><ele>385.0</ele><time>2026-04-19T11:19:24.237Z</time></trkpt><trkpt lat="43.5112938" lon="12.0526362"><ele>385.0</ele><time>2026-04-19T11:19:25.233Z</time></trkpt><trkpt lat="43.5112232" lon="12.0525296"><ele>385.0</ele><time>2026-04-19T11:19:26.233Z</time></trkpt><trkpt lat="43.5111481" lon="12.0524128"><ele>388.75</ele><time>2026-04-19T11:19:27.233Z</time></trkpt><trkpt lat="43.5110651" lon="12.052295"><ele>392.5</ele><time>2026-04-19T11:19:28.234Z</time></trkpt><trkpt lat="43.5109779" lon="12.0521736"><ele>396.25</ele><time>2026-04-19T11:19:29.233Z</time></trkpt><trkpt lat="43.5108835" lon="12.0520474"><ele>400.0</ele><time>2026-04-19T11:19:30.233Z</time></trkpt><trkpt lat="43.5107883" lon="12.0519171"><ele>400.0</ele><time>2026-04-19T11:19:31.233Z</time></trkpt><trkpt lat="43.5107065" lon="12.0517839"><ele>400.0</ele><time>2026-04-19T11:19:32.235Z</time></trkpt><trkpt lat="43.5106397" lon="12.0516709"><ele>400.0</ele><time>2026-04-19T11:19:33.234Z</time></trkpt><trkpt lat="43.5105838" lon="12.0515749"><ele>400.0</ele><time>2026-04-19T11:19:34.234Z</time></trkpt><trkpt lat="43.5105395" lon="12.0514763"><ele>400.0</ele><time>2026-04-19T11:19:35.234Z</time></trkpt><trkpt lat="43.5105031" lon="12.0513578"><ele>401.2</ele><time>2026-04-19T11:19:36.234Z</time></trkpt><trkpt lat="43.5104694" lon="12.0512293"><ele>402.4</ele><time>2026-04-19T11:19:37.233Z</time></trkpt><trkpt lat="43.5104363" lon="12.0510999"><ele>403.6</ele><time>2026-04-19T11:19:38.234Z</time></trkpt><trkpt lat="43.5103973" lon="12.0509803"><ele>404.8</ele><time>2026-04-19T11:19:39.234Z</time></trkpt><trkpt lat="43.5103586" lon="12.0508652"><ele>406.0</ele><time>2026-04-19T11:19:40.233Z</time></trkpt><trkpt lat="43.5103195" lon="12.0507468"><ele>408.6</ele><time>2026-04-19T11:19:41.234Z</time></trkpt><trkpt lat="43.5102814" lon="12.0506312"><ele>411.20000000000005</ele><time>2026-04-19T11:19:42.233Z</time></trkpt><trkpt lat="43.5102431" lon="12.0505317"><ele>413.79999999999995</ele><time>2026-04-19T11:19:43.233Z</time></trkpt><trkpt lat="43.5101598" lon="12.0504298"><ele>416.4</ele><time>2026-04-19T11:19:45.233Z</time></trkpt><trkpt lat="43.5100222" lon="12.0503962"><ele>419.0</ele><time>2026-04-19T11:19:47.234Z</time></trkpt><trkpt lat="43.5099272" lon="12.0503897"><ele>419.0</ele><time>2026-04-19T11:19:48.233Z</time></trkpt><trkpt lat="43.5098204" lon="12.0503564"><ele>419.0</ele><time>2026-04-19T11:19:49.233Z</time></trkpt><trkpt lat="43.5097194" lon="12.0502791"><ele>419.0</ele><time>2026-04-19T11:19:50.234Z</time></trkpt><trkpt lat="43.5096348" lon="12.0501899"><ele>419.0</ele><time>2026-04-19T11:19:51.234Z</time></trkpt><trkpt lat="43.5095671" lon="12.0501004"><ele>419.0</ele><time>2026-04-19T11:19:52.234Z</time></trkpt><trkpt lat="43.5095091" lon="12.0500169"><ele>421.4285714285714</ele><time>2026-04-19T11:19:53.234Z</time></trkpt><trkpt lat="43.509458" lon="12.0499559"><ele>423.85714285714283</ele><time>2026-04-19T11:19:54.235Z</time></trkpt><trkpt lat="43.5094035" lon="12.0499121"><ele>426.2857142857143</ele><time>2026-04-19T11:19:55.234Z</time></trkpt><trkpt lat="43.5093475" lon="12.0498702"><ele>428.71428571428567</ele><time>2026-04-19T11:19:56.233Z</time></trkpt><trkpt lat="43.509287" lon="12.0498423"><ele>431.14285714285717</ele><time>2026-04-19T11:19:57.233Z</time></trkpt><trkpt lat="43.5092239" lon="12.0498153"><ele>433.57142857142856</ele><time>2026-04-19T11:19:58.235Z</time></trkpt><trkpt lat="43.5091569" lon="12.0498005"><ele>436.0</ele><time>2026-04-19T11:19:59.233Z</time></trkpt><trkpt lat="43.5090862" lon="12.0497853"><ele>436.0</ele><time>2026-04-19T11:20:00.234Z</time></trkpt><trkpt lat="43.5090157" lon="12.0497716"><ele>436.0</ele><time>2026-04-19T11:20:01.234Z</time></trkpt><trkpt lat="43.5089057" lon="12.0498049"><ele>436.0</ele><time>2026-04-19T11:20:03.234Z</time></trkpt><trkpt lat="43.5088396" lon="12.0498586"><ele>436.0</ele><time>2026-04-19T11:20:05.234Z</time></trkpt><trkpt lat="43.5089654" lon="12.0497908"><ele>436.0</ele><time>2026-04-19T11:20:14.236Z</time></trkpt><trkpt lat="43.5090541" lon="12.049797"><ele>436.0</ele><time>2026-04-19T11:20:15.233Z</time></trkpt><trkpt lat="43.5091482" lon="12.0498287"><ele>436.0</ele><time>2026-04-19T11:20:16.233Z</time></trkpt><trkpt lat="43.5092474" lon="12.0498752"><ele>436.0</ele><time>2026-04-19T11:20:17.233Z</time></trkpt><trkpt lat="43.509346" lon="12.0499253"><ele>436.0</ele><time>2026-04-19T11:20:18.234Z</time></trkpt><trkpt lat="43.5094405" lon="12.0499754"><ele>436.0</ele><time>2026-04-19T11:20:19.234Z</time></trkpt><trkpt lat="43.5095215" lon="12.050033"><ele>432.6</ele><time>2026-04-19T11:20:20.234Z</time></trkpt><trkpt lat="43.5095955" lon="12.0501099"><ele>429.20000000000005</ele><time>2026-04-19T11:20:21.233Z</time></trkpt><trkpt lat="43.5096641" lon="12.0502026"><ele>425.79999999999995</ele><time>2026-04-19T11:20:22.233Z</time></trkpt><trkpt lat="43.5097333" lon="12.0502894"><ele>422.4</ele><time>2026-04-19T11:20:23.233Z</time></trkpt><trkpt lat="43.5098052" lon="12.0503618"><ele>419.0</ele><time>2026-04-19T11:20:24.234Z</time></trkpt><trkpt lat="43.5098779" lon="12.0504246"><ele>418.99999999999994</ele><time>2026-04-19T11:20:25.234Z</time></trkpt><trkpt lat="43.509957" lon="12.050471"><ele>419.0</ele><time>2026-04-19T11:20:26.236Z</time></trkpt><trkpt lat="43.5100371" lon="12.0504985"><ele>419.0</ele><time>2026-04-19T11:20:27.235Z</time></trkpt><trkpt lat="43.5101186" lon="12.0505091"><ele>419.0</ele><time>2026-04-19T11:20:28.233Z</time></trkpt><trkpt lat="43.5101878" lon="12.050536"><ele>418.99999999999994</ele><time>2026-04-19T11:20:29.234Z</time></trkpt><trkpt lat="43.5102528" lon="12.0505836"><ele>419.0</ele><time>2026-04-19T11:20:30.234Z</time></trkpt><trkpt lat="43.5103106" lon="12.0506454"><ele>418.99999999999994</ele><time>2026-04-19T11:20:31.233Z</time></trkpt><trkpt lat="43.5103523" lon="12.0507273"><ele>419.0</ele><time>2026-04-19T11:20:32.233Z</time></trkpt><trkpt lat="43.5103835" lon="12.0508316"><ele>419.0</ele><time>2026-04-19T11:20:33.233Z</time></trkpt><trkpt lat="43.5104062" lon="12.0509444"><ele>419.0</ele><time>2026-04-19T11:20:34.233Z</time></trkpt><trkpt lat="43.5104314" lon="12.0510444"><ele>418.99999999999994</ele><time>2026-04-19T11:20:35.233Z</time></trkpt><trkpt lat="43.510479" lon="12.051136"><ele>419.0</ele><time>2026-04-19T11:20:37.235Z</time></trkpt><trkpt lat="43.5105138" lon="12.0510568"><ele>416.79999999999995</ele><time>2026-04-19T11:20:40.233Z</time></trkpt><trkpt lat="43.5105787" lon="12.0509252"><ele>414.59999999999997</ele><time>2026-04-19T11:20:42.233Z</time></trkpt><trkpt lat="43.5106037" lon="12.0507976"><ele>412.4</ele><time>2026-04-19T11:20:44.234Z</time></trkpt><trkpt lat="43.5105851" lon="12.0506491"><ele>410.2</ele><time>2026-04-19T11:20:46.233Z</time></trkpt><trkpt lat="43.5105458" lon="12.0505479"><ele>408.0</ele><time>2026-04-19T11:20:48.233Z</time></trkpt><trkpt lat="43.5104788" lon="12.0504534"><ele>410.2</ele><time>2026-04-19T11:20:50.234Z</time></trkpt><trkpt lat="43.5103951" lon="12.0503252"><ele>412.4</ele><time>2026-04-19T11:20:52.233Z</time></trkpt><trkpt lat="43.510352" lon="12.0502145"><ele>414.59999999999997</ele><time>2026-04-19T11:20:53.234Z</time></trkpt><trkpt lat="43.5103103" lon="12.050088"><ele>416.79999999999995</ele><time>2026-04-19T11:20:54.233Z</time></trkpt><trkpt lat="43.5102744" lon="12.0499673"><ele>419.0</ele><time>2026-04-19T11:20:55.233Z</time></trkpt><trkpt lat="43.5102408" lon="12.0498669"><ele>420.49999999999994</ele><time>2026-04-19T11:20:56.235Z</time></trkpt><trkpt lat="43.5102019" lon="12.0497782"><ele>422.0</ele><time>2026-04-19T11:20:57.234Z</time></trkpt><trkpt lat="43.510159" lon="12.0496933"><ele>423.5</ele><time>2026-04-19T11:20:58.234Z</time></trkpt><trkpt lat="43.5101125" lon="12.0495924"><ele>425.0</ele><time>2026-04-19T11:20:59.234Z</time></trkpt><trkpt lat="43.5100733" lon="12.04949"><ele>426.49999999999994</ele><time>2026-04-19T11:21:00.234Z</time></trkpt><trkpt lat="43.5100431" lon="12.049395"><ele>428.0</ele><time>2026-04-19T11:21:01.235Z</time></trkpt><trkpt lat="43.5100109" lon="12.0492398"><ele>428.59999999999997</ele><time>2026-04-19T11:21:03.233Z</time></trkpt><trkpt lat="43.5099617" lon="12.0491033"><ele>429.19999999999993</ele><time>2026-04-19T11:21:05.235Z</time></trkpt><trkpt lat="43.5099051" lon="12.0489645"><ele>429.8</ele><time>2026-04-19T11:21:07.238Z</time></trkpt><trkpt lat="43.5098737" lon="12.048886"><ele>430.4</ele><time>2026-04-19T11:21:08.236Z</time></trkpt><trkpt lat="43.5098253" lon="12.0488186"><ele>431.0</ele><time>2026-04-19T11:21:09.235Z</time></trkpt><trkpt lat="43.5097537" lon="12.0487098"><ele>430.99999999999994</ele><time>2026-04-19T11:21:11.233Z</time></trkpt><trkpt lat="43.509727" lon="12.0486247"><ele>431.0</ele><time>2026-04-19T11:21:13.234Z</time></trkpt><trkpt lat="43.5096957" lon="12.0485287"><ele>431.0</ele><time>2026-04-19T11:21:15.233Z</time></trkpt><trkpt lat="43.5096589" lon="12.0484235"><ele>431.0</ele><time>2026-04-19T11:21:17.233Z</time></trkpt><trkpt lat="43.5096074" lon="12.0483235"><ele>430.99999999999994</ele><time>2026-04-19T11:21:19.233Z</time></trkpt><trkpt lat="43.5095524" lon="12.0482145"><ele>431.0</ele><time>2026-04-19T11:21:21.233Z</time></trkpt><trkpt lat="43.5095114" lon="12.0480979"><ele>432.20000000000005</ele><time>2026-04-19T11:21:23.234Z</time></trkpt><trkpt lat="43.5095368" lon="12.0479326"><ele>433.40000000000003</ele><time>2026-04-19T11:21:25.234Z</time></trkpt><trkpt lat="43.509561" lon="12.0478385"><ele>434.6</ele><time>2026-04-19T11:21:26.233Z</time></trkpt><trkpt lat="43.5095983" lon="12.0477583"><ele>435.8</ele><time>2026-04-19T11:21:27.233Z</time></trkpt><trkpt lat="43.5096267" lon="12.0475867"><ele>437.0</ele><time>2026-04-19T11:21:29.233Z</time></trkpt><trkpt lat="43.50964" lon="12.04747"><ele>438.49999999999994</ele><time>2026-04-19T11:21:30.234Z</time></trkpt><trkpt lat="43.509665" lon="12.0473633"><ele>440.0</ele><time>2026-04-19T11:21:31.233Z</time></trkpt><trkpt lat="43.509695" lon="12.0472617"><ele>441.5</ele><time>2026-04-19T11:21:32.234Z</time></trkpt><trkpt lat="43.50972" lon="12.0471733"><ele>443.0</ele><time>2026-04-19T11:21:33.233Z</time></trkpt><trkpt lat="43.5097533" lon="12.0470017"><ele>444.49999999999994</ele><time>2026-04-19T11:21:35.236Z</time></trkpt><trkpt lat="43.5097683" lon="12.0469083"><ele>446.0</ele><time>2026-04-19T11:21:36.234Z</time></trkpt><trkpt lat="43.509775" lon="12.0468083"><ele>445.99999999999994</ele><time>2026-04-19T11:21:37.235Z</time></trkpt><trkpt lat="43.5097867" lon="12.0467"><ele>446.0</ele><time>2026-04-19T11:21:38.236Z</time></trkpt><trkpt lat="43.50979" lon="12.0466117"><ele>446.0</ele><time>2026-04-19T11:21:39.234Z</time></trkpt><trkpt lat="43.5098217" lon="12.0464783"><ele>446.0</ele><time>2026-04-19T11:21:41.234Z</time></trkpt><trkpt lat="43.509855" lon="12.046335"><ele>445.99999999999994</ele><time>2026-04-19T11:21:43.233Z</time></trkpt><trkpt lat="43.5098783" lon="12.0462433"><ele>446.0</ele><time>2026-04-19T11:21:44.235Z</time></trkpt><trkpt lat="43.5098983" lon="12.0461483"><ele>447.4</ele><time>2026-04-19T11:21:45.233Z</time></trkpt><trkpt lat="43.5099217" lon="12.0460633"><ele>448.8</ele><time>2026-04-19T11:21:46.233Z</time></trkpt><trkpt lat="43.5099467" lon="12.0459817"><ele>450.19999999999993</ele><time>2026-04-19T11:21:47.233Z</time></trkpt><trkpt lat="43.5099833" lon="12.0458283"><ele>451.59999999999997</ele><time>2026-04-19T11:21:49.233Z</time></trkpt><trkpt lat="43.510005" lon="12.0456983"><ele>453.0</ele><time>2026-04-19T11:21:51.233Z</time></trkpt><trkpt lat="43.510075" lon="12.0455783"><ele>453.0</ele><time>2026-04-19T11:21:53.233Z</time></trkpt><trkpt lat="43.5101233" lon="12.0455167"><ele>453.0</ele><time>2026-04-19T11:21:54.234Z</time></trkpt><trkpt lat="43.51017" lon="12.0454583"><ele>453.0</ele><time>2026-04-19T11:21:55.233Z</time></trkpt><trkpt lat="43.510245" lon="12.0453717"><ele>453.0</ele><time>2026-04-19T11:21:57.233Z</time></trkpt><trkpt lat="43.5102917" lon="12.0452483"><ele>453.0</ele><time>2026-04-19T11:21:59.235Z</time></trkpt><trkpt lat="43.5103067" lon="12.04516"><ele>453.0</ele><time>2026-04-19T11:22:00.234Z</time></trkpt><trkpt lat="43.5103133" lon="12.04507"><ele>452.99999999999994</ele><time>2026-04-19T11:22:01.234Z</time></trkpt><trkpt lat="43.5103033" lon="12.04497"><ele>453.0</ele><time>2026-04-19T11:22:02.234Z</time></trkpt><trkpt lat="43.51029" lon="12.044865"><ele>452.99999999999994</ele><time>2026-04-19T11:22:03.234Z</time></trkpt><trkpt lat="43.5102633" lon="12.0447733"><ele>452.99999999999994</ele><time>2026-04-19T11:22:04.234Z</time></trkpt><trkpt lat="43.5102367" lon="12.0446917"><ele>453.0</ele><time>2026-04-19T11:22:05.234Z</time></trkpt><trkpt lat="43.5102067" lon="12.0446033"><ele>452.99999999999994</ele><time>2026-04-19T11:22:06.235Z</time></trkpt><trkpt lat="43.5101733" lon="12.044515"><ele>452.99999999999994</ele><time>2026-04-19T11:22:07.234Z</time></trkpt><trkpt lat="43.5101417" lon="12.0444317"><ele>451.8333333333333</ele><time>2026-04-19T11:22:08.234Z</time></trkpt><trkpt lat="43.5101083" lon="12.04435"><ele>450.66666666666663</ele><time>2026-04-19T11:22:09.238Z</time></trkpt><trkpt lat="43.5100783" lon="12.044265"><ele>449.5</ele><time>2026-04-19T11:22:10.234Z</time></trkpt><trkpt lat="43.5099983" lon="12.0441467"><ele>448.3333333333333</ele><time>2026-04-19T11:22:12.234Z</time></trkpt><trkpt lat="43.50996" lon="12.044075"><ele>447.16666666666663</ele><time>2026-04-19T11:22:13.237Z</time></trkpt><trkpt lat="43.5099017" lon="12.0439783"><ele>446.0</ele><time>2026-04-19T11:22:15.233Z</time></trkpt><trkpt lat="43.509845" lon="12.0438867"><ele>447.5</ele><time>2026-04-19T11:22:17.233Z</time></trkpt><trkpt lat="43.50977" lon="12.0437367"><ele>449.0</ele><time>2026-04-19T11:22:19.233Z</time></trkpt><trkpt lat="43.5097133" lon="12.043665"><ele>450.5</ele><time>2026-04-19T11:22:20.233Z</time></trkpt><trkpt lat="43.50959" lon="12.043595"><ele>452.0</ele><time>2026-04-19T11:22:22.234Z</time></trkpt><trkpt lat="43.5094567" lon="12.04355"><ele>452.0</ele><time>2026-04-19T11:22:24.234Z</time></trkpt><trkpt lat="43.5093483" lon="12.0434767"><ele>452.0</ele><time>2026-04-19T11:22:26.233Z</time></trkpt><trkpt lat="43.5092717" lon="12.0433467"><ele>452.0</ele><time>2026-04-19T11:22:27.233Z</time></trkpt><trkpt lat="43.5092067" lon="12.0431833"><ele>452.0</ele><time>2026-04-19T11:22:28.234Z</time></trkpt><trkpt lat="43.5091533" lon="12.043035"><ele>451.0</ele><time>2026-04-19T11:22:29.234Z</time></trkpt><trkpt lat="43.5091133" lon="12.04289"><ele>450.00000000000006</ele><time>2026-04-19T11:22:30.233Z</time></trkpt><trkpt lat="43.5090767" lon="12.0427483"><ele>449.00000000000006</ele><time>2026-04-19T11:22:31.233Z</time></trkpt><trkpt lat="43.509045" lon="12.0426283"><ele>448.0</ele><time>2026-04-19T11:22:32.233Z</time></trkpt><trkpt lat="43.5090083" lon="12.0425217"><ele>447.0</ele><time>2026-04-19T11:22:33.237Z</time></trkpt><trkpt lat="43.5089717" lon="12.0424367"><ele>446.6666666666667</ele><time>2026-04-19T11:22:34.234Z</time></trkpt><trkpt lat="43.5089267" lon="12.04236"><ele>446.33333333333337</ele><time>2026-04-19T11:22:35.242Z</time></trkpt><trkpt lat="43.508871" lon="12.0423057"><ele>446.0</ele><time>2026-04-19T11:22:36.234Z</time></trkpt><trkpt lat="43.5088006" lon="12.0422636"><ele>445.6666666666667</ele><time>2026-04-19T11:22:37.233Z</time></trkpt><trkpt lat="43.5087188" lon="12.0422275"><ele>445.33333333333337</ele><time>2026-04-19T11:22:38.235Z</time></trkpt><trkpt lat="43.5086331" lon="12.0422052"><ele>445.0</ele><time>2026-04-19T11:22:39.234Z</time></trkpt><trkpt lat="43.5085547" lon="12.042191"><ele>445.0</ele><time>2026-04-19T11:22:40.234Z</time></trkpt><trkpt lat="43.5084918" lon="12.042184"><ele>445.0</ele><time>2026-04-19T11:22:41.234Z</time></trkpt><trkpt lat="43.5084099" lon="12.0421897"><ele>445.0</ele><time>2026-04-19T11:22:43.234Z</time></trkpt><trkpt lat="43.5083287" lon="12.0422374"><ele>445.0</ele><time>2026-04-19T11:22:45.233Z</time></trkpt><trkpt lat="43.5082139" lon="12.0423532"><ele>445.0</ele><time>2026-04-19T11:22:47.234Z</time></trkpt><trkpt lat="43.5081232" lon="12.0424323"><ele>448.6</ele><time>2026-04-19T11:22:48.234Z</time></trkpt><trkpt lat="43.5080144" lon="12.0424969"><ele>452.2</ele><time>2026-04-19T11:22:49.233Z</time></trkpt><trkpt lat="43.5079064" lon="12.0425344"><ele>455.79999999999995</ele><time>2026-04-19T11:22:50.234Z</time></trkpt><trkpt lat="43.5078022" lon="12.0425428"><ele>459.4</ele><time>2026-04-19T11:22:51.235Z</time></trkpt><trkpt lat="43.5076977" lon="12.0425325"><ele>463.0</ele><time>2026-04-19T11:22:52.234Z</time></trkpt><trkpt lat="43.507591" lon="12.0425061"><ele>460.2</ele><time>2026-04-19T11:22:53.233Z</time></trkpt><trkpt lat="43.5074902" lon="12.0424643"><ele>457.4</ele><time>2026-04-19T11:22:54.233Z</time></trkpt><trkpt lat="43.5073997" lon="12.04244"><ele>454.59999999999997</ele><time>2026-04-19T11:22:55.234Z</time></trkpt><trkpt lat="43.5073082" lon="12.0424315"><ele>451.79999999999995</ele><time>2026-04-19T11:22:56.235Z</time></trkpt><trkpt lat="43.5072087" lon="12.0424398"><ele>449.0</ele><time>2026-04-19T11:22:57.233Z</time></trkpt><trkpt lat="43.5071298" lon="12.0424482"><ele>451.0</ele><time>2026-04-19T11:22:58.233Z</time></trkpt><trkpt lat="43.5070385" lon="12.042414"><ele>453.0</ele><time>2026-04-19T11:23:00.233Z</time></trkpt><trkpt lat="43.5069549" lon="12.0423143"><ele>455.0</ele><time>2026-04-19T11:23:02.233Z</time></trkpt><trkpt lat="43.5068884" lon="12.0421462"><ele>457.0</ele><time>2026-04-19T11:23:04.234Z</time></trkpt><trkpt lat="43.5068595" lon="12.0420505"><ele>459.0</ele><time>2026-04-19T11:23:05.234Z</time></trkpt><trkpt lat="43.5068223" lon="12.0419496"><ele>459.0</ele><time>2026-04-19T11:23:06.233Z</time></trkpt><trkpt lat="43.5067651" lon="12.0418601"><ele>459.0</ele><time>2026-04-19T11:23:07.234Z</time></trkpt><trkpt lat="43.5066839" lon="12.0417873"><ele>459.0</ele><time>2026-04-19T11:23:08.234Z</time></trkpt><trkpt lat="43.5065743" lon="12.0417258"><ele>459.0</ele><time>2026-04-19T11:23:09.235Z</time></trkpt><trkpt lat="43.5064464" lon="12.0416576"><ele>459.0</ele><time>2026-04-19T11:23:10.235Z</time></trkpt><trkpt lat="43.506299" lon="12.0415776"><ele>460.0</ele><time>2026-04-19T11:23:11.234Z</time></trkpt><trkpt lat="43.5061489" lon="12.0414942"><ele>461.0</ele><time>2026-04-19T11:23:12.234Z</time></trkpt><trkpt lat="43.5060028" lon="12.041406"><ele>462.0</ele><time>2026-04-19T11:23:13.236Z</time></trkpt><trkpt lat="43.5058767" lon="12.0413079"><ele>462.0</ele><time>2026-04-19T11:23:14.235Z</time></trkpt><trkpt lat="43.5057626" lon="12.0411984"><ele>462.0</ele><time>2026-04-19T11:23:15.234Z</time></trkpt><trkpt lat="43.5056594" lon="12.0410811"><ele>462.0</ele><time>2026-04-19T11:23:16.234Z</time></trkpt><trkpt lat="43.5055776" lon="12.0409773"><ele>462.0</ele><time>2026-04-19T11:23:17.234Z</time></trkpt><trkpt lat="43.5055129" lon="12.0408898"><ele>462.0</ele><time>2026-04-19T11:23:18.234Z</time></trkpt><trkpt lat="43.505463" lon="12.0408057"><ele>462.0</ele><time>2026-04-19T11:23:19.234Z</time></trkpt><trkpt lat="43.5054224" lon="12.0407156"><ele>462.0</ele><time>2026-04-19T11:23:20.236Z</time></trkpt><trkpt lat="43.5053849" lon="12.0406125"><ele>462.0</ele><time>2026-04-19T11:23:21.235Z</time></trkpt><trkpt lat="43.5053437" lon="12.0405023"><ele>462.0</ele><time>2026-04-19T11:23:22.234Z</time></trkpt><trkpt lat="43.505304" lon="12.0403865"><ele>462.0</ele><time>2026-04-19T11:23:23.235Z</time></trkpt><trkpt lat="43.5052638" lon="12.0402694"><ele>463.0</ele><time>2026-04-19T11:23:24.233Z</time></trkpt><trkpt lat="43.5052233" lon="12.0401567"><ele>464.00000000000006</ele><time>2026-04-19T11:23:25.234Z</time></trkpt><trkpt lat="43.5051774" lon="12.0400453"><ele>465.00000000000006</ele><time>2026-04-19T11:23:26.234Z</time></trkpt><trkpt lat="43.5051289" lon="12.0399331"><ele>466.0</ele><time>2026-04-19T11:23:27.234Z</time></trkpt><trkpt lat="43.505077" lon="12.0398179"><ele>467.0</ele><time>2026-04-19T11:23:28.234Z</time></trkpt><trkpt lat="43.5050178" lon="12.0397052"><ele>467.40000000000003</ele><time>2026-04-19T11:23:29.234Z</time></trkpt><trkpt lat="43.5049594" lon="12.0395925"><ele>467.80000000000007</ele><time>2026-04-19T11:23:30.234Z</time></trkpt><trkpt lat="43.5049138" lon="12.0394794"><ele>468.2</ele><time>2026-04-19T11:23:31.233Z</time></trkpt><trkpt lat="43.5048823" lon="12.0393685"><ele>468.6</ele><time>2026-04-19T11:23:32.234Z</time></trkpt><trkpt lat="43.5048582" lon="12.039257"><ele>469.0</ele><time>2026-04-19T11:23:33.234Z</time></trkpt><trkpt lat="43.5048356" lon="12.0391381"><ele>470.2</ele><time>2026-04-19T11:23:34.236Z</time></trkpt><trkpt lat="43.5048141" lon="12.0390142"><ele>471.4</ele><time>2026-04-19T11:23:35.235Z</time></trkpt><trkpt lat="43.504795" lon="12.0388902"><ele>472.6</ele><time>2026-04-19T11:23:36.233Z</time></trkpt><trkpt lat="43.5047787" lon="12.0387647"><ele>473.8</ele><time>2026-04-19T11:23:37.235Z</time></trkpt><trkpt lat="43.5047581" lon="12.038643"><ele>475.0</ele><time>2026-04-19T11:23:38.235Z</time></trkpt><trkpt lat="43.5047305" lon="12.0385249"><ele>475.00000000000006</ele><time>2026-04-19T11:23:39.233Z</time></trkpt><trkpt lat="43.5046983" lon="12.038413"><ele>475.0</ele><time>2026-04-19T11:23:40.233Z</time></trkpt><trkpt lat="43.5046629" lon="12.038312"><ele>475.0</ele><time>2026-04-19T11:23:41.234Z</time></trkpt><trkpt lat="43.5046276" lon="12.0382236"><ele>475.0</ele><time>2026-04-19T11:23:42.235Z</time></trkpt><trkpt lat="43.5045923" lon="12.0381488"><ele>475.00000000000006</ele><time>2026-04-19T11:23:43.234Z</time></trkpt><trkpt lat="43.5045185" lon="12.0380043"><ele>475.0</ele><time>2026-04-19T11:23:45.235Z</time></trkpt><trkpt lat="43.5044666" lon="12.0378453"><ele>475.00000000000006</ele><time>2026-04-19T11:23:47.235Z</time></trkpt><trkpt lat="43.5044492" lon="12.0377559"><ele>475.0</ele><time>2026-04-19T11:23:48.236Z</time></trkpt><trkpt lat="43.5044271" lon="12.0376602"><ele>475.0</ele><time>2026-04-19T11:23:49.236Z</time></trkpt><trkpt lat="43.5043922" lon="12.0375581"><ele>475.0</ele><time>2026-04-19T11:23:50.235Z</time></trkpt><trkpt lat="43.5043452" lon="12.0374538"><ele>475.00000000000006</ele><time>2026-04-19T11:23:51.235Z</time></trkpt><trkpt lat="43.5042774" lon="12.0373578"><ele>475.0</ele><time>2026-04-19T11:23:52.235Z</time></trkpt><trkpt lat="43.5041963" lon="12.0372825"><ele>474.6666666666667</ele><time>2026-04-19T11:23:53.235Z</time></trkpt><trkpt lat="43.5041186" lon="12.0372241"><ele>474.33333333333337</ele><time>2026-04-19T11:23:54.235Z</time></trkpt><trkpt lat="43.5040406" lon="12.0371835"><ele>474.0</ele><time>2026-04-19T11:23:55.235Z</time></trkpt><trkpt lat="43.5039631" lon="12.0371621"><ele>473.66666666666663</ele><time>2026-04-19T11:23:56.235Z</time></trkpt><trkpt lat="43.5038832" lon="12.0371565"><ele>473.3333333333333</ele><time>2026-04-19T11:23:57.235Z</time></trkpt><trkpt lat="43.5037996" lon="12.0371694"><ele>473.0</ele><time>2026-04-19T11:23:58.234Z</time></trkpt><trkpt lat="43.5037091" lon="12.0371998"><ele>473.0</ele><time>2026-04-19T11:23:59.234Z</time></trkpt><trkpt lat="43.5036168" lon="12.0372261"><ele>472.99999999999994</ele><time>2026-04-19T11:24:00.233Z</time></trkpt><trkpt lat="43.5035204" lon="12.0372405"><ele>472.99999999999994</ele><time>2026-04-19T11:24:01.234Z</time></trkpt><trkpt lat="43.5034241" lon="12.0372469"><ele>473.0</ele><time>2026-04-19T11:24:02.235Z</time></trkpt><trkpt lat="43.5033354" lon="12.0372552"><ele>473.0</ele><time>2026-04-19T11:24:03.234Z</time></trkpt><trkpt lat="43.5032519" lon="12.0372649"><ele>472.99999999999994</ele><time>2026-04-19T11:24:04.234Z</time></trkpt><trkpt lat="43.5031579" lon="12.0372529"><ele>473.0</ele><time>2026-04-19T11:24:06.233Z</time></trkpt><trkpt lat="43.503095" lon="12.0372174"><ele>473.0</ele><time>2026-04-19T11:24:08.234Z</time></trkpt><trkpt lat="43.5030289" lon="12.0371365"><ele>473.0</ele><time>2026-04-19T11:24:10.233Z</time></trkpt><trkpt lat="43.5029422" lon="12.0370169"><ele>472.99999999999994</ele><time>2026-04-19T11:24:12.233Z</time></trkpt><trkpt lat="43.5028943" lon="12.0369505"><ele>473.0</ele><time>2026-04-19T11:24:13.236Z</time></trkpt><trkpt lat="43.5028456" lon="12.0368868"><ele>472.66666666666663</ele><time>2026-04-19T11:24:14.233Z</time></trkpt><trkpt lat="43.5027941" lon="12.0368188"><ele>472.3333333333333</ele><time>2026-04-19T11:24:15.233Z</time></trkpt><trkpt lat="43.5027343" lon="12.0367431"><ele>472.0</ele><time>2026-04-19T11:24:16.233Z</time></trkpt><trkpt lat="43.5026689" lon="12.0366583"><ele>471.66666666666663</ele><time>2026-04-19T11:24:17.234Z</time></trkpt><trkpt lat="43.5025995" lon="12.0365735"><ele>471.3333333333333</ele><time>2026-04-19T11:24:18.235Z</time></trkpt><trkpt lat="43.5025268" lon="12.036505"><ele>471.0</ele><time>2026-04-19T11:24:19.235Z</time></trkpt><trkpt lat="43.5024442" lon="12.0364555"><ele>470.4</ele><time>2026-04-19T11:24:20.236Z</time></trkpt><trkpt lat="43.5023497" lon="12.0364111"><ele>469.8</ele><time>2026-04-19T11:24:21.234Z</time></trkpt><trkpt lat="43.5022475" lon="12.0363726"><ele>469.19999999999993</ele><time>2026-04-19T11:24:22.234Z</time></trkpt><trkpt lat="43.5021389" lon="12.036338"><ele>468.59999999999997</ele><time>2026-04-19T11:24:23.234Z</time></trkpt><trkpt lat="43.5020301" lon="12.0363052"><ele>468.0</ele><time>2026-04-19T11:24:24.234Z</time></trkpt><trkpt lat="43.5019256" lon="12.0362713"><ele>468.0</ele><time>2026-04-19T11:24:25.233Z</time></trkpt><trkpt lat="43.5018295" lon="12.0362423"><ele>468.0</ele><time>2026-04-19T11:24:26.234Z</time></trkpt><trkpt lat="43.5017475" lon="12.0362185"><ele>468.0</ele><time>2026-04-19T11:24:27.234Z</time></trkpt><trkpt lat="43.501676" lon="12.0361865"><ele>468.0</ele><time>2026-04-19T11:24:28.234Z</time></trkpt><trkpt lat="43.501612" lon="12.0361404"><ele>468.0</ele><time>2026-04-19T11:24:29.234Z</time></trkpt><trkpt lat="43.5015518" lon="12.0360769"><ele>468.0</ele><time>2026-04-19T11:24:30.234Z</time></trkpt><trkpt lat="43.5014942" lon="12.0359986"><ele>468.0</ele><time>2026-04-19T11:24:31.233Z</time></trkpt><trkpt lat="43.50144" lon="12.0359123"><ele>468.0</ele><time>2026-04-19T11:24:32.234Z</time></trkpt><trkpt lat="43.5013877" lon="12.03582"><ele>468.0</ele><time>2026-04-19T11:24:33.233Z</time></trkpt><trkpt lat="43.5013286" lon="12.0357244"><ele>468.0</ele><time>2026-04-19T11:24:34.234Z</time></trkpt><trkpt lat="43.5012617" lon="12.0356341"><ele>468.0</ele><time>2026-04-19T11:24:35.234Z</time></trkpt><trkpt lat="43.5011895" lon="12.0355495"><ele>468.0</ele><time>2026-04-19T11:24:36.235Z</time></trkpt><trkpt lat="43.5011113" lon="12.0354683"><ele>467.0</ele><time>2026-04-19T11:24:37.236Z</time></trkpt><trkpt lat="43.5010321" lon="12.0353962"><ele>465.99999999999994</ele><time>2026-04-19T11:24:38.235Z</time></trkpt><trkpt lat="43.5009522" lon="12.0353258"><ele>464.99999999999994</ele><time>2026-04-19T11:24:39.234Z</time></trkpt><trkpt lat="43.5008737" lon="12.0352564"><ele>464.0</ele><time>2026-04-19T11:24:40.235Z</time></trkpt><trkpt lat="43.5008025" lon="12.0351899"><ele>463.0</ele><time>2026-04-19T11:24:41.234Z</time></trkpt><trkpt lat="43.500734" lon="12.0351255"><ele>463.0</ele><time>2026-04-19T11:24:42.236Z</time></trkpt><trkpt lat="43.5006719" lon="12.0350668"><ele>462.99999999999994</ele><time>2026-04-19T11:24:43.235Z</time></trkpt><trkpt lat="43.5006187" lon="12.0350034"><ele>463.0</ele><time>2026-04-19T11:24:44.235Z</time></trkpt><trkpt lat="43.5005783" lon="12.0349334"><ele>463.0</ele><time>2026-04-19T11:24:45.234Z</time></trkpt><trkpt lat="43.5005504" lon="12.0348541"><ele>462.99999999999994</ele><time>2026-04-19T11:24:46.235Z</time></trkpt><trkpt lat="43.5005284" lon="12.0347657"><ele>463.0</ele><time>2026-04-19T11:24:47.233Z</time></trkpt><trkpt lat="43.5005165" lon="12.0346668"><ele>463.0</ele><time>2026-04-19T11:24:48.234Z</time></trkpt><trkpt lat="43.5005147" lon="12.0345707"><ele>461.71428571428567</ele><time>2026-04-19T11:24:49.235Z</time></trkpt><trkpt lat="43.5005228" lon="12.0344763"><ele>460.4285714285714</ele><time>2026-04-19T11:24:50.235Z</time></trkpt><trkpt lat="43.5005313" lon="12.0343857"><ele>459.1428571428571</ele><time>2026-04-19T11:24:51.234Z</time></trkpt><trkpt lat="43.5005369" lon="12.0342957"><ele>457.8571428571429</ele><time>2026-04-19T11:24:52.235Z</time></trkpt><trkpt lat="43.5005322" lon="12.0342004"><ele>456.5714285714286</ele><time>2026-04-19T11:24:53.236Z</time></trkpt><trkpt lat="43.5005186" lon="12.0341055"><ele>455.28571428571433</ele><time>2026-04-19T11:24:54.234Z</time></trkpt><trkpt lat="43.5004954" lon="12.0340058"><ele>454.0</ele><time>2026-04-19T11:24:55.235Z</time></trkpt><trkpt lat="43.5004561" lon="12.0338962"><ele>452.0</ele><time>2026-04-19T11:24:56.236Z</time></trkpt><trkpt lat="43.5004037" lon="12.0337708"><ele>450.0</ele><time>2026-04-19T11:24:57.234Z</time></trkpt><trkpt lat="43.5003403" lon="12.0336263"><ele>448.0</ele><time>2026-04-19T11:24:58.233Z</time></trkpt><trkpt lat="43.5002695" lon="12.033476"><ele>446.0</ele><time>2026-04-19T11:24:59.233Z</time></trkpt><trkpt lat="43.5001996" lon="12.0333292"><ele>446.25</ele><time>2026-04-19T11:25:00.236Z</time></trkpt><trkpt lat="43.50013" lon="12.0331871"><ele>446.5</ele><time>2026-04-19T11:25:01.234Z</time></trkpt><trkpt lat="43.5000638" lon="12.0330476"><ele>446.75</ele><time>2026-04-19T11:25:02.234Z</time></trkpt><trkpt lat="43.4999962" lon="12.0329106"><ele>447.0</ele><time>2026-04-19T11:25:03.234Z</time></trkpt><trkpt lat="43.4999319" lon="12.0327768"><ele>447.0</ele><time>2026-04-19T11:25:04.234Z</time></trkpt><trkpt lat="43.4998699" lon="12.0326483"><ele>447.00000000000006</ele><time>2026-04-19T11:25:05.233Z</time></trkpt><trkpt lat="43.4998016" lon="12.0325271"><ele>447.00000000000006</ele><time>2026-04-19T11:25:06.235Z</time></trkpt><trkpt lat="43.49973" lon="12.0324119"><ele>447.0</ele><time>2026-04-19T11:25:07.235Z</time></trkpt><trkpt lat="43.4996591" lon="12.0322979"><ele>447.0</ele><time>2026-04-19T11:25:08.235Z</time></trkpt><trkpt lat="43.4995848" lon="12.0321828"><ele>450.0</ele><time>2026-04-19T11:25:09.234Z</time></trkpt><trkpt lat="43.4995109" lon="12.0320651"><ele>453.0</ele><time>2026-04-19T11:25:10.235Z</time></trkpt><trkpt lat="43.4994346" lon="12.0319412"><ele>456.0</ele><time>2026-04-19T11:25:11.233Z</time></trkpt><trkpt lat="43.4993591" lon="12.0318143"><ele>459.0</ele><time>2026-04-19T11:25:12.234Z</time></trkpt><trkpt lat="43.4992828" lon="12.0316833"><ele>456.75</ele><time>2026-04-19T11:25:13.234Z</time></trkpt><trkpt lat="43.4992046" lon="12.0315512"><ele>454.5</ele><time>2026-04-19T11:25:14.235Z</time></trkpt><trkpt lat="43.4991274" lon="12.0314204"><ele>452.25</ele><time>2026-04-19T11:25:15.233Z</time></trkpt><trkpt lat="43.4990494" lon="12.0312942"><ele>450.0</ele><time>2026-04-19T11:25:16.233Z</time></trkpt><trkpt lat="43.4989751" lon="12.0311781"><ele>450.0</ele><time>2026-04-19T11:25:17.234Z</time></trkpt><trkpt lat="43.4989063" lon="12.0310798"><ele>450.0</ele><time>2026-04-19T11:25:18.234Z</time></trkpt><trkpt lat="43.4988493" lon="12.03099"><ele>450.0</ele><time>2026-04-19T11:25:19.233Z</time></trkpt><trkpt lat="43.4988041" lon="12.0309039"><ele>450.0</ele><time>2026-04-19T11:25:20.233Z</time></trkpt><trkpt lat="43.4987776" lon="12.0308073"><ele>450.0</ele><time>2026-04-19T11:25:21.234Z</time></trkpt><trkpt lat="43.4987662" lon="12.0306937"><ele>450.0</ele><time>2026-04-19T11:25:22.234Z</time></trkpt><trkpt lat="43.4987582" lon="12.0305769"><ele>449.5</ele><time>2026-04-19T11:25:23.235Z</time></trkpt><trkpt lat="43.498753" lon="12.0304637"><ele>449.0</ele><time>2026-04-19T11:25:24.234Z</time></trkpt><trkpt lat="43.4987516" lon="12.030352"><ele>448.5</ele><time>2026-04-19T11:25:25.234Z</time></trkpt><trkpt lat="43.4987427" lon="12.0302384"><ele>448.0</ele><time>2026-04-19T11:25:26.235Z</time></trkpt><trkpt lat="43.4987203" lon="12.030134"><ele>447.5</ele><time>2026-04-19T11:25:27.234Z</time></trkpt><trkpt lat="43.4986878" lon="12.030038"><ele>447.0</ele><time>2026-04-19T11:25:28.234Z</time></trkpt><trkpt lat="43.4986447" lon="12.0298924"><ele>446.5</ele><time>2026-04-19T11:25:30.233Z</time></trkpt><trkpt lat="43.4986275" lon="12.0298"><ele>446.0</ele><time>2026-04-19T11:25:31.234Z</time></trkpt><trkpt lat="43.498607" lon="12.0296895"><ele>445.5</ele><time>2026-04-19T11:25:32.235Z</time></trkpt><trkpt lat="43.4985825" lon="12.0295747"><ele>445.0</ele><time>2026-04-19T11:25:33.234Z</time></trkpt><trkpt lat="43.4985522" lon="12.0294609"><ele>444.5</ele><time>2026-04-19T11:25:34.233Z</time></trkpt><trkpt lat="43.49852" lon="12.0293558"><ele>444.0</ele><time>2026-04-19T11:25:35.233Z</time></trkpt><trkpt lat="43.4984871" lon="12.0292459"><ele>442.8333333333333</ele><time>2026-04-19T11:25:36.234Z</time></trkpt><trkpt lat="43.4984719" lon="12.0291402"><ele>441.66666666666663</ele><time>2026-04-19T11:25:37.233Z</time></trkpt><trkpt lat="43.498469" lon="12.0290369"><ele>440.5</ele><time>2026-04-19T11:25:38.234Z</time></trkpt><trkpt lat="43.4984701" lon="12.0289345"><ele>439.3333333333333</ele><time>2026-04-19T11:25:39.235Z</time></trkpt><trkpt lat="43.4984601" lon="12.0288416"><ele>438.16666666666663</ele><time>2026-04-19T11:25:40.234Z</time></trkpt><trkpt lat="43.49843" lon="12.0287567"><ele>437.0</ele><time>2026-04-19T11:25:41.233Z</time></trkpt><trkpt lat="43.4983717" lon="12.028655"><ele>437.0</ele><time>2026-04-19T11:25:42.235Z</time></trkpt><trkpt lat="43.4983063" lon="12.0285607"><ele>437.00000000000006</ele><time>2026-04-19T11:25:43.233Z</time></trkpt><trkpt lat="43.4982395" lon="12.028478"><ele>437.00000000000006</ele><time>2026-04-19T11:25:44.234Z</time></trkpt><trkpt lat="43.4981733" lon="12.028399"><ele>437.0</ele><time>2026-04-19T11:25:45.234Z</time></trkpt><trkpt lat="43.4981137" lon="12.0283366"><ele>437.0</ele><time>2026-04-19T11:25:46.234Z</time></trkpt><trkpt lat="43.498013" lon="12.0282777"><ele>433.8</ele><time>2026-04-19T11:25:48.233Z</time></trkpt><trkpt lat="43.4979335" lon="12.0282097"><ele>430.6</ele><time>2026-04-19T11:25:50.233Z</time></trkpt><trkpt lat="43.497925" lon="12.0280836"><ele>427.40000000000003</ele><time>2026-04-19T11:25:52.233Z</time></trkpt><trkpt lat="43.4979854" lon="12.0279351"><ele>424.20000000000005</ele><time>2026-04-19T11:25:54.235Z</time></trkpt><trkpt lat="43.4980214" lon="12.027834"><ele>421.0</ele><time>2026-04-19T11:25:55.233Z</time></trkpt><trkpt lat="43.4980526" lon="12.0277284"><ele>421.0</ele><time>2026-04-19T11:25:56.233Z</time></trkpt><trkpt lat="43.4980672" lon="12.0276296"><ele>421.0</ele><time>2026-04-19T11:25:57.233Z</time></trkpt><trkpt lat="43.4980608" lon="12.0275192"><ele>421.0</ele><time>2026-04-19T11:25:58.233Z</time></trkpt><trkpt lat="43.4980341" lon="12.0273845"><ele>421.0</ele><time>2026-04-19T11:25:59.234Z</time></trkpt><trkpt lat="43.4979968" lon="12.0272363"><ele>421.0</ele><time>2026-04-19T11:26:00.233Z</time></trkpt><trkpt lat="43.4979564" lon="12.0270907"><ele>421.0</ele><time>2026-04-19T11:26:01.233Z</time></trkpt><trkpt lat="43.4979133" lon="12.0269566"><ele>421.0</ele><time>2026-04-19T11:26:02.235Z</time></trkpt><trkpt lat="43.4978658" lon="12.0268198"><ele>421.0</ele><time>2026-04-19T11:26:03.235Z</time></trkpt><trkpt lat="43.4978332" lon="12.026714"><ele>421.0</ele><time>2026-04-19T11:26:04.234Z</time></trkpt><trkpt lat="43.4977763" lon="12.0266017"><ele>421.0</ele><time>2026-04-19T11:26:05.234Z</time></trkpt><trkpt lat="43.4976969" lon="12.0264861"><ele>421.0</ele><time>2026-04-19T11:26:06.235Z</time></trkpt><trkpt lat="43.4976141" lon="12.0263707"><ele>421.0</ele><time>2026-04-19T11:26:07.233Z</time></trkpt><trkpt lat="43.4975343" lon="12.0262668"><ele>421.0</ele><time>2026-04-19T11:26:08.233Z</time></trkpt><trkpt lat="43.4974729" lon="12.026189"><ele>421.0</ele><time>2026-04-19T11:26:09.234Z</time></trkpt><trkpt lat="43.4974279" lon="12.0261253"><ele>421.0</ele><time>2026-04-19T11:26:10.234Z</time></trkpt><trkpt lat="43.4973961" lon="12.0260273"><ele>421.00000000000006</ele><time>2026-04-19T11:26:13.233Z</time></trkpt><trkpt lat="43.4973332" lon="12.0260583"><ele>421.0</ele><time>2026-04-19T11:26:19.233Z</time></trkpt><trkpt lat="43.4972424" lon="12.0260771"><ele>421.0</ele><time>2026-04-19T11:26:21.234Z</time></trkpt><trkpt lat="43.4971475" lon="12.0259956"><ele>421.0</ele><time>2026-04-19T11:26:23.234Z</time></trkpt><trkpt lat="43.497122" lon="12.0258975"><ele>421.00000000000006</ele><time>2026-04-19T11:26:24.234Z</time></trkpt><trkpt lat="43.4970941" lon="12.0257972"><ele>421.0</ele><time>2026-04-19T11:26:25.233Z</time></trkpt><trkpt lat="43.4970661" lon="12.025673"><ele>424.20000000000005</ele><time>2026-04-19T11:26:26.234Z</time></trkpt><trkpt lat="43.4970342" lon="12.0255541"><ele>427.40000000000003</ele><time>2026-04-19T11:26:27.233Z</time></trkpt><trkpt lat="43.4969999" lon="12.0254568"><ele>430.6</ele><time>2026-04-19T11:26:28.235Z</time></trkpt><trkpt lat="43.4968721" lon="12.0254117"><ele>433.8</ele><time>2026-04-19T11:26:30.234Z</time></trkpt><trkpt lat="43.4967814" lon="12.0253734"><ele>437.0</ele><time>2026-04-19T11:26:31.235Z</time></trkpt><trkpt lat="43.4966614" lon="12.025338"><ele>437.0</ele><time>2026-04-19T11:26:32.234Z</time></trkpt><trkpt lat="43.4965225" lon="12.025302"><ele>437.0</ele><time>2026-04-19T11:26:33.235Z</time></trkpt><trkpt lat="43.4963805" lon="12.0252752"><ele>437.0</ele><time>2026-04-19T11:26:34.234Z</time></trkpt><trkpt lat="43.4962333" lon="12.0252498"><ele>437.0</ele><time>2026-04-19T11:26:35.233Z</time></trkpt><trkpt lat="43.4960966" lon="12.025224"><ele>437.8</ele><time>2026-04-19T11:26:36.233Z</time></trkpt><trkpt lat="43.4959769" lon="12.0252102"><ele>438.6</ele><time>2026-04-19T11:26:37.233Z</time></trkpt><trkpt lat="43.4958628" lon="12.0252006"><ele>439.40000000000003</ele><time>2026-04-19T11:26:38.235Z</time></trkpt><trkpt lat="43.4957602" lon="12.025204"><ele>440.20000000000005</ele><time>2026-04-19T11:26:39.234Z</time></trkpt><trkpt lat="43.4956735" lon="12.025194"><ele>441.0</ele><time>2026-04-19T11:26:40.234Z</time></trkpt><trkpt lat="43.4955931" lon="12.0251656"><ele>441.0</ele><time>2026-04-19T11:26:41.233Z</time></trkpt><trkpt lat="43.4955272" lon="12.0250949"><ele>441.0</ele><time>2026-04-19T11:26:42.233Z</time></trkpt><trkpt lat="43.4954919" lon="12.024996"><ele>441.0</ele><time>2026-04-19T11:26:43.235Z</time></trkpt><trkpt lat="43.4954826" lon="12.024876"><ele>441.0</ele><time>2026-04-19T11:26:44.236Z</time></trkpt><trkpt lat="43.4954916" lon="12.0247555"><ele>441.0</ele><time>2026-04-19T11:26:45.233Z</time></trkpt><trkpt lat="43.4955434" lon="12.0246116"><ele>441.20000000000005</ele><time>2026-04-19T11:26:46.234Z</time></trkpt><trkpt lat="43.495626" lon="12.0244697"><ele>441.40000000000003</ele><time>2026-04-19T11:26:47.234Z</time></trkpt><trkpt lat="43.4957072" lon="12.0243416"><ele>441.6</ele><time>2026-04-19T11:26:48.234Z</time></trkpt><trkpt lat="43.4957655" lon="12.0242462"><ele>441.8</ele><time>2026-04-19T11:26:49.235Z</time></trkpt><trkpt lat="43.4958154" lon="12.0241246"><ele>442.0</ele><time>2026-04-19T11:26:51.233Z</time></trkpt><trkpt lat="43.4957849" lon="12.0240109"><ele>442.0</ele><time>2026-04-19T11:26:53.234Z</time></trkpt><trkpt lat="43.495731" lon="12.02386"><ele>442.0</ele><time>2026-04-19T11:26:55.233Z</time></trkpt><trkpt lat="43.495656" lon="12.0237389"><ele>442.0</ele><time>2026-04-19T11:26:57.234Z</time></trkpt><trkpt lat="43.4955685" lon="12.0236396"><ele>442.0</ele><time>2026-04-19T11:26:59.237Z</time></trkpt><trkpt lat="43.4954671" lon="12.0235424"><ele>444.33333333333337</ele><time>2026-04-19T11:27:01.234Z</time></trkpt><trkpt lat="43.4954026" lon="12.0235015"><ele>446.6666666666667</ele><time>2026-04-19T11:27:02.235Z</time></trkpt><trkpt lat="43.4953291" lon="12.0234649"><ele>449.0</ele><time>2026-04-19T11:27:03.234Z</time></trkpt><trkpt lat="43.4952453" lon="12.0234542"><ele>451.33333333333337</ele><time>2026-04-19T11:27:04.234Z</time></trkpt><trkpt lat="43.4951476" lon="12.0234523"><ele>453.6666666666667</ele><time>2026-04-19T11:27:05.235Z</time></trkpt><trkpt lat="43.4950406" lon="12.0234597"><ele>456.0</ele><time>2026-04-19T11:27:06.236Z</time></trkpt><trkpt lat="43.4949367" lon="12.0234716"><ele>456.0</ele><time>2026-04-19T11:27:07.235Z</time></trkpt><trkpt lat="43.494842" lon="12.0234732"><ele>456.0</ele><time>2026-04-19T11:27:08.236Z</time></trkpt><trkpt lat="43.4947601" lon="12.0234578"><ele>456.0</ele><time>2026-04-19T11:27:09.235Z</time></trkpt><trkpt lat="43.4946918" lon="12.0234282"><ele>456.0</ele><time>2026-04-19T11:27:10.234Z</time></trkpt><trkpt lat="43.4946319" lon="12.0233838"><ele>456.0</ele><time>2026-04-19T11:27:11.236Z</time></trkpt><trkpt lat="43.494576" lon="12.0233202"><ele>456.0</ele><time>2026-04-19T11:27:12.237Z</time></trkpt><trkpt lat="43.4945256" lon="12.0232319"><ele>465.0</ele><time>2026-04-19T11:27:13.235Z</time></trkpt><trkpt lat="43.4944766" lon="12.0231334"><ele>474.0</ele><time>2026-04-19T11:27:14.235Z</time></trkpt><trkpt lat="43.4944371" lon="12.0230354"><ele>483.0</ele><time>2026-04-19T11:27:15.236Z</time></trkpt><trkpt lat="43.4944112" lon="12.0229363"><ele>492.0</ele><time>2026-04-19T11:27:16.236Z</time></trkpt><trkpt lat="43.4944796" lon="12.0227848"><ele>501.0</ele><time>2026-04-19T11:27:17.234Z</time></trkpt><trkpt lat="43.4945473" lon="12.0226327"><ele>496.8</ele><time>2026-04-19T11:27:18.233Z</time></trkpt><trkpt lat="43.4946094" lon="12.0224939"><ele>492.6</ele><time>2026-04-19T11:27:19.234Z</time></trkpt><trkpt lat="43.4946582" lon="12.0223666"><ele>488.4</ele><time>2026-04-19T11:27:20.234Z</time></trkpt><trkpt lat="43.4946902" lon="12.0222456"><ele>484.2</ele><time>2026-04-19T11:27:21.242Z</time></trkpt><trkpt lat="43.4947193" lon="12.022127"><ele>480.0</ele><time>2026-04-19T11:27:22.235Z</time></trkpt><trkpt lat="43.4947656" lon="12.0220217"><ele>480.0</ele><time>2026-04-19T11:27:23.234Z</time></trkpt><trkpt lat="43.4948297" lon="12.0219251"><ele>480.0</ele><time>2026-04-19T11:27:24.233Z</time></trkpt><trkpt lat="43.4948985" lon="12.0218214"><ele>480.0</ele><time>2026-04-19T11:27:25.236Z</time></trkpt><trkpt lat="43.4949657" lon="12.0217084"><ele>480.0</ele><time>2026-04-19T11:27:26.235Z</time></trkpt><trkpt lat="43.495026" lon="12.021586"><ele>480.0</ele><time>2026-04-19T11:27:27.234Z</time></trkpt><trkpt lat="43.4950774" lon="12.0214562"><ele>483.4</ele><time>2026-04-19T11:27:28.235Z</time></trkpt><trkpt lat="43.4951142" lon="12.0213263"><ele>486.8</ele><time>2026-04-19T11:27:29.234Z</time></trkpt><trkpt lat="43.4951349" lon="12.0212013"><ele>490.20000000000005</ele><time>2026-04-19T11:27:30.234Z</time></trkpt><trkpt lat="43.4951474" lon="12.0210794"><ele>493.6</ele><time>2026-04-19T11:27:31.236Z</time></trkpt><trkpt lat="43.4951536" lon="12.0209459"><ele>497.0</ele><time>2026-04-19T11:27:32.235Z</time></trkpt><trkpt lat="43.4951573" lon="12.0208042"><ele>498.5</ele><time>2026-04-19T11:27:33.236Z</time></trkpt><trkpt lat="43.4951659" lon="12.0206575"><ele>500.0</ele><time>2026-04-19T11:27:34.233Z</time></trkpt><trkpt lat="43.495184" lon="12.0205054"><ele>501.5</ele><time>2026-04-19T11:27:35.233Z</time></trkpt><trkpt lat="43.4952067" lon="12.0203448"><ele>503.0</ele><time>2026-04-19T11:27:36.233Z</time></trkpt><trkpt lat="43.495231" lon="12.0201902"><ele>502.99999999999994</ele><time>2026-04-19T11:27:37.235Z</time></trkpt><trkpt lat="43.4952564" lon="12.0200607"><ele>503.0</ele><time>2026-04-19T11:27:38.233Z</time></trkpt><trkpt lat="43.4952825" lon="12.0199618"><ele>503.0</ele><time>2026-04-19T11:27:39.235Z</time></trkpt><trkpt lat="43.4953143" lon="12.0198237"><ele>503.0</ele><time>2026-04-19T11:27:41.234Z</time></trkpt><trkpt lat="43.4952855" lon="12.019693"><ele>502.99999999999994</ele><time>2026-04-19T11:27:43.234Z</time></trkpt><trkpt lat="43.4952425" lon="12.0196288"><ele>503.0</ele><time>2026-04-19T11:27:44.235Z</time></trkpt><trkpt lat="43.4951877" lon="12.0195765"><ele>499.79999999999995</ele><time>2026-04-19T11:27:45.233Z</time></trkpt><trkpt lat="43.495115" lon="12.0195419"><ele>496.59999999999997</ele><time>2026-04-19T11:27:46.234Z</time></trkpt><trkpt lat="43.4950325" lon="12.0195172"><ele>493.40000000000003</ele><time>2026-04-19T11:27:47.233Z</time></trkpt><trkpt lat="43.4949543" lon="12.0195039"><ele>490.20000000000005</ele><time>2026-04-19T11:27:48.235Z</time></trkpt><trkpt lat="43.4948407" lon="12.0195389"><ele>487.0</ele><time>2026-04-19T11:27:50.236Z</time></trkpt><trkpt lat="43.4948153" lon="12.0197014"><ele>487.00000000000006</ele><time>2026-04-19T11:27:52.238Z</time></trkpt><trkpt lat="43.4948385" lon="12.0198126"><ele>487.0</ele><time>2026-04-19T11:27:53.237Z</time></trkpt><trkpt lat="43.4948632" lon="12.0199406"><ele>487.0</ele><time>2026-04-19T11:27:54.236Z</time></trkpt><trkpt lat="43.494879" lon="12.0200761"><ele>487.0</ele><time>2026-04-19T11:27:55.235Z</time></trkpt><trkpt lat="43.4948843" lon="12.0201983"><ele>487.00000000000006</ele><time>2026-04-19T11:27:56.236Z</time></trkpt><trkpt lat="43.494878" lon="12.0203042"><ele>487.0</ele><time>2026-04-19T11:27:57.235Z</time></trkpt><trkpt lat="43.4948228" lon="12.0204163"><ele>487.00000000000006</ele><time>2026-04-19T11:27:59.235Z</time></trkpt><trkpt lat="43.4947354" lon="12.0203461"><ele>487.0</ele><time>2026-04-19T11:28:01.233Z</time></trkpt><trkpt lat="43.494699" lon="12.0202663"><ele>487.0</ele><time>2026-04-19T11:28:02.233Z</time></trkpt><trkpt lat="43.4946685" lon="12.0201649"><ele>487.0</ele><time>2026-04-19T11:28:03.234Z</time></trkpt><trkpt lat="43.4946358" lon="12.0200489"><ele>487.00000000000006</ele><time>2026-04-19T11:28:04.234Z</time></trkpt><trkpt lat="43.4946013" lon="12.019928"><ele>487.0</ele><time>2026-04-19T11:28:05.234Z</time></trkpt><trkpt lat="43.4945601" lon="12.0198104"><ele>493.40000000000003</ele><time>2026-04-19T11:28:06.236Z</time></trkpt><trkpt lat="43.4945079" lon="12.0197096"><ele>499.80000000000007</ele><time>2026-04-19T11:28:07.236Z</time></trkpt><trkpt lat="43.4944361" lon="12.0196218"><ele>506.2</ele><time>2026-04-19T11:28:08.234Z</time></trkpt><trkpt lat="43.4943537" lon="12.0195455"><ele>512.6</ele><time>2026-04-19T11:28:09.235Z</time></trkpt><trkpt lat="43.4942474" lon="12.0194795"><ele>519.0</ele><time>2026-04-19T11:28:10.234Z</time></trkpt><trkpt lat="43.4941337" lon="12.0194152"><ele>519.0</ele><time>2026-04-19T11:28:11.234Z</time></trkpt><trkpt lat="43.4940243" lon="12.0193514"><ele>519.0</ele><time>2026-04-19T11:28:12.235Z</time></trkpt><trkpt lat="43.4939262" lon="12.0192961"><ele>519.0</ele><time>2026-04-19T11:28:13.235Z</time></trkpt><trkpt lat="43.4938424" lon="12.0192593"><ele>519.0</ele><time>2026-04-19T11:28:14.235Z</time></trkpt><trkpt lat="43.4937661" lon="12.0192195"><ele>519.0</ele><time>2026-04-19T11:28:15.233Z</time></trkpt><trkpt lat="43.4936911" lon="12.0191509"><ele>523.6</ele><time>2026-04-19T11:28:16.234Z</time></trkpt><trkpt lat="43.4936177" lon="12.019085"><ele>528.2</ele><time>2026-04-19T11:28:17.235Z</time></trkpt><trkpt lat="43.493551" lon="12.0189838"><ele>532.8000000000001</ele><time>2026-04-19T11:28:18.233Z</time></trkpt><trkpt lat="43.493496" lon="12.0188629"><ele>537.4</ele><time>2026-04-19T11:28:19.233Z</time></trkpt><trkpt lat="43.4934601" lon="12.0187127"><ele>542.0</ele><time>2026-04-19T11:28:20.234Z</time></trkpt><trkpt lat="43.4934352" lon="12.0185513"><ele>542.0</ele><time>2026-04-19T11:28:21.235Z</time></trkpt><trkpt lat="43.4934014" lon="12.0184236"><ele>542.0</ele><time>2026-04-19T11:28:22.233Z</time></trkpt><trkpt lat="43.4933592" lon="12.0183149"><ele>542.0</ele><time>2026-04-19T11:28:23.234Z</time></trkpt><trkpt lat="43.4933064" lon="12.0182213"><ele>542.0</ele><time>2026-04-19T11:28:24.235Z</time></trkpt><trkpt lat="43.4932389" lon="12.0181521"><ele>542.0</ele><time>2026-04-19T11:28:25.234Z</time></trkpt><trkpt lat="43.4931517" lon="12.0181043"><ele>542.8333333333333</ele><time>2026-04-19T11:28:26.235Z</time></trkpt><trkpt lat="43.4930579" lon="12.0180738"><ele>543.6666666666666</ele><time>2026-04-19T11:28:27.234Z</time></trkpt><trkpt lat="43.4929704" lon="12.018084"><ele>544.5</ele><time>2026-04-19T11:28:28.234Z</time></trkpt><trkpt lat="43.4928864" lon="12.0181072"><ele>545.3333333333334</ele><time>2026-04-19T11:28:29.235Z</time></trkpt><trkpt lat="43.4928104" lon="12.0181488"><ele>546.1666666666667</ele><time>2026-04-19T11:28:30.235Z</time></trkpt><trkpt lat="43.4927389" lon="12.0182175"><ele>547.0</ele><time>2026-04-19T11:28:31.233Z</time></trkpt><trkpt lat="43.4926658" lon="12.0182923"><ele>547.0</ele><time>2026-04-19T11:28:32.235Z</time></trkpt><trkpt lat="43.4925892" lon="12.0183482"><ele>547.0</ele><time>2026-04-19T11:28:33.235Z</time></trkpt><trkpt lat="43.4925073" lon="12.0183804"><ele>547.0</ele><time>2026-04-19T11:28:34.234Z</time></trkpt><trkpt lat="43.4924342" lon="12.0183875"><ele>547.0</ele><time>2026-04-19T11:28:35.234Z</time></trkpt><trkpt lat="43.4923558" lon="12.0183463"><ele>547.0</ele><time>2026-04-19T11:28:36.234Z</time></trkpt><trkpt lat="43.4922788" lon="12.0182641"><ele>547.0</ele><time>2026-04-19T11:28:37.234Z</time></trkpt><trkpt lat="43.492204" lon="12.0181978"><ele>547.0</ele><time>2026-04-19T11:28:38.234Z</time></trkpt><trkpt lat="43.4921318" lon="12.0181497"><ele>547.0</ele><time>2026-04-19T11:28:39.234Z</time></trkpt><trkpt lat="43.4920566" lon="12.0181167"><ele>547.0</ele><time>2026-04-19T11:28:40.234Z</time></trkpt><trkpt lat="43.4919781" lon="12.0180854"><ele>547.0</ele><time>2026-04-19T11:28:41.235Z</time></trkpt><trkpt lat="43.4918918" lon="12.0180449"><ele>547.0</ele><time>2026-04-19T11:28:42.237Z</time></trkpt><trkpt lat="43.4918095" lon="12.017983"><ele>547.0</ele><time>2026-04-19T11:28:43.235Z</time></trkpt><trkpt lat="43.4917318" lon="12.0179058"><ele>553.0</ele><time>2026-04-19T11:28:44.235Z</time></trkpt><trkpt lat="43.4916636" lon="12.0177971"><ele>559.0</ele><time>2026-04-19T11:28:45.234Z</time></trkpt><trkpt lat="43.4916095" lon="12.0176532"><ele>565.0</ele><time>2026-04-19T11:28:46.233Z</time></trkpt><trkpt lat="43.4915643" lon="12.0175043"><ele>571.0</ele><time>2026-04-19T11:28:47.235Z</time></trkpt><trkpt lat="43.491534" lon="12.0173548"><ele>572.0</ele><time>2026-04-19T11:28:48.234Z</time></trkpt><trkpt lat="43.4915182" lon="12.0172044"><ele>573.0</ele><time>2026-04-19T11:28:49.237Z</time></trkpt><trkpt lat="43.4915203" lon="12.0170496"><ele>574.0</ele><time>2026-04-19T11:28:50.234Z</time></trkpt><trkpt lat="43.4915398" lon="12.0168704"><ele>575.0</ele><time>2026-04-19T11:28:51.234Z</time></trkpt><trkpt lat="43.491563" lon="12.0166899"><ele>574.8333333333333</ele><time>2026-04-19T11:28:52.233Z</time></trkpt><trkpt lat="43.4915888" lon="12.0165317"><ele>574.6666666666666</ele><time>2026-04-19T11:28:53.238Z</time></trkpt><trkpt lat="43.4916132" lon="12.0164057"><ele>574.5</ele><time>2026-04-19T11:28:54.236Z</time></trkpt><trkpt lat="43.4916332" lon="12.0162948"><ele>574.3333333333334</ele><time>2026-04-19T11:28:55.234Z</time></trkpt><trkpt lat="43.4916406" lon="12.016199"><ele>574.1666666666667</ele><time>2026-04-19T11:28:56.236Z</time></trkpt><trkpt lat="43.4916187" lon="12.0161167"><ele>574.0</ele><time>2026-04-19T11:28:57.234Z</time></trkpt><trkpt lat="43.4915706" lon="12.0160449"><ele>574.0</ele><time>2026-04-19T11:28:58.234Z</time></trkpt><trkpt lat="43.4914977" lon="12.0160105"><ele>574.0</ele><time>2026-04-19T11:28:59.234Z</time></trkpt><trkpt lat="43.491422" lon="12.0159971"><ele>574.0</ele><time>2026-04-19T11:29:00.236Z</time></trkpt><trkpt lat="43.4913366" lon="12.0160182"><ele>574.0</ele><time>2026-04-19T11:29:01.236Z</time></trkpt><trkpt lat="43.4912425" lon="12.0160748"><ele>574.0</ele><time>2026-04-19T11:29:02.236Z</time></trkpt><trkpt lat="43.4911288" lon="12.0161951"><ele>574.3333333333334</ele><time>2026-04-19T11:29:03.234Z</time></trkpt><trkpt lat="43.4910067" lon="12.0163266"><ele>574.6666666666666</ele><time>2026-04-19T11:29:04.234Z</time></trkpt><trkpt lat="43.4908832" lon="12.0164604"><ele>575.0</ele><time>2026-04-19T11:29:05.234Z</time></trkpt><trkpt lat="43.4907675" lon="12.0165745"><ele>577.0</ele><time>2026-04-19T11:29:06.233Z</time></trkpt><trkpt lat="43.4906608" lon="12.0166715"><ele>579.0</ele><time>2026-04-19T11:29:07.235Z</time></trkpt><trkpt lat="43.490566" lon="12.0167332"><ele>581.0</ele><time>2026-04-19T11:29:08.234Z</time></trkpt><trkpt lat="43.4904716" lon="12.01677"><ele>583.0</ele><time>2026-04-19T11:29:09.234Z</time></trkpt><trkpt lat="43.4903692" lon="12.016796"><ele>585.0</ele><time>2026-04-19T11:29:10.233Z</time></trkpt><trkpt lat="43.4902587" lon="12.0168203"><ele>586.75</ele><time>2026-04-19T11:29:11.235Z</time></trkpt><trkpt lat="43.490141" lon="12.0168425"><ele>588.5</ele><time>2026-04-19T11:29:12.234Z</time></trkpt><trkpt lat="43.4900194" lon="12.0168603"><ele>590.25</ele><time>2026-04-19T11:29:13.234Z</time></trkpt><trkpt lat="43.4899055" lon="12.0168579"><ele>592.0</ele><time>2026-04-19T11:29:14.234Z</time></trkpt><trkpt lat="43.4897978" lon="12.0168197"><ele>592.0</ele><time>2026-04-19T11:29:15.233Z</time></trkpt><trkpt lat="43.4896982" lon="12.0167468"><ele>592.0</ele><time>2026-04-19T11:29:16.233Z</time></trkpt><trkpt lat="43.4896099" lon="12.0166495"><ele>592.0</ele><time>2026-04-19T11:29:17.233Z</time></trkpt><trkpt lat="43.4895332" lon="12.0165342"><ele>592.0</ele><time>2026-04-19T11:29:18.234Z</time></trkpt><trkpt lat="43.4894563" lon="12.0164135"><ele>592.5</ele><time>2026-04-19T11:29:19.234Z</time></trkpt><trkpt lat="43.4893708" lon="12.0163056"><ele>593.0</ele><time>2026-04-19T11:29:20.235Z</time></trkpt><trkpt lat="43.4892747" lon="12.0162319"><ele>593.5</ele><time>2026-04-19T11:29:21.236Z</time></trkpt><trkpt lat="43.4891693" lon="12.0161807"><ele>594.0</ele><time>2026-04-19T11:29:22.233Z</time></trkpt><trkpt lat="43.4890547" lon="12.016134"><ele>594.0</ele><time>2026-04-19T11:29:23.236Z</time></trkpt><trkpt lat="43.4889365" lon="12.0160913"><ele>594.0</ele><time>2026-04-19T11:29:24.235Z</time></trkpt><trkpt lat="43.4888189" lon="12.0160542"><ele>594.0</ele><time>2026-04-19T11:29:25.239Z</time></trkpt><trkpt lat="43.4887001" lon="12.016032"><ele>594.0</ele><time>2026-04-19T11:29:26.235Z</time></trkpt><trkpt lat="43.488578" lon="12.0160483"><ele>595.8</ele><time>2026-04-19T11:29:27.235Z</time></trkpt><trkpt lat="43.4884657" lon="12.0160871"><ele>597.5999999999999</ele><time>2026-04-19T11:29:28.235Z</time></trkpt><trkpt lat="43.4883689" lon="12.0161481"><ele>599.4</ele><time>2026-04-19T11:29:29.234Z</time></trkpt><trkpt lat="43.4882961" lon="12.0162376"><ele>601.1999999999999</ele><time>2026-04-19T11:29:30.233Z</time></trkpt><trkpt lat="43.4882301" lon="12.0163518"><ele>603.0</ele><time>2026-04-19T11:29:31.233Z</time></trkpt><trkpt lat="43.4881662" lon="12.016491"><ele>603.0</ele><time>2026-04-19T11:29:32.235Z</time></trkpt><trkpt lat="43.488098" lon="12.0166141"><ele>603.0</ele><time>2026-04-19T11:29:33.235Z</time></trkpt><trkpt lat="43.4880258" lon="12.0167058"><ele>603.0</ele><time>2026-04-19T11:29:34.235Z</time></trkpt><trkpt lat="43.4879458" lon="12.0167545"><ele>603.0</ele><time>2026-04-19T11:29:35.236Z</time></trkpt><trkpt lat="43.4878538" lon="12.0167755"><ele>603.0</ele><time>2026-04-19T11:29:36.233Z</time></trkpt><trkpt lat="43.4877369" lon="12.0167524"><ele>605.4</ele><time>2026-04-19T11:29:37.234Z</time></trkpt><trkpt lat="43.4876123" lon="12.0167174"><ele>607.8</ele><time>2026-04-19T11:29:38.235Z</time></trkpt><trkpt lat="43.4874929" lon="12.0166855"><ele>610.2</ele><time>2026-04-19T11:29:39.234Z</time></trkpt><trkpt lat="43.4874047" lon="12.0166621"><ele>612.6</ele><time>2026-04-19T11:29:40.233Z</time></trkpt><trkpt lat="43.4873145" lon="12.0166691"><ele>615.0</ele><time>2026-04-19T11:29:41.234Z</time></trkpt><trkpt lat="43.4872134" lon="12.0167115"><ele>615.0</ele><time>2026-04-19T11:29:42.233Z</time></trkpt><trkpt lat="43.4870975" lon="12.0167594"><ele>615.0</ele><time>2026-04-19T11:29:43.233Z</time></trkpt><trkpt lat="43.4869782" lon="12.016792"><ele>615.0</ele><time>2026-04-19T11:29:44.234Z</time></trkpt><trkpt lat="43.4868533" lon="12.0168255"><ele>615.0</ele><time>2026-04-19T11:29:45.234Z</time></trkpt><trkpt lat="43.4867546" lon="12.0168506"><ele>614.75</ele><time>2026-04-19T11:29:46.237Z</time></trkpt><trkpt lat="43.4866657" lon="12.0168855"><ele>614.5</ele><time>2026-04-19T11:29:47.234Z</time></trkpt><trkpt lat="43.4865577" lon="12.0168769"><ele>614.25</ele><time>2026-04-19T11:29:48.234Z</time></trkpt><trkpt lat="43.4864268" lon="12.0168293"><ele>614.0</ele><time>2026-04-19T11:29:49.234Z</time></trkpt><trkpt lat="43.4862894" lon="12.0167609"><ele>615.0</ele><time>2026-04-19T11:29:50.234Z</time></trkpt><trkpt lat="43.4861687" lon="12.0166848"><ele>616.0</ele><time>2026-04-19T11:29:51.233Z</time></trkpt><trkpt lat="43.4860695" lon="12.0166107"><ele>617.0</ele><time>2026-04-19T11:29:52.234Z</time></trkpt><trkpt lat="43.4859845" lon="12.0165563"><ele>618.0</ele><time>2026-04-19T11:29:53.234Z</time></trkpt><trkpt lat="43.4859112" lon="12.0165205"><ele>619.0</ele><time>2026-04-19T11:29:54.234Z</time></trkpt><trkpt lat="43.4858328" lon="12.0165017"><ele>619.0</ele><time>2026-04-19T11:29:55.233Z</time></trkpt><trkpt lat="43.4857509" lon="12.0165066"><ele>619.0</ele><time>2026-04-19T11:29:56.233Z</time></trkpt><trkpt lat="43.485654" lon="12.0165723"><ele>619.0</ele><time>2026-04-19T11:29:57.235Z</time></trkpt><trkpt lat="43.4855629" lon="12.0166457"><ele>619.0</ele><time>2026-04-19T11:29:58.233Z</time></trkpt><trkpt lat="43.4854842" lon="12.0167178"><ele>619.0</ele><time>2026-04-19T11:29:59.234Z</time></trkpt><trkpt lat="43.4854229" lon="12.0167956"><ele>618.4</ele><time>2026-04-19T11:30:00.235Z</time></trkpt><trkpt lat="43.4853736" lon="12.0168878"><ele>617.8</ele><time>2026-04-19T11:30:01.234Z</time></trkpt><trkpt lat="43.4853332" lon="12.0169937"><ele>617.2</ele><time>2026-04-19T11:30:02.234Z</time></trkpt><trkpt lat="43.4852957" lon="12.0171128"><ele>616.6</ele><time>2026-04-19T11:30:03.235Z</time></trkpt><trkpt lat="43.4852548" lon="12.0172281"><ele>616.0</ele><time>2026-04-19T11:30:04.233Z</time></trkpt><trkpt lat="43.4852134" lon="12.0173473"><ele>616.0</ele><time>2026-04-19T11:30:05.235Z</time></trkpt><trkpt lat="43.4851766" lon="12.0174751"><ele>616.0</ele><time>2026-04-19T11:30:06.235Z</time></trkpt><trkpt lat="43.4851702" lon="12.0176041"><ele>616.0</ele><time>2026-04-19T11:30:07.235Z</time></trkpt><trkpt lat="43.4851846" lon="12.01773"><ele>616.0</ele><time>2026-04-19T11:30:08.235Z</time></trkpt><trkpt lat="43.485215" lon="12.0178507"><ele>616.0</ele><time>2026-04-19T11:30:09.235Z</time></trkpt><trkpt lat="43.4852569" lon="12.0179652"><ele>618.0</ele><time>2026-04-19T11:30:10.235Z</time></trkpt><trkpt lat="43.4853302" lon="12.018074"><ele>620.0</ele><time>2026-04-19T11:30:11.233Z</time></trkpt><trkpt lat="43.4854035" lon="12.0181852"><ele>622.0</ele><time>2026-04-19T11:30:12.234Z</time></trkpt><trkpt lat="43.4854658" lon="12.0182929"><ele>624.0</ele><time>2026-04-19T11:30:13.234Z</time></trkpt><trkpt lat="43.485522" lon="12.0183841"><ele>626.0</ele><time>2026-04-19T11:30:14.234Z</time></trkpt><trkpt lat="43.485556" lon="12.0184667"><ele>627.8</ele><time>2026-04-19T11:30:15.233Z</time></trkpt><trkpt lat="43.4855506" lon="12.0186035"><ele>629.6</ele><time>2026-04-19T11:30:17.234Z</time></trkpt><trkpt lat="43.4854519" lon="12.0186878"><ele>631.4</ele><time>2026-04-19T11:30:19.234Z</time></trkpt><trkpt lat="43.4853682" lon="12.0187176"><ele>633.2</ele><time>2026-04-19T11:30:20.234Z</time></trkpt><trkpt lat="43.4852832" lon="12.0187519"><ele>635.0</ele><time>2026-04-19T11:30:21.234Z</time></trkpt><trkpt lat="43.4852066" lon="12.0187899"><ele>635.0</ele><time>2026-04-19T11:30:22.234Z</time></trkpt><trkpt lat="43.4851348" lon="12.0188408"><ele>635.0</ele><time>2026-04-19T11:30:23.234Z</time></trkpt><trkpt lat="43.4850751" lon="12.0189066"><ele>635.0</ele><time>2026-04-19T11:30:24.234Z</time></trkpt><trkpt lat="43.4850253" lon="12.0189831"><ele>635.0</ele><time>2026-04-19T11:30:25.233Z</time></trkpt><trkpt lat="43.4849837" lon="12.0190745"><ele>635.0</ele><time>2026-04-19T11:30:26.233Z</time></trkpt><trkpt lat="43.484956" lon="12.0191867"><ele>635.0</ele><time>2026-04-19T11:30:27.234Z</time></trkpt><trkpt lat="43.4849376" lon="12.0193109"><ele>638.0</ele><time>2026-04-19T11:30:28.233Z</time></trkpt><trkpt lat="43.4849086" lon="12.0194493"><ele>641.0</ele><time>2026-04-19T11:30:29.233Z</time></trkpt><trkpt lat="43.4848789" lon="12.0196105"><ele>644.0</ele><time>2026-04-19T11:30:30.234Z</time></trkpt><trkpt lat="43.4848544" lon="12.0197694"><ele>647.0</ele><time>2026-04-19T11:30:31.235Z</time></trkpt><trkpt lat="43.4848362" lon="12.0199057"><ele>650.0</ele><time>2026-04-19T11:30:32.235Z</time></trkpt><trkpt lat="43.4848123" lon="12.0200268"><ele>653.6</ele><time>2026-04-19T11:30:33.235Z</time></trkpt><trkpt lat="43.4847669" lon="12.0201414"><ele>657.2</ele><time>2026-04-19T11:30:34.235Z</time></trkpt><trkpt lat="43.4847013" lon="12.0202501"><ele>660.8</ele><time>2026-04-19T11:30:35.234Z</time></trkpt><trkpt lat="43.4846258" lon="12.0203414"><ele>664.4</ele><time>2026-04-19T11:30:36.235Z</time></trkpt><trkpt lat="43.4845663" lon="12.0204159"><ele>668.0</ele><time>2026-04-19T11:30:37.234Z</time></trkpt><trkpt lat="43.4844733" lon="12.0204684"><ele>668.0</ele><time>2026-04-19T11:30:39.233Z</time></trkpt><trkpt lat="43.4843913" lon="12.0203286"><ele>668.0</ele><time>2026-04-19T11:30:41.233Z</time></trkpt><trkpt lat="43.4843624" lon="12.0202171"><ele>668.0</ele><time>2026-04-19T11:30:42.234Z</time></trkpt><trkpt lat="43.4843308" lon="12.0201081"><ele>668.0</ele><time>2026-04-19T11:30:43.234Z</time></trkpt><trkpt lat="43.4842775" lon="12.0200101"><ele>668.0</ele><time>2026-04-19T11:30:44.234Z</time></trkpt><trkpt lat="43.4841938" lon="12.0198969"><ele>663.75</ele><time>2026-04-19T11:30:45.234Z</time></trkpt><trkpt lat="43.4841033" lon="12.01978"><ele>659.5</ele><time>2026-04-19T11:30:46.233Z</time></trkpt><trkpt lat="43.4840159" lon="12.0196833"><ele>655.25</ele><time>2026-04-19T11:30:47.234Z</time></trkpt><trkpt lat="43.4839154" lon="12.0196175"><ele>651.0</ele><time>2026-04-19T11:30:48.233Z</time></trkpt><trkpt lat="43.4837968" lon="12.0195812"><ele>654.5999999999999</ele><time>2026-04-19T11:30:49.233Z</time></trkpt><trkpt lat="43.483666" lon="12.0195681"><ele>658.2</ele><time>2026-04-19T11:30:50.233Z</time></trkpt><trkpt lat="43.4835372" lon="12.0195863"><ele>661.8</ele><time>2026-04-19T11:30:51.234Z</time></trkpt><trkpt lat="43.4834422" lon="12.0196017"><ele>665.4000000000001</ele><time>2026-04-19T11:30:52.234Z</time></trkpt><trkpt lat="43.4833664" lon="12.0195934"><ele>669.0</ele><time>2026-04-19T11:30:53.234Z</time></trkpt><trkpt lat="43.4833004" lon="12.0195551"><ele>669.0</ele><time>2026-04-19T11:30:54.233Z</time></trkpt><trkpt lat="43.4832427" lon="12.0194626"><ele>669.0</ele><time>2026-04-19T11:30:55.234Z</time></trkpt><trkpt lat="43.4831909" lon="12.0193263"><ele>669.0</ele><time>2026-04-19T11:30:56.235Z</time></trkpt><trkpt lat="43.48314" lon="12.0191613"><ele>669.0</ele><time>2026-04-19T11:30:57.234Z</time></trkpt><trkpt lat="43.4830994" lon="12.0189809"><ele>669.5</ele><time>2026-04-19T11:30:58.234Z</time></trkpt><trkpt lat="43.4830644" lon="12.0187968"><ele>670.0</ele><time>2026-04-19T11:30:59.236Z</time></trkpt><trkpt lat="43.4830223" lon="12.018616"><ele>670.5</ele><time>2026-04-19T11:31:00.235Z</time></trkpt><trkpt lat="43.4829814" lon="12.0184451"><ele>671.0</ele><time>2026-04-19T11:31:01.236Z</time></trkpt><trkpt lat="43.4829428" lon="12.0182907"><ele>672.0</ele><time>2026-04-19T11:31:02.236Z</time></trkpt><trkpt lat="43.482904" lon="12.0181556"><ele>673.0</ele><time>2026-04-19T11:31:03.236Z</time></trkpt><trkpt lat="43.4828716" lon="12.0180383"><ele>674.0</ele><time>2026-04-19T11:31:04.235Z</time></trkpt><trkpt lat="43.4828454" lon="12.0179323"><ele>675.0</ele><time>2026-04-19T11:31:05.236Z</time></trkpt><trkpt lat="43.4828241" lon="12.0178444"><ele>676.0</ele><time>2026-04-19T11:31:06.235Z</time></trkpt><trkpt lat="43.4827998" lon="12.0177293"><ele>677.0</ele><time>2026-04-19T11:31:08.236Z</time></trkpt><trkpt lat="43.4828014" lon="12.0176325"><ele>677.0</ele><time>2026-04-19T11:31:11.235Z</time></trkpt></trkseg></trk></gpx>